﻿<?xml version="1.0" encoding="utf-8"?><gpx creator="Garmin Desktop App" version="1.1" xsi:schemaLocation="http://www.topografix.com/GPX/1/1 http://www.topografix.com/GPX/1/1/gpx.xsd http://www.garmin.com/xmlschemas/WaypointExtension/v1 http://www8.garmin.com/xmlschemas/WaypointExtensionv1.xsd http://www.garmin.com/xmlschemas/TrackPointExtension/v1 http://www.garmin.com/xmlschemas/TrackPointExtensionv1.xsd http://www.garmin.com/xmlschemas/GpxExtensions/v3 http://www8.garmin.com/xmlschemas/GpxExtensionsv3.xsd http://www.garmin.com/xmlschemas/ActivityExtension/v1 http://www8.garmin.com/xmlschemas/ActivityExtensionv1.xsd http://www.garmin.com/xmlschemas/AdventuresExtensions/v1 http://www8.garmin.com/xmlschemas/AdventuresExtensionv1.xsd http://www.garmin.com/xmlschemas/PressureExtension/v1 http://www.garmin.com/xmlschemas/PressureExtensionv1.xsd http://www.garmin.com/xmlschemas/TripExtensions/v1 http://www.garmin.com/xmlschemas/TripExtensionsv1.xsd http://www.garmin.com/xmlschemas/TripMetaDataExtensions/v1 http://www.garmin.com/xmlschemas/TripMetaDataExtensionsv1.xsd http://www.garmin.com/xmlschemas/ViaPointTransportationModeExtensions/v1 http://www.garmin.com/xmlschemas/ViaPointTransportationModeExtensionsv1.xsd http://www.garmin.com/xmlschemas/CreationTimeExtension/v1 http://www.garmin.com/xmlschemas/CreationTimeExtensionsv1.xsd http://www.garmin.com/xmlschemas/AccelerationExtension/v1 http://www.garmin.com/xmlschemas/AccelerationExtensionv1.xsd http://www.garmin.com/xmlschemas/PowerExtension/v1 http://www.garmin.com/xmlschemas/PowerExtensionv1.xsd http://www.garmin.com/xmlschemas/VideoExtension/v1 http://www.garmin.com/xmlschemas/VideoExtensionv1.xsd" xmlns="http://www.topografix.com/GPX/1/1" xmlns:xsi="http://www.w3.org/2001/XMLSchema-instance" xmlns:wptx1="http://www.garmin.com/xmlschemas/WaypointExtension/v1" xmlns:gpxtrx="http://www.garmin.com/xmlschemas/GpxExtensions/v3" xmlns:gpxtpx="http://www.garmin.com/xmlschemas/TrackPointExtension/v1" xmlns:gpxx="http://www.garmin.com/xmlschemas/GpxExtensions/v3" xmlns:trp="http://www.garmin.com/xmlschemas/TripExtensions/v1" xmlns:adv="http://www.garmin.com/xmlschemas/AdventuresExtensions/v1" xmlns:prs="http://www.garmin.com/xmlschemas/PressureExtension/v1" xmlns:tmd="http://www.garmin.com/xmlschemas/TripMetaDataExtensions/v1" xmlns:vptm="http://www.garmin.com/xmlschemas/ViaPointTransportationModeExtensions/v1" xmlns:ctx="http://www.garmin.com/xmlschemas/CreationTimeExtension/v1" xmlns:gpxacc="http://www.garmin.com/xmlschemas/AccelerationExtension/v1" xmlns:gpxpx="http://www.garmin.com/xmlschemas/PowerExtension/v1" xmlns:vidx1="http://www.garmin.com/xmlschemas/VideoExtension/v1">

  <metadata>
    <link href="http://www.garmin.com">
      <text>Garmin International</text>
    </link>
    <time>2023-09-03T18:34:53Z</time>
    <bounds maxlat="55.101585974916816" maxlon="1.867991024628282" minlat="50.921523990109563" minlon="-4.765362991020083" />
  </metadata>

  <trk>
    <name>Track 230903</name>
    <extensions>
      <gpxx:TrackExtension>
        <gpxx:DisplayColor>DarkGray</gpxx:DisplayColor>
      </gpxx:TrackExtension>
    </extensions>
    <trkseg>
      <trkpt lat="55.098471008241177" lon="-4.763938989490271">
        <ele>74.159999999999997</ele>
        <time>2023-09-03T07:41:33Z</time>
      </trkpt>
      <trkpt lat="55.098470002412796" lon="-4.76393798366189">
        <ele>74.159999999999997</ele>
        <time>2023-09-03T07:42:20Z</time>
      </trkpt>
      <trkpt lat="55.098471008241177" lon="-4.763931026682258">
        <ele>74.159999999999997</ele>
        <time>2023-09-03T07:43:03Z</time>
      </trkpt>
      <trkpt lat="55.098468996584415" lon="-4.763924991711974">
        <ele>73.680000000000007</ele>
        <time>2023-09-03T07:43:44Z</time>
      </trkpt>
      <trkpt lat="55.098465979099274" lon="-4.763929015025497">
        <ele>73.680000000000007</ele>
        <time>2023-09-03T07:44:22Z</time>
      </trkpt>
      <trkpt lat="55.098452987149358" lon="-4.763927003368735">
        <ele>73.200000000000003</ele>
        <time>2023-09-03T07:45:14Z</time>
      </trkpt>
      <trkpt lat="55.098450975492597" lon="-4.763932032510638">
        <ele>73.200000000000003</ele>
        <time>2023-09-03T07:45:56Z</time>
      </trkpt>
      <trkpt lat="55.098449969664216" lon="-4.763930020853877">
        <ele>72.719999999999999</ele>
        <time>2023-09-03T07:46:42Z</time>
      </trkpt>
      <trkpt lat="55.0984560046345" lon="-4.763930020853877">
        <ele>73.200000000000003</ele>
        <time>2023-09-03T07:47:12Z</time>
      </trkpt>
      <trkpt lat="55.098645016551018" lon="-4.763584015890956">
        <ele>71.269999999999996</ele>
        <time>2023-09-03T07:47:26Z</time>
      </trkpt>
      <trkpt lat="55.098681980744004" lon="-4.763628020882607">
        <ele>69.349999999999994</ele>
        <time>2023-09-03T07:47:32Z</time>
      </trkpt>
      <trkpt lat="55.098707964643836" lon="-4.763660961762071">
        <ele>68.870000000000005</ele>
        <time>2023-09-03T07:47:33Z</time>
      </trkpt>
      <trkpt lat="55.098745012655854" lon="-4.763704966753721">
        <ele>68.870000000000005</ele>
        <time>2023-09-03T07:47:34Z</time>
      </trkpt>
      <trkpt lat="55.099114989861846" lon="-4.764154991135001">
        <ele>66.950000000000003</ele>
        <time>2023-09-03T07:47:41Z</time>
      </trkpt>
      <trkpt lat="55.099366027861834" lon="-4.764373004436493">
        <ele>65.510000000000005</ele>
        <time>2023-09-03T07:47:46Z</time>
      </trkpt>
      <trkpt lat="55.099414978176355" lon="-4.764402005821466">
        <ele>65.510000000000005</ele>
        <time>2023-09-03T07:47:47Z</time>
      </trkpt>
      <trkpt lat="55.099472980946302" lon="-4.764436036348343">
        <ele>65.510000000000005</ele>
        <time>2023-09-03T07:47:48Z</time>
      </trkpt>
      <trkpt lat="55.099777998402715" lon="-4.764618007466197">
        <ele>64.069999999999993</ele>
        <time>2023-09-03T07:47:53Z</time>
      </trkpt>
      <trkpt lat="55.100405970588326" lon="-4.765117987990379">
        <ele>63.100000000000001</ele>
        <time>2023-09-03T07:48:02Z</time>
      </trkpt>
      <trkpt lat="55.100656002759933" lon="-4.765279004350305">
        <ele>65.510000000000005</ele>
        <time>2023-09-03T07:48:06Z</time>
      </trkpt>
      <trkpt lat="55.10069296695292" lon="-4.765298031270504">
        <ele>65.989999999999995</ele>
        <time>2023-09-03T07:48:07Z</time>
      </trkpt>
      <trkpt lat="55.100752981379628" lon="-4.765329966321588">
        <ele>67.909999999999997</ele>
        <time>2023-09-03T07:48:13Z</time>
      </trkpt>
      <trkpt lat="55.100814001634717" lon="-4.765362991020083">
        <ele>68.390000000000001</ele>
        <time>2023-09-03T07:48:14Z</time>
      </trkpt>
      <trkpt lat="55.10081903077662" lon="-4.765317980200052">
        <ele>68.870000000000005</ele>
        <time>2023-09-03T07:48:15Z</time>
      </trkpt>
      <trkpt lat="55.100833028554916" lon="-4.765213960781694">
        <ele>68.870000000000005</ele>
        <time>2023-09-03T07:48:16Z</time>
      </trkpt>
      <trkpt lat="55.100849037989974" lon="-4.765087980777025">
        <ele>69.349999999999994</ele>
        <time>2023-09-03T07:48:17Z</time>
      </trkpt>
      <trkpt lat="55.100867981091142" lon="-4.764943979680538">
        <ele>69.349999999999994</ele>
        <time>2023-09-03T07:48:18Z</time>
      </trkpt>
      <trkpt lat="55.100902011618018" lon="-4.764805007725954">
        <ele>69.829999999999998</ele>
        <time>2023-09-03T07:48:19Z</time>
      </trkpt>
      <trkpt lat="55.100955991074443" lon="-4.764662012457848">
        <ele>69.829999999999998</ele>
        <time>2023-09-03T07:48:20Z</time>
      </trkpt>
      <trkpt lat="55.101011982187629" lon="-4.764511976391077">
        <ele>69.829999999999998</ele>
        <time>2023-09-03T07:48:21Z</time>
      </trkpt>
      <trkpt lat="55.101414984092116" lon="-4.763387963175774">
        <ele>67.430000000000007</ele>
        <time>2023-09-03T07:48:29Z</time>
      </trkpt>
      <trkpt lat="55.101458989083767" lon="-4.763300037011504">
        <ele>67.430000000000007</ele>
        <time>2023-09-03T07:48:30Z</time>
      </trkpt>
      <trkpt lat="55.101502994075418" lon="-4.763212027028203">
        <ele>67.430000000000007</ele>
        <time>2023-09-03T07:48:31Z</time>
      </trkpt>
      <trkpt lat="55.101556973531842" lon="-4.763102978467941">
        <ele>66.950000000000003</ele>
        <time>2023-09-03T07:48:32Z</time>
      </trkpt>
      <trkpt lat="55.10157398879528" lon="-4.762983033433557">
        <ele>67.430000000000007</ele>
        <time>2023-09-03T07:48:33Z</time>
      </trkpt>
      <trkpt lat="55.101585974916816" lon="-4.762852024286985">
        <ele>67.909999999999997</ele>
        <time>2023-09-03T07:48:34Z</time>
      </trkpt>
      <trkpt lat="55.101556973531842" lon="-4.762749010697007">
        <ele>68.390000000000001</ele>
        <time>2023-09-03T07:48:35Z</time>
      </trkpt>
      <trkpt lat="55.101522020995617" lon="-4.762621019035578">
        <ele>68.390000000000001</ele>
        <time>2023-09-03T07:48:36Z</time>
      </trkpt>
      <trkpt lat="55.101483967155218" lon="-4.762484980747104">
        <ele>69.349999999999994</ele>
        <time>2023-09-03T07:48:37Z</time>
      </trkpt>
      <trkpt lat="55.101412972435355" lon="-4.762400994077325">
        <ele>69.349999999999994</ele>
        <time>2023-09-03T07:48:38Z</time>
      </trkpt>
      <trkpt lat="55.101320017129183" lon="-4.762307032942772">
        <ele>69.349999999999994</ele>
        <time>2023-09-03T07:48:39Z</time>
      </trkpt>
      <trkpt lat="55.101212980225682" lon="-4.7622399777174">
        <ele>69.349999999999994</ele>
        <time>2023-09-03T07:48:40Z</time>
      </trkpt>
      <trkpt lat="55.101085994392633" lon="-4.762181974947453">
        <ele>69.349999999999994</ele>
        <time>2023-09-03T07:48:41Z</time>
      </trkpt>
      <trkpt lat="55.100954985246062" lon="-4.762121960520744">
        <ele>69.349999999999994</ele>
        <time>2023-09-03T07:48:42Z</time>
      </trkpt>
      <trkpt lat="55.10082196444273" lon="-4.762061024084687">
        <ele>69.349999999999994</ele>
        <time>2023-09-03T07:48:43Z</time>
      </trkpt>
      <trkpt lat="55.100534968078136" lon="-4.761930014938116">
        <ele>69.829999999999998</ele>
        <time>2023-09-03T07:48:45Z</time>
      </trkpt>
      <trkpt lat="55.099506005644798" lon="-4.760846989229322">
        <ele>70.790000000000006</ele>
        <time>2023-09-03T07:48:53Z</time>
      </trkpt>
      <trkpt lat="55.099413972347975" lon="-4.760640962049365">
        <ele>71.269999999999996</ele>
        <time>2023-09-03T07:48:54Z</time>
      </trkpt>
      <trkpt lat="55.099327974021435" lon="-4.760452033951879">
        <ele>71.269999999999996</ele>
        <time>2023-09-03T07:48:55Z</time>
      </trkpt>
      <trkpt lat="55.099258990958333" lon="-4.760256987065077">
        <ele>71.760000000000005</ele>
        <time>2023-09-03T07:48:56Z</time>
      </trkpt>
      <trkpt lat="55.099228983744979" lon="-4.760052971541882">
        <ele>72.239999999999995</ele>
        <time>2023-09-03T07:48:57Z</time>
      </trkpt>
      <trkpt lat="55.099200988188386" lon="-4.759863037616015">
        <ele>72.239999999999995</ele>
        <time>2023-09-03T07:48:58Z</time>
      </trkpt>
      <trkpt lat="55.09918799623847" lon="-4.759628009051085">
        <ele>72.239999999999995</ele>
        <time>2023-09-03T07:48:59Z</time>
      </trkpt>
      <trkpt lat="55.099198976531625" lon="-4.759401027113199">
        <ele>72.239999999999995</ele>
        <time>2023-09-03T07:49:00Z</time>
      </trkpt>
      <trkpt lat="55.099220015108585" lon="-4.758667023852468">
        <ele>72.239999999999995</ele>
        <time>2023-09-03T07:49:03Z</time>
      </trkpt>
      <trkpt lat="55.099211968481541" lon="-4.758410034701228">
        <ele>72.239999999999995</ele>
        <time>2023-09-03T07:49:04Z</time>
      </trkpt>
      <trkpt lat="55.099195959046483" lon="-4.758165031671524">
        <ele>72.239999999999995</ele>
        <time>2023-09-03T07:49:05Z</time>
      </trkpt>
      <trkpt lat="55.099133010953665" lon="-4.757923968136311">
        <ele>72.239999999999995</ele>
        <time>2023-09-03T07:49:06Z</time>
      </trkpt>
      <trkpt lat="55.099068973213434" lon="-4.75768500007689">
        <ele>72.719999999999999</ele>
        <time>2023-09-03T07:49:07Z</time>
      </trkpt>
      <trkpt lat="55.098984986543655" lon="-4.757452988997102">
        <ele>73.200000000000003</ele>
        <time>2023-09-03T07:49:08Z</time>
      </trkpt>
      <trkpt lat="55.09873797185719" lon="-4.756771037355065">
        <ele>74.640000000000001</ele>
        <time>2023-09-03T07:49:11Z</time>
      </trkpt>
      <trkpt lat="55.09867100045085" lon="-4.756527040153742">
        <ele>75.120000000000005</ele>
        <time>2023-09-03T07:49:12Z</time>
      </trkpt>
      <trkpt lat="55.098477965220809" lon="-4.755783984437585">
        <ele>76.560000000000002</ele>
        <time>2023-09-03T07:49:15Z</time>
      </trkpt>
      <trkpt lat="55.098381992429495" lon="-4.755607964470983">
        <ele>77.040000000000006</ele>
        <time>2023-09-03T07:49:16Z</time>
      </trkpt>
      <trkpt lat="55.09828400798142" lon="-4.755435967817903">
        <ele>77.519999999999996</ele>
        <time>2023-09-03T07:49:17Z</time>
      </trkpt>
      <trkpt lat="55.098191974684596" lon="-4.755273023620248">
        <ele>78</ele>
        <time>2023-09-03T07:49:18Z</time>
      </trkpt>
      <trkpt lat="55.098101031035185" lon="-4.755093986168504">
        <ele>78.480000000000004</ele>
        <time>2023-09-03T07:49:19Z</time>
      </trkpt>
      <trkpt lat="55.098046967759728" lon="-4.754885025322437">
        <ele>78.969999999999999</ele>
        <time>2023-09-03T07:49:20Z</time>
      </trkpt>
      <trkpt lat="55.097990976646543" lon="-4.754670029506087">
        <ele>79.930000000000007</ele>
        <time>2023-09-03T07:49:21Z</time>
      </trkpt>
      <trkpt lat="55.097957029938698" lon="-4.754421003162861">
        <ele>80.409999999999997</ele>
        <time>2023-09-03T07:49:22Z</time>
      </trkpt>
      <trkpt lat="55.09787698276341" lon="-4.752702964469791">
        <ele>85.209999999999994</ele>
        <time>2023-09-03T07:49:29Z</time>
      </trkpt>
      <trkpt lat="55.097846975550056" lon="-4.752242965623736">
        <ele>85.689999999999998</ele>
        <time>2023-09-03T07:49:31Z</time>
      </trkpt>
      <trkpt lat="55.097817974165082" lon="-4.752002991735935">
        <ele>85.689999999999998</ele>
        <time>2023-09-03T07:49:32Z</time>
      </trkpt>
      <trkpt lat="55.097684031352401" lon="-4.751233030110598">
        <ele>83.769999999999996</ele>
        <time>2023-09-03T07:49:35Z</time>
      </trkpt>
      <trkpt lat="55.097641032189131" lon="-4.750980986282229">
        <ele>82.810000000000002</ele>
        <time>2023-09-03T07:49:36Z</time>
      </trkpt>
      <trkpt lat="55.097111966460943" lon="-4.748735977336764">
        <ele>76.079999999999998</ele>
        <time>2023-09-03T07:49:45Z</time>
      </trkpt>
      <trkpt lat="55.096412999555469" lon="-4.746966976672411">
        <ele>74.159999999999997</ele>
        <time>2023-09-03T07:49:53Z</time>
      </trkpt>
      <trkpt lat="55.09632901288569" lon="-4.746716022491455">
        <ele>74.640000000000001</ele>
        <time>2023-09-03T07:49:54Z</time>
      </trkpt>
      <trkpt lat="55.096105970442295" lon="-4.745703991502523">
        <ele>76.560000000000002</ele>
        <time>2023-09-03T07:49:58Z</time>
      </trkpt>
      <trkpt lat="55.096092978492379" lon="-4.745448008179665">
        <ele>77.040000000000006</ele>
        <time>2023-09-03T07:49:59Z</time>
      </trkpt>
      <trkpt lat="55.096092978492379" lon="-4.745180038735271">
        <ele>78</ele>
        <time>2023-09-03T07:50:00Z</time>
      </trkpt>
      <trkpt lat="55.09609398432076" lon="-4.744904022663832">
        <ele>78.480000000000004</ele>
        <time>2023-09-03T07:50:01Z</time>
      </trkpt>
      <trkpt lat="55.096098007634282" lon="-4.744617026299238">
        <ele>78.969999999999999</ele>
        <time>2023-09-03T07:50:02Z</time>
      </trkpt>
      <trkpt lat="55.096107982099056" lon="-4.744027024134994">
        <ele>78.969999999999999</ele>
        <time>2023-09-03T07:50:04Z</time>
      </trkpt>
      <trkpt lat="55.095966998487711" lon="-4.741920987144113">
        <ele>81.370000000000005</ele>
        <time>2023-09-03T07:50:11Z</time>
      </trkpt>
      <trkpt lat="55.095517979934812" lon="-4.738700995221734">
        <ele>91.459999999999994</ele>
        <time>2023-09-03T07:50:22Z</time>
      </trkpt>
      <trkpt lat="55.095129981637001" lon="-4.736678022891283">
        <ele>100.59999999999999</ele>
        <time>2023-09-03T07:50:29Z</time>
      </trkpt>
      <trkpt lat="55.095031997188926" lon="-4.736418016254902">
        <ele>101.56</ele>
        <time>2023-09-03T07:50:30Z</time>
      </trkpt>
      <trkpt lat="55.094908028841019" lon="-4.73617896437645">
        <ele>102.52</ele>
        <time>2023-09-03T07:50:31Z</time>
      </trkpt>
      <trkpt lat="55.09353700093925" lon="-4.734088014811277">
        <ele>111.17</ele>
        <time>2023-09-03T07:50:41Z</time>
      </trkpt>
      <trkpt lat="55.093334997072816" lon="-4.733709990978241">
        <ele>112.61</ele>
        <time>2023-09-03T07:50:43Z</time>
      </trkpt>
      <trkpt lat="55.093259979039431" lon="-4.733519973233342">
        <ele>113.09</ele>
        <time>2023-09-03T07:50:44Z</time>
      </trkpt>
      <trkpt lat="55.093227038159966" lon="-4.733291985467076">
        <ele>114.05</ele>
        <time>2023-09-03T07:50:45Z</time>
      </trkpt>
      <trkpt lat="55.09319300763309" lon="-4.733057962730527">
        <ele>114.53</ele>
        <time>2023-09-03T07:50:46Z</time>
      </trkpt>
      <trkpt lat="55.093153025954962" lon="-4.732789993286133">
        <ele>115.01000000000001</ele>
        <time>2023-09-03T07:50:47Z</time>
      </trkpt>
      <trkpt lat="55.093151014298201" lon="-4.732521018013358">
        <ele>115.98</ele>
        <time>2023-09-03T07:50:48Z</time>
      </trkpt>
      <trkpt lat="55.093077002093196" lon="-4.729831013828516">
        <ele>121.73999999999999</ele>
        <time>2023-09-03T07:50:56Z</time>
      </trkpt>
      <trkpt lat="55.093011036515236" lon="-4.728053966537118">
        <ele>127.03</ele>
        <time>2023-09-03T07:51:02Z</time>
      </trkpt>
      <trkpt lat="55.093044983223081" lon="-4.726522006094456">
        <ele>129.43000000000001</ele>
        <time>2023-09-03T07:51:07Z</time>
      </trkpt>
      <trkpt lat="55.093028973788023" lon="-4.726210031658411">
        <ele>129.43000000000001</ele>
        <time>2023-09-03T07:51:08Z</time>
      </trkpt>
      <trkpt lat="55.092969965189695" lon="-4.725910965353251">
        <ele>129.43000000000001</ele>
        <time>2023-09-03T07:51:09Z</time>
      </trkpt>
      <trkpt lat="55.092894025146961" lon="-4.725619023665786">
        <ele>129.91999999999999</ele>
        <time>2023-09-03T07:51:10Z</time>
      </trkpt>
      <trkpt lat="55.092816995456815" lon="-4.725324986502528">
        <ele>129.91999999999999</ele>
        <time>2023-09-03T07:51:11Z</time>
      </trkpt>
      <trkpt lat="55.092705013230443" lon="-4.725064979866147">
        <ele>130.40000000000001</ele>
        <time>2023-09-03T07:51:12Z</time>
      </trkpt>
      <trkpt lat="55.092574004083872" lon="-4.724827017635107">
        <ele>130.88</ele>
        <time>2023-09-03T07:51:13Z</time>
      </trkpt>
      <trkpt lat="55.092442994937301" lon="-4.724590983241797">
        <ele>131.84</ele>
        <time>2023-09-03T07:51:14Z</time>
      </trkpt>
      <trkpt lat="55.091616036370397" lon="-4.722994985058904">
        <ele>138.56999999999999</ele>
        <time>2023-09-03T07:51:21Z</time>
      </trkpt>
      <trkpt lat="55.091520985588431" lon="-4.722757022827864">
        <ele>139.53</ele>
        <time>2023-09-03T07:51:22Z</time>
      </trkpt>
      <trkpt lat="55.091488966718316" lon="-4.722468014806509">
        <ele>140.97</ele>
        <time>2023-09-03T07:51:23Z</time>
      </trkpt>
      <trkpt lat="55.091458037495613" lon="-4.722189987078309">
        <ele>141.44999999999999</ele>
        <time>2023-09-03T07:51:24Z</time>
      </trkpt>
      <trkpt lat="55.091479998081923" lon="-4.721901984885335">
        <ele>142.41</ele>
        <time>2023-09-03T07:51:25Z</time>
      </trkpt>
      <trkpt lat="55.091503970324993" lon="-4.721587998792529">
        <ele>143.37</ele>
        <time>2023-09-03T07:51:26Z</time>
      </trkpt>
      <trkpt lat="55.091532971709967" lon="-4.719021040946245">
        <ele>147.22</ele>
        <time>2023-09-03T07:51:33Z</time>
      </trkpt>
      <trkpt lat="55.09142903611064" lon="-4.717953018844128">
        <ele>148.66</ele>
        <time>2023-09-03T07:51:36Z</time>
      </trkpt>
      <trkpt lat="55.091349994763732" lon="-4.717667028307915">
        <ele>149.13999999999999</ele>
        <time>2023-09-03T07:51:37Z</time>
      </trkpt>
      <trkpt lat="55.091265002265573" lon="-4.717362010851502">
        <ele>150.09999999999999</ele>
        <time>2023-09-03T07:51:38Z</time>
      </trkpt>
      <trkpt lat="55.091142961755395" lon="-4.717118013650179">
        <ele>150.58000000000001</ele>
        <time>2023-09-03T07:51:39Z</time>
      </trkpt>
      <trkpt lat="55.091012958437204" lon="-4.716859012842178">
        <ele>151.06</ele>
        <time>2023-09-03T07:51:40Z</time>
      </trkpt>
      <trkpt lat="55.090156998485327" lon="-4.714836962521076">
        <ele>154.43000000000001</ele>
        <time>2023-09-03T07:51:47Z</time>
      </trkpt>
      <trkpt lat="55.090067982673645" lon="-4.714524988085032">
        <ele>154.91</ele>
        <time>2023-09-03T07:51:48Z</time>
      </trkpt>
      <trkpt lat="55.089978966861963" lon="-4.714213013648987">
        <ele>154.91</ele>
        <time>2023-09-03T07:51:49Z</time>
      </trkpt>
      <trkpt lat="55.089676966890693" lon="-4.713155971840024">
        <ele>154.91</ele>
        <time>2023-09-03T07:51:53Z</time>
      </trkpt>
      <trkpt lat="55.08966900408268" lon="-4.712877022102475">
        <ele>154.91</ele>
        <time>2023-09-03T07:51:54Z</time>
      </trkpt>
      <trkpt lat="55.089661963284016" lon="-4.712623972445726">
        <ele>154.43000000000001</ele>
        <time>2023-09-03T07:51:55Z</time>
      </trkpt>
      <trkpt lat="55.089659029617906" lon="-4.712363965809345">
        <ele>154.43000000000001</ele>
        <time>2023-09-03T07:51:56Z</time>
      </trkpt>
      <trkpt lat="55.089706974104047" lon="-4.712092978879809">
        <ele>154.43000000000001</ele>
        <time>2023-09-03T07:51:57Z</time>
      </trkpt>
      <trkpt lat="55.0897560082376" lon="-4.711816040799022">
        <ele>154.43000000000001</ele>
        <time>2023-09-03T07:51:58Z</time>
      </trkpt>
      <trkpt lat="55.089806970208883" lon="-4.711525021120906">
        <ele>154.43000000000001</ele>
        <time>2023-09-03T07:51:59Z</time>
      </trkpt>
      <trkpt lat="55.090150963515043" lon="-4.709674967452884">
        <ele>157.31</ele>
        <time>2023-09-03T07:52:05Z</time>
      </trkpt>
      <trkpt lat="55.090449023991823" lon="-4.70841801725328">
        <ele>159.72</ele>
        <time>2023-09-03T07:52:09Z</time>
      </trkpt>
      <trkpt lat="55.090493028983474" lon="-4.708077041432262">
        <ele>160.19999999999999</ele>
        <time>2023-09-03T07:52:10Z</time>
      </trkpt>
      <trkpt lat="55.091028967872262" lon="-4.704552032053471">
        <ele>163.56</ele>
        <time>2023-09-03T07:52:20Z</time>
      </trkpt>
      <trkpt lat="55.091534983366728" lon="-4.702137038111687">
        <ele>166.93000000000001</ele>
        <time>2023-09-03T07:52:27Z</time>
      </trkpt>
      <trkpt lat="55.091589968651533" lon="-4.70177804119885">
        <ele>167.41</ele>
        <time>2023-09-03T07:52:28Z</time>
      </trkpt>
      <trkpt lat="55.091642020270228" lon="-4.70143798738718">
        <ele>167.41</ele>
        <time>2023-09-03T07:52:29Z</time>
      </trkpt>
      <trkpt lat="55.091688958927989" lon="-4.701133975759149">
        <ele>167.41</ele>
        <time>2023-09-03T07:52:30Z</time>
      </trkpt>
      <trkpt lat="55.09173296391964" lon="-4.700843961909413">
        <ele>167.88999999999999</ele>
        <time>2023-09-03T07:52:31Z</time>
      </trkpt>
      <trkpt lat="55.091742016375065" lon="-4.700550008565188">
        <ele>167.88999999999999</ele>
        <time>2023-09-03T07:52:32Z</time>
      </trkpt>
      <trkpt lat="55.091746961697936" lon="-4.700248008593917">
        <ele>167.88999999999999</ele>
        <time>2023-09-03T07:52:33Z</time>
      </trkpt>
      <trkpt lat="55.091755008324981" lon="-4.69961098395288">
        <ele>168.37</ele>
        <time>2023-09-03T07:52:35Z</time>
      </trkpt>
      <trkpt lat="55.091650988906622" lon="-4.698037030175328">
        <ele>168.84999999999999</ele>
        <time>2023-09-03T07:52:40Z</time>
      </trkpt>
      <trkpt lat="55.091651994735003" lon="-4.697760008275509">
        <ele>168.84999999999999</ele>
        <time>2023-09-03T07:52:41Z</time>
      </trkpt>
      <trkpt lat="55.09168703109026" lon="-4.697488015517592">
        <ele>169.33000000000001</ele>
        <time>2023-09-03T07:52:42Z</time>
      </trkpt>
      <trkpt lat="55.091750985011458" lon="-4.697227003052831">
        <ele>169.33000000000001</ele>
        <time>2023-09-03T07:52:43Z</time>
      </trkpt>
      <trkpt lat="55.091823991388083" lon="-4.696969008073211">
        <ele>169.81</ele>
        <time>2023-09-03T07:52:44Z</time>
      </trkpt>
      <trkpt lat="55.091899009421468" lon="-4.696702966466546">
        <ele>170.28999999999999</ele>
        <time>2023-09-03T07:52:45Z</time>
      </trkpt>
      <trkpt lat="55.092058014124632" lon="-4.696145989000797">
        <ele>171.72999999999999</ele>
        <time>2023-09-03T07:52:47Z</time>
      </trkpt>
      <trkpt lat="55.092190029099584" lon="-4.695536037907004">
        <ele>173.16999999999999</ele>
        <time>2023-09-03T07:52:49Z</time>
      </trkpt>
      <trkpt lat="55.092831999063492" lon="-4.693005038425326">
        <ele>177.5</ele>
        <time>2023-09-03T07:52:57Z</time>
      </trkpt>
      <trkpt lat="55.093687037006021" lon="-4.689718997105956">
        <ele>176.53999999999999</ele>
        <time>2023-09-03T07:53:06Z</time>
      </trkpt>
      <trkpt lat="55.094085009768605" lon="-4.686594977974892">
        <ele>175.58000000000001</ele>
        <time>2023-09-03T07:53:14Z</time>
      </trkpt>
      <trkpt lat="55.094200009480119" lon="-4.682617010548711">
        <ele>174.62</ele>
        <time>2023-09-03T07:53:24Z</time>
      </trkpt>
      <trkpt lat="55.094130020588636" lon="-4.67864197678864">
        <ele>171.25</ele>
        <time>2023-09-03T07:53:34Z</time>
      </trkpt>
      <trkpt lat="55.094317020848393" lon="-4.674014998599887">
        <ele>166.44999999999999</ele>
        <time>2023-09-03T07:53:45Z</time>
      </trkpt>
      <trkpt lat="55.094177965074778" lon="-4.671833021566272">
        <ele>165</ele>
        <time>2023-09-03T07:53:51Z</time>
      </trkpt>
      <trkpt lat="55.093599027022719" lon="-4.669923959299922">
        <ele>163.56</ele>
        <time>2023-09-03T07:53:57Z</time>
      </trkpt>
      <trkpt lat="55.093252016231418" lon="-4.669118039309979">
        <ele>162.59999999999999</ele>
        <time>2023-09-03T07:54:00Z</time>
      </trkpt>
      <trkpt lat="55.093059986829758" lon="-4.668602971360087">
        <ele>162.12</ele>
        <time>2023-09-03T07:54:02Z</time>
      </trkpt>
      <trkpt lat="55.09300097823143" lon="-4.668319998309016">
        <ele>161.63999999999999</ele>
        <time>2023-09-03T07:54:03Z</time>
      </trkpt>
      <trkpt lat="55.092939035966992" lon="-4.668025961145759">
        <ele>161.63999999999999</ele>
        <time>2023-09-03T07:54:04Z</time>
      </trkpt>
      <trkpt lat="55.092380968853831" lon="-4.665788998827338">
        <ele>158.75</ele>
        <time>2023-09-03T07:54:11Z</time>
      </trkpt>
      <trkpt lat="55.092102019116282" lon="-4.664532970637083">
        <ele>157.31</ele>
        <time>2023-09-03T07:54:15Z</time>
      </trkpt>
      <trkpt lat="55.091984001919627" lon="-4.664287967607379">
        <ele>157.31</ele>
        <time>2023-09-03T07:54:16Z</time>
      </trkpt>
      <trkpt lat="55.091871013864875" lon="-4.66405101120472">
        <ele>156.83000000000001</ele>
        <time>2023-09-03T07:54:17Z</time>
      </trkpt>
      <trkpt lat="55.091734975576401" lon="-4.663828974589706">
        <ele>156.83000000000001</ele>
        <time>2023-09-03T07:54:18Z</time>
      </trkpt>
      <trkpt lat="55.091587034985423" lon="-4.663589000701904">
        <ele>156.34999999999999</ele>
        <time>2023-09-03T07:54:19Z</time>
      </trkpt>
      <trkpt lat="55.090355984866619" lon="-4.661740036681294">
        <ele>152.99000000000001</ele>
        <time>2023-09-03T07:54:27Z</time>
      </trkpt>
      <trkpt lat="55.090160015970469" lon="-4.66136896982789">
        <ele>152.03</ele>
        <time>2023-09-03T07:54:29Z</time>
      </trkpt>
      <trkpt lat="55.090088015422225" lon="-4.66115296818316">
        <ele>151.53999999999999</ele>
        <time>2023-09-03T07:54:30Z</time>
      </trkpt>
      <trkpt lat="55.089560961350799" lon="-4.659126978367567">
        <ele>150.58000000000001</ele>
        <time>2023-09-03T07:54:37Z</time>
      </trkpt>
      <trkpt lat="55.08893902413547" lon="-4.656410990282893">
        <ele>150.09999999999999</ele>
        <time>2023-09-03T07:54:45Z</time>
      </trkpt>
      <trkpt lat="55.088266963139176" lon="-4.6528360247612">
        <ele>154.91</ele>
        <time>2023-09-03T07:54:55Z</time>
      </trkpt>
      <trkpt lat="55.087772011756897" lon="-4.649505978450179">
        <ele>154.91</ele>
        <time>2023-09-03T07:55:04Z</time>
      </trkpt>
      <trkpt lat="55.086860982701182" lon="-4.646854028105736">
        <ele>155.87</ele>
        <time>2023-09-03T07:55:12Z</time>
      </trkpt>
      <trkpt lat="55.08595397695899" lon="-4.644896015524864">
        <ele>157.78999999999999</ele>
        <time>2023-09-03T07:55:19Z</time>
      </trkpt>
      <trkpt lat="55.08584400638938" lon="-4.644612958654761">
        <ele>157.78999999999999</ele>
        <time>2023-09-03T07:55:20Z</time>
      </trkpt>
      <trkpt lat="55.08575800806284" lon="-4.644296038895845">
        <ele>157.78999999999999</ele>
        <time>2023-09-03T07:55:21Z</time>
      </trkpt>
      <trkpt lat="55.085011012852192" lon="-4.641098007559776">
        <ele>156.34999999999999</ele>
        <time>2023-09-03T07:55:30Z</time>
      </trkpt>
      <trkpt lat="55.083995964378119" lon="-4.638112960383296">
        <ele>158.27000000000001</ele>
        <time>2023-09-03T07:55:39Z</time>
      </trkpt>
      <trkpt lat="55.083011006936431" lon="-4.635295970365405">
        <ele>158.27000000000001</ele>
        <time>2023-09-03T07:55:48Z</time>
      </trkpt>
      <trkpt lat="55.08249401114881" lon="-4.632949959486723">
        <ele>157.78999999999999</ele>
        <time>2023-09-03T07:55:55Z</time>
      </trkpt>
      <trkpt lat="55.08176595903933" lon="-4.630461037158966">
        <ele>153.94999999999999</ele>
        <time>2023-09-03T07:56:03Z</time>
      </trkpt>
      <trkpt lat="55.080383028835058" lon="-4.627449000254273">
        <ele>149.13999999999999</ele>
        <time>2023-09-03T07:56:13Z</time>
      </trkpt>
      <trkpt lat="55.079192966222763" lon="-4.624365968629718">
        <ele>148.66</ele>
        <time>2023-09-03T07:56:22Z</time>
      </trkpt>
      <trkpt lat="55.077560003846884" lon="-4.619894977658987">
        <ele>145.78</ele>
        <time>2023-09-03T07:56:35Z</time>
      </trkpt>
      <trkpt lat="55.076608993113041" lon="-4.616752015426755">
        <ele>142.88999999999999</ele>
        <time>2023-09-03T07:56:44Z</time>
      </trkpt>
      <trkpt lat="55.076468009501696" lon="-4.616475999355316">
        <ele>142.88999999999999</ele>
        <time>2023-09-03T07:56:45Z</time>
      </trkpt>
      <trkpt lat="55.075806006789207" lon="-4.615166997537017">
        <ele>143.37</ele>
        <time>2023-09-03T07:56:50Z</time>
      </trkpt>
      <trkpt lat="55.0757269654423" lon="-4.614878995344043">
        <ele>143.37</ele>
        <time>2023-09-03T07:56:51Z</time>
      </trkpt>
      <trkpt lat="55.075647002086043" lon="-4.614584036171436">
        <ele>143.37</ele>
        <time>2023-09-03T07:56:52Z</time>
      </trkpt>
      <trkpt lat="55.075590005144477" lon="-4.614255968481302">
        <ele>142.88999999999999</ele>
        <time>2023-09-03T07:56:53Z</time>
      </trkpt>
      <trkpt lat="55.075542982667685" lon="-4.613906024023891">
        <ele>142.88999999999999</ele>
        <time>2023-09-03T07:56:54Z</time>
      </trkpt>
      <trkpt lat="55.075331004336476" lon="-4.611045029014349">
        <ele>140.00999999999999</ele>
        <time>2023-09-03T07:57:02Z</time>
      </trkpt>
      <trkpt lat="55.075214998796582" lon="-4.607390016317368">
        <ele>132.80000000000001</ele>
        <time>2023-09-03T07:57:11Z</time>
      </trkpt>
      <trkpt lat="55.075007965788245" lon="-4.605609029531479">
        <ele>128.94999999999999</ele>
        <time>2023-09-03T07:57:16Z</time>
      </trkpt>
      <trkpt lat="55.074914004653692" lon="-4.605284985154867">
        <ele>127.98999999999999</ele>
        <time>2023-09-03T07:57:17Z</time>
      </trkpt>
      <trkpt lat="55.074048992246389" lon="-4.602803019806743">
        <ele>121.26000000000001</ele>
        <time>2023-09-03T07:57:24Z</time>
      </trkpt>
      <trkpt lat="55.073382966220379" lon="-4.600781975314021">
        <ele>116.94</ele>
        <time>2023-09-03T07:57:30Z</time>
      </trkpt>
      <trkpt lat="55.072961021214724" lon="-4.599237022921443">
        <ele>113.09</ele>
        <time>2023-09-03T07:57:35Z</time>
      </trkpt>
      <trkpt lat="55.072822971269488" lon="-4.599009035155177">
        <ele>112.13</ele>
        <time>2023-09-03T07:57:36Z</time>
      </trkpt>
      <trkpt lat="55.072683999314904" lon="-4.59878096356988">
        <ele>110.69</ele>
        <time>2023-09-03T07:57:37Z</time>
      </trkpt>
      <trkpt lat="55.072537986561656" lon="-4.598538978025317">
        <ele>109.73</ele>
        <time>2023-09-03T07:57:38Z</time>
      </trkpt>
      <trkpt lat="55.072361966595054" lon="-4.598352983593941">
        <ele>108.77</ele>
        <time>2023-09-03T07:57:39Z</time>
      </trkpt>
      <trkpt lat="55.072000036016107" lon="-4.597979988902807">
        <ele>106.36</ele>
        <time>2023-09-03T07:57:41Z</time>
      </trkpt>
      <trkpt lat="55.07181697525084" lon="-4.597802041098476">
        <ele>105.40000000000001</ele>
        <time>2023-09-03T07:57:42Z</time>
      </trkpt>
      <trkpt lat="55.070493975654244" lon="-4.596920013427734">
        <ele>99.629999999999995</ele>
        <time>2023-09-03T07:57:49Z</time>
      </trkpt>
      <trkpt lat="55.070358021184802" lon="-4.596710968762636">
        <ele>99.150000000000006</ele>
        <time>2023-09-03T07:57:50Z</time>
      </trkpt>
      <trkpt lat="55.07022500038147" lon="-4.596506031230092">
        <ele>98.670000000000002</ele>
        <time>2023-09-03T07:57:51Z</time>
      </trkpt>
      <trkpt lat="55.069092018529773" lon="-4.594785980880261">
        <ele>92.900000000000006</ele>
        <time>2023-09-03T07:57:58Z</time>
      </trkpt>
      <trkpt lat="55.068724974989891" lon="-4.594402005895972">
        <ele>91.939999999999998</ele>
        <time>2023-09-03T07:58:00Z</time>
      </trkpt>
      <trkpt lat="55.068535041064024" lon="-4.594244007021189">
        <ele>91.459999999999994</ele>
        <time>2023-09-03T07:58:01Z</time>
      </trkpt>
      <trkpt lat="55.066539980471134" lon="-4.592535020783544">
        <ele>89.060000000000002</ele>
        <time>2023-09-03T07:58:11Z</time>
      </trkpt>
      <trkpt lat="55.064647011458874" lon="-4.590930975973606">
        <ele>86.180000000000007</ele>
        <time>2023-09-03T07:58:20Z</time>
      </trkpt>
      <trkpt lat="55.063646966591477" lon="-4.590020030736923">
        <ele>80.890000000000001</ele>
        <time>2023-09-03T07:58:25Z</time>
      </trkpt>
      <trkpt lat="55.06343699991703" lon="-4.589882986620069">
        <ele>79.930000000000007</ele>
        <time>2023-09-03T07:58:26Z</time>
      </trkpt>
      <trkpt lat="55.061962958425283" lon="-4.58936900831759">
        <ele>75.599999999999994</ele>
        <time>2023-09-03T07:58:33Z</time>
      </trkpt>
      <trkpt lat="55.061778975650668" lon="-4.589259959757328">
        <ele>74.640000000000001</ele>
        <time>2023-09-03T07:58:34Z</time>
      </trkpt>
      <trkpt lat="55.060259001329541" lon="-4.58808003924787">
        <ele>71.760000000000005</ele>
        <time>2023-09-03T07:58:42Z</time>
      </trkpt>
      <trkpt lat="55.058799963444471" lon="-4.586524022743106">
        <ele>63.100000000000001</ele>
        <time>2023-09-03T07:58:50Z</time>
      </trkpt>
      <trkpt lat="55.057796984910965" lon="-4.585635960102081">
        <ele>55.409999999999997</ele>
        <time>2023-09-03T07:58:56Z</time>
      </trkpt>
      <trkpt lat="55.057630017399788" lon="-4.585530012845993">
        <ele>53.969999999999999</ele>
        <time>2023-09-03T07:58:57Z</time>
      </trkpt>
      <trkpt lat="55.057461960241199" lon="-4.585422975942493">
        <ele>52.530000000000001</ele>
        <time>2023-09-03T07:58:58Z</time>
      </trkpt>
      <trkpt lat="55.057301027700305" lon="-4.585319962352514">
        <ele>51.090000000000003</ele>
        <time>2023-09-03T07:58:59Z</time>
      </trkpt>
      <trkpt lat="55.057147974148393" lon="-4.58522298373282">
        <ele>49.649999999999999</ele>
        <time>2023-09-03T07:59:00Z</time>
      </trkpt>
      <trkpt lat="55.057004978880286" lon="-4.58513698540628">
        <ele>48.68</ele>
        <time>2023-09-03T07:59:01Z</time>
      </trkpt>
      <trkpt lat="55.056846980005503" lon="-4.585105972364545">
        <ele>47.240000000000002</ele>
        <time>2023-09-03T07:59:02Z</time>
      </trkpt>
      <trkpt lat="55.05669099278748" lon="-4.585127010941505">
        <ele>46.280000000000001</ele>
        <time>2023-09-03T07:59:03Z</time>
      </trkpt>
      <trkpt lat="55.056528970599174" lon="-4.585170010104775">
        <ele>45.32</ele>
        <time>2023-09-03T07:59:04Z</time>
      </trkpt>
      <trkpt lat="55.056380024179816" lon="-4.585264977067709">
        <ele>44.840000000000003</ele>
        <time>2023-09-03T07:59:05Z</time>
      </trkpt>
      <trkpt lat="55.056234011426568" lon="-4.585380982607603">
        <ele>44.359999999999999</ele>
        <time>2023-09-03T07:59:06Z</time>
      </trkpt>
      <trkpt lat="55.056092021986842" lon="-4.585494976490736">
        <ele>43.399999999999999</ele>
        <time>2023-09-03T07:59:07Z</time>
      </trkpt>
      <trkpt lat="55.055937962606549" lon="-4.58556798286736">
        <ele>42.439999999999998</ele>
        <time>2023-09-03T07:59:08Z</time>
      </trkpt>
      <trkpt lat="55.055777030065656" lon="-4.585611987859011">
        <ele>41.950000000000003</ele>
        <time>2023-09-03T07:59:09Z</time>
      </trkpt>
      <trkpt lat="55.055609978735447" lon="-4.585611987859011">
        <ele>40.990000000000002</ele>
        <time>2023-09-03T07:59:10Z</time>
      </trkpt>
      <trkpt lat="55.055436976253986" lon="-4.585611987859011">
        <ele>40.030000000000001</ele>
        <time>2023-09-03T07:59:11Z</time>
      </trkpt>
      <trkpt lat="55.0549700204283" lon="-4.585632020607591">
        <ele>37.630000000000003</ele>
        <time>2023-09-03T07:59:14Z</time>
      </trkpt>
      <trkpt lat="55.054860971868038" lon="-4.585704021155834">
        <ele>37.149999999999999</ele>
        <time>2023-09-03T07:59:15Z</time>
      </trkpt>
      <trkpt lat="55.054761981591582" lon="-4.585777027532458">
        <ele>36.189999999999998</ele>
        <time>2023-09-03T07:59:16Z</time>
      </trkpt>
      <trkpt lat="55.054673971608281" lon="-4.585841987282038">
        <ele>35.229999999999997</ele>
        <time>2023-09-03T07:59:17Z</time>
      </trkpt>
      <trkpt lat="55.054588979110122" lon="-4.585903007537127">
        <ele>34.740000000000002</ele>
        <time>2023-09-03T07:59:18Z</time>
      </trkpt>
      <trkpt lat="55.054501974955201" lon="-4.585966961458325">
        <ele>33.780000000000001</ele>
        <time>2023-09-03T07:59:19Z</time>
      </trkpt>
      <trkpt lat="55.054419999942183" lon="-4.586026975885034">
        <ele>33.299999999999997</ele>
        <time>2023-09-03T07:59:20Z</time>
      </trkpt>
      <trkpt lat="55.05432503297925" lon="-4.585970984771848">
        <ele>32.82</ele>
        <time>2023-09-03T07:59:21Z</time>
      </trkpt>
      <trkpt lat="55.05424196831882" lon="-4.585895966738462">
        <ele>32.82</ele>
        <time>2023-09-03T07:59:22Z</time>
      </trkpt>
      <trkpt lat="55.054142978042364" lon="-4.585804017260671">
        <ele>32.82</ele>
        <time>2023-09-03T07:59:23Z</time>
      </trkpt>
      <trkpt lat="55.054063014686108" lon="-4.585644006729126">
        <ele>33.299999999999997</ele>
        <time>2023-09-03T07:59:24Z</time>
      </trkpt>
      <trkpt lat="55.053371004760265" lon="-4.584359982982278">
        <ele>32.82</ele>
        <time>2023-09-03T07:59:30Z</time>
      </trkpt>
      <trkpt lat="55.05275703035295" lon="-4.58354702219367">
        <ele>31.859999999999999</ele>
        <time>2023-09-03T07:59:34Z</time>
      </trkpt>
      <trkpt lat="55.051170000806451" lon="-4.582094019278884">
        <ele>29.940000000000001</ele>
        <time>2023-09-03T07:59:42Z</time>
      </trkpt>
      <trkpt lat="55.0505440402776" lon="-4.581520026549697">
        <ele>28.5</ele>
        <time>2023-09-03T07:59:45Z</time>
      </trkpt>
      <trkpt lat="55.04958095960319" lon="-4.580637998878956">
        <ele>25.129999999999999</ele>
        <time>2023-09-03T07:59:51Z</time>
      </trkpt>
      <trkpt lat="55.049003027379513" lon="-4.579951018095017">
        <ele>24.649999999999999</ele>
        <time>2023-09-03T07:59:55Z</time>
      </trkpt>
      <trkpt lat="55.048507992178202" lon="-4.579451959580183">
        <ele>24.170000000000002</ele>
        <time>2023-09-03T07:59:58Z</time>
      </trkpt>
      <trkpt lat="55.047061024233699" lon="-4.57847798243165">
        <ele>23.690000000000001</ele>
        <time>2023-09-03T08:00:06Z</time>
      </trkpt>
      <trkpt lat="55.044913999736309" lon="-4.577553039416671">
        <ele>24.170000000000002</ele>
        <time>2023-09-03T08:00:16Z</time>
      </trkpt>
      <trkpt lat="55.041782017797232" lon="-4.576248982921243">
        <ele>25.609999999999999</ele>
        <time>2023-09-03T08:00:29Z</time>
      </trkpt>
      <trkpt lat="55.040429010987282" lon="-4.57579200156033">
        <ele>28.02</ele>
        <time>2023-09-03T08:00:35Z</time>
      </trkpt>
      <trkpt lat="55.040045036002994" lon="-4.575698040425777">
        <ele>28.5</ele>
        <time>2023-09-03T08:00:37Z</time>
      </trkpt>
      <trkpt lat="55.039877984672785" lon="-4.575634002685547">
        <ele>28.5</ele>
        <time>2023-09-03T08:00:38Z</time>
      </trkpt>
      <trkpt lat="55.039719985798001" lon="-4.575549010187388">
        <ele>28.5</ele>
        <time>2023-09-03T08:00:39Z</time>
      </trkpt>
      <trkpt lat="55.038697980344296" lon="-4.574733031913638">
        <ele>28.98</ele>
        <time>2023-09-03T08:00:45Z</time>
      </trkpt>
      <trkpt lat="55.038393968716264" lon="-4.574489034712315">
        <ele>28.98</ele>
        <time>2023-09-03T08:00:47Z</time>
      </trkpt>
      <trkpt lat="55.038248961791396" lon="-4.574343021959066">
        <ele>28.98</ele>
        <time>2023-09-03T08:00:48Z</time>
      </trkpt>
      <trkpt lat="55.038120970129967" lon="-4.574128026142716">
        <ele>28.98</ele>
        <time>2023-09-03T08:00:49Z</time>
      </trkpt>
      <trkpt lat="55.037280013784766" lon="-4.572721039876342">
        <ele>28.5</ele>
        <time>2023-09-03T08:00:55Z</time>
      </trkpt>
      <trkpt lat="55.037144981324673" lon="-4.572536973282695">
        <ele>28.5</ele>
        <time>2023-09-03T08:00:56Z</time>
      </trkpt>
      <trkpt lat="55.036983964964747" lon="-4.572367994114757">
        <ele>28.5</ele>
        <time>2023-09-03T08:00:57Z</time>
      </trkpt>
      <trkpt lat="55.036805011332035" lon="-4.572178982198238">
        <ele>28.02</ele>
        <time>2023-09-03T08:00:58Z</time>
      </trkpt>
      <trkpt lat="55.036628991365433" lon="-4.57205199636519">
        <ele>28.02</ele>
        <time>2023-09-03T08:00:59Z</time>
      </trkpt>
      <trkpt lat="55.035201972350478" lon="-4.57102001644671">
        <ele>26.57</ele>
        <time>2023-09-03T08:01:06Z</time>
      </trkpt>
      <trkpt lat="55.034110983833671" lon="-4.570302022621036">
        <ele>24.170000000000002</ele>
        <time>2023-09-03T08:01:12Z</time>
      </trkpt>
      <trkpt lat="55.033919038251042" lon="-4.570210995152593">
        <ele>23.690000000000001</ele>
        <time>2023-09-03T08:01:13Z</time>
      </trkpt>
      <trkpt lat="55.033203978091478" lon="-4.569762982428074">
        <ele>21.289999999999999</ele>
        <time>2023-09-03T08:01:17Z</time>
      </trkpt>
      <trkpt lat="55.033053020015359" lon="-4.569615963846445">
        <ele>20.809999999999999</ele>
        <time>2023-09-03T08:01:18Z</time>
      </trkpt>
      <trkpt lat="55.032765017822385" lon="-4.569335002452135">
        <ele>20.32</ele>
        <time>2023-09-03T08:01:20Z</time>
      </trkpt>
      <trkpt lat="55.032147020101547" lon="-4.568906016647816">
        <ele>17.440000000000001</ele>
        <time>2023-09-03T08:01:24Z</time>
      </trkpt>
      <trkpt lat="55.03157302737236" lon="-4.568569986149669">
        <ele>14.08</ele>
        <time>2023-09-03T08:01:28Z</time>
      </trkpt>
      <trkpt lat="55.031418967992067" lon="-4.568403018638492">
        <ele>13.6</ele>
        <time>2023-09-03T08:01:29Z</time>
      </trkpt>
      <trkpt lat="55.031331963837147" lon="-4.568252982571721">
        <ele>12.630000000000001</ele>
        <time>2023-09-03T08:01:30Z</time>
      </trkpt>
      <trkpt lat="55.03058698028326" lon="-4.567094016820192">
        <ele>10.23</ele>
        <time>2023-09-03T08:01:36Z</time>
      </trkpt>
      <trkpt lat="55.030449014157057" lon="-4.566925959661603">
        <ele>9.75</ele>
        <time>2023-09-03T08:01:37Z</time>
      </trkpt>
      <trkpt lat="55.030324039980769" lon="-4.566775001585484">
        <ele>8.789999999999999</ele>
        <time>2023-09-03T08:01:38Z</time>
      </trkpt>
      <trkpt lat="55.030180038884282" lon="-4.566697971895337">
        <ele>8.310000000000001</ele>
        <time>2023-09-03T08:01:39Z</time>
      </trkpt>
      <trkpt lat="55.030041988939047" lon="-4.56663896329701">
        <ele>6.87</ele>
        <time>2023-09-03T08:01:40Z</time>
      </trkpt>
      <trkpt lat="55.029899999499321" lon="-4.566625971347094">
        <ele>5.91</ele>
        <time>2023-09-03T08:01:41Z</time>
      </trkpt>
      <trkpt lat="55.029732026159763" lon="-4.566633012145758">
        <ele>5.42</ele>
        <time>2023-09-03T08:01:42Z</time>
      </trkpt>
      <trkpt lat="55.029556006193161" lon="-4.56663996912539">
        <ele>4.94</ele>
        <time>2023-09-03T08:01:43Z</time>
      </trkpt>
      <trkpt lat="55.029380992054939" lon="-4.566603004932404">
        <ele>3.98</ele>
        <time>2023-09-03T08:01:44Z</time>
      </trkpt>
      <trkpt lat="55.029206983745098" lon="-4.566537961363792">
        <ele>3.98</ele>
        <time>2023-09-03T08:01:45Z</time>
      </trkpt>
      <trkpt lat="55.029035992920399" lon="-4.566427990794182">
        <ele>3.5</ele>
        <time>2023-09-03T08:01:46Z</time>
      </trkpt>
      <trkpt lat="55.028862990438938" lon="-4.56629203632474">
        <ele>3.02</ele>
        <time>2023-09-03T08:01:47Z</time>
      </trkpt>
      <trkpt lat="55.028512040153146" lon="-4.565978972241283">
        <ele>2.06</ele>
        <time>2023-09-03T08:01:49Z</time>
      </trkpt>
      <trkpt lat="55.027838973328471" lon="-4.565253015607595">
        <ele>2.06</ele>
        <time>2023-09-03T08:01:53Z</time>
      </trkpt>
      <trkpt lat="55.026787966489792" lon="-4.564462015405297">
        <ele>1.58</ele>
        <time>2023-09-03T08:01:59Z</time>
      </trkpt>
      <trkpt lat="55.02663298510015" lon="-4.564304016530514">
        <ele>2.06</ele>
        <time>2023-09-03T08:02:00Z</time>
      </trkpt>
      <trkpt lat="55.02596695907414" lon="-4.56347999162972">
        <ele>3.98</ele>
        <time>2023-09-03T08:02:04Z</time>
      </trkpt>
      <trkpt lat="55.025416016578674" lon="-4.562798039987683">
        <ele>4.46</ele>
        <time>2023-09-03T08:02:07Z</time>
      </trkpt>
      <trkpt lat="55.025070011615753" lon="-4.562369976192713">
        <ele>4.94</ele>
        <time>2023-09-03T08:02:09Z</time>
      </trkpt>
      <trkpt lat="55.024901032447815" lon="-4.562202002853155">
        <ele>5.42</ele>
        <time>2023-09-03T08:02:10Z</time>
      </trkpt>
      <trkpt lat="55.024715038016438" lon="-4.562047021463513">
        <ele>5.42</ele>
        <time>2023-09-03T08:02:11Z</time>
      </trkpt>
      <trkpt lat="55.023962007835507" lon="-4.561419971287251">
        <ele>5.42</ele>
        <time>2023-09-03T08:02:15Z</time>
      </trkpt>
      <trkpt lat="55.023779030889273" lon="-4.56126700155437">
        <ele>5.42</ele>
        <time>2023-09-03T08:02:16Z</time>
      </trkpt>
      <trkpt lat="55.02360200509429" lon="-4.561071032658219">
        <ele>5.42</ele>
        <time>2023-09-03T08:02:17Z</time>
      </trkpt>
      <trkpt lat="55.022158976644278" lon="-4.559352993965149">
        <ele>7.83</ele>
        <time>2023-09-03T08:02:25Z</time>
      </trkpt>
      <trkpt lat="55.021620020270348" lon="-4.558707000687718">
        <ele>10.23</ele>
        <time>2023-09-03T08:02:28Z</time>
      </trkpt>
      <trkpt lat="55.019930982962251" lon="-4.556672964245081">
        <ele>21.289999999999999</ele>
        <time>2023-09-03T08:02:37Z</time>
      </trkpt>
      <trkpt lat="55.019733002409339" lon="-4.556469032540917">
        <ele>21.77</ele>
        <time>2023-09-03T08:02:38Z</time>
      </trkpt>
      <trkpt lat="55.018506981432438" lon="-4.554905975237489">
        <ele>28.02</ele>
        <time>2023-09-03T08:02:45Z</time>
      </trkpt>
      <trkpt lat="55.017261011525989" lon="-4.55288995988667">
        <ele>28.5</ele>
        <time>2023-09-03T08:02:52Z</time>
      </trkpt>
      <trkpt lat="55.01584799028933" lon="-4.550604969263077">
        <ele>29.460000000000001</ele>
        <time>2023-09-03T08:03:00Z</time>
      </trkpt>
      <trkpt lat="55.014840988442302" lon="-4.549017017707229">
        <ele>31.379999999999999</ele>
        <time>2023-09-03T08:03:06Z</time>
      </trkpt>
      <trkpt lat="55.013612033799291" lon="-4.547330997884274">
        <ele>33.780000000000001</ele>
        <time>2023-09-03T08:03:13Z</time>
      </trkpt>
      <trkpt lat="55.013330988585949" lon="-4.546945011243224">
        <ele>33.299999999999997</ele>
        <time>2023-09-03T08:03:15Z</time>
      </trkpt>
      <trkpt lat="55.013158991932869" lon="-4.546638987958431">
        <ele>33.299999999999997</ele>
        <time>2023-09-03T08:03:16Z</time>
      </trkpt>
      <trkpt lat="55.012894961982965" lon="-4.546142024919391">
        <ele>33.299999999999997</ele>
        <time>2023-09-03T08:03:18Z</time>
      </trkpt>
      <trkpt lat="55.012767976149917" lon="-4.545842036604881">
        <ele>33.299999999999997</ele>
        <time>2023-09-03T08:03:19Z</time>
      </trkpt>
      <trkpt lat="55.01176399178803" lon="-4.543469035997987">
        <ele>32.340000000000003</ele>
        <time>2023-09-03T08:03:27Z</time>
      </trkpt>
      <trkpt lat="55.011585038155317" lon="-4.543167036026716">
        <ele>31.859999999999999</ele>
        <time>2023-09-03T08:03:28Z</time>
      </trkpt>
      <trkpt lat="55.011438019573689" lon="-4.542920021340251">
        <ele>31.859999999999999</ele>
        <time>2023-09-03T08:03:29Z</time>
      </trkpt>
      <trkpt lat="55.011283960193396" lon="-4.54270301386714">
        <ele>31.379999999999999</ele>
        <time>2023-09-03T08:03:30Z</time>
      </trkpt>
      <trkpt lat="55.011122021824121" lon="-4.542524982243776">
        <ele>31.379999999999999</ele>
        <time>2023-09-03T08:03:31Z</time>
      </trkpt>
      <trkpt lat="55.010954970493913" lon="-4.542343011125922">
        <ele>30.899999999999999</ele>
        <time>2023-09-03T08:03:32Z</time>
      </trkpt>
      <trkpt lat="55.00957396812737" lon="-4.541549999266863">
        <ele>28.98</ele>
        <time>2023-09-03T08:03:39Z</time>
      </trkpt>
      <trkpt lat="55.008228002116084" lon="-4.540534028783441">
        <ele>27.050000000000001</ele>
        <time>2023-09-03T08:03:46Z</time>
      </trkpt>
      <trkpt lat="55.006410973146558" lon="-4.539013970643282">
        <ele>26.09</ele>
        <time>2023-09-03T08:03:55Z</time>
      </trkpt>
      <trkpt lat="55.004467964172363" lon="-4.537592986598611">
        <ele>28.02</ele>
        <time>2023-09-03T08:04:04Z</time>
      </trkpt>
      <trkpt lat="55.002758977934718" lon="-4.535731030628085">
        <ele>31.379999999999999</ele>
        <time>2023-09-03T08:04:13Z</time>
      </trkpt>
      <trkpt lat="55.00149498693645" lon="-4.535002978518605">
        <ele>31.859999999999999</ele>
        <time>2023-09-03T08:04:19Z</time>
      </trkpt>
      <trkpt lat="54.999777032062411" lon="-4.534220024943352">
        <ele>32.82</ele>
        <time>2023-09-03T08:04:27Z</time>
      </trkpt>
      <trkpt lat="54.999591037631035" lon="-4.534058002755046">
        <ele>33.299999999999997</ele>
        <time>2023-09-03T08:04:28Z</time>
      </trkpt>
      <trkpt lat="54.999382998794317" lon="-4.533877037465572">
        <ele>33.299999999999997</ele>
        <time>2023-09-03T08:04:29Z</time>
      </trkpt>
      <trkpt lat="54.997925972566009" lon="-4.532214989885688">
        <ele>34.259999999999998</ele>
        <time>2023-09-03T08:04:37Z</time>
      </trkpt>
      <trkpt lat="54.997353991493583" lon="-4.531723977997899">
        <ele>34.740000000000002</ele>
        <time>2023-09-03T08:04:40Z</time>
      </trkpt>
      <trkpt lat="54.996675979346037" lon="-4.531357018277049">
        <ele>34.740000000000002</ele>
        <time>2023-09-03T08:04:43Z</time>
      </trkpt>
      <trkpt lat="54.996457966044545" lon="-4.531248975545168">
        <ele>34.740000000000002</ele>
        <time>2023-09-03T08:04:44Z</time>
      </trkpt>
      <trkpt lat="54.996244981884956" lon="-4.53114403411746">
        <ele>34.740000000000002</ele>
        <time>2023-09-03T08:04:45Z</time>
      </trkpt>
      <trkpt lat="54.996025040745735" lon="-4.531034985557199">
        <ele>35.229999999999997</ele>
        <time>2023-09-03T08:04:46Z</time>
      </trkpt>
      <trkpt lat="54.995806021615863" lon="-4.530926020815969">
        <ele>35.229999999999997</ele>
        <time>2023-09-03T08:04:47Z</time>
      </trkpt>
      <trkpt lat="54.995590019971132" lon="-4.530818983912468">
        <ele>35.229999999999997</ele>
        <time>2023-09-03T08:04:48Z</time>
      </trkpt>
      <trkpt lat="54.993837028741837" lon="-4.530272986739874">
        <ele>33.299999999999997</ele>
        <time>2023-09-03T08:04:56Z</time>
      </trkpt>
      <trkpt lat="54.992134999483824" lon="-4.530272986739874">
        <ele>28.98</ele>
        <time>2023-09-03T08:05:03Z</time>
      </trkpt>
      <trkpt lat="54.989409958943725" lon="-4.530054973438382">
        <ele>20.809999999999999</ele>
        <time>2023-09-03T08:05:14Z</time>
      </trkpt>
      <trkpt lat="54.988143034279346" lon="-4.529250981286168">
        <ele>19.84</ele>
        <time>2023-09-03T08:05:20Z</time>
      </trkpt>
      <trkpt lat="54.98643203638494" lon="-4.52817901968956">
        <ele>18.879999999999999</ele>
        <time>2023-09-03T08:05:28Z</time>
      </trkpt>
      <trkpt lat="54.986206982284784" lon="-4.528144989162684">
        <ele>18.879999999999999</ele>
        <time>2023-09-03T08:05:29Z</time>
      </trkpt>
      <trkpt lat="54.984022993594408" lon="-4.528067037463188">
        <ele>23.210000000000001</ele>
        <time>2023-09-03T08:05:38Z</time>
      </trkpt>
      <trkpt lat="54.982148967683315" lon="-4.52753696590662">
        <ele>24.649999999999999</ele>
        <time>2023-09-03T08:05:46Z</time>
      </trkpt>
      <trkpt lat="54.980798978358507" lon="-4.526726016774774">
        <ele>26.09</ele>
        <time>2023-09-03T08:05:52Z</time>
      </trkpt>
      <trkpt lat="54.980590017512441" lon="-4.526531975716353">
        <ele>26.57</ele>
        <time>2023-09-03T08:05:53Z</time>
      </trkpt>
      <trkpt lat="54.979601036757231" lon="-4.525611978024244">
        <ele>28.98</ele>
        <time>2023-09-03T08:05:58Z</time>
      </trkpt>
      <trkpt lat="54.979414958506823" lon="-4.52549203298986">
        <ele>28.98</ele>
        <time>2023-09-03T08:05:59Z</time>
      </trkpt>
      <trkpt lat="54.979216977953911" lon="-4.525412991642952">
        <ele>29.460000000000001</ele>
        <time>2023-09-03T08:06:00Z</time>
      </trkpt>
      <trkpt lat="54.977284027263522" lon="-4.524445971474052">
        <ele>29.940000000000001</ele>
        <time>2023-09-03T08:06:09Z</time>
      </trkpt>
      <trkpt lat="54.974866015836596" lon="-4.523227997124195">
        <ele>28.98</ele>
        <time>2023-09-03T08:06:20Z</time>
      </trkpt>
      <trkpt lat="54.974480029195547" lon="-4.522924991324544">
        <ele>28.02</ele>
        <time>2023-09-03T08:06:22Z</time>
      </trkpt>
      <trkpt lat="54.974300991743803" lon="-4.522717036306858">
        <ele>28.02</ele>
        <time>2023-09-03T08:06:23Z</time>
      </trkpt>
      <trkpt lat="54.97412396594882" lon="-4.522513020783663">
        <ele>27.530000000000001</ele>
        <time>2023-09-03T08:06:24Z</time>
      </trkpt>
      <trkpt lat="54.973817020654678" lon="-4.52207800000906">
        <ele>27.050000000000001</ele>
        <time>2023-09-03T08:06:26Z</time>
      </trkpt>
      <trkpt lat="54.973667990416288" lon="-4.521793015301228">
        <ele>27.050000000000001</ele>
        <time>2023-09-03T08:06:27Z</time>
      </trkpt>
      <trkpt lat="54.973537987098098" lon="-4.521495960652828">
        <ele>26.57</ele>
        <time>2023-09-03T08:06:28Z</time>
      </trkpt>
      <trkpt lat="54.972601979970932" lon="-4.518758011981845">
        <ele>25.609999999999999</ele>
        <time>2023-09-03T08:06:36Z</time>
      </trkpt>
      <trkpt lat="54.972033016383648" lon="-4.516295995563269">
        <ele>28.5</ele>
        <time>2023-09-03T08:06:43Z</time>
      </trkpt>
      <trkpt lat="54.971217038109899" lon="-4.514101026579738">
        <ele>31.379999999999999</ele>
        <time>2023-09-03T08:06:50Z</time>
      </trkpt>
      <trkpt lat="54.971132967621088" lon="-4.513798020780087">
        <ele>31.379999999999999</ele>
        <time>2023-09-03T08:06:51Z</time>
      </trkpt>
      <trkpt lat="54.970479011535645" lon="-4.510631002485752">
        <ele>31.859999999999999</ele>
        <time>2023-09-03T08:07:00Z</time>
      </trkpt>
      <trkpt lat="54.970397958531976" lon="-4.50916500762105">
        <ele>34.259999999999998</ele>
        <time>2023-09-03T08:07:04Z</time>
      </trkpt>
      <trkpt lat="54.970500972121954" lon="-4.506599977612495">
        <ele>38.109999999999999</ele>
        <time>2023-09-03T08:07:11Z</time>
      </trkpt>
      <trkpt lat="54.970424026250839" lon="-4.503554999828339">
        <ele>39.549999999999997</ele>
        <time>2023-09-03T08:07:20Z</time>
      </trkpt>
      <trkpt lat="54.970227973535657" lon="-4.499099012464285">
        <ele>39.07</ele>
        <time>2023-09-03T08:07:31Z</time>
      </trkpt>
      <trkpt lat="54.970184974372387" lon="-4.498753007501364">
        <ele>39.07</ele>
        <time>2023-09-03T08:07:32Z</time>
      </trkpt>
      <trkpt lat="54.970124959945679" lon="-4.498440027236939">
        <ele>39.07</ele>
        <time>2023-09-03T08:07:33Z</time>
      </trkpt>
      <trkpt lat="54.969233041629195" lon="-4.495794028043747">
        <ele>37.149999999999999</ele>
        <time>2023-09-03T08:07:41Z</time>
      </trkpt>
      <trkpt lat="54.967950023710728" lon="-4.491993002593517">
        <ele>36.189999999999998</ele>
        <time>2023-09-03T08:07:52Z</time>
      </trkpt>
      <trkpt lat="54.967642994597554" lon="-4.491078034043312">
        <ele>35.229999999999997</ele>
        <time>2023-09-03T08:07:57Z</time>
      </trkpt>
      <trkpt lat="54.967434033751488" lon="-4.490450983867049">
        <ele>34.259999999999998</ele>
        <time>2023-09-03T08:08:02Z</time>
      </trkpt>
      <trkpt lat="54.967092974111438" lon="-4.489497039467096">
        <ele>33.780000000000001</ele>
        <time>2023-09-03T08:08:10Z</time>
      </trkpt>
      <trkpt lat="54.966531973332167" lon="-4.487976981326938">
        <ele>34.259999999999998</ele>
        <time>2023-09-03T08:08:20Z</time>
      </trkpt>
      <trkpt lat="54.966461984440684" lon="-4.487826023250818">
        <ele>34.259999999999998</ele>
        <time>2023-09-03T08:08:21Z</time>
      </trkpt>
      <trkpt lat="54.966381015256047" lon="-4.487695014104247">
        <ele>33.780000000000001</ele>
        <time>2023-09-03T08:08:22Z</time>
      </trkpt>
      <trkpt lat="54.966284958645701" lon="-4.487586971372366">
        <ele>33.780000000000001</ele>
        <time>2023-09-03T08:08:23Z</time>
      </trkpt>
      <trkpt lat="54.966182028874755" lon="-4.487495021894574">
        <ele>33.299999999999997</ele>
        <time>2023-09-03T08:08:24Z</time>
      </trkpt>
      <trkpt lat="54.966073986142874" lon="-4.487410029396415">
        <ele>32.82</ele>
        <time>2023-09-03T08:08:25Z</time>
      </trkpt>
      <trkpt lat="54.964702036231756" lon="-4.486362962052226">
        <ele>25.609999999999999</ele>
        <time>2023-09-03T08:08:38Z</time>
      </trkpt>
      <trkpt lat="54.963751025497913" lon="-4.485624013468623">
        <ele>16.960000000000001</ele>
        <time>2023-09-03T08:08:47Z</time>
      </trkpt>
      <trkpt lat="54.962609997019172" lon="-4.484634026885033">
        <ele>9.27</ele>
        <time>2023-09-03T08:08:58Z</time>
      </trkpt>
      <trkpt lat="54.961974984034896" lon="-4.48415701277554">
        <ele>6.87</ele>
        <time>2023-09-03T08:09:04Z</time>
      </trkpt>
      <trkpt lat="54.960963036864996" lon="-4.483696008101106">
        <ele>5.91</ele>
        <time>2023-09-03T08:09:13Z</time>
      </trkpt>
      <trkpt lat="54.960506977513433" lon="-4.483500961214304">
        <ele>7.35</ele>
        <time>2023-09-03T08:09:17Z</time>
      </trkpt>
      <trkpt lat="54.9603929836303" lon="-4.483456034213305">
        <ele>7.83</ele>
        <time>2023-09-03T08:09:18Z</time>
      </trkpt>
      <trkpt lat="54.960101963952184" lon="-4.48333902284503">
        <ele>8.789999999999999</ele>
        <time>2023-09-03T08:09:21Z</time>
      </trkpt>
      <trkpt lat="54.960042033344507" lon="-4.483314966782928">
        <ele>9.27</ele>
        <time>2023-09-03T08:09:22Z</time>
      </trkpt>
      <trkpt lat="54.960002973675728" lon="-4.483299963176251">
        <ele>9.75</ele>
        <time>2023-09-03T08:09:23Z</time>
      </trkpt>
      <trkpt lat="54.959965003654361" lon="-4.483151016756892">
        <ele>10.23</ele>
        <time>2023-09-03T08:09:24Z</time>
      </trkpt>
      <trkpt lat="54.959965003654361" lon="-4.483151016756892">
        <ele>10.23</ele>
        <time>2023-09-03T08:09:25Z</time>
      </trkpt>
      <trkpt lat="54.95998403057456" lon="-4.483085973188281">
        <ele>10.710000000000001</ele>
        <time>2023-09-03T08:09:26Z</time>
      </trkpt>
      <trkpt lat="54.960019988939166" lon="-4.482956975698471">
        <ele>10.710000000000001</ele>
        <time>2023-09-03T08:09:27Z</time>
      </trkpt>
      <trkpt lat="54.960057036951184" lon="-4.482824960723519">
        <ele>11.19</ele>
        <time>2023-09-03T08:09:28Z</time>
      </trkpt>
      <trkpt lat="54.960387032479048" lon="-4.481512019410729">
        <ele>13.119999999999999</ele>
        <time>2023-09-03T08:09:38Z</time>
      </trkpt>
      <trkpt lat="54.960805037990212" lon="-4.479475971311331">
        <ele>17.440000000000001</ele>
        <time>2023-09-03T08:09:50Z</time>
      </trkpt>
      <trkpt lat="54.960931017994881" lon="-4.478725958615542">
        <ele>17.920000000000002</ele>
        <time>2023-09-03T08:09:54Z</time>
      </trkpt>
      <trkpt lat="54.960931017994881" lon="-4.478511968627572">
        <ele>17.920000000000002</ele>
        <time>2023-09-03T08:09:55Z</time>
      </trkpt>
      <trkpt lat="54.960931017994881" lon="-4.47829102165997">
        <ele>17.920000000000002</ele>
        <time>2023-09-03T08:09:56Z</time>
      </trkpt>
      <trkpt lat="54.960917020216584" lon="-4.478086000308394">
        <ele>17.920000000000002</ele>
        <time>2023-09-03T08:09:57Z</time>
      </trkpt>
      <trkpt lat="54.960874021053314" lon="-4.477876033633947">
        <ele>18.399999999999999</ele>
        <time>2023-09-03T08:09:58Z</time>
      </trkpt>
      <trkpt lat="54.960832027718425" lon="-4.477672018110752">
        <ele>18.399999999999999</ele>
        <time>2023-09-03T08:09:59Z</time>
      </trkpt>
      <trkpt lat="54.960376974195242" lon="-4.475514013320208">
        <ele>22.25</ele>
        <time>2023-09-03T08:10:10Z</time>
      </trkpt>
      <trkpt lat="54.959970032796264" lon="-4.47364903986454">
        <ele>22.25</ele>
        <time>2023-09-03T08:10:20Z</time>
      </trkpt>
      <trkpt lat="54.959924016147852" lon="-4.473463967442513">
        <ele>21.77</ele>
        <time>2023-09-03T08:10:21Z</time>
      </trkpt>
      <trkpt lat="54.959165034815669" lon="-4.470731969922781">
        <ele>20.809999999999999</ele>
        <time>2023-09-03T08:10:36Z</time>
      </trkpt>
      <trkpt lat="54.958639992401004" lon="-4.468721989542246">
        <ele>20.32</ele>
        <time>2023-09-03T08:10:44Z</time>
      </trkpt>
      <trkpt lat="54.957860978320241" lon="-4.465489005669951">
        <ele>19.359999999999999</ele>
        <time>2023-09-03T08:10:54Z</time>
      </trkpt>
      <trkpt lat="54.957823008298874" lon="-4.46516303345561">
        <ele>19.359999999999999</ele>
        <time>2023-09-03T08:10:55Z</time>
      </trkpt>
      <trkpt lat="54.957791995257139" lon="-4.464825997129083">
        <ele>19.359999999999999</ele>
        <time>2023-09-03T08:10:56Z</time>
      </trkpt>
      <trkpt lat="54.957731980830431" lon="-4.461663002148271">
        <ele>18.399999999999999</ele>
        <time>2023-09-03T08:11:04Z</time>
      </trkpt>
      <trkpt lat="54.957731980830431" lon="-4.458534959703684">
        <ele>16.960000000000001</ele>
        <time>2023-09-03T08:11:12Z</time>
      </trkpt>
      <trkpt lat="54.957854021340609" lon="-4.457315979525447">
        <ele>17.440000000000001</ele>
        <time>2023-09-03T08:11:17Z</time>
      </trkpt>
      <trkpt lat="54.957872964441776" lon="-4.457094026729465">
        <ele>17.920000000000002</ele>
        <time>2023-09-03T08:11:19Z</time>
      </trkpt>
      <trkpt lat="54.957911018282175" lon="-4.456952959299088">
        <ele>18.399999999999999</ele>
        <time>2023-09-03T08:11:20Z</time>
      </trkpt>
      <trkpt lat="54.957975978031754" lon="-4.456901997327805">
        <ele>18.399999999999999</ele>
        <time>2023-09-03T08:11:21Z</time>
      </trkpt>
      <trkpt lat="54.958616020157933" lon="-4.456206969916821">
        <ele>19.84</ele>
        <time>2023-09-03T08:11:27Z</time>
      </trkpt>
      <trkpt lat="54.959915969520807" lon="-4.454763019457459">
        <ele>21.77</ele>
        <time>2023-09-03T08:11:36Z</time>
      </trkpt>
      <trkpt lat="54.960488034412265" lon="-4.454236971214414">
        <ele>23.690000000000001</ele>
        <time>2023-09-03T08:11:40Z</time>
      </trkpt>
      <trkpt lat="54.960619965568185" lon="-4.454116020351648">
        <ele>24.649999999999999</ele>
        <time>2023-09-03T08:11:41Z</time>
      </trkpt>
      <trkpt lat="54.961336031556129" lon="-4.453515037894249">
        <ele>28.98</ele>
        <time>2023-09-03T08:11:46Z</time>
      </trkpt>
      <trkpt lat="54.961624033749104" lon="-4.453289983794093">
        <ele>30.420000000000002</ele>
        <time>2023-09-03T08:11:48Z</time>
      </trkpt>
      <trkpt lat="54.961773985996842" lon="-4.453214965760708">
        <ele>31.379999999999999</ele>
        <time>2023-09-03T08:11:49Z</time>
      </trkpt>
      <trkpt lat="54.961927961558104" lon="-4.453138019889593">
        <ele>32.340000000000003</ele>
        <time>2023-09-03T08:11:50Z</time>
      </trkpt>
      <trkpt lat="54.963276023045182" lon="-4.452758990228176">
        <ele>36.189999999999998</ele>
        <time>2023-09-03T08:11:57Z</time>
      </trkpt>
      <trkpt lat="54.965481972321868" lon="-4.452213998883963">
        <ele>39.549999999999997</ele>
        <time>2023-09-03T08:12:07Z</time>
      </trkpt>
      <trkpt lat="54.967794036492705" lon="-4.451532969251275">
        <ele>43.880000000000003</ele>
        <time>2023-09-03T08:12:17Z</time>
      </trkpt>
      <trkpt lat="54.968412034213543" lon="-4.451343035325408">
        <ele>44.840000000000003</ele>
        <time>2023-09-03T08:12:20Z</time>
      </trkpt>
      <trkpt lat="54.968571960926056" lon="-4.451292995363474">
        <ele>44.840000000000003</ele>
        <time>2023-09-03T08:12:21Z</time>
      </trkpt>
      <trkpt lat="54.968702970072627" lon="-4.451158968731761">
        <ele>44.840000000000003</ele>
        <time>2023-09-03T08:12:22Z</time>
      </trkpt>
      <trkpt lat="54.968801038339734" lon="-4.450989989563823">
        <ele>45.32</ele>
        <time>2023-09-03T08:12:23Z</time>
      </trkpt>
      <trkpt lat="54.968891981989145" lon="-4.450798965990543">
        <ele>45.32</ele>
        <time>2023-09-03T08:12:24Z</time>
      </trkpt>
      <trkpt lat="54.968984015285969" lon="-4.450581036508083">
        <ele>45.32</ele>
        <time>2023-09-03T08:12:25Z</time>
      </trkpt>
      <trkpt lat="54.969066996127367" lon="-4.450333015993238">
        <ele>45.32</ele>
        <time>2023-09-03T08:12:26Z</time>
      </trkpt>
      <trkpt lat="54.969146959483624" lon="-4.450078038498759">
        <ele>45.799999999999997</ele>
        <time>2023-09-03T08:12:27Z</time>
      </trkpt>
      <trkpt lat="54.969224995002151" lon="-4.449819959700108">
        <ele>46.759999999999998</ele>
        <time>2023-09-03T08:12:28Z</time>
      </trkpt>
      <trkpt lat="54.969305964186788" lon="-4.449550984427333">
        <ele>47.240000000000002</ele>
        <time>2023-09-03T08:12:29Z</time>
      </trkpt>
      <trkpt lat="54.969575023278594" lon="-4.448724025860429">
        <ele>49.159999999999997</ele>
        <time>2023-09-03T08:12:32Z</time>
      </trkpt>
      <trkpt lat="54.970208024606109" lon="-4.447284014895558">
        <ele>51.090000000000003</ele>
        <time>2023-09-03T08:12:38Z</time>
      </trkpt>
      <trkpt lat="54.970244988799095" lon="-4.447054015472531">
        <ele>51.57</ele>
        <time>2023-09-03T08:12:39Z</time>
      </trkpt>
      <trkpt lat="54.970272984355688" lon="-4.446799959987402">
        <ele>51.57</ele>
        <time>2023-09-03T08:12:40Z</time>
      </trkpt>
      <trkpt lat="54.970562998205423" lon="-4.444502983242273">
        <ele>53.969999999999999</ele>
        <time>2023-09-03T08:12:48Z</time>
      </trkpt>
      <trkpt lat="54.970618989318609" lon="-4.444183968007565">
        <ele>54.450000000000003</ele>
        <time>2023-09-03T08:12:49Z</time>
      </trkpt>
      <trkpt lat="54.970949990674853" lon="-4.442940009757876">
        <ele>55.890000000000001</ele>
        <time>2023-09-03T08:12:53Z</time>
      </trkpt>
      <trkpt lat="54.971481990069151" lon="-4.441636959090829">
        <ele>58.299999999999997</ele>
        <time>2023-09-03T08:12:58Z</time>
      </trkpt>
      <trkpt lat="54.971614005044103" lon="-4.441447025164962">
        <ele>58.299999999999997</ele>
        <time>2023-09-03T08:12:59Z</time>
      </trkpt>
      <trkpt lat="54.971754988655448" lon="-4.441242003813386">
        <ele>58.780000000000001</ele>
        <time>2023-09-03T08:13:00Z</time>
      </trkpt>
      <trkpt lat="54.971898989751935" lon="-4.441032959148288">
        <ele>58.780000000000001</ele>
        <time>2023-09-03T08:13:01Z</time>
      </trkpt>
      <trkpt lat="54.972050031647086" lon="-4.440816035494208">
        <ele>59.259999999999998</ele>
        <time>2023-09-03T08:13:02Z</time>
      </trkpt>
      <trkpt lat="54.973545027896762" lon="-4.438776969909668">
        <ele>62.619999999999997</ele>
        <time>2023-09-03T08:13:11Z</time>
      </trkpt>
      <trkpt lat="54.973719036206603" lon="-4.438589969649911">
        <ele>63.579999999999998</ele>
        <time>2023-09-03T08:13:12Z</time>
      </trkpt>
      <trkpt lat="54.975105989724398" lon="-4.437672989442945">
        <ele>67.909999999999997</ele>
        <time>2023-09-03T08:13:19Z</time>
      </trkpt>
      <trkpt lat="54.975542016327381" lon="-4.437612975016236">
        <ele>68.390000000000001</ele>
        <time>2023-09-03T08:13:21Z</time>
      </trkpt>
      <trkpt lat="54.975748965516686" lon="-4.437597971409559">
        <ele>68.870000000000005</ele>
        <time>2023-09-03T08:13:22Z</time>
      </trkpt>
      <trkpt lat="54.975945018231869" lon="-4.437583973631263">
        <ele>69.349999999999994</ele>
        <time>2023-09-03T08:13:23Z</time>
      </trkpt>
      <trkpt lat="54.976131012663245" lon="-4.437542986124754">
        <ele>69.349999999999994</ele>
        <time>2023-09-03T08:13:24Z</time>
      </trkpt>
      <trkpt lat="54.976308960467577" lon="-4.437463022768498">
        <ele>69.829999999999998</ele>
        <time>2023-09-03T08:13:25Z</time>
      </trkpt>
      <trkpt lat="54.976490009576082" lon="-4.437381969764829">
        <ele>70.310000000000002</ele>
        <time>2023-09-03T08:13:26Z</time>
      </trkpt>
      <trkpt lat="54.976674998179078" lon="-4.43729798309505">
        <ele>70.790000000000006</ele>
        <time>2023-09-03T08:13:27Z</time>
      </trkpt>
      <trkpt lat="54.978050971403718" lon="-4.436914008110762">
        <ele>74.159999999999997</ele>
        <time>2023-09-03T08:13:34Z</time>
      </trkpt>
      <trkpt lat="54.978235960006714" lon="-4.436919037252665">
        <ele>75.120000000000005</ele>
        <time>2023-09-03T08:13:35Z</time>
      </trkpt>
      <trkpt lat="54.978925958275795" lon="-4.436878971755505">
        <ele>79.450000000000003</ele>
        <time>2023-09-03T08:13:39Z</time>
      </trkpt>
      <trkpt lat="54.979080017656088" lon="-4.436821974813938">
        <ele>79.930000000000007</ele>
        <time>2023-09-03T08:13:40Z</time>
      </trkpt>
      <trkpt lat="54.979397021234035" lon="-4.436693983152509">
        <ele>81.849999999999994</ele>
        <time>2023-09-03T08:13:42Z</time>
      </trkpt>
      <trkpt lat="54.97955895960331" lon="-4.436641009524465">
        <ele>82.329999999999998</ele>
        <time>2023-09-03T08:13:43Z</time>
      </trkpt>
      <trkpt lat="54.980013007298112" lon="-4.436560040339828">
        <ele>85.209999999999994</ele>
        <time>2023-09-03T08:13:46Z</time>
      </trkpt>
      <trkpt lat="54.980135969817638" lon="-4.436502959579229">
        <ele>85.689999999999998</ele>
        <time>2023-09-03T08:13:47Z</time>
      </trkpt>
      <trkpt lat="54.980211993679404" lon="-4.436358036473393">
        <ele>87.140000000000001</ele>
        <time>2023-09-03T08:13:48Z</time>
      </trkpt>
      <trkpt lat="54.980268990620971" lon="-4.436186961829662">
        <ele>88.099999999999994</ele>
        <time>2023-09-03T08:13:49Z</time>
      </trkpt>
      <trkpt lat="54.980322970077395" lon="-4.435989987105131">
        <ele>88.579999999999998</ele>
        <time>2023-09-03T08:13:50Z</time>
      </trkpt>
      <trkpt lat="54.980365969240665" lon="-4.435758981853724">
        <ele>89.540000000000006</ele>
        <time>2023-09-03T08:13:51Z</time>
      </trkpt>
      <trkpt lat="54.980650031939149" lon="-4.434382002800703">
        <ele>91.939999999999998</ele>
        <time>2023-09-03T08:13:56Z</time>
      </trkpt>
      <trkpt lat="54.98108496889472" lon="-4.433281039819121">
        <ele>93.390000000000001</ele>
        <time>2023-09-03T08:14:00Z</time>
      </trkpt>
      <trkpt lat="54.981216983869672" lon="-4.433036958798766">
        <ele>93.870000000000005</ele>
        <time>2023-09-03T08:14:01Z</time>
      </trkpt>
      <trkpt lat="54.981603976339102" lon="-4.432357018813491">
        <ele>95.790000000000006</ele>
        <time>2023-09-03T08:14:04Z</time>
      </trkpt>
      <trkpt lat="54.981691986322403" lon="-4.432116961106658">
        <ele>96.269999999999996</ele>
        <time>2023-09-03T08:14:05Z</time>
      </trkpt>
      <trkpt lat="54.981772033497691" lon="-4.431848991662264">
        <ele>96.75</ele>
        <time>2023-09-03T08:14:06Z</time>
      </trkpt>
      <trkpt lat="54.982479969039559" lon="-4.429810009896755">
        <ele>99.629999999999995</ele>
        <time>2023-09-03T08:14:13Z</time>
      </trkpt>
      <trkpt lat="54.98344698920846" lon="-4.4272830337286">
        <ele>103</ele>
        <time>2023-09-03T08:14:21Z</time>
      </trkpt>
      <trkpt lat="54.984185015782714" lon="-4.425243968144059">
        <ele>106.36</ele>
        <time>2023-09-03T08:14:28Z</time>
      </trkpt>
      <trkpt lat="54.984433958306909" lon="-4.424610966816545">
        <ele>107.31999999999999</ele>
        <time>2023-09-03T08:14:31Z</time>
      </trkpt>
      <trkpt lat="54.984470000490546" lon="-4.424368981271982">
        <ele>107.81</ele>
        <time>2023-09-03T08:14:32Z</time>
      </trkpt>
      <trkpt lat="54.98447896912694" lon="-4.424134036526084">
        <ele>108.77</ele>
        <time>2023-09-03T08:14:33Z</time>
      </trkpt>
      <trkpt lat="54.984447034075856" lon="-4.423903031274676">
        <ele>109.73</ele>
        <time>2023-09-03T08:14:34Z</time>
      </trkpt>
      <trkpt lat="54.984408980235457" lon="-4.423687029629946">
        <ele>110.69</ele>
        <time>2023-09-03T08:14:35Z</time>
      </trkpt>
      <trkpt lat="54.98435097746551" lon="-4.423467004671693">
        <ele>111.17</ele>
        <time>2023-09-03T08:14:36Z</time>
      </trkpt>
      <trkpt lat="54.984290041029453" lon="-4.423233987763524">
        <ele>111.65000000000001</ele>
        <time>2023-09-03T08:14:37Z</time>
      </trkpt>
      <trkpt lat="54.984226003289223" lon="-4.42298898473382">
        <ele>112.13</ele>
        <time>2023-09-03T08:14:38Z</time>
      </trkpt>
      <trkpt lat="54.98419800773263" lon="-4.422725960612297">
        <ele>112.61</ele>
        <time>2023-09-03T08:14:39Z</time>
      </trkpt>
      <trkpt lat="54.984212005510926" lon="-4.422440975904465">
        <ele>113.09</ele>
        <time>2023-09-03T08:14:40Z</time>
      </trkpt>
      <trkpt lat="54.984227009117603" lon="-4.42215096205473">
        <ele>113.09</ele>
        <time>2023-09-03T08:14:41Z</time>
      </trkpt>
      <trkpt lat="54.98424201272428" lon="-4.42187000066042">
        <ele>113.56999999999999</ele>
        <time>2023-09-03T08:14:42Z</time>
      </trkpt>
      <trkpt lat="54.984255004674196" lon="-4.421618040651083">
        <ele>113.56999999999999</ele>
        <time>2023-09-03T08:14:43Z</time>
      </trkpt>
      <trkpt lat="54.984291968867183" lon="-4.421415030956268">
        <ele>114.05</ele>
        <time>2023-09-03T08:14:44Z</time>
      </trkpt>
      <trkpt lat="54.98432700522244" lon="-4.421252002939582">
        <ele>114.05</ele>
        <time>2023-09-03T08:14:45Z</time>
      </trkpt>
      <trkpt lat="54.984404034912586" lon="-4.421100039035082">
        <ele>114.53</ele>
        <time>2023-09-03T08:14:46Z</time>
      </trkpt>
      <trkpt lat="54.984470000490546" lon="-4.42096701823175">
        <ele>115.01000000000001</ele>
        <time>2023-09-03T08:14:47Z</time>
      </trkpt>
      <trkpt lat="54.984594974666834" lon="-4.420833997428417">
        <ele>115.98</ele>
        <time>2023-09-03T08:14:48Z</time>
      </trkpt>
      <trkpt lat="54.984720032662153" lon="-4.420699970796704">
        <ele>116.45999999999999</ele>
        <time>2023-09-03T08:14:49Z</time>
      </trkpt>
      <trkpt lat="54.984846012666821" lon="-4.420613972470164">
        <ele>116.94</ele>
        <time>2023-09-03T08:14:50Z</time>
      </trkpt>
      <trkpt lat="54.984984984621406" lon="-4.420555969700217">
        <ele>117.90000000000001</ele>
        <time>2023-09-03T08:14:51Z</time>
      </trkpt>
      <trkpt lat="54.98512202873826" lon="-4.420529985800386">
        <ele>118.38</ele>
        <time>2023-09-03T08:14:52Z</time>
      </trkpt>
      <trkpt lat="54.985412964597344" lon="-4.420502996072173">
        <ele>118.86</ele>
        <time>2023-09-03T08:14:54Z</time>
      </trkpt>
      <trkpt lat="54.985544979572296" lon="-4.420440969988704">
        <ele>118.86</ele>
        <time>2023-09-03T08:14:55Z</time>
      </trkpt>
      <trkpt lat="54.985648998990655" lon="-4.420315995812416">
        <ele>118.86</ele>
        <time>2023-09-03T08:14:56Z</time>
      </trkpt>
      <trkpt lat="54.985737008973956" lon="-4.420169983059168">
        <ele>118.38</ele>
        <time>2023-09-03T08:14:57Z</time>
      </trkpt>
      <trkpt lat="54.985802974551916" lon="-4.419972002506256">
        <ele>118.38</ele>
        <time>2023-09-03T08:14:58Z</time>
      </trkpt>
      <trkpt lat="54.98587598092854" lon="-4.419753989204764">
        <ele>118.38</ele>
        <time>2023-09-03T08:14:59Z</time>
      </trkpt>
      <trkpt lat="54.986015036702156" lon="-4.4193359836936">
        <ele>118.38</ele>
        <time>2023-09-03T08:15:01Z</time>
      </trkpt>
      <trkpt lat="54.986029034480453" lon="-4.419050998985767">
        <ele>118.86</ele>
        <time>2023-09-03T08:15:02Z</time>
      </trkpt>
      <trkpt lat="54.986041020601988" lon="-4.418789986521006">
        <ele>118.86</ele>
        <time>2023-09-03T08:15:03Z</time>
      </trkpt>
      <trkpt lat="54.986069016158581" lon="-4.418224962428212">
        <ele>119.81999999999999</ele>
        <time>2023-09-03T08:15:05Z</time>
      </trkpt>
      <trkpt lat="54.986084019765258" lon="-4.417923968285322">
        <ele>119.81999999999999</ele>
        <time>2023-09-03T08:15:06Z</time>
      </trkpt>
      <trkpt lat="54.986098017543554" lon="-4.417631020769477">
        <ele>119.81999999999999</ele>
        <time>2023-09-03T08:15:07Z</time>
      </trkpt>
      <trkpt lat="54.98611100949347" lon="-4.417361961677671">
        <ele>120.3</ele>
        <time>2023-09-03T08:15:08Z</time>
      </trkpt>
      <trkpt lat="54.986124001443386" lon="-4.417116036638618">
        <ele>120.78</ele>
        <time>2023-09-03T08:15:09Z</time>
      </trkpt>
      <trkpt lat="54.986167000606656" lon="-4.416909003630281">
        <ele>121.26000000000001</ele>
        <time>2023-09-03T08:15:10Z</time>
      </trkpt>
      <trkpt lat="54.986245036125183" lon="-4.416752010583878">
        <ele>121.73999999999999</ele>
        <time>2023-09-03T08:15:11Z</time>
      </trkpt>
      <trkpt lat="54.98634503223002" lon="-4.416640028357506">
        <ele>122.22</ele>
        <time>2023-09-03T08:15:12Z</time>
      </trkpt>
      <trkpt lat="54.986472018063068" lon="-4.41654103808105">
        <ele>122.70999999999999</ele>
        <time>2023-09-03T08:15:13Z</time>
      </trkpt>
      <trkpt lat="54.986600009724498" lon="-4.416440958157182">
        <ele>123.19</ele>
        <time>2023-09-03T08:15:14Z</time>
      </trkpt>
      <trkpt lat="54.986718026921153" lon="-4.41634900867939">
        <ele>123.67</ele>
        <time>2023-09-03T08:15:15Z</time>
      </trkpt>
      <trkpt lat="54.986812993884087" lon="-4.416216993704438">
        <ele>123.67</ele>
        <time>2023-09-03T08:15:16Z</time>
      </trkpt>
      <trkpt lat="54.986863033846021" lon="-4.416058994829655">
        <ele>123.67</ele>
        <time>2023-09-03T08:15:17Z</time>
      </trkpt>
      <trkpt lat="54.986889017745852" lon="-4.415877023711801">
        <ele>123.67</ele>
        <time>2023-09-03T08:15:18Z</time>
      </trkpt>
      <trkpt lat="54.986917013302445" lon="-4.415672002360225">
        <ele>123.67</ele>
        <time>2023-09-03T08:15:19Z</time>
      </trkpt>
      <trkpt lat="54.98692698776722" lon="-4.415442002937198">
        <ele>123.67</ele>
        <time>2023-09-03T08:15:20Z</time>
      </trkpt>
      <trkpt lat="54.986936962231994" lon="-4.415193982422352">
        <ele>123.67</ele>
        <time>2023-09-03T08:15:21Z</time>
      </trkpt>
      <trkpt lat="54.986949032172561" lon="-4.414928024634719">
        <ele>123.67</ele>
        <time>2023-09-03T08:15:22Z</time>
      </trkpt>
      <trkpt lat="54.986964035779238" lon="-4.414642034098506">
        <ele>123.67</ele>
        <time>2023-09-03T08:15:23Z</time>
      </trkpt>
      <trkpt lat="54.987148018553853" lon="-4.41314896568656">
        <ele>123.67</ele>
        <time>2023-09-03T08:15:28Z</time>
      </trkpt>
      <trkpt lat="54.987215995788574" lon="-4.412884013727307">
        <ele>123.67</ele>
        <time>2023-09-03T08:15:29Z</time>
      </trkpt>
      <trkpt lat="54.987524030730128" lon="-4.411784978583455">
        <ele>124.63</ele>
        <time>2023-09-03T08:15:33Z</time>
      </trkpt>
      <trkpt lat="54.987625032663345" lon="-4.411527989432216">
        <ele>124.63</ele>
        <time>2023-09-03T08:15:34Z</time>
      </trkpt>
      <trkpt lat="54.987742966040969" lon="-4.411295978352428">
        <ele>125.11</ele>
        <time>2023-09-03T08:15:35Z</time>
      </trkpt>
      <trkpt lat="54.988164994865656" lon="-4.410361982882023">
        <ele>128.47</ele>
        <time>2023-09-03T08:15:39Z</time>
      </trkpt>
      <trkpt lat="54.988308995962143" lon="-4.409940959885716">
        <ele>131.36000000000001</ele>
        <time>2023-09-03T08:15:41Z</time>
      </trkpt>
      <trkpt lat="54.988390970975161" lon="-4.409765023738146">
        <ele>132.80000000000001</ele>
        <time>2023-09-03T08:15:42Z</time>
      </trkpt>
      <trkpt lat="54.988501025363803" lon="-4.409636026248336">
        <ele>133.75999999999999</ele>
        <time>2023-09-03T08:15:43Z</time>
      </trkpt>
      <trkpt lat="54.98890302143991" lon="-4.409197987988591">
        <ele>136.63999999999999</ele>
        <time>2023-09-03T08:15:46Z</time>
      </trkpt>
      <trkpt lat="54.989069988951087" lon="-4.40906597301364">
        <ele>137.61000000000001</ele>
        <time>2023-09-03T08:15:47Z</time>
      </trkpt>
      <trkpt lat="54.989833999425173" lon="-4.408389972522855">
        <ele>141.93000000000001</ele>
        <time>2023-09-03T08:15:52Z</time>
      </trkpt>
      <trkpt lat="54.989943969994783" lon="-4.408242031931877">
        <ele>142.88999999999999</ele>
        <time>2023-09-03T08:15:53Z</time>
      </trkpt>
      <trkpt lat="54.990033991634846" lon="-4.408052014186978">
        <ele>144.34</ele>
        <time>2023-09-03T08:15:54Z</time>
      </trkpt>
      <trkpt lat="54.990094006061554" lon="-4.407824026420713">
        <ele>145.30000000000001</ele>
        <time>2023-09-03T08:15:55Z</time>
      </trkpt>
      <trkpt lat="54.990141028538346" lon="-4.407566031441093">
        <ele>146.74000000000001</ele>
        <time>2023-09-03T08:15:56Z</time>
      </trkpt>
      <trkpt lat="54.990180004388094" lon="-4.407306024804711">
        <ele>147.69999999999999</ele>
        <time>2023-09-03T08:15:57Z</time>
      </trkpt>
      <trkpt lat="54.990219986066222" lon="-4.407035037875176">
        <ele>148.66</ele>
        <time>2023-09-03T08:15:58Z</time>
      </trkpt>
      <trkpt lat="54.990304978564382" lon="-4.406464984640479">
        <ele>150.09999999999999</ele>
        <time>2023-09-03T08:16:00Z</time>
      </trkpt>
      <trkpt lat="54.990362981334329" lon="-4.406219981610775">
        <ele>151.06</ele>
        <time>2023-09-03T08:16:01Z</time>
      </trkpt>
      <trkpt lat="54.990454008802772" lon="-4.405982019379735">
        <ele>151.53999999999999</ele>
        <time>2023-09-03T08:16:02Z</time>
      </trkpt>
      <trkpt lat="54.990560039877892" lon="-4.405753025785089">
        <ele>152.03</ele>
        <time>2023-09-03T08:16:03Z</time>
      </trkpt>
      <trkpt lat="54.990683002397418" lon="-4.405531994998455">
        <ele>152.50999999999999</ele>
        <time>2023-09-03T08:16:04Z</time>
      </trkpt>
      <trkpt lat="54.99148397706449" lon="-4.404093995690346">
        <ele>152.50999999999999</ele>
        <time>2023-09-03T08:16:10Z</time>
      </trkpt>
      <trkpt lat="54.991598976776004" lon="-4.40393197350204">
        <ele>152.50999999999999</ele>
        <time>2023-09-03T08:16:11Z</time>
      </trkpt>
      <trkpt lat="54.991700984537601" lon="-4.403843963518739">
        <ele>152.03</ele>
        <time>2023-09-03T08:16:12Z</time>
      </trkpt>
      <trkpt lat="54.991877004504204" lon="-4.403796019032598">
        <ele>151.06</ele>
        <time>2023-09-03T08:16:13Z</time>
      </trkpt>
      <trkpt lat="54.992041038349271" lon="-4.403751008212566">
        <ele>150.58000000000001</ele>
        <time>2023-09-03T08:16:14Z</time>
      </trkpt>
      <trkpt lat="54.992409003898501" lon="-4.40365101210773">
        <ele>149.13999999999999</ele>
        <time>2023-09-03T08:16:16Z</time>
      </trkpt>
      <trkpt lat="54.994028974324465" lon="-4.402654990553856">
        <ele>143.37</ele>
        <time>2023-09-03T08:16:24Z</time>
      </trkpt>
      <trkpt lat="54.995206966996193" lon="-4.401864996179938">
        <ele>140.49000000000001</ele>
        <time>2023-09-03T08:16:30Z</time>
      </trkpt>
      <trkpt lat="54.995380975306034" lon="-4.401719989255071">
        <ele>140.49000000000001</ele>
        <time>2023-09-03T08:16:31Z</time>
      </trkpt>
      <trkpt lat="54.995678029954433" lon="-4.401357974857092">
        <ele>139.53</ele>
        <time>2023-09-03T08:16:33Z</time>
      </trkpt>
      <trkpt lat="54.995828988030553" lon="-4.401166029274464">
        <ele>139.05000000000001</ele>
        <time>2023-09-03T08:16:34Z</time>
      </trkpt>
      <trkpt lat="54.995947005227208" lon="-4.400910967960954">
        <ele>138.56999999999999</ele>
        <time>2023-09-03T08:16:35Z</time>
      </trkpt>
      <trkpt lat="54.996563997119665" lon="-4.399618981406093">
        <ele>137.13</ele>
        <time>2023-09-03T08:16:40Z</time>
      </trkpt>
      <trkpt lat="54.997579967603087" lon="-4.398030024021864">
        <ele>132.31999999999999</ele>
        <time>2023-09-03T08:16:47Z</time>
      </trkpt>
      <trkpt lat="54.997644005343318" lon="-4.397784015163779">
        <ele>131.36000000000001</ele>
        <time>2023-09-03T08:16:48Z</time>
      </trkpt>
      <trkpt lat="54.99771298840642" lon="-4.397518979385495">
        <ele>129.91999999999999</ele>
        <time>2023-09-03T08:16:49Z</time>
      </trkpt>
      <trkpt lat="54.99786302447319" lon="-4.396939035505056">
        <ele>127.98999999999999</ele>
        <time>2023-09-03T08:16:51Z</time>
      </trkpt>
      <trkpt lat="54.998601973056793" lon="-4.394678017124534">
        <ele>122.22</ele>
        <time>2023-09-03T08:16:58Z</time>
      </trkpt>
      <trkpt lat="54.999233968555927" lon="-4.392970036715269">
        <ele>120.78</ele>
        <time>2023-09-03T08:17:04Z</time>
      </trkpt>
      <trkpt lat="54.999337987974286" lon="-4.392792005091906">
        <ele>121.73999999999999</ele>
        <time>2023-09-03T08:17:05Z</time>
      </trkpt>
      <trkpt lat="54.999456005170941" lon="-4.392636017873883">
        <ele>122.22</ele>
        <time>2023-09-03T08:17:06Z</time>
      </trkpt>
      <trkpt lat="55.000214986503124" lon="-4.391603032127023">
        <ele>121.73999999999999</ele>
        <time>2023-09-03T08:17:12Z</time>
      </trkpt>
      <trkpt lat="55.000318000093102" lon="-4.391379989683628">
        <ele>121.73999999999999</ele>
        <time>2023-09-03T08:17:13Z</time>
      </trkpt>
      <trkpt lat="55.000425036996603" lon="-4.391149990260601">
        <ele>121.26000000000001</ele>
        <time>2023-09-03T08:17:14Z</time>
      </trkpt>
      <trkpt lat="55.000532995909452" lon="-4.390915967524052">
        <ele>121.26000000000001</ele>
        <time>2023-09-03T08:17:15Z</time>
      </trkpt>
      <trkpt lat="55.000627962872386" lon="-4.390712035819888">
        <ele>121.26000000000001</ele>
        <time>2023-09-03T08:17:16Z</time>
      </trkpt>
      <trkpt lat="55.000781016424298" lon="-4.390467032790184">
        <ele>121.26000000000001</ele>
        <time>2023-09-03T08:17:17Z</time>
      </trkpt>
      <trkpt lat="55.001738984137774" lon="-4.389240005984902">
        <ele>121.26000000000001</ele>
        <time>2023-09-03T08:17:24Z</time>
      </trkpt>
      <trkpt lat="55.002165036275983" lon="-4.388901963829994">
        <ele>120.78</ele>
        <time>2023-09-03T08:17:27Z</time>
      </trkpt>
      <trkpt lat="55.002285987138748" lon="-4.388752011582255">
        <ele>120.3</ele>
        <time>2023-09-03T08:17:28Z</time>
      </trkpt>
      <trkpt lat="55.002390006557107" lon="-4.388551013544202">
        <ele>120.3</ele>
        <time>2023-09-03T08:17:29Z</time>
      </trkpt>
      <trkpt lat="55.002498971298337" lon="-4.388341968879104">
        <ele>119.81999999999999</ele>
        <time>2023-09-03T08:17:30Z</time>
      </trkpt>
      <trkpt lat="55.002613971009851" lon="-4.388122027739883">
        <ele>119.34</ele>
        <time>2023-09-03T08:17:31Z</time>
      </trkpt>
      <trkpt lat="55.003695990890265" lon="-4.386332994326949">
        <ele>117.90000000000001</ele>
        <time>2023-09-03T08:17:39Z</time>
      </trkpt>
      <trkpt lat="55.005255024880171" lon="-4.3849160335958">
        <ele>116.94</ele>
        <time>2023-09-03T08:17:48Z</time>
      </trkpt>
      <trkpt lat="55.005722986534238" lon="-4.384415969252586">
        <ele>116.45999999999999</ele>
        <time>2023-09-03T08:17:51Z</time>
      </trkpt>
      <trkpt lat="55.005830023437738" lon="-4.384223017841578">
        <ele>116.45999999999999</ele>
        <time>2023-09-03T08:17:52Z</time>
      </trkpt>
      <trkpt lat="55.005919961258769" lon="-4.384005004540086">
        <ele>115.98</ele>
        <time>2023-09-03T08:17:53Z</time>
      </trkpt>
      <trkpt lat="55.006634015589952" lon="-4.381665028631687">
        <ele>115.98</ele>
        <time>2023-09-03T08:18:02Z</time>
      </trkpt>
      <trkpt lat="55.006724959239364" lon="-4.381451038643718">
        <ele>116.45999999999999</ele>
        <time>2023-09-03T08:18:03Z</time>
      </trkpt>
      <trkpt lat="55.006839958950877" lon="-4.381264038383961">
        <ele>116.45999999999999</ele>
        <time>2023-09-03T08:18:04Z</time>
      </trkpt>
      <trkpt lat="55.006969962269068" lon="-4.381103022024036">
        <ele>116.94</ele>
        <time>2023-09-03T08:18:05Z</time>
      </trkpt>
      <trkpt lat="55.007113041356206" lon="-4.380959020927548">
        <ele>116.94</ele>
        <time>2023-09-03T08:18:06Z</time>
      </trkpt>
      <trkpt lat="55.007270034402609" lon="-4.38083597458899">
        <ele>117.42</ele>
        <time>2023-09-03T08:18:07Z</time>
      </trkpt>
      <trkpt lat="55.007429039105773" lon="-4.380712006241083">
        <ele>117.42</ele>
        <time>2023-09-03T08:18:08Z</time>
      </trkpt>
      <trkpt lat="55.007713017985225" lon="-4.380489969626069">
        <ele>118.38</ele>
        <time>2023-09-03T08:18:10Z</time>
      </trkpt>
      <trkpt lat="55.007816031575203" lon="-4.380347980186343">
        <ele>118.38</ele>
        <time>2023-09-03T08:18:11Z</time>
      </trkpt>
      <trkpt lat="55.007884008809924" lon="-4.380157040432096">
        <ele>118.38</ele>
        <time>2023-09-03T08:18:12Z</time>
      </trkpt>
      <trkpt lat="55.007948968559504" lon="-4.37995595857501">
        <ele>118.38</ele>
        <time>2023-09-03T08:18:13Z</time>
      </trkpt>
      <trkpt lat="55.008010994642973" lon="-4.379728976637125">
        <ele>117.90000000000001</ele>
        <time>2023-09-03T08:18:14Z</time>
      </trkpt>
      <trkpt lat="55.008221967145801" lon="-4.37896597199142">
        <ele>117.42</ele>
        <time>2023-09-03T08:18:17Z</time>
      </trkpt>
      <trkpt lat="55.008311988785863" lon="-4.378719963133335">
        <ele>117.42</ele>
        <time>2023-09-03T08:18:18Z</time>
      </trkpt>
      <trkpt lat="55.008431011810899" lon="-4.378506978973746">
        <ele>116.94</ele>
        <time>2023-09-03T08:18:19Z</time>
      </trkpt>
      <trkpt lat="55.008566966280341" lon="-4.378311010077596">
        <ele>116.45999999999999</ele>
        <time>2023-09-03T08:18:20Z</time>
      </trkpt>
      <trkpt lat="55.008717002347112" lon="-4.378124009817839">
        <ele>115.98</ele>
        <time>2023-09-03T08:18:21Z</time>
      </trkpt>
      <trkpt lat="55.008877012878656" lon="-4.377926029264927">
        <ele>115.5</ele>
        <time>2023-09-03T08:18:22Z</time>
      </trkpt>
      <trkpt lat="55.010316018015146" lon="-4.376188041642308">
        <ele>115.98</ele>
        <time>2023-09-03T08:18:31Z</time>
      </trkpt>
      <trkpt lat="55.010441998019814" lon="-4.376018978655338">
        <ele>116.45999999999999</ele>
        <time>2023-09-03T08:18:32Z</time>
      </trkpt>
      <trkpt lat="55.01054098829627" lon="-4.375885035842657">
        <ele>117.42</ele>
        <time>2023-09-03T08:18:33Z</time>
      </trkpt>
      <trkpt lat="55.010638972744346" lon="-4.375638021156192">
        <ele>117.90000000000001</ele>
        <time>2023-09-03T08:18:34Z</time>
      </trkpt>
      <trkpt lat="55.010727988556027" lon="-4.375411961227655">
        <ele>118.86</ele>
        <time>2023-09-03T08:18:35Z</time>
      </trkpt>
      <trkpt lat="55.010821027681231" lon="-4.375178022310138">
        <ele>119.81999999999999</ele>
        <time>2023-09-03T08:18:36Z</time>
      </trkpt>
      <trkpt lat="55.010906020179391" lon="-4.374962020665407">
        <ele>120.3</ele>
        <time>2023-09-03T08:18:37Z</time>
      </trkpt>
      <trkpt lat="55.010957987979054" lon="-4.374690027907491">
        <ele>120.78</ele>
        <time>2023-09-03T08:18:38Z</time>
      </trkpt>
      <trkpt lat="55.011008027940989" lon="-4.37443002127111">
        <ele>121.73999999999999</ele>
        <time>2023-09-03T08:18:39Z</time>
      </trkpt>
      <trkpt lat="55.011023031547666" lon="-4.374168002977967">
        <ele>122.22</ele>
        <time>2023-09-03T08:18:40Z</time>
      </trkpt>
      <trkpt lat="55.011035017669201" lon="-4.373891986906529">
        <ele>122.70999999999999</ele>
        <time>2023-09-03T08:18:41Z</time>
      </trkpt>
      <trkpt lat="55.011067036539316" lon="-4.373374991118908">
        <ele>124.15000000000001</ele>
        <time>2023-09-03T08:18:43Z</time>
      </trkpt>
      <trkpt lat="55.011121015995741" lon="-4.373168963938952">
        <ele>124.63</ele>
        <time>2023-09-03T08:18:44Z</time>
      </trkpt>
      <trkpt lat="55.011199973523617" lon="-4.37297098338604">
        <ele>125.59</ele>
        <time>2023-09-03T08:18:45Z</time>
      </trkpt>
      <trkpt lat="55.011304998770356" lon="-4.372859001159668">
        <ele>126.55</ele>
        <time>2023-09-03T08:18:46Z</time>
      </trkpt>
      <trkpt lat="55.011416980996728" lon="-4.372738972306252">
        <ele>127.51000000000001</ele>
        <time>2023-09-03T08:18:47Z</time>
      </trkpt>
      <trkpt lat="55.01155000180006" lon="-4.372637970373035">
        <ele>127.98999999999999</ele>
        <time>2023-09-03T08:18:48Z</time>
      </trkpt>
      <trkpt lat="55.011696014553308" lon="-4.372575022280216">
        <ele>128.47</ele>
        <time>2023-09-03T08:18:49Z</time>
      </trkpt>
      <trkpt lat="55.011855019256473" lon="-4.372507967054844">
        <ele>129.43000000000001</ele>
        <time>2023-09-03T08:18:50Z</time>
      </trkpt>
      <trkpt lat="55.012500006705523" lon="-4.37221703119576">
        <ele>131.84</ele>
        <time>2023-09-03T08:18:54Z</time>
      </trkpt>
      <trkpt lat="55.013739019632339" lon="-4.371182033792138">
        <ele>133.75999999999999</ele>
        <time>2023-09-03T08:19:01Z</time>
      </trkpt>
      <trkpt lat="55.014090975746512" lon="-4.370736032724381">
        <ele>132.80000000000001</ele>
        <time>2023-09-03T08:19:03Z</time>
      </trkpt>
      <trkpt lat="55.014807041734457" lon="-4.369626017287374">
        <ele>130.40000000000001</ele>
        <time>2023-09-03T08:19:08Z</time>
      </trkpt>
      <trkpt lat="55.014957999810576" lon="-4.369499031454325">
        <ele>129.91999999999999</ele>
        <time>2023-09-03T08:19:09Z</time>
      </trkpt>
      <trkpt lat="55.015117004513741" lon="-4.369365004822612">
        <ele>129.43000000000001</ele>
        <time>2023-09-03T08:19:10Z</time>
      </trkpt>
      <trkpt lat="55.015277015045285" lon="-4.369228966534138">
        <ele>128.94999999999999</ele>
        <time>2023-09-03T08:19:11Z</time>
      </trkpt>
      <trkpt lat="55.015476001426578" lon="-4.36906099319458">
        <ele>128.47</ele>
        <time>2023-09-03T08:19:12Z</time>
      </trkpt>
      <trkpt lat="55.015581026673317" lon="-4.368896959349513">
        <ele>127.98999999999999</ele>
        <time>2023-09-03T08:19:13Z</time>
      </trkpt>
      <trkpt lat="55.015707006677985" lon="-4.368698978796601">
        <ele>127.03</ele>
        <time>2023-09-03T08:19:14Z</time>
      </trkpt>
      <trkpt lat="55.015823012217879" lon="-4.368470991030335">
        <ele>126.06999999999999</ele>
        <time>2023-09-03T08:19:15Z</time>
      </trkpt>
      <trkpt lat="55.015916973352432" lon="-4.368231017142534">
        <ele>125.11</ele>
        <time>2023-09-03T08:19:16Z</time>
      </trkpt>
      <trkpt lat="55.015978999435902" lon="-4.367951983585954">
        <ele>124.15000000000001</ele>
        <time>2023-09-03T08:19:17Z</time>
      </trkpt>
      <trkpt lat="55.015992997214198" lon="-4.367675967514515">
        <ele>123.19</ele>
        <time>2023-09-03T08:19:18Z</time>
      </trkpt>
      <trkpt lat="55.01599702052772" lon="-4.367395006120205">
        <ele>122.70999999999999</ele>
        <time>2023-09-03T08:19:19Z</time>
      </trkpt>
      <trkpt lat="55.016000960022211" lon="-4.367102980613709">
        <ele>121.73999999999999</ele>
        <time>2023-09-03T08:19:20Z</time>
      </trkpt>
      <trkpt lat="55.01601898111403" lon="-4.366197986528277">
        <ele>119.34</ele>
        <time>2023-09-03T08:19:23Z</time>
      </trkpt>
      <trkpt lat="55.016086036339402" lon="-4.36564402654767">
        <ele>116.94</ele>
        <time>2023-09-03T08:19:25Z</time>
      </trkpt>
      <trkpt lat="55.016144961118698" lon="-4.365381002426148">
        <ele>115.98</ele>
        <time>2023-09-03T08:19:26Z</time>
      </trkpt>
      <trkpt lat="55.016218973323703" lon="-4.365120995789766">
        <ele>114.53</ele>
        <time>2023-09-03T08:19:27Z</time>
      </trkpt>
      <trkpt lat="55.016304971650243" lon="-4.364874986931682">
        <ele>113.56999999999999</ele>
        <time>2023-09-03T08:19:28Z</time>
      </trkpt>
      <trkpt lat="55.016421983018517" lon="-4.364646999165416">
        <ele>113.09</ele>
        <time>2023-09-03T08:19:29Z</time>
      </trkpt>
      <trkpt lat="55.01653597690165" lon="-4.364426974207163">
        <ele>112.13</ele>
        <time>2023-09-03T08:19:30Z</time>
      </trkpt>
      <trkpt lat="55.016648964956403" lon="-4.364278027787805">
        <ele>111.65000000000001</ele>
        <time>2023-09-03T08:19:31Z</time>
      </trkpt>
      <trkpt lat="55.016783997416496" lon="-4.364179037511349">
        <ele>110.69</ele>
        <time>2023-09-03T08:19:32Z</time>
      </trkpt>
      <trkpt lat="55.017237039282918" lon="-4.363846024498344">
        <ele>109.25</ele>
        <time>2023-09-03T08:19:35Z</time>
      </trkpt>
      <trkpt lat="55.018624998629093" lon="-4.363026022911072">
        <ele>106.36</ele>
        <time>2023-09-03T08:19:43Z</time>
      </trkpt>
      <trkpt lat="55.019147023558617" lon="-4.362766016274691">
        <ele>107.31999999999999</ele>
        <time>2023-09-03T08:19:46Z</time>
      </trkpt>
      <trkpt lat="55.019303010776639" lon="-4.362659985199571">
        <ele>108.29000000000001</ele>
        <time>2023-09-03T08:19:47Z</time>
      </trkpt>
      <trkpt lat="55.019447011873126" lon="-4.362514978274703">
        <ele>108.77</ele>
        <time>2023-09-03T08:19:48Z</time>
      </trkpt>
      <trkpt lat="55.019595958292484" lon="-4.362366031855345">
        <ele>108.77</ele>
        <time>2023-09-03T08:19:49Z</time>
      </trkpt>
      <trkpt lat="55.019700983539224" lon="-4.362148018553853">
        <ele>109.25</ele>
        <time>2023-09-03T08:19:50Z</time>
      </trkpt>
      <trkpt lat="55.019805002957582" lon="-4.361930005252361">
        <ele>109.25</ele>
        <time>2023-09-03T08:19:51Z</time>
      </trkpt>
      <trkpt lat="55.019888989627361" lon="-4.361679973080754">
        <ele>109.73</ele>
        <time>2023-09-03T08:19:52Z</time>
      </trkpt>
      <trkpt lat="55.019966019317508" lon="-4.361416026949883">
        <ele>109.73</ele>
        <time>2023-09-03T08:19:53Z</time>
      </trkpt>
      <trkpt lat="55.0200130417943" lon="-4.361124001443386">
        <ele>109.73</ele>
        <time>2023-09-03T08:19:54Z</time>
      </trkpt>
      <trkpt lat="55.020050005987287" lon="-4.360830970108509">
        <ele>109.73</ele>
        <time>2023-09-03T08:19:55Z</time>
      </trkpt>
      <trkpt lat="55.02005897462368" lon="-4.360514972358942">
        <ele>109.25</ele>
        <time>2023-09-03T08:19:56Z</time>
      </trkpt>
      <trkpt lat="55.020031984895468" lon="-4.360197968780994">
        <ele>109.25</ele>
        <time>2023-09-03T08:19:57Z</time>
      </trkpt>
      <trkpt lat="55.019989991560578" lon="-4.359880965203047">
        <ele>109.25</ele>
        <time>2023-09-03T08:19:58Z</time>
      </trkpt>
      <trkpt lat="55.019944980740547" lon="-4.359551975503564">
        <ele>108.77</ele>
        <time>2023-09-03T08:19:59Z</time>
      </trkpt>
      <trkpt lat="55.019271997734904" lon="-4.356350004673004">
        <ele>108.77</ele>
        <time>2023-09-03T08:20:08Z</time>
      </trkpt>
      <trkpt lat="55.018861033022404" lon="-4.354346981272101">
        <ele>109.73</ele>
        <time>2023-09-03T08:20:14Z</time>
      </trkpt>
      <trkpt lat="55.018802024424076" lon="-4.353997958824039">
        <ele>110.20999999999999</ele>
        <time>2023-09-03T08:20:15Z</time>
      </trkpt>
      <trkpt lat="55.018603960052133" lon="-4.351217010989785">
        <ele>112.61</ele>
        <time>2023-09-03T08:20:23Z</time>
      </trkpt>
      <trkpt lat="55.018591973930597" lon="-4.350889027118683">
        <ele>112.61</ele>
        <time>2023-09-03T08:20:24Z</time>
      </trkpt>
      <trkpt lat="55.018606977537274" lon="-4.350560959428549">
        <ele>113.09</ele>
        <time>2023-09-03T08:20:25Z</time>
      </trkpt>
      <trkpt lat="55.018756007775664" lon="-4.349539959803224">
        <ele>114.53</ele>
        <time>2023-09-03T08:20:28Z</time>
      </trkpt>
      <trkpt lat="55.018849968910217" lon="-4.349234020337462">
        <ele>115.01000000000001</ele>
        <time>2023-09-03T08:20:29Z</time>
      </trkpt>
      <trkpt lat="55.018944013863802" lon="-4.34892900288105">
        <ele>115.5</ele>
        <time>2023-09-03T08:20:30Z</time>
      </trkpt>
      <trkpt lat="55.019937017932534" lon="-4.346917010843754">
        <ele>120.3</ele>
        <time>2023-09-03T08:20:37Z</time>
      </trkpt>
      <trkpt lat="55.021163960918784" lon="-4.344847016036511">
        <ele>127.51000000000001</ele>
        <time>2023-09-03T08:20:45Z</time>
      </trkpt>
      <trkpt lat="55.021251970902085" lon="-4.344555996358395">
        <ele>127.98999999999999</ele>
        <time>2023-09-03T08:20:46Z</time>
      </trkpt>
      <trkpt lat="55.021338975057006" lon="-4.344271011650562">
        <ele>128.47</ele>
        <time>2023-09-03T08:20:47Z</time>
      </trkpt>
      <trkpt lat="55.021505020558834" lon="-4.343727026134729">
        <ele>129.91999999999999</ele>
        <time>2023-09-03T08:20:49Z</time>
      </trkpt>
      <trkpt lat="55.021582972258329" lon="-4.343469031155109">
        <ele>130.40000000000001</ele>
        <time>2023-09-03T08:20:50Z</time>
      </trkpt>
      <trkpt lat="55.021706018596888" lon="-4.343266021460295">
        <ele>130.88</ele>
        <time>2023-09-03T08:20:51Z</time>
      </trkpt>
      <trkpt lat="55.021828981116414" lon="-4.343077009543777">
        <ele>131.36000000000001</ele>
        <time>2023-09-03T08:20:52Z</time>
      </trkpt>
      <trkpt lat="55.021965019404888" lon="-4.342886991798878">
        <ele>131.84</ele>
        <time>2023-09-03T08:20:53Z</time>
      </trkpt>
      <trkpt lat="55.023445012047887" lon="-4.341147998347879">
        <ele>132.31999999999999</ele>
        <time>2023-09-03T08:21:02Z</time>
      </trkpt>
      <trkpt lat="55.024283034726977" lon="-4.340110989287496">
        <ele>132.80000000000001</ele>
        <time>2023-09-03T08:21:07Z</time>
      </trkpt>
      <trkpt lat="55.024381019175053" lon="-4.339943015947938">
        <ele>133.28</ele>
        <time>2023-09-03T08:21:08Z</time>
      </trkpt>
      <trkpt lat="55.0244199950248" lon="-4.339726008474827">
        <ele>133.75999999999999</ele>
        <time>2023-09-03T08:21:09Z</time>
      </trkpt>
      <trkpt lat="55.024457965046167" lon="-4.339510006830096">
        <ele>134.24000000000001</ele>
        <time>2023-09-03T08:21:10Z</time>
      </trkpt>
      <trkpt lat="55.024510016664863" lon="-4.339213036000729">
        <ele>134.72</ele>
        <time>2023-09-03T08:21:11Z</time>
      </trkpt>
      <trkpt lat="55.024516973644495" lon="-4.339036010205746">
        <ele>135.19999999999999</ele>
        <time>2023-09-03T08:21:12Z</time>
      </trkpt>
      <trkpt lat="55.02461495809257" lon="-4.336780020967126">
        <ele>140.00999999999999</ele>
        <time>2023-09-03T08:21:20Z</time>
      </trkpt>
      <trkpt lat="55.024756025522947" lon="-4.33380201458931">
        <ele>142.88999999999999</ele>
        <time>2023-09-03T08:21:27Z</time>
      </trkpt>
      <trkpt lat="55.024798018857837" lon="-4.333045966923237">
        <ele>143.84999999999999</ele>
        <time>2023-09-03T08:21:29Z</time>
      </trkpt>
      <trkpt lat="55.02519397996366" lon="-4.330917969346046">
        <ele>147.69999999999999</ele>
        <time>2023-09-03T08:21:35Z</time>
      </trkpt>
      <trkpt lat="55.02617902122438" lon="-4.327731002122164">
        <ele>148.18000000000001</ele>
        <time>2023-09-03T08:21:44Z</time>
      </trkpt>
      <trkpt lat="55.027092983946204" lon="-4.325473001226783">
        <ele>151.53999999999999</ele>
        <time>2023-09-03T08:21:51Z</time>
      </trkpt>
      <trkpt lat="55.028333002701402" lon="-4.322353005409241">
        <ele>153.47</ele>
        <time>2023-09-03T08:22:00Z</time>
      </trkpt>
      <trkpt lat="55.029177982360125" lon="-4.319930970668793">
        <ele>157.31</ele>
        <time>2023-09-03T08:22:07Z</time>
      </trkpt>
      <trkpt lat="55.03032797947526" lon="-4.315473977476358">
        <ele>163.08000000000001</ele>
        <time>2023-09-03T08:22:19Z</time>
      </trkpt>
      <trkpt lat="55.030848998576403" lon="-4.313819976523519">
        <ele>164.03999999999999</ele>
        <time>2023-09-03T08:22:24Z</time>
      </trkpt>
      <trkpt lat="55.030987970530987" lon="-4.313557036221027">
        <ele>164.03999999999999</ele>
        <time>2023-09-03T08:22:25Z</time>
      </trkpt>
      <trkpt lat="55.03191601485014" lon="-4.312202017754316">
        <ele>168.84999999999999</ele>
        <time>2023-09-03T08:22:31Z</time>
      </trkpt>
      <trkpt lat="55.03240903839469" lon="-4.311782000586391">
        <ele>172.21000000000001</ele>
        <time>2023-09-03T08:22:34Z</time>
      </trkpt>
      <trkpt lat="55.03254197537899" lon="-4.311607992276549">
        <ele>173.16999999999999</ele>
        <time>2023-09-03T08:22:35Z</time>
      </trkpt>
      <trkpt lat="55.032663010060787" lon="-4.311389978975058">
        <ele>173.66</ele>
        <time>2023-09-03T08:22:36Z</time>
      </trkpt>
      <trkpt lat="55.033749975264072" lon="-4.30894497781992">
        <ele>177.97999999999999</ele>
        <time>2023-09-03T08:22:45Z</time>
      </trkpt>
      <trkpt lat="55.034806011244655" lon="-4.306787978857756">
        <ele>180.38</ele>
        <time>2023-09-03T08:22:53Z</time>
      </trkpt>
      <trkpt lat="55.034951018169522" lon="-4.30619697086513">
        <ele>181.83000000000001</ele>
        <time>2023-09-03T08:22:55Z</time>
      </trkpt>
      <trkpt lat="55.035560969263315" lon="-4.303631018847227">
        <ele>188.08000000000001</ele>
        <time>2023-09-03T08:23:03Z</time>
      </trkpt>
      <trkpt lat="55.035640010610223" lon="-4.303348967805505">
        <ele>188.56</ele>
        <time>2023-09-03T08:23:04Z</time>
      </trkpt>
      <trkpt lat="55.035691978409886" lon="-4.30305602028966">
        <ele>189.03999999999999</ele>
        <time>2023-09-03T08:23:05Z</time>
      </trkpt>
      <trkpt lat="55.035717040300369" lon="-4.302738010883331">
        <ele>189.03999999999999</ele>
        <time>2023-09-03T08:23:06Z</time>
      </trkpt>
      <trkpt lat="55.035749981179833" lon="-4.301788005977869">
        <ele>189.52000000000001</ele>
        <time>2023-09-03T08:23:09Z</time>
      </trkpt>
      <trkpt lat="55.035791974514723" lon="-4.301517019048333">
        <ele>190</ele>
        <time>2023-09-03T08:23:10Z</time>
      </trkpt>
      <trkpt lat="55.035866992548108" lon="-4.30127402767539">
        <ele>190.47999999999999</ele>
        <time>2023-09-03T08:23:11Z</time>
      </trkpt>
      <trkpt lat="55.035959025844932" lon="-4.301031036302447">
        <ele>191.44</ele>
        <time>2023-09-03T08:23:12Z</time>
      </trkpt>
      <trkpt lat="55.036068996414542" lon="-4.300796007737517">
        <ele>191.91999999999999</ele>
        <time>2023-09-03T08:23:13Z</time>
      </trkpt>
      <trkpt lat="55.036202017217875" lon="-4.300575982779265">
        <ele>191.91999999999999</ele>
        <time>2023-09-03T08:23:14Z</time>
      </trkpt>
      <trkpt lat="55.036735022440553" lon="-4.299633018672466">
        <ele>194.31999999999999</ele>
        <time>2023-09-03T08:23:18Z</time>
      </trkpt>
      <trkpt lat="55.03683703020215" lon="-4.299349039793015">
        <ele>194.31999999999999</ele>
        <time>2023-09-03T08:23:19Z</time>
      </trkpt>
      <trkpt lat="55.037745963782072" lon="-4.297282984480262">
        <ele>194.31999999999999</ele>
        <time>2023-09-03T08:23:26Z</time>
      </trkpt>
      <trkpt lat="55.038230018690228" lon="-4.296130975708365">
        <ele>193.36000000000001</ele>
        <time>2023-09-03T08:23:30Z</time>
      </trkpt>
      <trkpt lat="55.039210030809045" lon="-4.292792966589332">
        <ele>194.31999999999999</ele>
        <time>2023-09-03T08:23:40Z</time>
      </trkpt>
      <trkpt lat="55.040200017392635" lon="-4.289592001587153">
        <ele>190.96000000000001</ele>
        <time>2023-09-03T08:23:49Z</time>
      </trkpt>
      <trkpt lat="55.041418997570872" lon="-4.286221973598003">
        <ele>184.71000000000001</ele>
        <time>2023-09-03T08:23:59Z</time>
      </trkpt>
      <trkpt lat="55.042924974113703" lon="-4.283554013818502">
        <ele>181.34999999999999</ele>
        <time>2023-09-03T08:24:08Z</time>
      </trkpt>
      <trkpt lat="55.043742964044213" lon="-4.282469982281327">
        <ele>178.94</ele>
        <time>2023-09-03T08:24:13Z</time>
      </trkpt>
      <trkpt lat="55.043857963755727" lon="-4.282235037535429">
        <ele>178.46000000000001</ele>
        <time>2023-09-03T08:24:14Z</time>
      </trkpt>
      <trkpt lat="55.043944967910647" lon="-4.281996991485357">
        <ele>177.97999999999999</ele>
        <time>2023-09-03T08:24:15Z</time>
      </trkpt>
      <trkpt lat="55.043984027579427" lon="-4.281778978183866">
        <ele>177.5</ele>
        <time>2023-09-03T08:24:16Z</time>
      </trkpt>
      <trkpt lat="55.044003976508975" lon="-4.281540010124445">
        <ele>176.53999999999999</ele>
        <time>2023-09-03T08:24:17Z</time>
      </trkpt>
      <trkpt lat="55.044025015085936" lon="-4.281285032629967">
        <ele>176.06</ele>
        <time>2023-09-03T08:24:18Z</time>
      </trkpt>
      <trkpt lat="55.044048987329006" lon="-4.28101597353816">
        <ele>175.58000000000001</ele>
        <time>2023-09-03T08:24:19Z</time>
      </trkpt>
      <trkpt lat="55.044075977057219" lon="-4.280730988830328">
        <ele>174.62</ele>
        <time>2023-09-03T08:24:20Z</time>
      </trkpt>
      <trkpt lat="55.044154012575746" lon="-4.280464025214315">
        <ele>174.13999999999999</ele>
        <time>2023-09-03T08:24:21Z</time>
      </trkpt>
      <trkpt lat="55.044233975932002" lon="-4.280217010527849">
        <ele>173.16999999999999</ele>
        <time>2023-09-03T08:24:22Z</time>
      </trkpt>
      <trkpt lat="55.044345958158374" lon="-4.280045013874769">
        <ele>172.69</ele>
        <time>2023-09-03T08:24:23Z</time>
      </trkpt>
      <trkpt lat="55.044463975355029" lon="-4.279900006949902">
        <ele>172.21000000000001</ele>
        <time>2023-09-03T08:24:24Z</time>
      </trkpt>
      <trkpt lat="55.044603031128645" lon="-4.27978802472353">
        <ele>171.72999999999999</ele>
        <time>2023-09-03T08:24:25Z</time>
      </trkpt>
      <trkpt lat="55.044763963669538" lon="-4.279719963669777">
        <ele>170.77000000000001</ele>
        <time>2023-09-03T08:24:26Z</time>
      </trkpt>
      <trkpt lat="55.04493503831327" lon="-4.279647963121533">
        <ele>170.28999999999999</ele>
        <time>2023-09-03T08:24:27Z</time>
      </trkpt>
      <trkpt lat="55.045121032744646" lon="-4.279601024463773">
        <ele>169.33000000000001</ele>
        <time>2023-09-03T08:24:28Z</time>
      </trkpt>
      <trkpt lat="55.046577975153923" lon="-4.279233980923891">
        <ele>165.96000000000001</ele>
        <time>2023-09-03T08:24:35Z</time>
      </trkpt>
      <trkpt lat="55.047647003084421" lon="-4.27893097512424">
        <ele>167.41</ele>
        <time>2023-09-03T08:24:41Z</time>
      </trkpt>
      <trkpt lat="55.047825034707785" lon="-4.278849000111222">
        <ele>167.88999999999999</ele>
        <time>2023-09-03T08:24:42Z</time>
      </trkpt>
      <trkpt lat="55.048632966354489" lon="-4.278473993763328">
        <ele>166.93000000000001</ele>
        <time>2023-09-03T08:24:48Z</time>
      </trkpt>
      <trkpt lat="55.048721982166171" lon="-4.278433006256819">
        <ele>166.93000000000001</ele>
        <time>2023-09-03T08:24:49Z</time>
      </trkpt>
      <trkpt lat="55.049077039584517" lon="-4.278211975470185">
        <ele>164.52000000000001</ele>
        <time>2023-09-03T08:24:56Z</time>
      </trkpt>
      <trkpt lat="55.04919002763927" lon="-4.278097981587052">
        <ele>160.19999999999999</ele>
        <time>2023-09-03T08:25:06Z</time>
      </trkpt>
      <trkpt lat="55.049217017367482" lon="-4.27807099185884">
        <ele>160.19999999999999</ele>
        <time>2023-09-03T08:25:16Z</time>
      </trkpt>
      <trkpt lat="55.049302009865642" lon="-4.277985999360681">
        <ele>159.24000000000001</ele>
        <time>2023-09-03T08:25:18Z</time>
      </trkpt>
      <trkpt lat="55.049371998757124" lon="-4.277916010469198">
        <ele>159.24000000000001</ele>
        <time>2023-09-03T08:25:19Z</time>
      </trkpt>
      <trkpt lat="55.050075994804502" lon="-4.276987966150045">
        <ele>158.75</ele>
        <time>2023-09-03T08:25:27Z</time>
      </trkpt>
      <trkpt lat="55.050475979223847" lon="-4.276670962572098">
        <ele>160.68000000000001</ele>
        <time>2023-09-03T08:25:31Z</time>
      </trkpt>
      <trkpt lat="55.050585027784109" lon="-4.276641039177775">
        <ele>161.63999999999999</ele>
        <time>2023-09-03T08:25:32Z</time>
      </trkpt>
      <trkpt lat="55.050731040537357" lon="-4.276599967852235">
        <ele>162.59999999999999</ele>
        <time>2023-09-03T08:25:33Z</time>
      </trkpt>
      <trkpt lat="55.050837993621826" lon="-4.276653025299311">
        <ele>163.56</ele>
        <time>2023-09-03T08:25:34Z</time>
      </trkpt>
      <trkpt lat="55.050966991111636" lon="-4.27671798504889">
        <ele>164.52000000000001</ele>
        <time>2023-09-03T08:25:35Z</time>
      </trkpt>
      <trkpt lat="55.051100011914968" lon="-4.276784034445882">
        <ele>165.96000000000001</ele>
        <time>2023-09-03T08:25:36Z</time>
      </trkpt>
      <trkpt lat="55.051386002451181" lon="-4.276927029713988">
        <ele>167.88999999999999</ele>
        <time>2023-09-03T08:25:38Z</time>
      </trkpt>
      <trkpt lat="55.051526986062527" lon="-4.276998024433851">
        <ele>168.84999999999999</ele>
        <time>2023-09-03T08:25:39Z</time>
      </trkpt>
      <trkpt lat="55.051669981330633" lon="-4.277040017768741">
        <ele>170.28999999999999</ele>
        <time>2023-09-03T08:25:40Z</time>
      </trkpt>
      <trkpt lat="55.051819011569023" lon="-4.276997018605471">
        <ele>171.25</ele>
        <time>2023-09-03T08:25:41Z</time>
      </trkpt>
      <trkpt lat="55.051968963816762" lon="-4.276928035542369">
        <ele>172.21000000000001</ele>
        <time>2023-09-03T08:25:42Z</time>
      </trkpt>
      <trkpt lat="55.052101984620094" lon="-4.276787973940373">
        <ele>173.66</ele>
        <time>2023-09-03T08:25:43Z</time>
      </trkpt>
      <trkpt lat="55.05224104039371" lon="-4.276642967015505">
        <ele>174.62</ele>
        <time>2023-09-03T08:25:44Z</time>
      </trkpt>
      <trkpt lat="55.052386969327927" lon="-4.276491003111005">
        <ele>176.06</ele>
        <time>2023-09-03T08:25:45Z</time>
      </trkpt>
      <trkpt lat="55.052782008424401" lon="-4.276096969842911">
        <ele>179.41999999999999</ele>
        <time>2023-09-03T08:25:48Z</time>
      </trkpt>
      <trkpt lat="55.05288896150887" lon="-4.276037961244583">
        <ele>180.87</ele>
        <time>2023-09-03T08:25:49Z</time>
      </trkpt>
      <trkpt lat="55.052983006462455" lon="-4.27604902535677">
        <ele>181.83000000000001</ele>
        <time>2023-09-03T08:25:50Z</time>
      </trkpt>
      <trkpt lat="55.053093982860446" lon="-4.276098981499672">
        <ele>182.78999999999999</ele>
        <time>2023-09-03T08:25:51Z</time>
      </trkpt>
      <trkpt lat="55.053210994228721" lon="-4.276151033118367">
        <ele>183.75</ele>
        <time>2023-09-03T08:25:52Z</time>
      </trkpt>
      <trkpt lat="55.053336974233389" lon="-4.276208030059934">
        <ele>184.22999999999999</ele>
        <time>2023-09-03T08:25:53Z</time>
      </trkpt>
      <trkpt lat="55.053471000865102" lon="-4.27626796066761">
        <ele>185.19</ele>
        <time>2023-09-03T08:25:54Z</time>
      </trkpt>
      <trkpt lat="55.053619025275111" lon="-4.276279024779797">
        <ele>186.15000000000001</ele>
        <time>2023-09-03T08:25:55Z</time>
      </trkpt>
      <trkpt lat="55.053762020543218" lon="-4.276240970939398">
        <ele>187.11000000000001</ele>
        <time>2023-09-03T08:25:56Z</time>
      </trkpt>
      <trkpt lat="55.053909961134195" lon="-4.276175005361438">
        <ele>188.08000000000001</ele>
        <time>2023-09-03T08:25:57Z</time>
      </trkpt>
      <trkpt lat="55.054054968059063" lon="-4.27605003118515">
        <ele>189.03999999999999</ele>
        <time>2023-09-03T08:25:58Z</time>
      </trkpt>
      <trkpt lat="55.054212966933846" lon="-4.275916004553437">
        <ele>189.52000000000001</ele>
        <time>2023-09-03T08:25:59Z</time>
      </trkpt>
      <trkpt lat="55.055532027035952" lon="-4.274827027693391">
        <ele>190.47999999999999</ele>
        <time>2023-09-03T08:26:06Z</time>
      </trkpt>
      <trkpt lat="55.057021994143724" lon="-4.273324990645051">
        <ele>192.88</ele>
        <time>2023-09-03T08:26:14Z</time>
      </trkpt>
      <trkpt lat="55.05802103318274" lon="-4.271363038569689">
        <ele>191.44</ele>
        <time>2023-09-03T08:26:21Z</time>
      </trkpt>
      <trkpt lat="55.058277016505599" lon="-4.270886024460197">
        <ele>190.47999999999999</ele>
        <time>2023-09-03T08:26:23Z</time>
      </trkpt>
      <trkpt lat="55.058434009552002" lon="-4.270761972293258">
        <ele>190.47999999999999</ele>
        <time>2023-09-03T08:26:24Z</time>
      </trkpt>
      <trkpt lat="55.058598965406418" lon="-4.270631968975067">
        <ele>190.47999999999999</ele>
        <time>2023-09-03T08:26:25Z</time>
      </trkpt>
      <trkpt lat="55.060124974697828" lon="-4.269292959943414">
        <ele>190.96000000000001</ele>
        <time>2023-09-03T08:26:34Z</time>
      </trkpt>
      <trkpt lat="55.060274004936218" lon="-4.269095985218883">
        <ele>191.44</ele>
        <time>2023-09-03T08:26:35Z</time>
      </trkpt>
      <trkpt lat="55.061054024845362" lon="-4.268094012513757">
        <ele>192.40000000000001</ele>
        <time>2023-09-03T08:26:40Z</time>
      </trkpt>
      <trkpt lat="55.06124303676188" lon="-4.267969038337469">
        <ele>191.91999999999999</ele>
        <time>2023-09-03T08:26:41Z</time>
      </trkpt>
      <trkpt lat="55.061433976516128" lon="-4.267841968685389">
        <ele>191.91999999999999</ele>
        <time>2023-09-03T08:26:42Z</time>
      </trkpt>
      <trkpt lat="55.061793979257345" lon="-4.267601994797587">
        <ele>191.91999999999999</ele>
        <time>2023-09-03T08:26:44Z</time>
      </trkpt>
      <trkpt lat="55.061952983960509" lon="-4.267460005357862">
        <ele>191.91999999999999</ele>
        <time>2023-09-03T08:26:45Z</time>
      </trkpt>
      <trkpt lat="55.062093967571855" lon="-4.267266970127821">
        <ele>192.40000000000001</ele>
        <time>2023-09-03T08:26:46Z</time>
      </trkpt>
      <trkpt lat="55.062222965061665" lon="-4.26704803481698">
        <ele>192.88</ele>
        <time>2023-09-03T08:26:47Z</time>
      </trkpt>
      <trkpt lat="55.062351040542126" lon="-4.266831027343869">
        <ele>193.84</ele>
        <time>2023-09-03T08:26:48Z</time>
      </trkpt>
      <trkpt lat="55.062593026086688" lon="-4.266424002125859">
        <ele>194.80000000000001</ele>
        <time>2023-09-03T08:26:50Z</time>
      </trkpt>
      <trkpt lat="55.06268497556448" lon="-4.266198026016355">
        <ele>195.28</ele>
        <time>2023-09-03T08:26:51Z</time>
      </trkpt>
      <trkpt lat="55.062762005254626" lon="-4.265946988016367">
        <ele>195.77000000000001</ele>
        <time>2023-09-03T08:26:52Z</time>
      </trkpt>
      <trkpt lat="55.062838029116392" lon="-4.265674995258451">
        <ele>195.77000000000001</ele>
        <time>2023-09-03T08:26:53Z</time>
      </trkpt>
      <trkpt lat="55.062910029664636" lon="-4.265374001115561">
        <ele>195.77000000000001</ele>
        <time>2023-09-03T08:26:54Z</time>
      </trkpt>
      <trkpt lat="55.063487961888313" lon="-4.262552987784147">
        <ele>195.77000000000001</ele>
        <time>2023-09-03T08:27:02Z</time>
      </trkpt>
      <trkpt lat="55.064321961253881" lon="-4.258477035909891">
        <ele>193.84</ele>
        <time>2023-09-03T08:27:12Z</time>
      </trkpt>
      <trkpt lat="55.065012965351343" lon="-4.25591703504324">
        <ele>194.31999999999999</ele>
        <time>2023-09-03T08:27:19Z</time>
      </trkpt>
      <trkpt lat="55.065621994435787" lon="-4.254172006621957">
        <ele>194.80000000000001</ele>
        <time>2023-09-03T08:27:24Z</time>
      </trkpt>
      <trkpt lat="55.066522965207696" lon="-4.251310005784035">
        <ele>195.77000000000001</ele>
        <time>2023-09-03T08:27:32Z</time>
      </trkpt>
      <trkpt lat="55.067671034485102" lon="-4.245969979092479">
        <ele>192.88</ele>
        <time>2023-09-03T08:27:46Z</time>
      </trkpt>
      <trkpt lat="55.067688971757889" lon="-4.245569994673133">
        <ele>192.88</ele>
        <time>2023-09-03T08:27:47Z</time>
      </trkpt>
      <trkpt lat="55.067701963707805" lon="-4.245169004425407">
        <ele>192.40000000000001</ele>
        <time>2023-09-03T08:27:48Z</time>
      </trkpt>
      <trkpt lat="55.067682014778256" lon="-4.244769020006061">
        <ele>192.40000000000001</ele>
        <time>2023-09-03T08:27:49Z</time>
      </trkpt>
      <trkpt lat="55.067662987858057" lon="-4.244365012273192">
        <ele>192.40000000000001</ele>
        <time>2023-09-03T08:27:50Z</time>
      </trkpt>
      <trkpt lat="55.067643038928509" lon="-4.240722991526127">
        <ele>194.31999999999999</ele>
        <time>2023-09-03T08:27:59Z</time>
      </trkpt>
      <trkpt lat="55.067809000611305" lon="-4.238873021677136">
        <ele>196.72999999999999</ele>
        <time>2023-09-03T08:28:04Z</time>
      </trkpt>
      <trkpt lat="55.067789973691106" lon="-4.238573033362627">
        <ele>197.21000000000001</ele>
        <time>2023-09-03T08:28:05Z</time>
      </trkpt>
      <trkpt lat="55.067750997841358" lon="-4.238272039219737">
        <ele>197.21000000000001</ele>
        <time>2023-09-03T08:28:06Z</time>
      </trkpt>
      <trkpt lat="55.067692995071411" lon="-4.237971967086196">
        <ele>197.69</ele>
        <time>2023-09-03T08:28:07Z</time>
      </trkpt>
      <trkpt lat="55.067632980644703" lon="-4.237659992650151">
        <ele>198.16999999999999</ele>
        <time>2023-09-03T08:28:08Z</time>
      </trkpt>
      <trkpt lat="55.067571038380265" lon="-4.237338965758681">
        <ele>198.16999999999999</ele>
        <time>2023-09-03T08:28:09Z</time>
      </trkpt>
      <trkpt lat="55.067530972883105" lon="-4.236997989937663">
        <ele>198.16999999999999</ele>
        <time>2023-09-03T08:28:10Z</time>
      </trkpt>
      <trkpt lat="55.067526027560234" lon="-4.23664796166122">
        <ele>198.65000000000001</ele>
        <time>2023-09-03T08:28:11Z</time>
      </trkpt>
      <trkpt lat="55.067520998418331" lon="-4.236288964748383">
        <ele>198.65000000000001</ele>
        <time>2023-09-03T08:28:12Z</time>
      </trkpt>
      <trkpt lat="55.067520998418331" lon="-4.233765006065369">
        <ele>200.09</ele>
        <time>2023-09-03T08:28:19Z</time>
      </trkpt>
      <trkpt lat="55.067571038380265" lon="-4.233420006930828">
        <ele>200.09</ele>
        <time>2023-09-03T08:28:20Z</time>
      </trkpt>
      <trkpt lat="55.067622000351548" lon="-4.23305899836123">
        <ele>199.61000000000001</ele>
        <time>2023-09-03T08:28:21Z</time>
      </trkpt>
      <trkpt lat="55.067692995071411" lon="-4.232695978134871">
        <ele>199.61000000000001</ele>
        <time>2023-09-03T08:28:22Z</time>
      </trkpt>
      <trkpt lat="55.067772958427668" lon="-4.232335975393653">
        <ele>199.61000000000001</ele>
        <time>2023-09-03T08:28:23Z</time>
      </trkpt>
      <trkpt lat="55.068471003323793" lon="-4.228523969650269">
        <ele>200.56999999999999</ele>
        <time>2023-09-03T08:28:33Z</time>
      </trkpt>
      <trkpt lat="55.068692034110427" lon="-4.225458037108183">
        <ele>200.56999999999999</ele>
        <time>2023-09-03T08:28:41Z</time>
      </trkpt>
      <trkpt lat="55.068884985521436" lon="-4.221836971119046">
        <ele>199.13</ele>
        <time>2023-09-03T08:28:50Z</time>
      </trkpt>
      <trkpt lat="55.06876302883029" lon="-4.21920002438128">
        <ele>195.28</ele>
        <time>2023-09-03T08:28:57Z</time>
      </trkpt>
      <trkpt lat="55.068740984424949" lon="-4.218891989439726">
        <ele>195.28</ele>
        <time>2023-09-03T08:28:58Z</time>
      </trkpt>
      <trkpt lat="55.068773003295064" lon="-4.218604993075132">
        <ele>194.80000000000001</ele>
        <time>2023-09-03T08:28:59Z</time>
      </trkpt>
      <trkpt lat="55.068825976923108" lon="-4.218350015580654">
        <ele>194.80000000000001</ele>
        <time>2023-09-03T08:29:00Z</time>
      </trkpt>
      <trkpt lat="55.068876016885042" lon="-4.21810501255095">
        <ele>194.80000000000001</ele>
        <time>2023-09-03T08:29:01Z</time>
      </trkpt>
      <trkpt lat="55.068983975797892" lon="-4.217893034219742">
        <ele>194.80000000000001</ele>
        <time>2023-09-03T08:29:02Z</time>
      </trkpt>
      <trkpt lat="55.069099981337786" lon="-4.217692958191037">
        <ele>194.80000000000001</ele>
        <time>2023-09-03T08:29:03Z</time>
      </trkpt>
      <trkpt lat="55.069226967170835" lon="-4.217476034536958">
        <ele>194.31999999999999</ele>
        <time>2023-09-03T08:29:04Z</time>
      </trkpt>
      <trkpt lat="55.069599039852619" lon="-4.216796010732651">
        <ele>192.88</ele>
        <time>2023-09-03T08:29:07Z</time>
      </trkpt>
      <trkpt lat="55.069684032350779" lon="-4.216529969125986">
        <ele>192.40000000000001</ele>
        <time>2023-09-03T08:29:08Z</time>
      </trkpt>
      <trkpt lat="55.069761984050274" lon="-4.216261999681592">
        <ele>191.91999999999999</ele>
        <time>2023-09-03T08:29:09Z</time>
      </trkpt>
      <trkpt lat="55.069829039275646" lon="-4.215967040508986">
        <ele>191.91999999999999</ele>
        <time>2023-09-03T08:29:10Z</time>
      </trkpt>
      <trkpt lat="55.069876983761787" lon="-4.215651964768767">
        <ele>191.44</ele>
        <time>2023-09-03T08:29:11Z</time>
      </trkpt>
      <trkpt lat="55.070171020925045" lon="-4.212732966989279">
        <ele>189.52000000000001</ele>
        <time>2023-09-03T08:29:19Z</time>
      </trkpt>
      <trkpt lat="55.070223994553089" lon="-4.210339011624456">
        <ele>190</ele>
        <time>2023-09-03T08:29:25Z</time>
      </trkpt>
      <trkpt lat="55.07016004063189" lon="-4.209556980058551">
        <ele>190</ele>
        <time>2023-09-03T08:29:27Z</time>
      </trkpt>
      <trkpt lat="55.070084016770124" lon="-4.209221033379436">
        <ele>190.47999999999999</ele>
        <time>2023-09-03T08:29:28Z</time>
      </trkpt>
      <trkpt lat="55.069979997351766" lon="-4.208593983203173">
        <ele>190.96000000000001</ele>
        <time>2023-09-03T08:29:30Z</time>
      </trkpt>
      <trkpt lat="55.069965999573469" lon="-4.208324002102017">
        <ele>190.96000000000001</ele>
        <time>2023-09-03T08:29:31Z</time>
      </trkpt>
      <trkpt lat="55.06999097764492" lon="-4.20807296410203">
        <ele>190.96000000000001</ele>
        <time>2023-09-03T08:29:32Z</time>
      </trkpt>
      <trkpt lat="55.070056021213531" lon="-4.207846987992525">
        <ele>191.44</ele>
        <time>2023-09-03T08:29:33Z</time>
      </trkpt>
      <trkpt lat="55.070172026753426" lon="-4.207570971921086">
        <ele>191.44</ele>
        <time>2023-09-03T08:29:34Z</time>
      </trkpt>
      <trkpt lat="55.070272022858262" lon="-4.207411967217922">
        <ele>190.96000000000001</ele>
        <time>2023-09-03T08:29:35Z</time>
      </trkpt>
      <trkpt lat="55.070404037833214" lon="-4.207202000543475">
        <ele>190.96000000000001</ele>
        <time>2023-09-03T08:29:36Z</time>
      </trkpt>
      <trkpt lat="55.070534041151404" lon="-4.206993961706758">
        <ele>190.47999999999999</ele>
        <time>2023-09-03T08:29:37Z</time>
      </trkpt>
      <trkpt lat="55.070651974529028" lon="-4.206785000860691">
        <ele>190.47999999999999</ele>
        <time>2023-09-03T08:29:38Z</time>
      </trkpt>
      <trkpt lat="55.070717018097639" lon="-4.206491969525814">
        <ele>190</ele>
        <time>2023-09-03T08:29:39Z</time>
      </trkpt>
      <trkpt lat="55.070787006989121" lon="-4.206182006746531">
        <ele>189.52000000000001</ele>
        <time>2023-09-03T08:29:40Z</time>
      </trkpt>
      <trkpt lat="55.070859007537365" lon="-4.205857962369919">
        <ele>189.03999999999999</ele>
        <time>2023-09-03T08:29:41Z</time>
      </trkpt>
      <trkpt lat="55.071551017463207" lon="-4.203513963147998">
        <ele>185.66999999999999</ele>
        <time>2023-09-03T08:29:48Z</time>
      </trkpt>
      <trkpt lat="55.072058960795403" lon="-4.202244020998478">
        <ele>183.27000000000001</ele>
        <time>2023-09-03T08:29:52Z</time>
      </trkpt>
      <trkpt lat="55.072151999920607" lon="-4.201916959136725">
        <ele>182.31</ele>
        <time>2023-09-03T08:29:53Z</time>
      </trkpt>
      <trkpt lat="55.072189969941974" lon="-4.201577994972467">
        <ele>181.34999999999999</ele>
        <time>2023-09-03T08:29:54Z</time>
      </trkpt>
      <trkpt lat="55.072228023782372" lon="-4.201250011101365">
        <ele>180.87</ele>
        <time>2023-09-03T08:29:55Z</time>
      </trkpt>
      <trkpt lat="55.072263982146978" lon="-4.200933007523418">
        <ele>180.87</ele>
        <time>2023-09-03T08:29:56Z</time>
      </trkpt>
      <trkpt lat="55.072312010452151" lon="-4.200649028643966">
        <ele>180.87</ele>
        <time>2023-09-03T08:29:57Z</time>
      </trkpt>
      <trkpt lat="55.072365989908576" lon="-4.200375024229288">
        <ele>180.87</ele>
        <time>2023-09-03T08:29:58Z</time>
      </trkpt>
      <trkpt lat="55.072452994063497" lon="-4.200118035078049">
        <ele>180.87</ele>
        <time>2023-09-03T08:29:59Z</time>
      </trkpt>
      <trkpt lat="55.072558019310236" lon="-4.199849981814623">
        <ele>180.87</ele>
        <time>2023-09-03T08:30:00Z</time>
      </trkpt>
      <trkpt lat="55.072671007364988" lon="-4.199564997106791">
        <ele>180.87</ele>
        <time>2023-09-03T08:30:01Z</time>
      </trkpt>
      <trkpt lat="55.072800004854798" lon="-4.199288981035352">
        <ele>179.90000000000001</ele>
        <time>2023-09-03T08:30:02Z</time>
      </trkpt>
      <trkpt lat="55.072938976809382" lon="-4.199010031297803">
        <ele>179.41999999999999</ele>
        <time>2023-09-03T08:30:03Z</time>
      </trkpt>
      <trkpt lat="55.073202000930905" lon="-4.198484988883138">
        <ele>177.97999999999999</ele>
        <time>2023-09-03T08:30:05Z</time>
      </trkpt>
      <trkpt lat="55.073317000642419" lon="-4.198254989460111">
        <ele>177.02000000000001</ele>
        <time>2023-09-03T08:30:06Z</time>
      </trkpt>
      <trkpt lat="55.073367040604353" lon="-4.197965981438756">
        <ele>176.53999999999999</ele>
        <time>2023-09-03T08:30:07Z</time>
      </trkpt>
      <trkpt lat="55.073409033939242" lon="-4.197684014216065">
        <ele>175.58000000000001</ele>
        <time>2023-09-03T08:30:08Z</time>
      </trkpt>
      <trkpt lat="55.073453960940242" lon="-4.197381008416414">
        <ele>175.09999999999999</ele>
        <time>2023-09-03T08:30:09Z</time>
      </trkpt>
      <trkpt lat="55.073716985061765" lon="-4.194544991478324">
        <ele>170.28999999999999</ele>
        <time>2023-09-03T08:30:17Z</time>
      </trkpt>
      <trkpt lat="55.073751015588641" lon="-4.193468000739813">
        <ele>168.84999999999999</ele>
        <time>2023-09-03T08:30:20Z</time>
      </trkpt>
      <trkpt lat="55.073731988668442" lon="-4.193105986341834">
        <ele>167.88999999999999</ele>
        <time>2023-09-03T08:30:21Z</time>
      </trkpt>
      <trkpt lat="55.07368303835392" lon="-4.192741038277745">
        <ele>167.41</ele>
        <time>2023-09-03T08:30:22Z</time>
      </trkpt>
      <trkpt lat="55.073196971789002" lon="-4.190179025754333">
        <ele>163.56</ele>
        <time>2023-09-03T08:30:29Z</time>
      </trkpt>
      <trkpt lat="55.072069019079208" lon="-4.187211999669671">
        <ele>157.78999999999999</ele>
        <time>2023-09-03T08:30:38Z</time>
      </trkpt>
      <trkpt lat="55.071181962266564" lon="-4.184686029329896">
        <ele>153.94999999999999</ele>
        <time>2023-09-03T08:30:46Z</time>
      </trkpt>
      <trkpt lat="55.070922039449215" lon="-4.183829985558987">
        <ele>152.03</ele>
        <time>2023-09-03T08:30:49Z</time>
      </trkpt>
      <trkpt lat="55.07086998783052" lon="-4.183282982558012">
        <ele>151.06</ele>
        <time>2023-09-03T08:30:51Z</time>
      </trkpt>
      <trkpt lat="55.070845009759068" lon="-4.183017024770379">
        <ele>150.09999999999999</ele>
        <time>2023-09-03T08:30:52Z</time>
      </trkpt>
      <trkpt lat="55.070903012529016" lon="-4.180725999176502">
        <ele>146.25999999999999</ele>
        <time>2023-09-03T08:30:59Z</time>
      </trkpt>
      <trkpt lat="55.071150027215481" lon="-4.177160002291203">
        <ele>141.44999999999999</ele>
        <time>2023-09-03T08:31:09Z</time>
      </trkpt>
      <trkpt lat="55.071267038583755" lon="-4.176522977650166">
        <ele>139.53</ele>
        <time>2023-09-03T08:31:11Z</time>
      </trkpt>
      <trkpt lat="55.071339039131999" lon="-4.176227012649179">
        <ele>138.56999999999999</ele>
        <time>2023-09-03T08:31:12Z</time>
      </trkpt>
      <trkpt lat="55.071442974731326" lon="-4.175947979092598">
        <ele>137.61000000000001</ele>
        <time>2023-09-03T08:31:13Z</time>
      </trkpt>
      <trkpt lat="55.072326008230448" lon="-4.173873960971832">
        <ele>133.75999999999999</ele>
        <time>2023-09-03T08:31:20Z</time>
      </trkpt>
      <trkpt lat="55.072617027908564" lon="-4.173040967434645">
        <ele>133.28</ele>
        <time>2023-09-03T08:31:23Z</time>
      </trkpt>
      <trkpt lat="55.072685005143285" lon="-4.172777021303773">
        <ele>133.28</ele>
        <time>2023-09-03T08:31:24Z</time>
      </trkpt>
      <trkpt lat="55.072704032063484" lon="-4.172497987747192">
        <ele>132.80000000000001</ele>
        <time>2023-09-03T08:31:25Z</time>
      </trkpt>
      <trkpt lat="55.072704032063484" lon="-4.172199005261064">
        <ele>132.31999999999999</ele>
        <time>2023-09-03T08:31:26Z</time>
      </trkpt>
      <trkpt lat="55.072680981829762" lon="-4.171876972541213">
        <ele>131.36000000000001</ele>
        <time>2023-09-03T08:31:27Z</time>
      </trkpt>
      <trkpt lat="55.072643011808395" lon="-4.171545971184969">
        <ele>130.88</ele>
        <time>2023-09-03T08:31:28Z</time>
      </trkpt>
      <trkpt lat="55.07230899296701" lon="-4.169275984168053">
        <ele>127.03</ele>
        <time>2023-09-03T08:31:34Z</time>
      </trkpt>
      <trkpt lat="55.072032976895571" lon="-4.167144969105721">
        <ele>125.11</ele>
        <time>2023-09-03T08:31:40Z</time>
      </trkpt>
      <trkpt lat="55.071599967777729" lon="-4.164342982694507">
        <ele>116.94</ele>
        <time>2023-09-03T08:31:48Z</time>
      </trkpt>
      <trkpt lat="55.071585969999433" lon="-4.164016004651785">
        <ele>115.98</ele>
        <time>2023-09-03T08:31:49Z</time>
      </trkpt>
      <trkpt lat="55.071612959727645" lon="-4.163084020838141">
        <ele>114.05</ele>
        <time>2023-09-03T08:31:52Z</time>
      </trkpt>
      <trkpt lat="55.071990983560681" lon="-4.160730969160795">
        <ele>109.73</ele>
        <time>2023-09-03T08:31:59Z</time>
      </trkpt>
      <trkpt lat="55.072304969653487" lon="-4.159202026203275">
        <ele>109.73</ele>
        <time>2023-09-03T08:32:04Z</time>
      </trkpt>
      <trkpt lat="55.072384011000395" lon="-4.158939002081752">
        <ele>109.73</ele>
        <time>2023-09-03T08:32:05Z</time>
      </trkpt>
      <trkpt lat="55.072477972134948" lon="-4.158683018758893">
        <ele>109.73</ele>
        <time>2023-09-03T08:32:06Z</time>
      </trkpt>
      <trkpt lat="55.0726099871099" lon="-4.158472968265414">
        <ele>109.73</ele>
        <time>2023-09-03T08:32:07Z</time>
      </trkpt>
      <trkpt lat="55.072748037055135" lon="-4.158254032954574">
        <ele>109.73</ele>
        <time>2023-09-03T08:32:08Z</time>
      </trkpt>
      <trkpt lat="55.073798038065434" lon="-4.156818967312574">
        <ele>106.36</ele>
        <time>2023-09-03T08:32:15Z</time>
      </trkpt>
      <trkpt lat="55.074570011347532" lon="-4.156427029520273">
        <ele>104.44</ele>
        <time>2023-09-03T08:32:20Z</time>
      </trkpt>
      <trkpt lat="55.075708022341132" lon="-4.156384030357003">
        <ele>102.04000000000001</ele>
        <time>2023-09-03T08:32:26Z</time>
      </trkpt>
      <trkpt lat="55.075911032035947" lon="-4.156414959579706">
        <ele>102.04000000000001</ele>
        <time>2023-09-03T08:32:27Z</time>
      </trkpt>
      <trkpt lat="55.076438002288342" lon="-4.156587040051818">
        <ele>101.56</ele>
        <time>2023-09-03T08:32:30Z</time>
      </trkpt>
      <trkpt lat="55.076577980071306" lon="-4.156535994261503">
        <ele>101.56</ele>
        <time>2023-09-03T08:32:31Z</time>
      </trkpt>
      <trkpt lat="55.076688034459949" lon="-4.156481008976698">
        <ele>101.56</ele>
        <time>2023-09-03T08:32:32Z</time>
      </trkpt>
      <trkpt lat="55.076786018908024" lon="-4.156339019536972">
        <ele>101.56</ele>
        <time>2023-09-03T08:32:33Z</time>
      </trkpt>
      <trkpt lat="55.076873023062944" lon="-4.156193006783724">
        <ele>101.08</ele>
        <time>2023-09-03T08:32:34Z</time>
      </trkpt>
      <trkpt lat="55.076921973377466" lon="-4.155953032895923">
        <ele>100.59999999999999</ele>
        <time>2023-09-03T08:32:35Z</time>
      </trkpt>
      <trkpt lat="55.076977964490652" lon="-4.155681962147355">
        <ele>100.59999999999999</ele>
        <time>2023-09-03T08:32:36Z</time>
      </trkpt>
      <trkpt lat="55.077024986967444" lon="-4.155380968004465">
        <ele>100.11</ele>
        <time>2023-09-03T08:32:37Z</time>
      </trkpt>
      <trkpt lat="55.077048037201166" lon="-4.155036974698305">
        <ele>99.629999999999995</ele>
        <time>2023-09-03T08:32:38Z</time>
      </trkpt>
      <trkpt lat="55.077102016657591" lon="-4.153624037280679">
        <ele>98.189999999999998</ele>
        <time>2023-09-03T08:32:42Z</time>
      </trkpt>
      <trkpt lat="55.07707703858614" lon="-4.153293035924435">
        <ele>98.189999999999998</ele>
        <time>2023-09-03T08:32:43Z</time>
      </trkpt>
      <trkpt lat="55.077028004452586" lon="-4.152631033211947">
        <ele>97.230000000000004</ele>
        <time>2023-09-03T08:32:45Z</time>
      </trkpt>
      <trkpt lat="55.077028004452586" lon="-4.152325009927154">
        <ele>96.75</ele>
        <time>2023-09-03T08:32:46Z</time>
      </trkpt>
      <trkpt lat="55.077048959210515" lon="-4.152024015784264">
        <ele>96.269999999999996</ele>
        <time>2023-09-03T08:32:47Z</time>
      </trkpt>
      <trkpt lat="55.077060023322701" lon="-4.151465026661754">
        <ele>94.829999999999998</ele>
        <time>2023-09-03T08:32:49Z</time>
      </trkpt>
      <trkpt lat="55.077025992795825" lon="-4.151218011975288">
        <ele>93.870000000000005</ele>
        <time>2023-09-03T08:32:50Z</time>
      </trkpt>
      <trkpt lat="55.076959021389484" lon="-4.150992035865784">
        <ele>93.390000000000001</ele>
        <time>2023-09-03T08:32:51Z</time>
      </trkpt>
      <trkpt lat="55.076889032498002" lon="-4.150758013129234">
        <ele>92.420000000000002</ele>
        <time>2023-09-03T08:32:52Z</time>
      </trkpt>
      <trkpt lat="55.076818037778139" lon="-4.150519967079163">
        <ele>91.939999999999998</ele>
        <time>2023-09-03T08:32:53Z</time>
      </trkpt>
      <trkpt lat="55.076747965067625" lon="-4.150285022333264">
        <ele>90.980000000000004</ele>
        <time>2023-09-03T08:32:54Z</time>
      </trkpt>
      <trkpt lat="55.076689040288329" lon="-4.150034990161657">
        <ele>90.5</ele>
        <time>2023-09-03T08:32:55Z</time>
      </trkpt>
      <trkpt lat="55.076663978397846" lon="-4.149743970483542">
        <ele>89.540000000000006</ele>
        <time>2023-09-03T08:32:56Z</time>
      </trkpt>
      <trkpt lat="55.076635982841253" lon="-4.149431996047497">
        <ele>88.579999999999998</ele>
        <time>2023-09-03T08:32:57Z</time>
      </trkpt>
      <trkpt lat="55.076565993949771" lon="-4.148089969530702">
        <ele>85.209999999999994</ele>
        <time>2023-09-03T08:33:01Z</time>
      </trkpt>
      <trkpt lat="55.076608993113041" lon="-4.147781012579799">
        <ele>84.730000000000004</ele>
        <time>2023-09-03T08:33:02Z</time>
      </trkpt>
      <trkpt lat="55.076646963134408" lon="-4.147506002336741">
        <ele>83.769999999999996</ele>
        <time>2023-09-03T08:33:03Z</time>
      </trkpt>
      <trkpt lat="55.076717035844922" lon="-4.146995963528752">
        <ele>81.849999999999994</ele>
        <time>2023-09-03T08:33:05Z</time>
      </trkpt>
      <trkpt lat="55.076717035844922" lon="-4.146725982427597">
        <ele>80.890000000000001</ele>
        <time>2023-09-03T08:33:06Z</time>
      </trkpt>
      <trkpt lat="55.076717035844922" lon="-4.146494977176189">
        <ele>79.930000000000007</ele>
        <time>2023-09-03T08:33:07Z</time>
      </trkpt>
      <trkpt lat="55.076705971732736" lon="-4.146295990794897">
        <ele>78.969999999999999</ele>
        <time>2023-09-03T08:33:08Z</time>
      </trkpt>
      <trkpt lat="55.07664998061955" lon="-4.146118964999914">
        <ele>78</ele>
        <time>2023-09-03T08:33:09Z</time>
      </trkpt>
      <trkpt lat="55.076588038355112" lon="-4.145922996103764">
        <ele>77.040000000000006</ele>
        <time>2023-09-03T08:33:10Z</time>
      </trkpt>
      <trkpt lat="55.076513020321727" lon="-4.145786035805941">
        <ele>76.079999999999998</ele>
        <time>2023-09-03T08:33:11Z</time>
      </trkpt>
      <trkpt lat="55.075959982350469" lon="-4.144694041460753">
        <ele>70.310000000000002</ele>
        <time>2023-09-03T08:33:18Z</time>
      </trkpt>
      <trkpt lat="55.075915977358818" lon="-4.144508969038725">
        <ele>69.829999999999998</ele>
        <time>2023-09-03T08:33:19Z</time>
      </trkpt>
      <trkpt lat="55.075880018994212" lon="-4.144320040941238">
        <ele>69.349999999999994</ele>
        <time>2023-09-03T08:33:20Z</time>
      </trkpt>
      <trkpt lat="55.075859986245632" lon="-4.144125999882817">
        <ele>68.870000000000005</ele>
        <time>2023-09-03T08:33:21Z</time>
      </trkpt>
      <trkpt lat="55.075864009559155" lon="-4.143920978531241">
        <ele>68.390000000000001</ele>
        <time>2023-09-03T08:33:22Z</time>
      </trkpt>
      <trkpt lat="55.075869038701057" lon="-4.143712017685175">
        <ele>67.909999999999997</ele>
        <time>2023-09-03T08:33:23Z</time>
      </trkpt>
      <trkpt lat="55.075886975973845" lon="-4.141647974029183">
        <ele>63.100000000000001</ele>
        <time>2023-09-03T08:33:33Z</time>
      </trkpt>
      <trkpt lat="55.075855040922761" lon="-4.141447981819511">
        <ele>62.619999999999997</ele>
        <time>2023-09-03T08:33:34Z</time>
      </trkpt>
      <trkpt lat="55.075823022052646" lon="-4.141247989609838">
        <ele>62.619999999999997</ele>
        <time>2023-09-03T08:33:35Z</time>
      </trkpt>
      <trkpt lat="55.075658988207579" lon="-4.140556985512376">
        <ele>58.780000000000001</ele>
        <time>2023-09-03T08:33:41Z</time>
      </trkpt>
      <trkpt lat="55.075702993199229" lon="-4.1403519641608">
        <ele>57.82</ele>
        <time>2023-09-03T08:33:43Z</time>
      </trkpt>
      <trkpt lat="55.075740041211247" lon="-4.14026303216815">
        <ele>57.340000000000003</ele>
        <time>2023-09-03T08:33:44Z</time>
      </trkpt>
      <trkpt lat="55.075779017060995" lon="-4.139982992783189">
        <ele>56.859999999999999</ele>
        <time>2023-09-03T08:33:46Z</time>
      </trkpt>
      <trkpt lat="55.075797038152814" lon="-4.139818958938122">
        <ele>57.340000000000003</ele>
        <time>2023-09-03T08:33:47Z</time>
      </trkpt>
      <trkpt lat="55.075816987082362" lon="-4.139632964506745">
        <ele>57.340000000000003</ele>
        <time>2023-09-03T08:33:48Z</time>
      </trkpt>
      <trkpt lat="55.0759859662503" lon="-4.138327986001968">
        <ele>55.890000000000001</ele>
        <time>2023-09-03T08:33:54Z</time>
      </trkpt>
      <trkpt lat="55.076019996777177" lon="-4.13811600767076">
        <ele>55.890000000000001</ele>
        <time>2023-09-03T08:33:55Z</time>
      </trkpt>
      <trkpt lat="55.076054027304053" lon="-4.137906963005662">
        <ele>55.409999999999997</ele>
        <time>2023-09-03T08:33:56Z</time>
      </trkpt>
      <trkpt lat="55.076089985668659" lon="-4.137724991887808">
        <ele>54.93</ele>
        <time>2023-09-03T08:33:57Z</time>
      </trkpt>
      <trkpt lat="55.076126027852297" lon="-4.137546038255096">
        <ele>53.969999999999999</ele>
        <time>2023-09-03T08:33:58Z</time>
      </trkpt>
      <trkpt lat="55.076163997873664" lon="-4.137358032166958">
        <ele>53.490000000000002</ele>
        <time>2023-09-03T08:33:59Z</time>
      </trkpt>
      <trkpt lat="55.076213032007217" lon="-4.137147981673479">
        <ele>52.530000000000001</ele>
        <time>2023-09-03T08:34:00Z</time>
      </trkpt>
      <trkpt lat="55.076296012848616" lon="-4.137000041082501">
        <ele>52.049999999999997</ele>
        <time>2023-09-03T08:34:01Z</time>
      </trkpt>
      <trkpt lat="55.076376982033253" lon="-4.136856961995363">
        <ele>51.57</ele>
        <time>2023-09-03T08:34:02Z</time>
      </trkpt>
      <trkpt lat="55.076488964259624" lon="-4.136770041659474">
        <ele>51.090000000000003</ele>
        <time>2023-09-03T08:34:03Z</time>
      </trkpt>
      <trkpt lat="55.076598012819886" lon="-4.136704998090863">
        <ele>50.609999999999999</ele>
        <time>2023-09-03T08:34:04Z</time>
      </trkpt>
      <trkpt lat="55.076706977561116" lon="-4.136640960350633">
        <ele>50.130000000000003</ele>
        <time>2023-09-03T08:34:05Z</time>
      </trkpt>
      <trkpt lat="55.07682298310101" lon="-4.136602990329266">
        <ele>50.130000000000003</ele>
        <time>2023-09-03T08:34:06Z</time>
      </trkpt>
      <trkpt lat="55.076933959499002" lon="-4.13659100420773">
        <ele>50.609999999999999</ele>
        <time>2023-09-03T08:34:07Z</time>
      </trkpt>
      <trkpt lat="55.077045019716024" lon="-4.136578012257814">
        <ele>50.609999999999999</ele>
        <time>2023-09-03T08:34:08Z</time>
      </trkpt>
      <trkpt lat="55.077168988063931" lon="-4.136579018086195">
        <ele>50.609999999999999</ele>
        <time>2023-09-03T08:34:09Z</time>
      </trkpt>
      <trkpt lat="55.077288011088967" lon="-4.136637020856142">
        <ele>50.609999999999999</ele>
        <time>2023-09-03T08:34:10Z</time>
      </trkpt>
      <trkpt lat="55.07742497138679" lon="-4.136702986434102">
        <ele>50.609999999999999</ele>
        <time>2023-09-03T08:34:11Z</time>
      </trkpt>
      <trkpt lat="55.078400038182735" lon="-4.136972967535257">
        <ele>52.049999999999997</ele>
        <time>2023-09-03T08:34:17Z</time>
      </trkpt>
      <trkpt lat="55.078861964866519" lon="-4.137161979451776">
        <ele>52.530000000000001</ele>
        <time>2023-09-03T08:34:20Z</time>
      </trkpt>
      <trkpt lat="55.07901300676167" lon="-4.137184023857117">
        <ele>52.530000000000001</ele>
        <time>2023-09-03T08:34:21Z</time>
      </trkpt>
      <trkpt lat="55.079161031171679" lon="-4.137173965573311">
        <ele>53.009999999999998</ele>
        <time>2023-09-03T08:34:22Z</time>
      </trkpt>
      <trkpt lat="55.079318024218082" lon="-4.137143036350608">
        <ele>53.009999999999998</ele>
        <time>2023-09-03T08:34:23Z</time>
      </trkpt>
      <trkpt lat="55.079474011436105" lon="-4.137085033580661">
        <ele>53.009999999999998</ele>
        <time>2023-09-03T08:34:24Z</time>
      </trkpt>
      <trkpt lat="55.079631004482508" lon="-4.137028036639094">
        <ele>53.009999999999998</ele>
        <time>2023-09-03T08:34:25Z</time>
      </trkpt>
      <trkpt lat="55.079783974215388" lon="-4.136971961706877">
        <ele>53.009999999999998</ele>
        <time>2023-09-03T08:34:26Z</time>
      </trkpt>
      <trkpt lat="55.079926969483495" lon="-4.136943966150284">
        <ele>53.490000000000002</ele>
        <time>2023-09-03T08:34:27Z</time>
      </trkpt>
      <trkpt lat="55.080075999721885" lon="-4.136996017768979">
        <ele>53.490000000000002</ele>
        <time>2023-09-03T08:34:28Z</time>
      </trkpt>
      <trkpt lat="55.080217989161611" lon="-4.137044968083501">
        <ele>53.490000000000002</ele>
        <time>2023-09-03T08:34:29Z</time>
      </trkpt>
      <trkpt lat="55.080348998308182" lon="-4.137090984731913">
        <ele>54.450000000000003</ele>
        <time>2023-09-03T08:34:30Z</time>
      </trkpt>
      <trkpt lat="55.080481013283134" lon="-4.137092996388674">
        <ele>54.450000000000003</ele>
        <time>2023-09-03T08:34:31Z</time>
      </trkpt>
      <trkpt lat="55.080615039914846" lon="-4.137035999447107">
        <ele>54.450000000000003</ele>
        <time>2023-09-03T08:34:32Z</time>
      </trkpt>
      <trkpt lat="55.08073003962636" lon="-4.136887975037098">
        <ele>54.450000000000003</ele>
        <time>2023-09-03T08:34:33Z</time>
      </trkpt>
      <trkpt lat="55.080782007426023" lon="-4.136668033897877">
        <ele>54.450000000000003</ele>
        <time>2023-09-03T08:34:34Z</time>
      </trkpt>
      <trkpt lat="55.080814026296139" lon="-4.13644197396934">
        <ele>53.490000000000002</ele>
        <time>2023-09-03T08:34:35Z</time>
      </trkpt>
      <trkpt lat="55.080847973003983" lon="-4.136202000081539">
        <ele>53.490000000000002</ele>
        <time>2023-09-03T08:34:36Z</time>
      </trkpt>
      <trkpt lat="55.081142010167241" lon="-4.133600005879998">
        <ele>52.530000000000001</ele>
        <time>2023-09-03T08:34:45Z</time>
      </trkpt>
      <trkpt lat="55.081173023208976" lon="-4.132412038743496">
        <ele>53.009999999999998</ele>
        <time>2023-09-03T08:34:49Z</time>
      </trkpt>
      <trkpt lat="55.081149972975254" lon="-4.132144991308451">
        <ele>53.490000000000002</ele>
        <time>2023-09-03T08:34:50Z</time>
      </trkpt>
      <trkpt lat="55.081118959933519" lon="-4.131889007985592">
        <ele>54.450000000000003</ele>
        <time>2023-09-03T08:34:51Z</time>
      </trkpt>
      <trkpt lat="55.08085903711617" lon="-4.130310025066137">
        <ele>59.259999999999998</ele>
        <time>2023-09-03T08:34:59Z</time>
      </trkpt>
      <trkpt lat="55.080840010195971" lon="-4.13023198954761">
        <ele>60.219999999999999</ele>
        <time>2023-09-03T08:35:05Z</time>
      </trkpt>
      <trkpt lat="55.08081897161901" lon="-4.130146997049451">
        <ele>60.700000000000003</ele>
        <time>2023-09-03T08:35:09Z</time>
      </trkpt>
      <trkpt lat="55.080750994384289" lon="-4.130106009542942">
        <ele>60.700000000000003</ele>
        <time>2023-09-03T08:35:10Z</time>
      </trkpt>
      <trkpt lat="55.080675976350904" lon="-4.13007901981473">
        <ele>61.18</ele>
        <time>2023-09-03T08:35:11Z</time>
      </trkpt>
      <trkpt lat="55.080580003559589" lon="-4.130043983459473">
        <ele>61.18</ele>
        <time>2023-09-03T08:35:12Z</time>
      </trkpt>
      <trkpt lat="55.080466009676456" lon="-4.130001990124583">
        <ele>61.659999999999997</ele>
        <time>2023-09-03T08:35:13Z</time>
      </trkpt>
      <trkpt lat="55.08013098500669" lon="-4.129879027605057">
        <ele>61.18</ele>
        <time>2023-09-03T08:35:16Z</time>
      </trkpt>
      <trkpt lat="55.080064013600349" lon="-4.129849020391703">
        <ele>61.18</ele>
        <time>2023-09-03T08:35:17Z</time>
      </trkpt>
      <trkpt lat="55.080021014437079" lon="-4.129688004031777">
        <ele>61.18</ele>
        <time>2023-09-03T08:35:18Z</time>
      </trkpt>
      <trkpt lat="55.080021014437079" lon="-4.129562024027109">
        <ele>61.18</ele>
        <time>2023-09-03T08:35:19Z</time>
      </trkpt>
      <trkpt lat="55.080021014437079" lon="-4.12939203903079">
        <ele>61.18</ele>
        <time>2023-09-03T08:35:20Z</time>
      </trkpt>
      <trkpt lat="55.080021014437079" lon="-4.129143012687564">
        <ele>61.18</ele>
        <time>2023-09-03T08:35:21Z</time>
      </trkpt>
      <trkpt lat="55.079898973926902" lon="-4.12728700786829">
        <ele>63.100000000000001</ele>
        <time>2023-09-03T08:35:28Z</time>
      </trkpt>
      <trkpt lat="55.079923029989004" lon="-4.126628022640944">
        <ele>63.579999999999998</ele>
        <time>2023-09-03T08:35:30Z</time>
      </trkpt>
      <trkpt lat="55.079953959211707" lon="-4.126296015456319">
        <ele>64.069999999999993</ele>
        <time>2023-09-03T08:35:31Z</time>
      </trkpt>
      <trkpt lat="55.080003999173641" lon="-4.125960990786552">
        <ele>64.549999999999997</ele>
        <time>2023-09-03T08:35:32Z</time>
      </trkpt>
      <trkpt lat="55.080688968300819" lon="-4.123175013810396">
        <ele>67.430000000000007</ele>
        <time>2023-09-03T08:35:40Z</time>
      </trkpt>
      <trkpt lat="55.081879030913115" lon="-4.120328016579151">
        <ele>72.719999999999999</ele>
        <time>2023-09-03T08:35:49Z</time>
      </trkpt>
      <trkpt lat="55.083486009389162" lon="-4.117328971624374">
        <ele>80.890000000000001</ele>
        <time>2023-09-03T08:35:59Z</time>
      </trkpt>
      <trkpt lat="55.083806030452251" lon="-4.116823961958289">
        <ele>82.810000000000002</ele>
        <time>2023-09-03T08:36:01Z</time>
      </trkpt>
      <trkpt lat="55.08397601544857" lon="-4.116658000275493">
        <ele>83.769999999999996</ele>
        <time>2023-09-03T08:36:02Z</time>
      </trkpt>
      <trkpt lat="55.084140971302986" lon="-4.116504024714232">
        <ele>84.730000000000004</ele>
        <time>2023-09-03T08:36:03Z</time>
      </trkpt>
      <trkpt lat="55.084311962127686" lon="-4.116464965045452">
        <ele>86.180000000000007</ele>
        <time>2023-09-03T08:36:04Z</time>
      </trkpt>
      <trkpt lat="55.084483958780766" lon="-4.116425989195705">
        <ele>87.140000000000001</ele>
        <time>2023-09-03T08:36:05Z</time>
      </trkpt>
      <trkpt lat="55.084648998454213" lon="-4.116388019174337">
        <ele>88.099999999999994</ele>
        <time>2023-09-03T08:36:06Z</time>
      </trkpt>
      <trkpt lat="55.084805991500616" lon="-4.1163519769907">
        <ele>89.060000000000002</ele>
        <time>2023-09-03T08:36:07Z</time>
      </trkpt>
      <trkpt lat="55.08494202978909" lon="-4.116271007806063">
        <ele>90.019999999999996</ele>
        <time>2023-09-03T08:36:08Z</time>
      </trkpt>
      <trkpt lat="55.085052000358701" lon="-4.116135975345969">
        <ele>90.980000000000004</ele>
        <time>2023-09-03T08:36:09Z</time>
      </trkpt>
      <trkpt lat="55.085161970928311" lon="-4.116000020876527">
        <ele>91.459999999999994</ele>
        <time>2023-09-03T08:36:10Z</time>
      </trkpt>
      <trkpt lat="55.08519901894033" lon="-4.11581302061677">
        <ele>91.939999999999998</ele>
        <time>2023-09-03T08:36:11Z</time>
      </trkpt>
      <trkpt lat="55.085231959819794" lon="-4.115603975951672">
        <ele>91.939999999999998</ele>
        <time>2023-09-03T08:36:12Z</time>
      </trkpt>
      <trkpt lat="55.085231037810445" lon="-4.115372970700264">
        <ele>91.939999999999998</ele>
        <time>2023-09-03T08:36:13Z</time>
      </trkpt>
      <trkpt lat="55.085225002840161" lon="-4.11508203484118">
        <ele>92.420000000000002</ele>
        <time>2023-09-03T08:36:14Z</time>
      </trkpt>
      <trkpt lat="55.085219973698258" lon="-4.114464959129691">
        <ele>92.420000000000002</ele>
        <time>2023-09-03T08:36:16Z</time>
      </trkpt>
      <trkpt lat="55.0852420181036" lon="-4.114178968593478">
        <ele>92.420000000000002</ele>
        <time>2023-09-03T08:36:17Z</time>
      </trkpt>
      <trkpt lat="55.085289962589741" lon="-4.113865988329053">
        <ele>92.900000000000006</ele>
        <time>2023-09-03T08:36:18Z</time>
      </trkpt>
      <trkpt lat="55.085690030828118" lon="-4.112437963485718">
        <ele>96.75</ele>
        <time>2023-09-03T08:36:23Z</time>
      </trkpt>
      <trkpt lat="55.085784997791052" lon="-4.112212993204594">
        <ele>98.189999999999998</ele>
        <time>2023-09-03T08:36:24Z</time>
      </trkpt>
      <trkpt lat="55.085878036916256" lon="-4.111994979903102">
        <ele>99.150000000000006</ele>
        <time>2023-09-03T08:36:25Z</time>
      </trkpt>
      <trkpt lat="55.086008040234447" lon="-4.111804962158203">
        <ele>100.11</ele>
        <time>2023-09-03T08:36:26Z</time>
      </trkpt>
      <trkpt lat="55.086142988875508" lon="-4.111670013517141">
        <ele>101.56</ele>
        <time>2023-09-03T08:36:27Z</time>
      </trkpt>
      <trkpt lat="55.086294030770659" lon="-4.111572029069066">
        <ele>102.52</ele>
        <time>2023-09-03T08:36:28Z</time>
      </trkpt>
      <trkpt lat="55.086436020210385" lon="-4.111511008813977">
        <ele>103.48</ele>
        <time>2023-09-03T08:36:29Z</time>
      </trkpt>
      <trkpt lat="55.086566023528576" lon="-4.111456023529172">
        <ele>104.44</ele>
        <time>2023-09-03T08:36:30Z</time>
      </trkpt>
      <trkpt lat="55.086695021018386" lon="-4.111438002437353">
        <ele>104.92</ele>
        <time>2023-09-03T08:36:31Z</time>
      </trkpt>
      <trkpt lat="55.086814966052771" lon="-4.111492987722158">
        <ele>105.88</ele>
        <time>2023-09-03T08:36:32Z</time>
      </trkpt>
      <trkpt lat="55.086942035704851" lon="-4.111563982442021">
        <ele>106.84</ele>
        <time>2023-09-03T08:36:33Z</time>
      </trkpt>
      <trkpt lat="55.087058041244745" lon="-4.11164402961731">
        <ele>107.81</ele>
        <time>2023-09-03T08:36:34Z</time>
      </trkpt>
      <trkpt lat="55.087158959358931" lon="-4.111715024337173">
        <ele>108.77</ele>
        <time>2023-09-03T08:36:35Z</time>
      </trkpt>
      <trkpt lat="55.087256021797657" lon="-4.111781995743513">
        <ele>109.73</ele>
        <time>2023-09-03T08:36:36Z</time>
      </trkpt>
      <trkpt lat="55.087357023730874" lon="-4.111851984634996">
        <ele>110.69</ele>
        <time>2023-09-03T08:36:37Z</time>
      </trkpt>
      <trkpt lat="55.087469005957246" lon="-4.111892972141504">
        <ele>111.65000000000001</ele>
        <time>2023-09-03T08:36:38Z</time>
      </trkpt>
      <trkpt lat="55.087617030367255" lon="-4.111933959648013">
        <ele>112.13</ele>
        <time>2023-09-03T08:36:39Z</time>
      </trkpt>
      <trkpt lat="55.087743010371923" lon="-4.11190495826304">
        <ele>112.61</ele>
        <time>2023-09-03T08:36:40Z</time>
      </trkpt>
      <trkpt lat="55.087879970669746" lon="-4.111873023211956">
        <ele>113.56999999999999</ele>
        <time>2023-09-03T08:36:41Z</time>
      </trkpt>
      <trkpt lat="55.087999999523163" lon="-4.111800016835332">
        <ele>114.53</ele>
        <time>2023-09-03T08:36:42Z</time>
      </trkpt>
      <trkpt lat="55.088089015334845" lon="-4.111741008237004">
        <ele>115.01000000000001</ele>
        <time>2023-09-03T08:36:43Z</time>
      </trkpt>
      <trkpt lat="55.088152969256043" lon="-4.111613016575575">
        <ele>115.98</ele>
        <time>2023-09-03T08:36:44Z</time>
      </trkpt>
      <trkpt lat="55.088168978691101" lon="-4.111491981893778">
        <ele>116.45999999999999</ele>
        <time>2023-09-03T08:36:45Z</time>
      </trkpt>
      <trkpt lat="55.088191023096442" lon="-4.111325014382601">
        <ele>116.94</ele>
        <time>2023-09-03T08:36:46Z</time>
      </trkpt>
      <trkpt lat="55.088214995339513" lon="-4.111133990809321">
        <ele>117.42</ele>
        <time>2023-09-03T08:36:47Z</time>
      </trkpt>
      <trkpt lat="55.088242990896106" lon="-4.110923018306494">
        <ele>117.90000000000001</ele>
        <time>2023-09-03T08:36:48Z</time>
      </trkpt>
      <trkpt lat="55.088271992281079" lon="-4.110693018883467">
        <ele>118.38</ele>
        <time>2023-09-03T08:36:49Z</time>
      </trkpt>
      <trkpt lat="55.088303005322814" lon="-4.110455978661776">
        <ele>118.86</ele>
        <time>2023-09-03T08:36:50Z</time>
      </trkpt>
      <trkpt lat="55.088387997820973" lon="-4.109673025086522">
        <ele>119.34</ele>
        <time>2023-09-03T08:36:53Z</time>
      </trkpt>
      <trkpt lat="55.088368970900774" lon="-4.108495032414794">
        <ele>120.78</ele>
        <time>2023-09-03T08:36:57Z</time>
      </trkpt>
      <trkpt lat="55.088320020586252" lon="-4.108233014121652">
        <ele>121.73999999999999</ele>
        <time>2023-09-03T08:36:58Z</time>
      </trkpt>
      <trkpt lat="55.088263023644686" lon="-4.107960015535355">
        <ele>122.22</ele>
        <time>2023-09-03T08:36:59Z</time>
      </trkpt>
      <trkpt lat="55.0882070325315" lon="-4.107687016949058">
        <ele>122.70999999999999</ele>
        <time>2023-09-03T08:37:00Z</time>
      </trkpt>
      <trkpt lat="55.088151963427663" lon="-4.107418041676283">
        <ele>123.19</ele>
        <time>2023-09-03T08:37:01Z</time>
      </trkpt>
      <trkpt lat="55.088132014498115" lon="-4.107126016169787">
        <ele>124.15000000000001</ele>
        <time>2023-09-03T08:37:02Z</time>
      </trkpt>
      <trkpt lat="55.088137965649366" lon="-4.106842959299684">
        <ele>124.63</ele>
        <time>2023-09-03T08:37:03Z</time>
      </trkpt>
      <trkpt lat="55.088194962590933" lon="-4.106589993461967">
        <ele>125.11</ele>
        <time>2023-09-03T08:37:04Z</time>
      </trkpt>
      <trkpt lat="55.088255982846022" lon="-4.106319006532431">
        <ele>125.59</ele>
        <time>2023-09-03T08:37:05Z</time>
      </trkpt>
      <trkpt lat="55.088322032243013" lon="-4.106028992682695">
        <ele>126.06999999999999</ele>
        <time>2023-09-03T08:37:06Z</time>
      </trkpt>
      <trkpt lat="55.088706007227302" lon="-4.104108028113842">
        <ele>127.98999999999999</ele>
        <time>2023-09-03T08:37:12Z</time>
      </trkpt>
      <trkpt lat="55.088811032474041" lon="-4.103885991498828">
        <ele>128.47</ele>
        <time>2023-09-03T08:37:13Z</time>
      </trkpt>
      <trkpt lat="55.088928965851665" lon="-4.10365398041904">
        <ele>129.43000000000001</ele>
        <time>2023-09-03T08:37:14Z</time>
      </trkpt>
      <trkpt lat="55.089399022981524" lon="-4.102651001885533">
        <ele>132.31999999999999</ele>
        <time>2023-09-03T08:37:18Z</time>
      </trkpt>
      <trkpt lat="55.089484015479684" lon="-4.102398036047816">
        <ele>132.31999999999999</ele>
        <time>2023-09-03T08:37:19Z</time>
      </trkpt>
      <trkpt lat="55.089502958580852" lon="-4.102136017754674">
        <ele>132.80000000000001</ele>
        <time>2023-09-03T08:37:20Z</time>
      </trkpt>
      <trkpt lat="55.089491978287697" lon="-4.101881962269545">
        <ele>132.31999999999999</ele>
        <time>2023-09-03T08:37:21Z</time>
      </trkpt>
      <trkpt lat="55.089461971074343" lon="-4.101625978946686">
        <ele>132.31999999999999</ele>
        <time>2023-09-03T08:37:22Z</time>
      </trkpt>
      <trkpt lat="55.08941201493144" lon="-4.101362032815814">
        <ele>132.31999999999999</ele>
        <time>2023-09-03T08:37:23Z</time>
      </trkpt>
      <trkpt lat="55.089053018018603" lon="-4.099445007741451">
        <ele>130.88</ele>
        <time>2023-09-03T08:37:29Z</time>
      </trkpt>
      <trkpt lat="55.089038014411926" lon="-4.099061032757163">
        <ele>130.40000000000001</ele>
        <time>2023-09-03T08:37:30Z</time>
      </trkpt>
      <trkpt lat="55.088888984173536" lon="-4.095159005373716">
        <ele>127.98999999999999</ele>
        <time>2023-09-03T08:37:40Z</time>
      </trkpt>
      <trkpt lat="55.088914968073368" lon="-4.094853987917304">
        <ele>127.98999999999999</ele>
        <time>2023-09-03T08:37:41Z</time>
      </trkpt>
      <trkpt lat="55.088983029127121" lon="-4.09454301930964">
        <ele>127.98999999999999</ele>
        <time>2023-09-03T08:37:42Z</time>
      </trkpt>
      <trkpt lat="55.089492984116077" lon="-4.092143028974533">
        <ele>129.91999999999999</ele>
        <time>2023-09-03T08:37:49Z</time>
      </trkpt>
      <trkpt lat="55.090263029560447" lon="-4.087351011112332">
        <ele>134.72</ele>
        <time>2023-09-03T08:38:01Z</time>
      </trkpt>
      <trkpt lat="55.09037802927196" lon="-4.084613984450698">
        <ele>142.41</ele>
        <time>2023-09-03T08:38:08Z</time>
      </trkpt>
      <trkpt lat="55.090423040091991" lon="-4.083282016217709">
        <ele>144.81999999999999</ele>
        <time>2023-09-03T08:38:12Z</time>
      </trkpt>
      <trkpt lat="55.090406024828553" lon="-4.083044975996018">
        <ele>144.81999999999999</ele>
        <time>2023-09-03T08:38:13Z</time>
      </trkpt>
      <trkpt lat="55.090350033715367" lon="-4.082860993221402">
        <ele>145.30000000000001</ele>
        <time>2023-09-03T08:38:14Z</time>
      </trkpt>
      <trkpt lat="55.090283984318376" lon="-4.082696037366986">
        <ele>145.78</ele>
        <time>2023-09-03T08:38:15Z</time>
      </trkpt>
      <trkpt lat="55.09020896628499" lon="-4.082514988258481">
        <ele>146.25999999999999</ele>
        <time>2023-09-03T08:38:16Z</time>
      </trkpt>
      <trkpt lat="55.090130008757114" lon="-4.082323964685202">
        <ele>146.25999999999999</ele>
        <time>2023-09-03T08:38:17Z</time>
      </trkpt>
      <trkpt lat="55.09007602930069" lon="-4.082121960818768">
        <ele>146.25999999999999</ele>
        <time>2023-09-03T08:38:18Z</time>
      </trkpt>
      <trkpt lat="55.090058008208871" lon="-4.081933032721281">
        <ele>146.25999999999999</ele>
        <time>2023-09-03T08:38:19Z</time>
      </trkpt>
      <trkpt lat="55.090046022087336" lon="-4.081743014976382">
        <ele>146.25999999999999</ele>
        <time>2023-09-03T08:38:20Z</time>
      </trkpt>
      <trkpt lat="55.090089021250606" lon="-4.0815469622612">
        <ele>146.74000000000001</ele>
        <time>2023-09-03T08:38:21Z</time>
      </trkpt>
      <trkpt lat="55.090139983221889" lon="-4.081316962838173">
        <ele>146.25999999999999</ele>
        <time>2023-09-03T08:38:22Z</time>
      </trkpt>
      <trkpt lat="55.090570980682969" lon="-4.079430028796196">
        <ele>146.74000000000001</ele>
        <time>2023-09-03T08:38:28Z</time>
      </trkpt>
      <trkpt lat="55.09113097563386" lon="-4.076920989900827">
        <ele>150.58000000000001</ele>
        <time>2023-09-03T08:38:36Z</time>
      </trkpt>
      <trkpt lat="55.091199958696961" lon="-4.076677998527885">
        <ele>151.06</ele>
        <time>2023-09-03T08:38:37Z</time>
      </trkpt>
      <trkpt lat="55.091268019750714" lon="-4.076436012983322">
        <ele>151.53999999999999</ele>
        <time>2023-09-03T08:38:38Z</time>
      </trkpt>
      <trkpt lat="55.091340020298958" lon="-4.076182041317225">
        <ele>152.03</ele>
        <time>2023-09-03T08:38:39Z</time>
      </trkpt>
      <trkpt lat="55.091415038332343" lon="-4.075920023024082">
        <ele>152.50999999999999</ele>
        <time>2023-09-03T08:38:40Z</time>
      </trkpt>
      <trkpt lat="55.091482009738684" lon="-4.075653981417418">
        <ele>152.50999999999999</ele>
        <time>2023-09-03T08:38:41Z</time>
      </trkpt>
      <trkpt lat="55.091498019173741" lon="-4.075363967567682">
        <ele>152.50999999999999</ele>
        <time>2023-09-03T08:38:42Z</time>
      </trkpt>
      <trkpt lat="55.09151503443718" lon="-4.075059033930302">
        <ele>152.99000000000001</ele>
        <time>2023-09-03T08:38:43Z</time>
      </trkpt>
      <trkpt lat="55.091532971709967" lon="-4.074733983725309">
        <ele>152.99000000000001</ele>
        <time>2023-09-03T08:38:44Z</time>
      </trkpt>
      <trkpt lat="55.091706980019808" lon="-4.072150010615587">
        <ele>151.06</ele>
        <time>2023-09-03T08:38:51Z</time>
      </trkpt>
      <trkpt lat="55.091921975836158" lon="-4.069509962573648">
        <ele>148.66</ele>
        <time>2023-09-03T08:38:58Z</time>
      </trkpt>
      <trkpt lat="55.091985007748008" lon="-4.0691929589957">
        <ele>149.13999999999999</ele>
        <time>2023-09-03T08:38:59Z</time>
      </trkpt>
      <trkpt lat="55.092068994417787" lon="-4.068887019529939">
        <ele>149.13999999999999</ele>
        <time>2023-09-03T08:39:00Z</time>
      </trkpt>
      <trkpt lat="55.092168990522623" lon="-4.068597005680203">
        <ele>149.62</ele>
        <time>2023-09-03T08:39:01Z</time>
      </trkpt>
      <trkpt lat="55.092291031032801" lon="-4.068320989608765">
        <ele>150.09999999999999</ele>
        <time>2023-09-03T08:39:02Z</time>
      </trkpt>
      <trkpt lat="55.092426985502243" lon="-4.068051008507609">
        <ele>150.58000000000001</ele>
        <time>2023-09-03T08:39:03Z</time>
      </trkpt>
      <trkpt lat="55.092566963285208" lon="-4.067775998264551">
        <ele>151.53999999999999</ele>
        <time>2023-09-03T08:39:04Z</time>
      </trkpt>
      <trkpt lat="55.092982035130262" lon="-4.06695700250566">
        <ele>153.47</ele>
        <time>2023-09-03T08:39:07Z</time>
      </trkpt>
      <trkpt lat="55.093088988214731" lon="-4.066657014191151">
        <ele>154.43000000000001</ele>
        <time>2023-09-03T08:39:08Z</time>
      </trkpt>
      <trkpt lat="55.0931700412184" lon="-4.066332969814539">
        <ele>155.38999999999999</ele>
        <time>2023-09-03T08:39:09Z</time>
      </trkpt>
      <trkpt lat="55.093230977654457" lon="-4.066003980115056">
        <ele>155.87</ele>
        <time>2023-09-03T08:39:10Z</time>
      </trkpt>
      <trkpt lat="55.093266014009714" lon="-4.065661998465657">
        <ele>156.34999999999999</ele>
        <time>2023-09-03T08:39:11Z</time>
      </trkpt>
      <trkpt lat="55.093272970989347" lon="-4.0653230343014">
        <ele>156.83000000000001</ele>
        <time>2023-09-03T08:39:12Z</time>
      </trkpt>
      <trkpt lat="55.093256961554289" lon="-4.06497904099524">
        <ele>157.31</ele>
        <time>2023-09-03T08:39:13Z</time>
      </trkpt>
      <trkpt lat="55.093239024281502" lon="-4.064619960263372">
        <ele>157.78999999999999</ele>
        <time>2023-09-03T08:39:14Z</time>
      </trkpt>
      <trkpt lat="55.093190995976329" lon="-4.064311003312469">
        <ele>157.78999999999999</ele>
        <time>2023-09-03T08:39:15Z</time>
      </trkpt>
      <trkpt lat="55.093136010691524" lon="-4.063958041369915">
        <ele>158.27000000000001</ele>
        <time>2023-09-03T08:39:16Z</time>
      </trkpt>
      <trkpt lat="55.093078007921576" lon="-4.063603989779949">
        <ele>158.27000000000001</ele>
        <time>2023-09-03T08:39:17Z</time>
      </trkpt>
      <trkpt lat="55.092805009335279" lon="-4.062418034300208">
        <ele>160.19999999999999</ele>
        <time>2023-09-03T08:39:21Z</time>
      </trkpt>
      <trkpt lat="55.092709958553314" lon="-4.062212007120252">
        <ele>160.19999999999999</ele>
        <time>2023-09-03T08:39:22Z</time>
      </trkpt>
      <trkpt lat="55.092608034610748" lon="-4.061991982161999">
        <ele>159.72</ele>
        <time>2023-09-03T08:39:23Z</time>
      </trkpt>
      <trkpt lat="55.092406030744314" lon="-4.061535000801086">
        <ele>159.72</ele>
        <time>2023-09-03T08:39:25Z</time>
      </trkpt>
      <trkpt lat="55.092331012710929" lon="-4.061289997771382">
        <ele>159.24000000000001</ele>
        <time>2023-09-03T08:39:26Z</time>
      </trkpt>
      <trkpt lat="55.092264963313937" lon="-4.061038959771395">
        <ele>159.24000000000001</ele>
        <time>2023-09-03T08:39:27Z</time>
      </trkpt>
      <trkpt lat="55.092224981635809" lon="-4.060754980891943">
        <ele>158.75</ele>
        <time>2023-09-03T08:39:28Z</time>
      </trkpt>
      <trkpt lat="55.09218298830092" lon="-4.060454992577434">
        <ele>158.75</ele>
        <time>2023-09-03T08:39:29Z</time>
      </trkpt>
      <trkpt lat="55.092060025781393" lon="-4.05954203568399">
        <ele>158.27000000000001</ele>
        <time>2023-09-03T08:39:32Z</time>
      </trkpt>
      <trkpt lat="55.092067988589406" lon="-4.059256967157126">
        <ele>157.31</ele>
        <time>2023-09-03T08:39:33Z</time>
      </trkpt>
      <trkpt lat="55.092077041044831" lon="-4.058939963579178">
        <ele>156.83000000000001</ele>
        <time>2023-09-03T08:39:34Z</time>
      </trkpt>
      <trkpt lat="55.092142000794411" lon="-4.055975032970309">
        <ele>153.94999999999999</ele>
        <time>2023-09-03T08:39:42Z</time>
      </trkpt>
      <trkpt lat="55.092147029936314" lon="-4.052701983600855">
        <ele>153.47</ele>
        <time>2023-09-03T08:39:50Z</time>
      </trkpt>
      <trkpt lat="55.092070000246167" lon="-4.050937006250024">
        <ele>152.03</ele>
        <time>2023-09-03T08:39:55Z</time>
      </trkpt>
      <trkpt lat="55.09209799580276" lon="-4.049946013838053">
        <ele>152.50999999999999</ele>
        <time>2023-09-03T08:39:58Z</time>
      </trkpt>
      <trkpt lat="55.092070000246167" lon="-4.047358017414808">
        <ele>153.47</ele>
        <time>2023-09-03T08:40:05Z</time>
      </trkpt>
      <trkpt lat="55.092029012739658" lon="-4.047004971653223">
        <ele>153.94999999999999</ele>
        <time>2023-09-03T08:40:06Z</time>
      </trkpt>
      <trkpt lat="55.091962041333318" lon="-4.046651003882289">
        <ele>153.94999999999999</ele>
        <time>2023-09-03T08:40:07Z</time>
      </trkpt>
      <trkpt lat="55.091786021366715" lon="-4.045627992600203">
        <ele>154.91</ele>
        <time>2023-09-03T08:40:10Z</time>
      </trkpt>
      <trkpt lat="55.091760037466884" lon="-4.045340996235609">
        <ele>155.38999999999999</ele>
        <time>2023-09-03T08:40:11Z</time>
      </trkpt>
      <trkpt lat="55.091794990003109" lon="-4.045075960457325">
        <ele>155.38999999999999</ele>
        <time>2023-09-03T08:40:12Z</time>
      </trkpt>
      <trkpt lat="55.091835977509618" lon="-4.044786030426621">
        <ele>155.38999999999999</ele>
        <time>2023-09-03T08:40:13Z</time>
      </trkpt>
      <trkpt lat="55.091877970844507" lon="-4.044490987434983">
        <ele>155.87</ele>
        <time>2023-09-03T08:40:14Z</time>
      </trkpt>
      <trkpt lat="55.091908983886242" lon="-4.044193010777235">
        <ele>155.87</ele>
        <time>2023-09-03T08:40:15Z</time>
      </trkpt>
      <trkpt lat="55.091908983886242" lon="-4.043920012190938">
        <ele>155.87</ele>
        <time>2023-09-03T08:40:16Z</time>
      </trkpt>
      <trkpt lat="55.091863973066211" lon="-4.04366604052484">
        <ele>155.38999999999999</ele>
        <time>2023-09-03T08:40:17Z</time>
      </trkpt>
      <trkpt lat="55.091801024973392" lon="-4.043376026675105">
        <ele>155.38999999999999</ele>
        <time>2023-09-03T08:40:18Z</time>
      </trkpt>
      <trkpt lat="55.091726006940007" lon="-4.043204030022025">
        <ele>155.38999999999999</ele>
        <time>2023-09-03T08:40:19Z</time>
      </trkpt>
      <trkpt lat="55.091633973643184" lon="-4.042990962043405">
        <ele>155.87</ele>
        <time>2023-09-03T08:40:20Z</time>
      </trkpt>
      <trkpt lat="55.091053023934364" lon="-4.041268983855844">
        <ele>157.78999999999999</ele>
        <time>2023-09-03T08:40:26Z</time>
      </trkpt>
      <trkpt lat="55.090332012623549" lon="-4.038341017439961">
        <ele>156.83000000000001</ele>
        <time>2023-09-03T08:40:34Z</time>
      </trkpt>
      <trkpt lat="55.089472029358149" lon="-4.034162973985076">
        <ele>158.27000000000001</ele>
        <time>2023-09-03T08:40:45Z</time>
      </trkpt>
      <trkpt lat="55.089354012161493" lon="-4.033849993720651">
        <ele>158.27000000000001</ele>
        <time>2023-09-03T08:40:46Z</time>
      </trkpt>
      <trkpt lat="55.089217973873019" lon="-4.033548999577761">
        <ele>157.78999999999999</ele>
        <time>2023-09-03T08:40:47Z</time>
      </trkpt>
      <trkpt lat="55.089081013575196" lon="-4.033248005434871">
        <ele>157.31</ele>
        <time>2023-09-03T08:40:48Z</time>
      </trkpt>
      <trkpt lat="55.088929971680045" lon="-4.032964026555419">
        <ele>157.31</ele>
        <time>2023-09-03T08:40:49Z</time>
      </trkpt>
      <trkpt lat="55.087921964004636" lon="-4.031059993430972">
        <ele>157.31</ele>
        <time>2023-09-03T08:40:56Z</time>
      </trkpt>
      <trkpt lat="55.087605966255069" lon="-4.02987495996058">
        <ele>159.72</ele>
        <time>2023-09-03T08:41:00Z</time>
      </trkpt>
      <trkpt lat="55.087138004601002" lon="-4.026905000209808">
        <ele>162.59999999999999</ele>
        <time>2023-09-03T08:41:08Z</time>
      </trkpt>
      <trkpt lat="55.086574992164969" lon="-4.024257995188236">
        <ele>165</ele>
        <time>2023-09-03T08:41:15Z</time>
      </trkpt>
      <trkpt lat="55.086457980796695" lon="-4.023978039622307">
        <ele>165</ele>
        <time>2023-09-03T08:41:16Z</time>
      </trkpt>
      <trkpt lat="55.086307022720575" lon="-4.023745022714138">
        <ele>165</ele>
        <time>2023-09-03T08:41:17Z</time>
      </trkpt>
      <trkpt lat="55.084710018709302" lon="-4.021227015182376">
        <ele>164.03999999999999</ele>
        <time>2023-09-03T08:41:27Z</time>
      </trkpt>
      <trkpt lat="55.08459703065455" lon="-4.020990980789065">
        <ele>163.56</ele>
        <time>2023-09-03T08:41:28Z</time>
      </trkpt>
      <trkpt lat="55.084531987085938" lon="-4.020736003294587">
        <ele>163.56</ele>
        <time>2023-09-03T08:41:29Z</time>
      </trkpt>
      <trkpt lat="55.084501979872584" lon="-4.020451018586755">
        <ele>163.08000000000001</ele>
        <time>2023-09-03T08:41:30Z</time>
      </trkpt>
      <trkpt lat="55.08446803316474" lon="-4.02013803832233">
        <ele>163.08000000000001</ele>
        <time>2023-09-03T08:41:31Z</time>
      </trkpt>
      <trkpt lat="55.084431990981102" lon="-4.019802007824183">
        <ele>162.59999999999999</ele>
        <time>2023-09-03T08:41:32Z</time>
      </trkpt>
      <trkpt lat="55.084130996838212" lon="-4.016998009756208">
        <ele>161.16</ele>
        <time>2023-09-03T08:41:39Z</time>
      </trkpt>
      <trkpt lat="55.083636967465281" lon="-4.013063963502646">
        <ele>161.63999999999999</ele>
        <time>2023-09-03T08:41:49Z</time>
      </trkpt>
      <trkpt lat="55.083552980795503" lon="-4.012762969359756">
        <ele>161.63999999999999</ele>
        <time>2023-09-03T08:41:50Z</time>
      </trkpt>
      <trkpt lat="55.083462037146091" lon="-4.012483013793826">
        <ele>161.63999999999999</ele>
        <time>2023-09-03T08:41:51Z</time>
      </trkpt>
      <trkpt lat="55.083344019949436" lon="-4.012210015207529">
        <ele>161.63999999999999</ele>
        <time>2023-09-03T08:41:52Z</time>
      </trkpt>
      <trkpt lat="55.083221979439259" lon="-4.011963000521064">
        <ele>161.63999999999999</ele>
        <time>2023-09-03T08:41:53Z</time>
      </trkpt>
      <trkpt lat="55.083086024969816" lon="-4.011725038290024">
        <ele>161.16</ele>
        <time>2023-09-03T08:41:54Z</time>
      </trkpt>
      <trkpt lat="55.082948980852962" lon="-4.011486992239952">
        <ele>161.16</ele>
        <time>2023-09-03T08:41:55Z</time>
      </trkpt>
      <trkpt lat="55.082841021940112" lon="-4.011190021410584">
        <ele>160.68000000000001</ele>
        <time>2023-09-03T08:41:56Z</time>
      </trkpt>
      <trkpt lat="55.082746976986527" lon="-4.010866982862353">
        <ele>160.68000000000001</ele>
        <time>2023-09-03T08:41:57Z</time>
      </trkpt>
      <trkpt lat="55.082081034779549" lon="-4.008372025564313">
        <ele>159.24000000000001</ele>
        <time>2023-09-03T08:42:04Z</time>
      </trkpt>
      <trkpt lat="55.081373015418649" lon="-4.005525028333068">
        <ele>160.19999999999999</ele>
        <time>2023-09-03T08:42:13Z</time>
      </trkpt>
      <trkpt lat="55.08135499432683" lon="-4.005314977839589">
        <ele>160.19999999999999</ele>
        <time>2023-09-03T08:42:14Z</time>
      </trkpt>
      <trkpt lat="55.081380978226662" lon="-4.005067963153124">
        <ele>159.72</ele>
        <time>2023-09-03T08:42:15Z</time>
      </trkpt>
      <trkpt lat="55.08141903206706" lon="-4.004814997315407">
        <ele>159.72</ele>
        <time>2023-09-03T08:42:16Z</time>
      </trkpt>
      <trkpt lat="55.081460019573569" lon="-4.004547027871013">
        <ele>159.72</ele>
        <time>2023-09-03T08:42:17Z</time>
      </trkpt>
      <trkpt lat="55.081479968503118" lon="-4.003991978242993">
        <ele>158.75</ele>
        <time>2023-09-03T08:42:19Z</time>
      </trkpt>
      <trkpt lat="55.081460019573569" lon="-4.003741024062038">
        <ele>158.75</ele>
        <time>2023-09-03T08:42:20Z</time>
      </trkpt>
      <trkpt lat="55.081414002925158" lon="-4.003517981618643">
        <ele>158.75</ele>
        <time>2023-09-03T08:42:21Z</time>
      </trkpt>
      <trkpt lat="55.081347031518817" lon="-4.003298040479422">
        <ele>158.75</ele>
        <time>2023-09-03T08:42:22Z</time>
      </trkpt>
      <trkpt lat="55.081276036798954" lon="-4.003062006086111">
        <ele>158.75</ele>
        <time>2023-09-03T08:42:23Z</time>
      </trkpt>
      <trkpt lat="55.080589978024364" lon="-4.00104096159339">
        <ele>158.27000000000001</ele>
        <time>2023-09-03T08:42:31Z</time>
      </trkpt>
      <trkpt lat="55.080479001626372" lon="-4.000820014625788">
        <ele>158.27000000000001</ele>
        <time>2023-09-03T08:42:32Z</time>
      </trkpt>
      <trkpt lat="55.079392036423087" lon="-3.999369023367763">
        <ele>156.83000000000001</ele>
        <time>2023-09-03T08:42:40Z</time>
      </trkpt>
      <trkpt lat="55.079287011176348" lon="-3.999201972037554">
        <ele>156.83000000000001</ele>
        <time>2023-09-03T08:42:41Z</time>
      </trkpt>
      <trkpt lat="55.079196989536285" lon="-3.999012038111687">
        <ele>157.31</ele>
        <time>2023-09-03T08:42:42Z</time>
      </trkpt>
      <trkpt lat="55.079109985381365" lon="-3.998798970133066">
        <ele>157.31</ele>
        <time>2023-09-03T08:42:43Z</time>
      </trkpt>
      <trkpt lat="55.079031027853489" lon="-3.998563019558787">
        <ele>157.78999999999999</ele>
        <time>2023-09-03T08:42:44Z</time>
      </trkpt>
      <trkpt lat="55.078947963193059" lon="-3.998314999043942">
        <ele>157.78999999999999</ele>
        <time>2023-09-03T08:42:45Z</time>
      </trkpt>
      <trkpt lat="55.078444965183735" lon="-3.996089017018676">
        <ele>157.31</ele>
        <time>2023-09-03T08:42:53Z</time>
      </trkpt>
      <trkpt lat="55.078416969627142" lon="-3.995889024809003">
        <ele>157.31</ele>
        <time>2023-09-03T08:42:54Z</time>
      </trkpt>
      <trkpt lat="55.078428033739328" lon="-3.995708981528878">
        <ele>157.78999999999999</ele>
        <time>2023-09-03T08:42:55Z</time>
      </trkpt>
      <trkpt lat="55.078455023467541" lon="-3.995483005419374">
        <ele>157.78999999999999</ele>
        <time>2023-09-03T08:42:56Z</time>
      </trkpt>
      <trkpt lat="55.078499028459191" lon="-3.995300028473139">
        <ele>157.78999999999999</ele>
        <time>2023-09-03T08:42:57Z</time>
      </trkpt>
      <trkpt lat="55.078552002087235" lon="-3.995076986029744">
        <ele>157.78999999999999</ele>
        <time>2023-09-03T08:42:58Z</time>
      </trkpt>
      <trkpt lat="55.078607993200421" lon="-3.994846986606717">
        <ele>157.31</ele>
        <time>2023-09-03T08:42:59Z</time>
      </trkpt>
      <trkpt lat="55.078664990141988" lon="-3.994610030204058">
        <ele>157.31</ele>
        <time>2023-09-03T08:43:00Z</time>
      </trkpt>
      <trkpt lat="55.07873397320509" lon="-3.994324039667845">
        <ele>156.83000000000001</ele>
        <time>2023-09-03T08:43:01Z</time>
      </trkpt>
      <trkpt lat="55.07873397320509" lon="-3.994103008881211">
        <ele>156.83000000000001</ele>
        <time>2023-09-03T08:43:02Z</time>
      </trkpt>
      <trkpt lat="55.07873397320509" lon="-3.993837973102927">
        <ele>156.83000000000001</ele>
        <time>2023-09-03T08:43:03Z</time>
      </trkpt>
      <trkpt lat="55.078720981255174" lon="-3.993590036407113">
        <ele>157.31</ele>
        <time>2023-09-03T08:43:04Z</time>
      </trkpt>
      <trkpt lat="55.078698014840484" lon="-3.993352996185422">
        <ele>157.78999999999999</ele>
        <time>2023-09-03T08:43:05Z</time>
      </trkpt>
      <trkpt lat="55.078635988757014" lon="-3.993136994540691">
        <ele>157.78999999999999</ele>
        <time>2023-09-03T08:43:06Z</time>
      </trkpt>
      <trkpt lat="55.078547978773713" lon="-3.9929189812392">
        <ele>158.27000000000001</ele>
        <time>2023-09-03T08:43:07Z</time>
      </trkpt>
      <trkpt lat="55.078444965183735" lon="-3.992662997916341">
        <ele>158.75</ele>
        <time>2023-09-03T08:43:08Z</time>
      </trkpt>
      <trkpt lat="55.077622029930353" lon="-3.990616975352168">
        <ele>159.24000000000001</ele>
        <time>2023-09-03T08:43:14Z</time>
      </trkpt>
      <trkpt lat="55.076501034200191" lon="-3.987709963694215">
        <ele>161.16</ele>
        <time>2023-09-03T08:43:22Z</time>
      </trkpt>
      <trkpt lat="55.076438002288342" lon="-3.987435959279537">
        <ele>162.12</ele>
        <time>2023-09-03T08:43:23Z</time>
      </trkpt>
      <trkpt lat="55.076421992853284" lon="-3.987185005098581">
        <ele>162.59999999999999</ele>
        <time>2023-09-03T08:43:24Z</time>
      </trkpt>
      <trkpt lat="55.076165003702044" lon="-3.985050972551107">
        <ele>163.56</ele>
        <time>2023-09-03T08:43:31Z</time>
      </trkpt>
      <trkpt lat="55.076086968183517" lon="-3.984766993671656">
        <ele>163.56</ele>
        <time>2023-09-03T08:43:32Z</time>
      </trkpt>
      <trkpt lat="55.075979009270668" lon="-3.984492989256978">
        <ele>163.08000000000001</ele>
        <time>2023-09-03T08:43:33Z</time>
      </trkpt>
      <trkpt lat="55.075868032872677" lon="-3.984209010377526">
        <ele>163.08000000000001</ele>
        <time>2023-09-03T08:43:34Z</time>
      </trkpt>
      <trkpt lat="55.075753033161163" lon="-3.98391799069941">
        <ele>162.59999999999999</ele>
        <time>2023-09-03T08:43:35Z</time>
      </trkpt>
      <trkpt lat="55.075018024072051" lon="-3.982224008068442">
        <ele>160.68000000000001</ele>
        <time>2023-09-03T08:43:42Z</time>
      </trkpt>
      <trkpt lat="55.074809985235333" lon="-3.982024015858769">
        <ele>159.24000000000001</ele>
        <time>2023-09-03T08:43:44Z</time>
      </trkpt>
      <trkpt lat="55.074690040200949" lon="-3.981943968683481">
        <ele>158.75</ele>
        <time>2023-09-03T08:43:45Z</time>
      </trkpt>
      <trkpt lat="55.074456017464399" lon="-3.981771972030401">
        <ele>158.27000000000001</ele>
        <time>2023-09-03T08:43:47Z</time>
      </trkpt>
      <trkpt lat="55.074345963075757" lon="-3.981673987582326">
        <ele>157.78999999999999</ele>
        <time>2023-09-03T08:43:48Z</time>
      </trkpt>
      <trkpt lat="55.074284020811319" lon="-3.981481958180666">
        <ele>157.78999999999999</ele>
        <time>2023-09-03T08:43:49Z</time>
      </trkpt>
      <trkpt lat="55.074233980849385" lon="-3.981300992891192">
        <ele>157.78999999999999</ele>
        <time>2023-09-03T08:43:50Z</time>
      </trkpt>
      <trkpt lat="55.074230041354895" lon="-3.981099994853139">
        <ele>158.27000000000001</ele>
        <time>2023-09-03T08:43:51Z</time>
      </trkpt>
      <trkpt lat="55.074232975021005" lon="-3.980876030400395">
        <ele>158.27000000000001</ele>
        <time>2023-09-03T08:43:52Z</time>
      </trkpt>
      <trkpt lat="55.074235992506146" lon="-3.980637984350324">
        <ele>158.75</ele>
        <time>2023-09-03T08:43:53Z</time>
      </trkpt>
      <trkpt lat="55.074243033304811" lon="-3.980129035189748">
        <ele>159.24000000000001</ele>
        <time>2023-09-03T08:43:55Z</time>
      </trkpt>
      <trkpt lat="55.074240015819669" lon="-3.979568034410477">
        <ele>158.75</ele>
        <time>2023-09-03T08:43:57Z</time>
      </trkpt>
      <trkpt lat="55.074207996949553" lon="-3.978967973962426">
        <ele>158.27000000000001</ele>
        <time>2023-09-03T08:43:59Z</time>
      </trkpt>
      <trkpt lat="55.07422199472785" lon="-3.978654993698001">
        <ele>157.78999999999999</ele>
        <time>2023-09-03T08:44:00Z</time>
      </trkpt>
      <trkpt lat="55.07424202747643" lon="-3.978342013433576">
        <ele>157.78999999999999</ele>
        <time>2023-09-03T08:44:01Z</time>
      </trkpt>
      <trkpt lat="55.074433973059058" lon="-3.976000025868416">
        <ele>153.94999999999999</ele>
        <time>2023-09-03T08:44:08Z</time>
      </trkpt>
      <trkpt lat="55.074762040749192" lon="-3.97310902364552">
        <ele>149.62</ele>
        <time>2023-09-03T08:44:16Z</time>
      </trkpt>
      <trkpt lat="55.074723986908793" lon="-3.972107972949743">
        <ele>148.18000000000001</ele>
        <time>2023-09-03T08:44:19Z</time>
      </trkpt>
      <trkpt lat="55.074764974415302" lon="-3.971812007948756">
        <ele>147.69999999999999</ele>
        <time>2023-09-03T08:44:20Z</time>
      </trkpt>
      <trkpt lat="55.07482498884201" lon="-3.971516964957118">
        <ele>147.22</ele>
        <time>2023-09-03T08:44:21Z</time>
      </trkpt>
      <trkpt lat="55.07497301325202" lon="-3.970625968649983">
        <ele>146.25999999999999</ele>
        <time>2023-09-03T08:44:24Z</time>
      </trkpt>
      <trkpt lat="55.074963960796595" lon="-3.970380965620279">
        <ele>145.78</ele>
        <time>2023-09-03T08:44:25Z</time>
      </trkpt>
      <trkpt lat="55.074951974675059" lon="-3.970169993117452">
        <ele>145.78</ele>
        <time>2023-09-03T08:44:26Z</time>
      </trkpt>
      <trkpt lat="55.074889026582241" lon="-3.969986010342836">
        <ele>145.30000000000001</ele>
        <time>2023-09-03T08:44:27Z</time>
      </trkpt>
      <trkpt lat="55.074821971356869" lon="-3.969789035618305">
        <ele>145.30000000000001</ele>
        <time>2023-09-03T08:44:28Z</time>
      </trkpt>
      <trkpt lat="55.074749970808625" lon="-3.969575967639685">
        <ele>144.34</ele>
        <time>2023-09-03T08:44:29Z</time>
      </trkpt>
      <trkpt lat="55.07467302493751" lon="-3.969353009015322">
        <ele>144.34</ele>
        <time>2023-09-03T08:44:30Z</time>
      </trkpt>
      <trkpt lat="55.074084028601646" lon="-3.967624995857477">
        <ele>141.44999999999999</ele>
        <time>2023-09-03T08:44:36Z</time>
      </trkpt>
      <trkpt lat="55.073600979521871" lon="-3.9660610165447">
        <ele>139.53</ele>
        <time>2023-09-03T08:44:41Z</time>
      </trkpt>
      <trkpt lat="55.073538031429052" lon="-3.965763039886951">
        <ele>139.05000000000001</ele>
        <time>2023-09-03T08:44:42Z</time>
      </trkpt>
      <trkpt lat="55.073498971760273" lon="-3.96544000133872">
        <ele>139.05000000000001</ele>
        <time>2023-09-03T08:44:43Z</time>
      </trkpt>
      <trkpt lat="55.073458990082145" lon="-3.965104976668954">
        <ele>138.56999999999999</ele>
        <time>2023-09-03T08:44:44Z</time>
      </trkpt>
      <trkpt lat="55.073416996747255" lon="-3.964757965877652">
        <ele>138.09</ele>
        <time>2023-09-03T08:44:45Z</time>
      </trkpt>
      <trkpt lat="55.073354970663786" lon="-3.964403998106718">
        <ele>138.09</ele>
        <time>2023-09-03T08:44:46Z</time>
      </trkpt>
      <trkpt lat="55.073022041469812" lon="-3.963232040405273">
        <ele>134.72</ele>
        <time>2023-09-03T08:44:50Z</time>
      </trkpt>
      <trkpt lat="55.072907041758299" lon="-3.963018972426653">
        <ele>132.80000000000001</ele>
        <time>2023-09-03T08:44:51Z</time>
      </trkpt>
      <trkpt lat="55.072789024561644" lon="-3.962801964953542">
        <ele>130.88</ele>
        <time>2023-09-03T08:44:52Z</time>
      </trkpt>
      <trkpt lat="55.072428015992045" lon="-3.962185978889465">
        <ele>125.11</ele>
        <time>2023-09-03T08:44:55Z</time>
      </trkpt>
      <trkpt lat="55.072285020723939" lon="-3.962009036913514">
        <ele>123.19</ele>
        <time>2023-09-03T08:44:56Z</time>
      </trkpt>
      <trkpt lat="55.071986960247159" lon="-3.961641993373632">
        <ele>118.86</ele>
        <time>2023-09-03T08:44:58Z</time>
      </trkpt>
      <trkpt lat="55.071831978857517" lon="-3.96142297424376">
        <ele>116.94</ele>
        <time>2023-09-03T08:44:59Z</time>
      </trkpt>
      <trkpt lat="55.071709016337991" lon="-3.961176965385675">
        <ele>115.5</ele>
        <time>2023-09-03T08:45:00Z</time>
      </trkpt>
      <trkpt lat="55.070925978943706" lon="-3.959022983908653">
        <ele>106.84</ele>
        <time>2023-09-03T08:45:08Z</time>
      </trkpt>
      <trkpt lat="55.07048400118947" lon="-3.957463027909398">
        <ele>105.40000000000001</ele>
        <time>2023-09-03T08:45:13Z</time>
      </trkpt>
      <trkpt lat="55.069728037342429" lon="-3.955955039709806">
        <ele>108.77</ele>
        <time>2023-09-03T08:45:19Z</time>
      </trkpt>
      <trkpt lat="55.069613037630916" lon="-3.955705007538199">
        <ele>109.25</ele>
        <time>2023-09-03T08:45:20Z</time>
      </trkpt>
      <trkpt lat="55.069529972970486" lon="-3.955433014780283">
        <ele>109.73</ele>
        <time>2023-09-03T08:45:21Z</time>
      </trkpt>
      <trkpt lat="55.069464007392526" lon="-3.955143000930548">
        <ele>110.69</ele>
        <time>2023-09-03T08:45:22Z</time>
      </trkpt>
      <trkpt lat="55.069438023492694" lon="-3.954839995130897">
        <ele>111.17</ele>
        <time>2023-09-03T08:45:23Z</time>
      </trkpt>
      <trkpt lat="55.069412039592862" lon="-3.954531960189343">
        <ele>112.13</ele>
        <time>2023-09-03T08:45:24Z</time>
      </trkpt>
      <trkpt lat="55.069396030157804" lon="-3.954205987975001">
        <ele>113.09</ele>
        <time>2023-09-03T08:45:25Z</time>
      </trkpt>
      <trkpt lat="55.069311037659645" lon="-3.952887011691928">
        <ele>115.5</ele>
        <time>2023-09-03T08:45:29Z</time>
      </trkpt>
      <trkpt lat="55.069256974384189" lon="-3.952581994235516">
        <ele>116.45999999999999</ele>
        <time>2023-09-03T08:45:30Z</time>
      </trkpt>
      <trkpt lat="55.069206012412906" lon="-3.952288962900639">
        <ele>116.94</ele>
        <time>2023-09-03T08:45:31Z</time>
      </trkpt>
      <trkpt lat="55.069096963852644" lon="-3.952016970142722">
        <ele>117.90000000000001</ele>
        <time>2023-09-03T08:45:32Z</time>
      </trkpt>
      <trkpt lat="55.068985987454653" lon="-3.951742965728045">
        <ele>118.38</ele>
        <time>2023-09-03T08:45:33Z</time>
      </trkpt>
      <trkpt lat="55.067964987829328" lon="-3.949445988982916">
        <ele>124.63</ele>
        <time>2023-09-03T08:45:41Z</time>
      </trkpt>
      <trkpt lat="55.067183962091804" lon="-3.94745503552258">
        <ele>129.43000000000001</ele>
        <time>2023-09-03T08:45:49Z</time>
      </trkpt>
      <trkpt lat="55.066897971555591" lon="-3.946340996772051">
        <ele>129.91999999999999</ele>
        <time>2023-09-03T08:45:55Z</time>
      </trkpt>
      <trkpt lat="55.066833011806011" lon="-3.946170005947352">
        <ele>129.91999999999999</ele>
        <time>2023-09-03T08:45:56Z</time>
      </trkpt>
      <trkpt lat="55.066764028742909" lon="-3.946006977930665">
        <ele>129.43000000000001</ele>
        <time>2023-09-03T08:45:57Z</time>
      </trkpt>
      <trkpt lat="55.066692028194666" lon="-3.945836992934346">
        <ele>129.43000000000001</ele>
        <time>2023-09-03T08:45:58Z</time>
      </trkpt>
      <trkpt lat="55.066609969362617" lon="-3.945679999887943">
        <ele>129.43000000000001</ele>
        <time>2023-09-03T08:45:59Z</time>
      </trkpt>
      <trkpt lat="55.066507961601019" lon="-3.945552008226514">
        <ele>128.94999999999999</ele>
        <time>2023-09-03T08:46:00Z</time>
      </trkpt>
      <trkpt lat="55.065633980557323" lon="-3.944473005831242">
        <ele>127.03</ele>
        <time>2023-09-03T08:46:09Z</time>
      </trkpt>
      <trkpt lat="55.065517975017428" lon="-3.944420032203198">
        <ele>126.55</ele>
        <time>2023-09-03T08:46:10Z</time>
      </trkpt>
      <trkpt lat="55.064625972881913" lon="-3.943963972851634">
        <ele>124.15000000000001</ele>
        <time>2023-09-03T08:46:18Z</time>
      </trkpt>
      <trkpt lat="55.064522959291935" lon="-3.943872023373842">
        <ele>124.15000000000001</ele>
        <time>2023-09-03T08:46:19Z</time>
      </trkpt>
      <trkpt lat="55.064419023692608" lon="-3.943779990077019">
        <ele>123.67</ele>
        <time>2023-09-03T08:46:20Z</time>
      </trkpt>
      <trkpt lat="55.064319027587771" lon="-3.943679993972182">
        <ele>123.67</ele>
        <time>2023-09-03T08:46:21Z</time>
      </trkpt>
      <trkpt lat="55.064221965149045" lon="-3.943534987047315">
        <ele>123.67</ele>
        <time>2023-09-03T08:46:22Z</time>
      </trkpt>
      <trkpt lat="55.063386959955096" lon="-3.942077038809657">
        <ele>122.22</ele>
        <time>2023-09-03T08:46:29Z</time>
      </trkpt>
      <trkpt lat="55.062686987221241" lon="-3.940006960183382">
        <ele>119.81999999999999</ele>
        <time>2023-09-03T08:46:36Z</time>
      </trkpt>
      <trkpt lat="55.062514990568161" lon="-3.939112024381757">
        <ele>117.90000000000001</ele>
        <time>2023-09-03T08:46:39Z</time>
      </trkpt>
      <trkpt lat="55.06242798641324" lon="-3.938908008858562">
        <ele>117.42</ele>
        <time>2023-09-03T08:46:40Z</time>
      </trkpt>
      <trkpt lat="55.062320027500391" lon="-3.938749004155397">
        <ele>116.94</ele>
        <time>2023-09-03T08:46:41Z</time>
      </trkpt>
      <trkpt lat="55.062195975333452" lon="-3.938592011108995">
        <ele>116.45999999999999</ele>
        <time>2023-09-03T08:46:42Z</time>
      </trkpt>
      <trkpt lat="55.062079969793558" lon="-3.93838900141418">
        <ele>115.98</ele>
        <time>2023-09-03T08:46:43Z</time>
      </trkpt>
      <trkpt lat="55.061963964253664" lon="-3.938167970627546">
        <ele>115.5</ele>
        <time>2023-09-03T08:46:44Z</time>
      </trkpt>
      <trkpt lat="55.061841001734138" lon="-3.937935959547758">
        <ele>115.01000000000001</ele>
        <time>2023-09-03T08:46:45Z</time>
      </trkpt>
      <trkpt lat="55.061734970659018" lon="-3.937673019245267">
        <ele>114.05</ele>
        <time>2023-09-03T08:46:46Z</time>
      </trkpt>
      <trkpt lat="55.06167403422296" lon="-3.937405971810222">
        <ele>113.56999999999999</ele>
        <time>2023-09-03T08:46:47Z</time>
      </trkpt>
      <trkpt lat="55.06161100231111" lon="-3.937131967395544">
        <ele>113.09</ele>
        <time>2023-09-03T08:46:48Z</time>
      </trkpt>
      <trkpt lat="55.06154403090477" lon="-3.936839019879699">
        <ele>112.61</ele>
        <time>2023-09-03T08:46:49Z</time>
      </trkpt>
      <trkpt lat="55.061469012871385" lon="-3.936566021293402">
        <ele>112.13</ele>
        <time>2023-09-03T08:46:50Z</time>
      </trkpt>
      <trkpt lat="55.061391983181238" lon="-3.936304003000259">
        <ele>111.17</ele>
        <time>2023-09-03T08:46:51Z</time>
      </trkpt>
      <trkpt lat="55.061301961541176" lon="-3.936071991920471">
        <ele>110.69</ele>
        <time>2023-09-03T08:46:52Z</time>
      </trkpt>
      <trkpt lat="55.061195008456707" lon="-3.935858001932502">
        <ele>110.20999999999999</ele>
        <time>2023-09-03T08:46:53Z</time>
      </trkpt>
      <trkpt lat="55.061093000695109" lon="-3.935652980580926">
        <ele>109.25</ele>
        <time>2023-09-03T08:46:54Z</time>
      </trkpt>
      <trkpt lat="55.061010019853711" lon="-3.935422981157899">
        <ele>108.77</ele>
        <time>2023-09-03T08:46:55Z</time>
      </trkpt>
      <trkpt lat="55.060945982113481" lon="-3.935202034190297">
        <ele>107.81</ele>
        <time>2023-09-03T08:46:56Z</time>
      </trkpt>
      <trkpt lat="55.060930978506804" lon="-3.934977985918522">
        <ele>107.31999999999999</ele>
        <time>2023-09-03T08:46:57Z</time>
      </trkpt>
      <trkpt lat="55.0609449762851" lon="-3.934714961796999">
        <ele>106.36</ele>
        <time>2023-09-03T08:46:58Z</time>
      </trkpt>
      <trkpt lat="55.060973977670074" lon="-3.934604991227388">
        <ele>106.36</ele>
        <time>2023-09-03T08:46:59Z</time>
      </trkpt>
      <trkpt lat="55.061024017632008" lon="-3.93441203981638">
        <ele>105.88</ele>
        <time>2023-09-03T08:47:00Z</time>
      </trkpt>
      <trkpt lat="55.061081014573574" lon="-3.934190003201366">
        <ele>105.40000000000001</ele>
        <time>2023-09-03T08:47:01Z</time>
      </trkpt>
      <trkpt lat="55.061100041493773" lon="-3.933948017656803">
        <ele>104.44</ele>
        <time>2023-09-03T08:47:02Z</time>
      </trkpt>
      <trkpt lat="55.061106998473406" lon="-3.933694968000054">
        <ele>103.95999999999999</ele>
        <time>2023-09-03T08:47:03Z</time>
      </trkpt>
      <trkpt lat="55.06111403927207" lon="-3.933437978848815">
        <ele>103.48</ele>
        <time>2023-09-03T08:47:04Z</time>
      </trkpt>
      <trkpt lat="55.061016976833344" lon="-3.931819014251232">
        <ele>101.08</ele>
        <time>2023-09-03T08:47:10Z</time>
      </trkpt>
      <trkpt lat="55.060968026518822" lon="-3.931576022878289">
        <ele>100.59999999999999</ele>
        <time>2023-09-03T08:47:11Z</time>
      </trkpt>
      <trkpt lat="55.060884961858392" lon="-3.931389022618532">
        <ele>100.11</ele>
        <time>2023-09-03T08:47:12Z</time>
      </trkpt>
      <trkpt lat="55.060783037915826" lon="-3.93127603456378">
        <ele>99.629999999999995</ele>
        <time>2023-09-03T08:47:13Z</time>
      </trkpt>
      <trkpt lat="55.060671977698803" lon="-3.931224988773465">
        <ele>100.11</ele>
        <time>2023-09-03T08:47:14Z</time>
      </trkpt>
      <trkpt lat="55.060549015179276" lon="-3.931242004036903">
        <ele>100.59999999999999</ele>
        <time>2023-09-03T08:47:15Z</time>
      </trkpt>
      <trkpt lat="55.060424963012338" lon="-3.931259019300342">
        <ele>101.08</ele>
        <time>2023-09-03T08:47:16Z</time>
      </trkpt>
      <trkpt lat="55.060296971350908" lon="-3.93127704039216">
        <ele>101.56</ele>
        <time>2023-09-03T08:47:17Z</time>
      </trkpt>
      <trkpt lat="55.060173003003001" lon="-3.931293971836567">
        <ele>102.04000000000001</ele>
        <time>2023-09-03T08:47:18Z</time>
      </trkpt>
      <trkpt lat="55.060063032433391" lon="-3.931271005421877">
        <ele>102.52</ele>
        <time>2023-09-03T08:47:19Z</time>
      </trkpt>
      <trkpt lat="55.059959013015032" lon="-3.931196993216872">
        <ele>103</ele>
        <time>2023-09-03T08:47:20Z</time>
      </trkpt>
      <trkpt lat="55.059868991374969" lon="-3.931061960756779">
        <ele>103.95999999999999</ele>
        <time>2023-09-03T08:47:21Z</time>
      </trkpt>
      <trkpt lat="55.059786010533571" lon="-3.930937992408872">
        <ele>104.44</ele>
        <time>2023-09-03T08:47:22Z</time>
      </trkpt>
      <trkpt lat="55.059742005541921" lon="-3.930717967450619">
        <ele>104.92</ele>
        <time>2023-09-03T08:47:23Z</time>
      </trkpt>
      <trkpt lat="55.059702023863792" lon="-3.930515041574836">
        <ele>105.88</ele>
        <time>2023-09-03T08:47:24Z</time>
      </trkpt>
      <trkpt lat="55.059678973630071" lon="-3.930301973596215">
        <ele>106.84</ele>
        <time>2023-09-03T08:47:25Z</time>
      </trkpt>
      <trkpt lat="55.059678973630071" lon="-3.93005495890975">
        <ele>107.81</ele>
        <time>2023-09-03T08:47:26Z</time>
      </trkpt>
      <trkpt lat="55.059678973630071" lon="-3.929436039179564">
        <ele>109.73</ele>
        <time>2023-09-03T08:47:28Z</time>
      </trkpt>
      <trkpt lat="55.059722978621721" lon="-3.929186007007957">
        <ele>111.17</ele>
        <time>2023-09-03T08:47:29Z</time>
      </trkpt>
      <trkpt lat="55.059777041897178" lon="-3.928876966238022">
        <ele>112.13</ele>
        <time>2023-09-03T08:47:30Z</time>
      </trkpt>
      <trkpt lat="55.059880977496505" lon="-3.928283024579287">
        <ele>113.56999999999999</ele>
        <time>2023-09-03T08:47:32Z</time>
      </trkpt>
      <trkpt lat="55.059911990538239" lon="-3.927981024608016">
        <ele>114.53</ele>
        <time>2023-09-03T08:47:33Z</time>
      </trkpt>
      <trkpt lat="55.059904027730227" lon="-3.92766603268683">
        <ele>115.01000000000001</ele>
        <time>2023-09-03T08:47:34Z</time>
      </trkpt>
      <trkpt lat="55.059894975274801" lon="-3.927359003573656">
        <ele>115.98</ele>
        <time>2023-09-03T08:47:35Z</time>
      </trkpt>
      <trkpt lat="55.059843007475138" lon="-3.927081981673837">
        <ele>116.45999999999999</ele>
        <time>2023-09-03T08:47:36Z</time>
      </trkpt>
      <trkpt lat="55.059774024412036" lon="-3.92685198225081">
        <ele>116.94</ele>
        <time>2023-09-03T08:47:37Z</time>
      </trkpt>
      <trkpt lat="55.05967696197331" lon="-3.926672022789717">
        <ele>117.90000000000001</ele>
        <time>2023-09-03T08:47:38Z</time>
      </trkpt>
      <trkpt lat="55.059542013332248" lon="-3.92657496035099">
        <ele>118.38</ele>
        <time>2023-09-03T08:47:39Z</time>
      </trkpt>
      <trkpt lat="55.059391977265477" lon="-3.92646599560976">
        <ele>118.86</ele>
        <time>2023-09-03T08:47:40Z</time>
      </trkpt>
      <trkpt lat="55.059233978390694" lon="-3.926352001726627">
        <ele>119.34</ele>
        <time>2023-09-03T08:47:41Z</time>
      </trkpt>
      <trkpt lat="55.059069022536278" lon="-3.92622702755034">
        <ele>119.34</ele>
        <time>2023-09-03T08:47:42Z</time>
      </trkpt>
      <trkpt lat="55.058933990076184" lon="-3.926037009805441">
        <ele>119.34</ele>
        <time>2023-09-03T08:47:43Z</time>
      </trkpt>
      <trkpt lat="55.058809015899897" lon="-3.925817990675569">
        <ele>119.34</ele>
        <time>2023-09-03T08:47:44Z</time>
      </trkpt>
      <trkpt lat="55.058692004531622" lon="-3.92556301318109">
        <ele>119.34</ele>
        <time>2023-09-03T08:47:45Z</time>
      </trkpt>
      <trkpt lat="55.058568958193064" lon="-3.925294959917665">
        <ele>119.81999999999999</ele>
        <time>2023-09-03T08:47:46Z</time>
      </trkpt>
      <trkpt lat="55.058427974581718" lon="-3.925032019615173">
        <ele>119.81999999999999</ele>
        <time>2023-09-03T08:47:47Z</time>
      </trkpt>
      <trkpt lat="55.058016004040837" lon="-3.924316959455609">
        <ele>121.26000000000001</ele>
        <time>2023-09-03T08:47:50Z</time>
      </trkpt>
      <trkpt lat="55.057928999885917" lon="-3.924043960869312">
        <ele>121.73999999999999</ele>
        <time>2023-09-03T08:47:51Z</time>
      </trkpt>
      <trkpt lat="55.057835038751364" lon="-3.923747995868325">
        <ele>122.22</ele>
        <time>2023-09-03T08:47:52Z</time>
      </trkpt>
      <trkpt lat="55.057534966617823" lon="-3.922822969034314">
        <ele>123.67</ele>
        <time>2023-09-03T08:47:55Z</time>
      </trkpt>
      <trkpt lat="55.057251993566751" lon="-3.922130959108472">
        <ele>125.11</ele>
        <time>2023-09-03T08:47:58Z</time>
      </trkpt>
      <trkpt lat="55.057219974696636" lon="-3.921934990212321">
        <ele>125.59</ele>
        <time>2023-09-03T08:47:59Z</time>
      </trkpt>
      <trkpt lat="55.057234978303313" lon="-3.921744972467423">
        <ele>126.06999999999999</ele>
        <time>2023-09-03T08:48:00Z</time>
      </trkpt>
      <trkpt lat="55.057254005223513" lon="-3.921521008014679">
        <ele>127.03</ele>
        <time>2023-09-03T08:48:01Z</time>
      </trkpt>
      <trkpt lat="55.057274037972093" lon="-3.921268964186311">
        <ele>127.03</ele>
        <time>2023-09-03T08:48:02Z</time>
      </trkpt>
      <trkpt lat="55.057297004386783" lon="-3.920991020277143">
        <ele>127.51000000000001</ele>
        <time>2023-09-03T08:48:03Z</time>
      </trkpt>
      <trkpt lat="55.057319970801473" lon="-3.920716010034084">
        <ele>127.51000000000001</ele>
        <time>2023-09-03T08:48:04Z</time>
      </trkpt>
      <trkpt lat="55.057340003550053" lon="-3.920466983690858">
        <ele>127.98999999999999</ele>
        <time>2023-09-03T08:48:05Z</time>
      </trkpt>
      <trkpt lat="55.057406974956393" lon="-3.92021301202476">
        <ele>128.47</ele>
        <time>2023-09-03T08:48:06Z</time>
      </trkpt>
      <trkpt lat="55.057473024353385" lon="-3.919963985681534">
        <ele>128.94999999999999</ele>
        <time>2023-09-03T08:48:07Z</time>
      </trkpt>
      <trkpt lat="55.057536978274584" lon="-3.919720994308591">
        <ele>129.43000000000001</ele>
        <time>2023-09-03T08:48:08Z</time>
      </trkpt>
      <trkpt lat="55.057563968002796" lon="-3.919452019035816">
        <ele>129.91999999999999</ele>
        <time>2023-09-03T08:48:09Z</time>
      </trkpt>
      <trkpt lat="55.057576037943363" lon="-3.919179020449519">
        <ele>129.43000000000001</ele>
        <time>2023-09-03T08:48:11Z</time>
      </trkpt>
      <trkpt lat="55.057524992153049" lon="-3.918789010494947">
        <ele>128.94999999999999</ele>
        <time>2023-09-03T08:48:12Z</time>
      </trkpt>
      <trkpt lat="55.057496996596456" lon="-3.918646015226841">
        <ele>127.98999999999999</ele>
        <time>2023-09-03T08:48:13Z</time>
      </trkpt>
      <trkpt lat="55.057418961077929" lon="-3.918436970561743">
        <ele>127.03</ele>
        <time>2023-09-03T08:48:14Z</time>
      </trkpt>
      <trkpt lat="55.057322988286614" lon="-3.918177969753742">
        <ele>126.06999999999999</ele>
        <time>2023-09-03T08:48:15Z</time>
      </trkpt>
      <trkpt lat="55.056828036904335" lon="-3.917042976245284">
        <ele>121.73999999999999</ele>
        <time>2023-09-03T08:48:19Z</time>
      </trkpt>
      <trkpt lat="55.056138960644603" lon="-3.915811004117131">
        <ele>118.38</ele>
        <time>2023-09-03T08:48:24Z</time>
      </trkpt>
      <trkpt lat="55.056006023660302" lon="-3.91567898914218">
        <ele>119.34</ele>
        <time>2023-09-03T08:48:25Z</time>
      </trkpt>
      <trkpt lat="55.055856993421912" lon="-3.915529036894441">
        <ele>119.34</ele>
        <time>2023-09-03T08:48:26Z</time>
      </trkpt>
      <trkpt lat="55.055645015090704" lon="-3.915316974744201">
        <ele>119.34</ele>
        <time>2023-09-03T08:48:27Z</time>
      </trkpt>
      <trkpt lat="55.055554993450642" lon="-3.915138021111488">
        <ele>119.81999999999999</ele>
        <time>2023-09-03T08:48:28Z</time>
      </trkpt>
      <trkpt lat="55.05542398430407" lon="-3.914874996989965">
        <ele>119.81999999999999</ele>
        <time>2023-09-03T08:48:29Z</time>
      </trkpt>
      <trkpt lat="55.05529398098588" lon="-3.914613984525204">
        <ele>119.81999999999999</ele>
        <time>2023-09-03T08:48:30Z</time>
      </trkpt>
      <trkpt lat="55.055159032344818" lon="-3.914396977052093">
        <ele>119.81999999999999</ele>
        <time>2023-09-03T08:48:31Z</time>
      </trkpt>
      <trkpt lat="55.055016037076712" lon="-3.914238978177309">
        <ele>119.81999999999999</ele>
        <time>2023-09-03T08:48:32Z</time>
      </trkpt>
      <trkpt lat="55.054838005453348" lon="-3.914137976244092">
        <ele>120.78</ele>
        <time>2023-09-03T08:48:33Z</time>
      </trkpt>
      <trkpt lat="55.05466902628541" lon="-3.914049966260791">
        <ele>121.73999999999999</ele>
        <time>2023-09-03T08:48:34Z</time>
      </trkpt>
      <trkpt lat="55.054512033239007" lon="-3.913968997076154">
        <ele>122.22</ele>
        <time>2023-09-03T08:48:35Z</time>
      </trkpt>
      <trkpt lat="55.054372977465391" lon="-3.913864977657795">
        <ele>122.70999999999999</ele>
        <time>2023-09-03T08:48:36Z</time>
      </trkpt>
      <trkpt lat="55.054275998845696" lon="-3.913691975176334">
        <ele>123.19</ele>
        <time>2023-09-03T08:48:37Z</time>
      </trkpt>
      <trkpt lat="55.054254038259387" lon="-3.91353196464479">
        <ele>124.63</ele>
        <time>2023-09-03T08:48:38Z</time>
      </trkpt>
      <trkpt lat="55.054265018552542" lon="-3.913383018225431">
        <ele>126.06999999999999</ele>
        <time>2023-09-03T08:48:39Z</time>
      </trkpt>
      <trkpt lat="55.054280022159219" lon="-3.913191994652152">
        <ele>127.03</ele>
        <time>2023-09-03T08:48:40Z</time>
      </trkpt>
      <trkpt lat="55.054297959432006" lon="-3.912955960258842">
        <ele>127.98999999999999</ele>
        <time>2023-09-03T08:48:41Z</time>
      </trkpt>
      <trkpt lat="55.054310029372573" lon="-3.912679022178054">
        <ele>128.94999999999999</ele>
        <time>2023-09-03T08:48:42Z</time>
      </trkpt>
      <trkpt lat="55.054289996623993" lon="-3.912390014156699">
        <ele>129.43000000000001</ele>
        <time>2023-09-03T08:48:43Z</time>
      </trkpt>
      <trkpt lat="55.054253032431006" lon="-3.912074016407132">
        <ele>130.40000000000001</ele>
        <time>2023-09-03T08:48:44Z</time>
      </trkpt>
      <trkpt lat="55.054171979427338" lon="-3.911784002557397">
        <ele>130.88</ele>
        <time>2023-09-03T08:48:45Z</time>
      </trkpt>
      <trkpt lat="55.054088998585939" lon="-3.911486025899649">
        <ele>131.84</ele>
        <time>2023-09-03T08:48:46Z</time>
      </trkpt>
      <trkpt lat="55.053907027468085" lon="-3.910933993756771">
        <ele>133.75999999999999</ele>
        <time>2023-09-03T08:48:48Z</time>
      </trkpt>
      <trkpt lat="55.053517017513514" lon="-3.90987703576684">
        <ele>137.13</ele>
        <time>2023-09-03T08:48:52Z</time>
      </trkpt>
      <trkpt lat="55.053478041663766" lon="-3.909566989168525">
        <ele>138.56999999999999</ele>
        <time>2023-09-03T08:48:53Z</time>
      </trkpt>
      <trkpt lat="55.053437976166606" lon="-3.909247973933816">
        <ele>139.53</ele>
        <time>2023-09-03T08:48:54Z</time>
      </trkpt>
      <trkpt lat="55.053136982023716" lon="-3.907562037929893">
        <ele>143.37</ele>
        <time>2023-09-03T08:48:59Z</time>
      </trkpt>
      <trkpt lat="55.053032962605357" lon="-3.90727898105979">
        <ele>144.34</ele>
        <time>2023-09-03T08:49:00Z</time>
      </trkpt>
      <trkpt lat="55.052619986236095" lon="-3.906154967844486">
        <ele>148.18000000000001</ele>
        <time>2023-09-03T08:49:04Z</time>
      </trkpt>
      <trkpt lat="55.05247799679637" lon="-3.905886998400092">
        <ele>148.66</ele>
        <time>2023-09-03T08:49:05Z</time>
      </trkpt>
      <trkpt lat="55.051221968606114" lon="-3.903597984462977">
        <ele>149.13999999999999</ele>
        <time>2023-09-03T08:49:13Z</time>
      </trkpt>
      <trkpt lat="55.051073022186756" lon="-3.903408972546458">
        <ele>149.13999999999999</ele>
        <time>2023-09-03T08:49:14Z</time>
      </trkpt>
      <trkpt lat="55.050927009433508" lon="-3.903221972286701">
        <ele>149.13999999999999</ele>
        <time>2023-09-03T08:49:15Z</time>
      </trkpt>
      <trkpt lat="55.050783008337021" lon="-3.903037989512086">
        <ele>149.13999999999999</ele>
        <time>2023-09-03T08:49:16Z</time>
      </trkpt>
      <trkpt lat="55.050602965056896" lon="-3.902806984260678">
        <ele>148.66</ele>
        <time>2023-09-03T08:49:17Z</time>
      </trkpt>
      <trkpt lat="55.050505986437201" lon="-3.902578996494412">
        <ele>148.18000000000001</ele>
        <time>2023-09-03T08:49:18Z</time>
      </trkpt>
      <trkpt lat="55.050382018089294" lon="-3.902284959331155">
        <ele>147.69999999999999</ele>
        <time>2023-09-03T08:49:19Z</time>
      </trkpt>
      <trkpt lat="55.049508959054947" lon="-3.90033801086247">
        <ele>147.69999999999999</ele>
        <time>2023-09-03T08:49:26Z</time>
      </trkpt>
      <trkpt lat="55.049418015405536" lon="-3.900108011439443">
        <ele>148.18000000000001</ele>
        <time>2023-09-03T08:49:27Z</time>
      </trkpt>
      <trkpt lat="55.04925699904561" lon="-3.89961096458137">
        <ele>149.13999999999999</ele>
        <time>2023-09-03T08:49:29Z</time>
      </trkpt>
      <trkpt lat="55.049151973798871" lon="-3.899375014007092">
        <ele>149.62</ele>
        <time>2023-09-03T08:49:30Z</time>
      </trkpt>
      <trkpt lat="55.049013001844287" lon="-3.899164963513613">
        <ele>150.09999999999999</ele>
        <time>2023-09-03T08:49:31Z</time>
      </trkpt>
      <trkpt lat="55.048446971923113" lon="-3.898339010775089">
        <ele>152.99000000000001</ele>
        <time>2023-09-03T08:49:35Z</time>
      </trkpt>
      <trkpt lat="55.04831001162529" lon="-3.898180006071925">
        <ele>153.94999999999999</ele>
        <time>2023-09-03T08:49:36Z</time>
      </trkpt>
      <trkpt lat="55.048148995265365" lon="-3.898114040493965">
        <ele>154.43000000000001</ele>
        <time>2023-09-03T08:49:37Z</time>
      </trkpt>
      <trkpt lat="55.04798898473382" lon="-3.898070035502315">
        <ele>155.38999999999999</ele>
        <time>2023-09-03T08:49:38Z</time>
      </trkpt>
      <trkpt lat="55.047828974202275" lon="-3.898027036339045">
        <ele>156.34999999999999</ele>
        <time>2023-09-03T08:49:39Z</time>
      </trkpt>
      <trkpt lat="55.047668963670731" lon="-3.897983031347394">
        <ele>156.83000000000001</ele>
        <time>2023-09-03T08:49:40Z</time>
      </trkpt>
      <trkpt lat="55.047509036958218" lon="-3.897939026355743">
        <ele>157.31</ele>
        <time>2023-09-03T08:49:41Z</time>
      </trkpt>
      <trkpt lat="55.047340979799628" lon="-3.897893009707332">
        <ele>157.78999999999999</ele>
        <time>2023-09-03T08:49:42Z</time>
      </trkpt>
      <trkpt lat="55.047185998409986" lon="-3.897745991125703">
        <ele>158.27000000000001</ele>
        <time>2023-09-03T08:49:43Z</time>
      </trkpt>
      <trkpt lat="55.045970035716891" lon="-3.896667994558811">
        <ele>160.68000000000001</ele>
        <time>2023-09-03T08:49:50Z</time>
      </trkpt>
      <trkpt lat="55.04579502157867" lon="-3.896593982353807">
        <ele>161.16</ele>
        <time>2023-09-03T08:49:51Z</time>
      </trkpt>
      <trkpt lat="55.045613972470164" lon="-3.896585013717413">
        <ele>161.16</ele>
        <time>2023-09-03T08:49:52Z</time>
      </trkpt>
      <trkpt lat="55.045424960553646" lon="-3.896612003445625">
        <ele>161.16</ele>
        <time>2023-09-03T08:49:53Z</time>
      </trkpt>
      <trkpt lat="55.045234020799398" lon="-3.896669000387192">
        <ele>161.16</ele>
        <time>2023-09-03T08:49:54Z</time>
      </trkpt>
      <trkpt lat="55.045053977519274" lon="-3.896723985671997">
        <ele>161.16</ele>
        <time>2023-09-03T08:49:55Z</time>
      </trkpt>
      <trkpt lat="55.044887010008097" lon="-3.896774025633931">
        <ele>161.16</ele>
        <time>2023-09-03T08:49:56Z</time>
      </trkpt>
      <trkpt lat="55.044730016961694" lon="-3.89668601565063">
        <ele>161.16</ele>
        <time>2023-09-03T08:49:57Z</time>
      </trkpt>
      <trkpt lat="55.044575035572052" lon="-3.896586019545794">
        <ele>161.16</ele>
        <time>2023-09-03T08:49:58Z</time>
      </trkpt>
      <trkpt lat="55.04442298784852" lon="-3.896488035097718">
        <ele>161.63999999999999</ele>
        <time>2023-09-03T08:49:59Z</time>
      </trkpt>
      <trkpt lat="55.044274041429162" lon="-3.896391978487372">
        <ele>161.63999999999999</ele>
        <time>2023-09-03T08:50:00Z</time>
      </trkpt>
      <trkpt lat="55.044112019240856" lon="-3.896375969052315">
        <ele>161.63999999999999</ele>
        <time>2023-09-03T08:50:01Z</time>
      </trkpt>
      <trkpt lat="55.04394899122417" lon="-3.896412011235952">
        <ele>161.63999999999999</ele>
        <time>2023-09-03T08:50:02Z</time>
      </trkpt>
      <trkpt lat="55.043774982914329" lon="-3.896479988470674">
        <ele>161.63999999999999</ele>
        <time>2023-09-03T08:50:03Z</time>
      </trkpt>
      <trkpt lat="55.04360499791801" lon="-3.896595994010568">
        <ele>162.12</ele>
        <time>2023-09-03T08:50:04Z</time>
      </trkpt>
      <trkpt lat="55.043436018750072" lon="-3.896710993722081">
        <ele>162.59999999999999</ele>
        <time>2023-09-03T08:50:05Z</time>
      </trkpt>
      <trkpt lat="55.043307021260262" lon="-3.896799003705382">
        <ele>162.59999999999999</ele>
        <time>2023-09-03T08:50:06Z</time>
      </trkpt>
      <trkpt lat="55.043100994080305" lon="-3.896820964291692">
        <ele>163.08000000000001</ele>
        <time>2023-09-03T08:50:07Z</time>
      </trkpt>
      <trkpt lat="55.042932014912367" lon="-3.896838985383511">
        <ele>163.56</ele>
        <time>2023-09-03T08:50:08Z</time>
      </trkpt>
      <trkpt lat="55.042754989117384" lon="-3.896805038675666">
        <ele>163.56</ele>
        <time>2023-09-03T08:50:09Z</time>
      </trkpt>
      <trkpt lat="55.042562959715724" lon="-3.896756004542112">
        <ele>163.56</ele>
        <time>2023-09-03T08:50:10Z</time>
      </trkpt>
      <trkpt lat="55.04235802218318" lon="-3.896704036742449">
        <ele>163.56</ele>
        <time>2023-09-03T08:50:11Z</time>
      </trkpt>
      <trkpt lat="55.042156018316746" lon="-3.896651985123754">
        <ele>163.56</ele>
        <time>2023-09-03T08:50:12Z</time>
      </trkpt>
      <trkpt lat="55.041982010006905" lon="-3.896564980968833">
        <ele>163.56</ele>
        <time>2023-09-03T08:50:13Z</time>
      </trkpt>
      <trkpt lat="55.041814036667347" lon="-3.896431960165501">
        <ele>163.56</ele>
        <time>2023-09-03T08:50:14Z</time>
      </trkpt>
      <trkpt lat="55.041637010872364" lon="-3.896292988210917">
        <ele>163.56</ele>
        <time>2023-09-03T08:50:15Z</time>
      </trkpt>
      <trkpt lat="55.04145797342062" lon="-3.896150998771191">
        <ele>163.56</ele>
        <time>2023-09-03T08:50:16Z</time>
      </trkpt>
      <trkpt lat="55.041278013959527" lon="-3.896043039858341">
        <ele>163.56</ele>
        <time>2023-09-03T08:50:17Z</time>
      </trkpt>
      <trkpt lat="55.041108028963208" lon="-3.895984031260014">
        <ele>164.03999999999999</ele>
        <time>2023-09-03T08:50:18Z</time>
      </trkpt>
      <trkpt lat="55.040957992896438" lon="-3.895931979641318">
        <ele>164.03999999999999</ele>
        <time>2023-09-03T08:50:19Z</time>
      </trkpt>
      <trkpt lat="55.040861014276743" lon="-3.895898032933474">
        <ele>164.03999999999999</ele>
        <time>2023-09-03T08:50:20Z</time>
      </trkpt>
      <trkpt lat="55.040788007900119" lon="-3.895724024623632">
        <ele>164.03999999999999</ele>
        <time>2023-09-03T08:50:21Z</time>
      </trkpt>
      <trkpt lat="55.040721036493778" lon="-3.895566025748849">
        <ele>164.52000000000001</ele>
        <time>2023-09-03T08:50:22Z</time>
      </trkpt>
      <trkpt lat="55.040680970996618" lon="-3.895385982468724">
        <ele>164.52000000000001</ele>
        <time>2023-09-03T08:50:23Z</time>
      </trkpt>
      <trkpt lat="55.040663033723831" lon="-3.895148020237684">
        <ele>164.52000000000001</ele>
        <time>2023-09-03T08:50:24Z</time>
      </trkpt>
      <trkpt lat="55.040646018460393" lon="-3.894932018592954">
        <ele>164.52000000000001</ele>
        <time>2023-09-03T08:50:25Z</time>
      </trkpt>
      <trkpt lat="55.040578041225672" lon="-3.894659020006657">
        <ele>164.52000000000001</ele>
        <time>2023-09-03T08:50:26Z</time>
      </trkpt>
      <trkpt lat="55.040496988222003" lon="-3.894445030018687">
        <ele>164.03999999999999</ele>
        <time>2023-09-03T08:50:27Z</time>
      </trkpt>
      <trkpt lat="55.040411995723844" lon="-3.894248977303505">
        <ele>164.03999999999999</ele>
        <time>2023-09-03T08:50:28Z</time>
      </trkpt>
      <trkpt lat="55.040332032367587" lon="-3.89406600035727">
        <ele>164.03999999999999</ele>
        <time>2023-09-03T08:50:29Z</time>
      </trkpt>
      <trkpt lat="55.040260031819344" lon="-3.893895009532571">
        <ele>163.56</ele>
        <time>2023-09-03T08:50:30Z</time>
      </trkpt>
      <trkpt lat="55.040249973535538" lon="-3.893670039251447">
        <ele>164.03999999999999</ele>
        <time>2023-09-03T08:50:31Z</time>
      </trkpt>
      <trkpt lat="55.040238993242383" lon="-3.893415983766317">
        <ele>163.56</ele>
        <time>2023-09-03T08:50:32Z</time>
      </trkpt>
      <trkpt lat="55.040217032656074" lon="-3.892893958836794">
        <ele>162.59999999999999</ele>
        <time>2023-09-03T08:50:34Z</time>
      </trkpt>
      <trkpt lat="55.040174033492804" lon="-3.892701007425785">
        <ele>162.12</ele>
        <time>2023-09-03T08:50:35Z</time>
      </trkpt>
      <trkpt lat="55.040070014074445" lon="-3.892511995509267">
        <ele>161.63999999999999</ele>
        <time>2023-09-03T08:50:36Z</time>
      </trkpt>
      <trkpt lat="55.039988961070776" lon="-3.892362965270877">
        <ele>161.63999999999999</ele>
        <time>2023-09-03T08:50:37Z</time>
      </trkpt>
      <trkpt lat="55.039898017421365" lon="-3.892198009416461">
        <ele>161.16</ele>
        <time>2023-09-03T08:50:38Z</time>
      </trkpt>
      <trkpt lat="55.039809001609683" lon="-3.892035987228155">
        <ele>161.16</ele>
        <time>2023-09-03T08:50:39Z</time>
      </trkpt>
      <trkpt lat="55.039702970534563" lon="-3.891796013340354">
        <ele>160.68000000000001</ele>
        <time>2023-09-03T08:50:40Z</time>
      </trkpt>
      <trkpt lat="55.039600962772965" lon="-3.891567019745708">
        <ele>160.68000000000001</ele>
        <time>2023-09-03T08:50:41Z</time>
      </trkpt>
      <trkpt lat="55.039503984153271" lon="-3.891348000615835">
        <ele>160.68000000000001</ele>
        <time>2023-09-03T08:50:42Z</time>
      </trkpt>
      <trkpt lat="55.039386972784996" lon="-3.891198970377445">
        <ele>160.68000000000001</ele>
        <time>2023-09-03T08:50:43Z</time>
      </trkpt>
      <trkpt lat="55.039258981123567" lon="-3.891093023121357">
        <ele>161.16</ele>
        <time>2023-09-03T08:50:44Z</time>
      </trkpt>
      <trkpt lat="55.039111962541938" lon="-3.891058992594481">
        <ele>161.63999999999999</ele>
        <time>2023-09-03T08:50:45Z</time>
      </trkpt>
      <trkpt lat="55.038947006687522" lon="-3.891042983159423">
        <ele>161.63999999999999</ele>
        <time>2023-09-03T08:50:46Z</time>
      </trkpt>
      <trkpt lat="55.0387719925493" lon="-3.891025967895985">
        <ele>162.12</ele>
        <time>2023-09-03T08:50:47Z</time>
      </trkpt>
      <trkpt lat="55.037629036232829" lon="-3.890636963769794">
        <ele>162.12</ele>
        <time>2023-09-03T08:50:53Z</time>
      </trkpt>
      <trkpt lat="55.037505989894271" lon="-3.89049899764359">
        <ele>162.12</ele>
        <time>2023-09-03T08:50:54Z</time>
      </trkpt>
      <trkpt lat="55.037426026538014" lon="-3.89034703373909">
        <ele>161.63999999999999</ele>
        <time>2023-09-03T08:50:55Z</time>
      </trkpt>
      <trkpt lat="55.037370035424829" lon="-3.890157015994191">
        <ele>161.16</ele>
        <time>2023-09-03T08:50:56Z</time>
      </trkpt>
      <trkpt lat="55.037314966320992" lon="-3.889931961894035">
        <ele>161.16</ele>
        <time>2023-09-03T08:50:57Z</time>
      </trkpt>
      <trkpt lat="55.037261992692947" lon="-3.889675978571177">
        <ele>160.68000000000001</ele>
        <time>2023-09-03T08:50:58Z</time>
      </trkpt>
      <trkpt lat="55.037204995751381" lon="-3.889399962499738">
        <ele>160.19999999999999</ele>
        <time>2023-09-03T08:50:59Z</time>
      </trkpt>
      <trkpt lat="55.037084966897964" lon="-3.888814989477396">
        <ele>159.72</ele>
        <time>2023-09-03T08:51:01Z</time>
      </trkpt>
      <trkpt lat="55.036998968571424" lon="-3.888545008376241">
        <ele>159.72</ele>
        <time>2023-09-03T08:51:02Z</time>
      </trkpt>
      <trkpt lat="55.036888998001814" lon="-3.888278966769576">
        <ele>159.72</ele>
        <time>2023-09-03T08:51:03Z</time>
      </trkpt>
      <trkpt lat="55.036749020218849" lon="-3.888019965961576">
        <ele>159.72</ele>
        <time>2023-09-03T08:51:04Z</time>
      </trkpt>
      <trkpt lat="55.036605019122362" lon="-3.887751996517181">
        <ele>159.72</ele>
        <time>2023-09-03T08:51:05Z</time>
      </trkpt>
      <trkpt lat="55.036225989460945" lon="-3.886868041008711">
        <ele>159.72</ele>
        <time>2023-09-03T08:51:08Z</time>
      </trkpt>
      <trkpt lat="55.03537799231708" lon="-3.883846029639244">
        <ele>158.27000000000001</ele>
        <time>2023-09-03T08:51:16Z</time>
      </trkpt>
      <trkpt lat="55.034643989056349" lon="-3.881189972162247">
        <ele>157.78999999999999</ele>
        <time>2023-09-03T08:51:23Z</time>
      </trkpt>
      <trkpt lat="55.034067984670401" lon="-3.879110002890229">
        <ele>152.50999999999999</ele>
        <time>2023-09-03T08:51:29Z</time>
      </trkpt>
      <trkpt lat="55.034047029912472" lon="-3.878815965726972">
        <ele>152.03</ele>
        <time>2023-09-03T08:51:30Z</time>
      </trkpt>
      <trkpt lat="55.034033032134175" lon="-3.878522012382746">
        <ele>151.06</ele>
        <time>2023-09-03T08:51:31Z</time>
      </trkpt>
      <trkpt lat="55.034019034355879" lon="-3.878211965784431">
        <ele>150.58000000000001</ele>
        <time>2023-09-03T08:51:32Z</time>
      </trkpt>
      <trkpt lat="55.034029008820653" lon="-3.877882976084948">
        <ele>149.62</ele>
        <time>2023-09-03T08:51:33Z</time>
      </trkpt>
      <trkpt lat="55.033988021314144" lon="-3.87577903456986">
        <ele>144.81999999999999</ele>
        <time>2023-09-03T08:51:39Z</time>
      </trkpt>
      <trkpt lat="55.033870004117489" lon="-3.874382022768259">
        <ele>141.44999999999999</ele>
        <time>2023-09-03T08:51:43Z</time>
      </trkpt>
      <trkpt lat="55.033939993008971" lon="-3.870823988690972">
        <ele>138.56999999999999</ele>
        <time>2023-09-03T08:51:52Z</time>
      </trkpt>
      <trkpt lat="55.033876039087772" lon="-3.869384983554483">
        <ele>140.00999999999999</ele>
        <time>2023-09-03T08:51:56Z</time>
      </trkpt>
      <trkpt lat="55.033825999125838" lon="-3.869048031046987">
        <ele>140.49000000000001</ele>
        <time>2023-09-03T08:51:57Z</time>
      </trkpt>
      <trkpt lat="55.033746035769582" lon="-3.868723986670375">
        <ele>140.97</ele>
        <time>2023-09-03T08:51:58Z</time>
      </trkpt>
      <trkpt lat="55.033662971109152" lon="-3.868396002799273">
        <ele>141.44999999999999</ele>
        <time>2023-09-03T08:51:59Z</time>
      </trkpt>
      <trkpt lat="55.033565992489457" lon="-3.868075981736183">
        <ele>141.93000000000001</ele>
        <time>2023-09-03T08:52:00Z</time>
      </trkpt>
      <trkpt lat="55.033058971166611" lon="-3.866473026573658">
        <ele>145.30000000000001</ele>
        <time>2023-09-03T08:52:05Z</time>
      </trkpt>
      <trkpt lat="55.032980013638735" lon="-3.866144036874175">
        <ele>145.78</ele>
        <time>2023-09-03T08:52:06Z</time>
      </trkpt>
      <trkpt lat="55.032912958413363" lon="-3.865798031911254">
        <ele>146.25999999999999</ele>
        <time>2023-09-03T08:52:07Z</time>
      </trkpt>
      <trkpt lat="55.032821008935571" lon="-3.86471601203084">
        <ele>148.18000000000001</ele>
        <time>2023-09-03T08:52:10Z</time>
      </trkpt>
      <trkpt lat="55.032830983400345" lon="-3.864364977926016">
        <ele>149.13999999999999</ele>
        <time>2023-09-03T08:52:11Z</time>
      </trkpt>
      <trkpt lat="55.032853027805686" lon="-3.864025007933378">
        <ele>150.09999999999999</ele>
        <time>2023-09-03T08:52:12Z</time>
      </trkpt>
      <trkpt lat="55.032874988391995" lon="-3.863681014627218">
        <ele>150.58000000000001</ele>
        <time>2023-09-03T08:52:13Z</time>
      </trkpt>
      <trkpt lat="55.032931985333562" lon="-3.863345989957452">
        <ele>151.53999999999999</ele>
        <time>2023-09-03T08:52:14Z</time>
      </trkpt>
      <trkpt lat="55.032999040558934" lon="-3.862999984994531">
        <ele>152.03</ele>
        <time>2023-09-03T08:52:15Z</time>
      </trkpt>
      <trkpt lat="55.033659031614661" lon="-3.859558962285519">
        <ele>156.34999999999999</ele>
        <time>2023-09-03T08:52:24Z</time>
      </trkpt>
      <trkpt lat="55.033992966637015" lon="-3.857818963006139">
        <ele>157.78999999999999</ele>
        <time>2023-09-03T08:52:29Z</time>
      </trkpt>
      <trkpt lat="55.034093968570232" lon="-3.857574965804815">
        <ele>158.27000000000001</ele>
        <time>2023-09-03T08:52:30Z</time>
      </trkpt>
      <trkpt lat="55.034203017130494" lon="-3.857329962775111">
        <ele>158.27000000000001</ele>
        <time>2023-09-03T08:52:31Z</time>
      </trkpt>
      <trkpt lat="55.035257963463664" lon="-3.855192996561527">
        <ele>159.72</ele>
        <time>2023-09-03T08:52:39Z</time>
      </trkpt>
      <trkpt lat="55.035559041425586" lon="-3.854085998609662">
        <ele>158.75</ele>
        <time>2023-09-03T08:52:43Z</time>
      </trkpt>
      <trkpt lat="55.035574967041612" lon="-3.853822974488139">
        <ele>158.75</ele>
        <time>2023-09-03T08:52:44Z</time>
      </trkpt>
      <trkpt lat="55.035641016438603" lon="-3.852911023423076">
        <ele>157.78999999999999</ele>
        <time>2023-09-03T08:52:47Z</time>
      </trkpt>
      <trkpt lat="55.035686027258635" lon="-3.852580022066832">
        <ele>156.83000000000001</ele>
        <time>2023-09-03T08:52:48Z</time>
      </trkpt>
      <trkpt lat="55.036206040531397" lon="-3.850172990933061">
        <ele>150.58000000000001</ele>
        <time>2023-09-03T08:52:55Z</time>
      </trkpt>
      <trkpt lat="55.036241998896003" lon="-3.849841989576817">
        <ele>149.62</ele>
        <time>2023-09-03T08:52:56Z</time>
      </trkpt>
      <trkpt lat="55.036311987787485" lon="-3.84920597076416">
        <ele>148.18000000000001</ele>
        <time>2023-09-03T08:52:58Z</time>
      </trkpt>
      <trkpt lat="55.036388011649251" lon="-3.848906988278031">
        <ele>147.22</ele>
        <time>2023-09-03T08:52:59Z</time>
      </trkpt>
      <trkpt lat="55.036464035511017" lon="-3.848606999963522">
        <ele>146.25999999999999</ele>
        <time>2023-09-03T08:53:00Z</time>
      </trkpt>
      <trkpt lat="55.036611976101995" lon="-3.848025966435671">
        <ele>144.34</ele>
        <time>2023-09-03T08:53:02Z</time>
      </trkpt>
      <trkpt lat="55.0366669613868" lon="-3.847703011706471">
        <ele>143.37</ele>
        <time>2023-09-03T08:53:03Z</time>
      </trkpt>
      <trkpt lat="55.03709401935339" lon="-3.845021976158023">
        <ele>136.63999999999999</ele>
        <time>2023-09-03T08:53:10Z</time>
      </trkpt>
      <trkpt lat="55.037273978814483" lon="-3.842232981696725">
        <ele>132.31999999999999</ele>
        <time>2023-09-03T08:53:17Z</time>
      </trkpt>
      <trkpt lat="55.037127966061234" lon="-3.839768031612039">
        <ele>128.94999999999999</ele>
        <time>2023-09-03T08:53:24Z</time>
      </trkpt>
      <trkpt lat="55.036843987181783" lon="-3.836246961727738">
        <ele>124.63</ele>
        <time>2023-09-03T08:53:34Z</time>
      </trkpt>
      <trkpt lat="55.036651035770774" lon="-3.834840981289744">
        <ele>123.67</ele>
        <time>2023-09-03T08:53:41Z</time>
      </trkpt>
      <trkpt lat="55.036306958645582" lon="-3.832844998687506">
        <ele>123.19</ele>
        <time>2023-09-03T08:53:51Z</time>
      </trkpt>
      <trkpt lat="55.035959025844932" lon="-3.830652041360736">
        <ele>121.73999999999999</ele>
        <time>2023-09-03T08:54:02Z</time>
      </trkpt>
      <trkpt lat="55.035886019468307" lon="-3.830054998397827">
        <ele>121.73999999999999</ele>
        <time>2023-09-03T08:54:05Z</time>
      </trkpt>
      <trkpt lat="55.035861041396856" lon="-3.829721985384822">
        <ele>121.73999999999999</ele>
        <time>2023-09-03T08:54:07Z</time>
      </trkpt>
      <trkpt lat="55.035729026421905" lon="-3.829289982095361">
        <ele>122.70999999999999</ele>
        <time>2023-09-03T08:54:11Z</time>
      </trkpt>
      <trkpt lat="55.035760961472988" lon="-3.829216975718737">
        <ele>123.19</ele>
        <time>2023-09-03T08:54:12Z</time>
      </trkpt>
      <trkpt lat="55.035803960636258" lon="-3.829121002927423">
        <ele>123.67</ele>
        <time>2023-09-03T08:54:13Z</time>
      </trkpt>
      <trkpt lat="55.036231018602848" lon="-3.828155994415283">
        <ele>125.59</ele>
        <time>2023-09-03T08:54:19Z</time>
      </trkpt>
      <trkpt lat="55.037175994366407" lon="-3.825831022113562">
        <ele>126.06999999999999</ele>
        <time>2023-09-03T08:54:29Z</time>
      </trkpt>
      <trkpt lat="55.037873033434153" lon="-3.82372003979981">
        <ele>124.63</ele>
        <time>2023-09-03T08:54:36Z</time>
      </trkpt>
      <trkpt lat="55.037941010668874" lon="-3.823354002088308">
        <ele>124.15000000000001</ele>
        <time>2023-09-03T08:54:37Z</time>
      </trkpt>
      <trkpt lat="55.038003958761692" lon="-3.822974972426891">
        <ele>124.15000000000001</ele>
        <time>2023-09-03T08:54:38Z</time>
      </trkpt>
      <trkpt lat="55.038381982594728" lon="-3.820086987689138">
        <ele>124.15000000000001</ele>
        <time>2023-09-03T08:54:45Z</time>
      </trkpt>
      <trkpt lat="55.038631008937955" lon="-3.81931995972991">
        <ele>124.15000000000001</ele>
        <time>2023-09-03T08:54:47Z</time>
      </trkpt>
      <trkpt lat="55.038772998377681" lon="-3.818945037201047">
        <ele>123.67</ele>
        <time>2023-09-03T08:54:48Z</time>
      </trkpt>
      <trkpt lat="55.040313005447388" lon="-3.815671987831593">
        <ele>122.70999999999999</ele>
        <time>2023-09-03T08:54:57Z</time>
      </trkpt>
      <trkpt lat="55.041337022557855" lon="-3.812266001477838">
        <ele>120.3</ele>
        <time>2023-09-03T08:55:06Z</time>
      </trkpt>
      <trkpt lat="55.042813997715712" lon="-3.807033011689782">
        <ele>120.78</ele>
        <time>2023-09-03T08:55:20Z</time>
      </trkpt>
      <trkpt lat="55.043770959600806" lon="-3.802307965233922">
        <ele>121.26000000000001</ele>
        <time>2023-09-03T08:55:32Z</time>
      </trkpt>
      <trkpt lat="55.044283010065556" lon="-3.797398013994098">
        <ele>118.86</ele>
        <time>2023-09-03T08:55:44Z</time>
      </trkpt>
      <trkpt lat="55.04480897448957" lon="-3.794192019850016">
        <ele>119.34</ele>
        <time>2023-09-03T08:55:52Z</time>
      </trkpt>
      <trkpt lat="55.045966012403369" lon="-3.791004968807101">
        <ele>117.90000000000001</ele>
        <time>2023-09-03T08:56:01Z</time>
      </trkpt>
      <trkpt lat="55.047462014481425" lon="-3.787211989983916">
        <ele>115.5</ele>
        <time>2023-09-03T08:56:12Z</time>
      </trkpt>
      <trkpt lat="55.049601998180151" lon="-3.781660990789533">
        <ele>107.81</ele>
        <time>2023-09-03T08:56:28Z</time>
      </trkpt>
      <trkpt lat="55.050381012260914" lon="-3.778645014390349">
        <ele>105.40000000000001</ele>
        <time>2023-09-03T08:56:36Z</time>
      </trkpt>
      <trkpt lat="55.050788037478924" lon="-3.774965023621917">
        <ele>103.48</ele>
        <time>2023-09-03T08:56:45Z</time>
      </trkpt>
      <trkpt lat="55.051278965547681" lon="-3.769615022465587">
        <ele>97.709999999999994</ele>
        <time>2023-09-03T08:56:58Z</time>
      </trkpt>
      <trkpt lat="55.051897969096899" lon="-3.763444013893604">
        <ele>95.790000000000006</ele>
        <time>2023-09-03T08:57:13Z</time>
      </trkpt>
      <trkpt lat="55.052469028159976" lon="-3.760712016373873">
        <ele>93.870000000000005</ele>
        <time>2023-09-03T08:57:20Z</time>
      </trkpt>
      <trkpt lat="55.053023993968964" lon="-3.756243037059903">
        <ele>91.939999999999998</ele>
        <time>2023-09-03T08:57:31Z</time>
      </trkpt>
      <trkpt lat="55.053002033382654" lon="-3.755834000185132">
        <ele>91.459999999999994</ele>
        <time>2023-09-03T08:57:32Z</time>
      </trkpt>
      <trkpt lat="55.052854008972645" lon="-3.752519963309169">
        <ele>90.5</ele>
        <time>2023-09-03T08:57:40Z</time>
      </trkpt>
      <trkpt lat="55.052877981215715" lon="-3.752104975283146">
        <ele>90.5</ele>
        <time>2023-09-03T08:57:41Z</time>
      </trkpt>
      <trkpt lat="55.053262040019035" lon="-3.747134003788233">
        <ele>90.5</ele>
        <time>2023-09-03T08:57:53Z</time>
      </trkpt>
      <trkpt lat="55.053595975041389" lon="-3.742575002834201">
        <ele>89.060000000000002</ele>
        <time>2023-09-03T08:58:04Z</time>
      </trkpt>
      <trkpt lat="55.053668981418014" lon="-3.741750977933407">
        <ele>88.579999999999998</ele>
        <time>2023-09-03T08:58:06Z</time>
      </trkpt>
      <trkpt lat="55.053708963096142" lon="-3.741346970200539">
        <ele>88.099999999999994</ele>
        <time>2023-09-03T08:58:07Z</time>
      </trkpt>
      <trkpt lat="55.053788004443049" lon="-3.740956038236618">
        <ele>88.099999999999994</ele>
        <time>2023-09-03T08:58:08Z</time>
      </trkpt>
      <trkpt lat="55.054150018841028" lon="-3.738996013998985">
        <ele>88.099999999999994</ele>
        <time>2023-09-03T08:58:13Z</time>
      </trkpt>
      <trkpt lat="55.054171979427338" lon="-3.738585971295834">
        <ele>88.099999999999994</ele>
        <time>2023-09-03T08:58:14Z</time>
      </trkpt>
      <trkpt lat="55.054296031594276" lon="-3.732736995443702">
        <ele>88.099999999999994</ele>
        <time>2023-09-03T08:58:28Z</time>
      </trkpt>
      <trkpt lat="55.054538017138839" lon="-3.727952018380165">
        <ele>90.019999999999996</ele>
        <time>2023-09-03T08:58:40Z</time>
      </trkpt>
      <trkpt lat="55.055232038721442" lon="-3.72456799261272">
        <ele>89.540000000000006</ele>
        <time>2023-09-03T08:58:50Z</time>
      </trkpt>
      <trkpt lat="55.055687008425593" lon="-3.720798986032605">
        <ele>87.140000000000001</ele>
        <time>2023-09-03T08:59:01Z</time>
      </trkpt>
      <trkpt lat="55.055746017023921" lon="-3.719571037217975">
        <ele>85.689999999999998</ele>
        <time>2023-09-03T08:59:06Z</time>
      </trkpt>
      <trkpt lat="55.055776024237275" lon="-3.719422006979585">
        <ele>85.689999999999998</ele>
        <time>2023-09-03T08:59:07Z</time>
      </trkpt>
      <trkpt lat="55.055805025622249" lon="-3.719274988397956">
        <ele>85.209999999999994</ele>
        <time>2023-09-03T08:59:08Z</time>
      </trkpt>
      <trkpt lat="55.055912984535098" lon="-3.718948010355234">
        <ele>84.730000000000004</ele>
        <time>2023-09-03T08:59:10Z</time>
      </trkpt>
      <trkpt lat="55.055880965664983" lon="-3.718742989003658">
        <ele>84.25</ele>
        <time>2023-09-03T08:59:11Z</time>
      </trkpt>
      <trkpt lat="55.055888006463647" lon="-3.718579038977623">
        <ele>83.769999999999996</ele>
        <time>2023-09-03T08:59:12Z</time>
      </trkpt>
      <trkpt lat="55.05589596927166" lon="-3.718376029282808">
        <ele>83.290000000000006</ele>
        <time>2023-09-03T08:59:13Z</time>
      </trkpt>
      <trkpt lat="55.055904015898705" lon="-3.718160027638078">
        <ele>82.810000000000002</ele>
        <time>2023-09-03T08:59:14Z</time>
      </trkpt>
      <trkpt lat="55.055912984535098" lon="-3.717931034043431">
        <ele>82.329999999999998</ele>
        <time>2023-09-03T08:59:15Z</time>
      </trkpt>
      <trkpt lat="55.055923964828253" lon="-3.717648983001709">
        <ele>81.849999999999994</ele>
        <time>2023-09-03T08:59:16Z</time>
      </trkpt>
      <trkpt lat="55.056255972012877" lon="-3.715413026511669">
        <ele>80.409999999999997</ele>
        <time>2023-09-03T08:59:23Z</time>
      </trkpt>
      <trkpt lat="55.05699098110199" lon="-3.712381040677428">
        <ele>80.409999999999997</ele>
        <time>2023-09-03T08:59:31Z</time>
      </trkpt>
      <trkpt lat="55.05787099711597" lon="-3.708923002704978">
        <ele>87.140000000000001</ele>
        <time>2023-09-03T08:59:40Z</time>
      </trkpt>
      <trkpt lat="55.058293025940657" lon="-3.705924963578582">
        <ele>90.980000000000004</ele>
        <time>2023-09-03T08:59:47Z</time>
      </trkpt>
      <trkpt lat="55.058482037857175" lon="-3.701609959825873">
        <ele>83.769999999999996</ele>
        <time>2023-09-03T08:59:56Z</time>
      </trkpt>
      <trkpt lat="55.058603994548321" lon="-3.696934031322599">
        <ele>77.519999999999996</ele>
        <time>2023-09-03T09:00:07Z</time>
      </trkpt>
      <trkpt lat="55.059148985892534" lon="-3.691194020211697">
        <ele>93.870000000000005</ele>
        <time>2023-09-03T09:00:21Z</time>
      </trkpt>
      <trkpt lat="55.05935300141573" lon="-3.686584979295731">
        <ele>102.04000000000001</ele>
        <time>2023-09-03T09:00:32Z</time>
      </trkpt>
      <trkpt lat="55.059135993942618" lon="-3.682399978861213">
        <ele>91.939999999999998</ele>
        <time>2023-09-03T09:00:42Z</time>
      </trkpt>
      <trkpt lat="55.059191985055804" lon="-3.679080996662378">
        <ele>79.930000000000007</ele>
        <time>2023-09-03T09:00:50Z</time>
      </trkpt>
      <trkpt lat="55.059733958914876" lon="-3.675895035266876">
        <ele>67.430000000000007</ele>
        <time>2023-09-03T09:00:58Z</time>
      </trkpt>
      <trkpt lat="55.060923015698791" lon="-3.672245973721147">
        <ele>52.530000000000001</ele>
        <time>2023-09-03T09:01:08Z</time>
      </trkpt>
      <trkpt lat="55.061579989269376" lon="-3.669150033965707">
        <ele>39.549999999999997</ele>
        <time>2023-09-03T09:01:16Z</time>
      </trkpt>
      <trkpt lat="55.061733964830637" lon="-3.665866004303098">
        <ele>25.129999999999999</ele>
        <time>2023-09-03T09:01:24Z</time>
      </trkpt>
      <trkpt lat="55.061464989557862" lon="-3.662593960762024">
        <ele>16.48</ele>
        <time>2023-09-03T09:01:32Z</time>
      </trkpt>
      <trkpt lat="55.06128896959126" lon="-3.658488001674414">
        <ele>16</ele>
        <time>2023-09-03T09:01:42Z</time>
      </trkpt>
      <trkpt lat="55.061363987624645" lon="-3.656903989613056">
        <ele>15.039999999999999</ele>
        <time>2023-09-03T09:01:47Z</time>
      </trkpt>
      <trkpt lat="55.061350995674729" lon="-3.656651023775339">
        <ele>14.56</ele>
        <time>2023-09-03T09:01:48Z</time>
      </trkpt>
      <trkpt lat="55.06130900233984" lon="-3.656078036874533">
        <ele>14.08</ele>
        <time>2023-09-03T09:01:51Z</time>
      </trkpt>
      <trkpt lat="55.061373962089419" lon="-3.655872009694576">
        <ele>14.08</ele>
        <time>2023-09-03T09:01:52Z</time>
      </trkpt>
      <trkpt lat="55.061397012323141" lon="-3.655826998874545">
        <ele>14.08</ele>
        <time>2023-09-03T09:01:53Z</time>
      </trkpt>
      <trkpt lat="55.061453003436327" lon="-3.655715016648173">
        <ele>14.08</ele>
        <time>2023-09-03T09:01:54Z</time>
      </trkpt>
      <trkpt lat="55.061482004821301" lon="-3.655658019706607">
        <ele>14.08</ele>
        <time>2023-09-03T09:01:55Z</time>
      </trkpt>
      <trkpt lat="55.061468007043004" lon="-3.65538602694869">
        <ele>14.08</ele>
        <time>2023-09-03T09:01:56Z</time>
      </trkpt>
      <trkpt lat="55.061492985114455" lon="-3.655138006433845">
        <ele>13.6</ele>
        <time>2023-09-03T09:01:57Z</time>
      </trkpt>
      <trkpt lat="55.061821974813938" lon="-3.653886001557112">
        <ele>13.119999999999999</ele>
        <time>2023-09-03T09:02:02Z</time>
      </trkpt>
      <trkpt lat="55.062476014718413" lon="-3.651273027062416">
        <ele>11.19</ele>
        <time>2023-09-03T09:02:09Z</time>
      </trkpt>
      <trkpt lat="55.063257040455937" lon="-3.64960796199739">
        <ele>11.67</ele>
        <time>2023-09-03T09:02:15Z</time>
      </trkpt>
      <trkpt lat="55.064292959868908" lon="-3.648097962141037">
        <ele>12.630000000000001</ele>
        <time>2023-09-03T09:02:24Z</time>
      </trkpt>
      <trkpt lat="55.064593032002449" lon="-3.647762015461922">
        <ele>13.119999999999999</ele>
        <time>2023-09-03T09:02:27Z</time>
      </trkpt>
      <trkpt lat="55.064698979258537" lon="-3.647708036005497">
        <ele>13.119999999999999</ele>
        <time>2023-09-03T09:02:28Z</time>
      </trkpt>
      <trkpt lat="55.064805010333657" lon="-3.647655984386802">
        <ele>13.119999999999999</ele>
        <time>2023-09-03T09:02:29Z</time>
      </trkpt>
      <trkpt lat="55.065016988664865" lon="-3.647593958303332">
        <ele>13.6</ele>
        <time>2023-09-03T09:02:31Z</time>
      </trkpt>
      <trkpt lat="55.065085971727967" lon="-3.647495973855257">
        <ele>14.08</ele>
        <time>2023-09-03T09:02:32Z</time>
      </trkpt>
      <trkpt lat="55.06515596061945" lon="-3.647346021607518">
        <ele>14.08</ele>
        <time>2023-09-03T09:02:33Z</time>
      </trkpt>
      <trkpt lat="55.065409010276198" lon="-3.646937990561128">
        <ele>14.08</ele>
        <time>2023-09-03T09:02:36Z</time>
      </trkpt>
      <trkpt lat="55.065501965582371" lon="-3.646788038313389">
        <ele>14.08</ele>
        <time>2023-09-03T09:02:37Z</time>
      </trkpt>
      <trkpt lat="55.066665960475802" lon="-3.645510971546173">
        <ele>14.08</ele>
        <time>2023-09-03T09:02:46Z</time>
      </trkpt>
      <trkpt lat="55.067697018384933" lon="-3.644377989694476">
        <ele>13.6</ele>
        <time>2023-09-03T09:02:52Z</time>
      </trkpt>
      <trkpt lat="55.067885024473071" lon="-3.644177997484803">
        <ele>13.119999999999999</ele>
        <time>2023-09-03T09:02:53Z</time>
      </trkpt>
      <trkpt lat="55.070307981222868" lon="-3.641617996618152">
        <ele>9.75</ele>
        <time>2023-09-03T09:03:05Z</time>
      </trkpt>
      <trkpt lat="55.071674985811114" lon="-3.640172034502029">
        <ele>7.83</ele>
        <time>2023-09-03T09:03:13Z</time>
      </trkpt>
      <trkpt lat="55.073387995362282" lon="-3.638286022469401">
        <ele>7.83</ele>
        <time>2023-09-03T09:03:23Z</time>
      </trkpt>
      <trkpt lat="55.074518965557218" lon="-3.636733023449779">
        <ele>8.310000000000001</ele>
        <time>2023-09-03T09:03:29Z</time>
      </trkpt>
      <trkpt lat="55.075409961864352" lon="-3.63499503582716">
        <ele>10.710000000000001</ele>
        <time>2023-09-03T09:03:35Z</time>
      </trkpt>
      <trkpt lat="55.07641302421689" lon="-3.632204029709101">
        <ele>13.6</ele>
        <time>2023-09-03T09:03:43Z</time>
      </trkpt>
      <trkpt lat="55.077608032152057" lon="-3.628424964845181">
        <ele>16</ele>
        <time>2023-09-03T09:03:54Z</time>
      </trkpt>
      <trkpt lat="55.07800399325788" lon="-3.627141024917364">
        <ele>17.440000000000001</ele>
        <time>2023-09-03T09:04:00Z</time>
      </trkpt>
      <trkpt lat="55.078079011291265" lon="-3.627052009105682">
        <ele>17.440000000000001</ele>
        <time>2023-09-03T09:04:01Z</time>
      </trkpt>
      <trkpt lat="55.07813299074769" lon="-3.626988977193832">
        <ele>17.440000000000001</ele>
        <time>2023-09-03T09:04:02Z</time>
      </trkpt>
      <trkpt lat="55.078214965760708" lon="-3.626893004402518">
        <ele>17.440000000000001</ele>
        <time>2023-09-03T09:04:06Z</time>
      </trkpt>
      <trkpt lat="55.078227035701275" lon="-3.626878000795841">
        <ele>17.440000000000001</ele>
        <time>2023-09-03T09:04:07Z</time>
      </trkpt>
      <trkpt lat="55.078247990459204" lon="-3.626854028552771">
        <ele>17.440000000000001</ele>
        <time>2023-09-03T09:04:08Z</time>
      </trkpt>
      <trkpt lat="55.078276991844177" lon="-3.626819998025894">
        <ele>17.440000000000001</ele>
        <time>2023-09-03T09:04:09Z</time>
      </trkpt>
      <trkpt lat="55.078326025977731" lon="-3.626761995255947">
        <ele>17.440000000000001</ele>
        <time>2023-09-03T09:04:10Z</time>
      </trkpt>
      <trkpt lat="55.078391991555691" lon="-3.62668102607131">
        <ele>17.440000000000001</ele>
        <time>2023-09-03T09:04:11Z</time>
      </trkpt>
      <trkpt lat="55.078466003760695" lon="-3.626582035794854">
        <ele>17.440000000000001</ele>
        <time>2023-09-03T09:04:12Z</time>
      </trkpt>
      <trkpt lat="55.078520989045501" lon="-3.626462006941438">
        <ele>17.440000000000001</ele>
        <time>2023-09-03T09:04:13Z</time>
      </trkpt>
      <trkpt lat="55.078571029007435" lon="-3.626295039430261">
        <ele>17.440000000000001</ele>
        <time>2023-09-03T09:04:14Z</time>
      </trkpt>
      <trkpt lat="55.07862601429224" lon="-3.626110972836614">
        <ele>17.440000000000001</ele>
        <time>2023-09-03T09:04:15Z</time>
      </trkpt>
      <trkpt lat="55.078685022890568" lon="-3.625913998112083">
        <ele>17.440000000000001</ele>
        <time>2023-09-03T09:04:16Z</time>
      </trkpt>
      <trkpt lat="55.07884101010859" lon="-3.625359032303095">
        <ele>16.960000000000001</ele>
        <time>2023-09-03T09:04:19Z</time>
      </trkpt>
      <trkpt lat="55.07884101010859" lon="-3.625190975144506">
        <ele>17.440000000000001</ele>
        <time>2023-09-03T09:04:20Z</time>
      </trkpt>
      <trkpt lat="55.07884101010859" lon="-3.625017972663045">
        <ele>17.440000000000001</ele>
        <time>2023-09-03T09:04:21Z</time>
      </trkpt>
      <trkpt lat="55.07884101010859" lon="-3.624646989628673">
        <ele>17.920000000000002</ele>
        <time>2023-09-03T09:04:23Z</time>
      </trkpt>
      <trkpt lat="55.07884101010859" lon="-3.624446997419">
        <ele>17.920000000000002</ele>
        <time>2023-09-03T09:04:24Z</time>
      </trkpt>
      <trkpt lat="55.07884101010859" lon="-3.624157989397645">
        <ele>17.920000000000002</ele>
        <time>2023-09-03T09:04:25Z</time>
      </trkpt>
      <trkpt lat="55.078871017321944" lon="-3.624012982472777">
        <ele>17.440000000000001</ele>
        <time>2023-09-03T09:04:26Z</time>
      </trkpt>
      <trkpt lat="55.078918039798737" lon="-3.623784994706512">
        <ele>17.440000000000001</ele>
        <time>2023-09-03T09:04:27Z</time>
      </trkpt>
      <trkpt lat="55.079413997009397" lon="-3.621502015739679">
        <ele>16</ele>
        <time>2023-09-03T09:04:35Z</time>
      </trkpt>
      <trkpt lat="55.080342963337898" lon="-3.618964981287718">
        <ele>14.08</ele>
        <time>2023-09-03T09:04:44Z</time>
      </trkpt>
      <trkpt lat="55.08154702372849" lon="-3.616964975371957">
        <ele>14.56</ele>
        <time>2023-09-03T09:04:53Z</time>
      </trkpt>
      <trkpt lat="55.083060041069984" lon="-3.614909984171391">
        <ele>12.630000000000001</ele>
        <time>2023-09-03T09:05:03Z</time>
      </trkpt>
      <trkpt lat="55.084939012303948" lon="-3.612374039366841">
        <ele>14.08</ele>
        <time>2023-09-03T09:05:13Z</time>
      </trkpt>
      <trkpt lat="55.086922002956271" lon="-3.609468033537269">
        <ele>17.920000000000002</ele>
        <time>2023-09-03T09:05:24Z</time>
      </trkpt>
      <trkpt lat="55.087655000388622" lon="-3.607488982379437">
        <ele>18.399999999999999</ele>
        <time>2023-09-03T09:05:31Z</time>
      </trkpt>
      <trkpt lat="55.088087003678083" lon="-3.604906015098095">
        <ele>18.879999999999999</ele>
        <time>2023-09-03T09:05:39Z</time>
      </trkpt>
      <trkpt lat="55.087959012016654" lon="-3.602204024791718">
        <ele>16.960000000000001</ele>
        <time>2023-09-03T09:05:47Z</time>
      </trkpt>
      <trkpt lat="55.087430030107498" lon="-3.599894978106022">
        <ele>16.48</ele>
        <time>2023-09-03T09:05:55Z</time>
      </trkpt>
      <trkpt lat="55.086779007688165" lon="-3.597706966102123">
        <ele>16.48</ele>
        <time>2023-09-03T09:06:05Z</time>
      </trkpt>
      <trkpt lat="55.086670964956284" lon="-3.597336988896132">
        <ele>15.52</ele>
        <time>2023-09-03T09:06:07Z</time>
      </trkpt>
      <trkpt lat="55.086464015766978" lon="-3.596626035869122">
        <ele>13.119999999999999</ele>
        <time>2023-09-03T09:06:11Z</time>
      </trkpt>
      <trkpt lat="55.086185988038778" lon="-3.595488024875522">
        <ele>13.6</ele>
        <time>2023-09-03T09:06:17Z</time>
      </trkpt>
      <trkpt lat="55.086160004138947" lon="-3.595338994637132">
        <ele>14.08</ele>
        <time>2023-09-03T09:06:18Z</time>
      </trkpt>
      <trkpt lat="55.086134020239115" lon="-3.595188958570361">
        <ele>14.08</ele>
        <time>2023-09-03T09:06:19Z</time>
      </trkpt>
      <trkpt lat="55.08612303994596" lon="-3.594814036041498">
        <ele>14.08</ele>
        <time>2023-09-03T09:06:21Z</time>
      </trkpt>
      <trkpt lat="55.0860829744488" lon="-3.594642039388418">
        <ele>14.08</ele>
        <time>2023-09-03T09:06:22Z</time>
      </trkpt>
      <trkpt lat="55.085984990000725" lon="-3.594522010535002">
        <ele>14.56</ele>
        <time>2023-09-03T09:06:23Z</time>
      </trkpt>
      <trkpt lat="55.085678966715932" lon="-3.593755988404155">
        <ele>14.08</ele>
        <time>2023-09-03T09:06:27Z</time>
      </trkpt>
      <trkpt lat="55.085614006966352" lon="-3.593523977324367">
        <ele>14.08</ele>
        <time>2023-09-03T09:06:28Z</time>
      </trkpt>
      <trkpt lat="55.084990980103612" lon="-3.591282991692424">
        <ele>13.6</ele>
        <time>2023-09-03T09:06:36Z</time>
      </trkpt>
      <trkpt lat="55.083993030712008" lon="-3.587708026170731">
        <ele>14.08</ele>
        <time>2023-09-03T09:06:46Z</time>
      </trkpt>
      <trkpt lat="55.082818977534771" lon="-3.58349796384573">
        <ele>17.920000000000002</ele>
        <time>2023-09-03T09:06:57Z</time>
      </trkpt>
      <trkpt lat="55.081452978774905" lon="-3.578621037304401">
        <ele>18.399999999999999</ele>
        <time>2023-09-03T09:07:10Z</time>
      </trkpt>
      <trkpt lat="55.079822028055787" lon="-3.573176991194487">
        <ele>15.52</ele>
        <time>2023-09-03T09:07:25Z</time>
      </trkpt>
      <trkpt lat="55.079244012013078" lon="-3.571948036551476">
        <ele>15.039999999999999</ele>
        <time>2023-09-03T09:07:31Z</time>
      </trkpt>
      <trkpt lat="55.079131023958325" lon="-3.571675959974527">
        <ele>15.039999999999999</ele>
        <time>2023-09-03T09:07:34Z</time>
      </trkpt>
      <trkpt lat="55.079095987603068" lon="-3.571587027981877">
        <ele>15.039999999999999</ele>
        <time>2023-09-03T09:07:35Z</time>
      </trkpt>
      <trkpt lat="55.079057011753321" lon="-3.571488037705421">
        <ele>15.039999999999999</ele>
        <time>2023-09-03T09:07:36Z</time>
      </trkpt>
      <trkpt lat="55.079010995104909" lon="-3.571371026337147">
        <ele>15.039999999999999</ele>
        <time>2023-09-03T09:07:37Z</time>
      </trkpt>
      <trkpt lat="55.0789700075984" lon="-3.571264995262027">
        <ele>15.039999999999999</ele>
        <time>2023-09-03T09:07:38Z</time>
      </trkpt>
      <trkpt lat="55.078935977071524" lon="-3.571068020537496">
        <ele>15.039999999999999</ele>
        <time>2023-09-03T09:07:39Z</time>
      </trkpt>
      <trkpt lat="55.078881997615099" lon="-3.570960983633995">
        <ele>15.039999999999999</ele>
        <time>2023-09-03T09:07:40Z</time>
      </trkpt>
      <trkpt lat="55.078805973753333" lon="-3.57090700417757">
        <ele>15.039999999999999</ele>
        <time>2023-09-03T09:07:41Z</time>
      </trkpt>
      <trkpt lat="55.078704971820116" lon="-3.570914966985583">
        <ele>14.56</ele>
        <time>2023-09-03T09:07:42Z</time>
      </trkpt>
      <trkpt lat="55.078617967665195" lon="-3.570836009457707">
        <ele>14.56</ele>
        <time>2023-09-03T09:07:43Z</time>
      </trkpt>
      <trkpt lat="55.078528029844165" lon="-3.57075403444469">
        <ele>14.56</ele>
        <time>2023-09-03T09:07:44Z</time>
      </trkpt>
      <trkpt lat="55.078440019860864" lon="-3.570635011419654">
        <ele>14.08</ele>
        <time>2023-09-03T09:07:45Z</time>
      </trkpt>
      <trkpt lat="55.07836801931262" lon="-3.570490004494786">
        <ele>14.08</ele>
        <time>2023-09-03T09:07:46Z</time>
      </trkpt>
      <trkpt lat="55.078286966308951" lon="-3.570328988134861">
        <ele>13.6</ele>
        <time>2023-09-03T09:07:47Z</time>
      </trkpt>
      <trkpt lat="55.078101977705956" lon="-3.569993963465095">
        <ele>13.119999999999999</ele>
        <time>2023-09-03T09:07:49Z</time>
      </trkpt>
      <trkpt lat="55.077341990545392" lon="-3.568754028528929">
        <ele>12.15</ele>
        <time>2023-09-03T09:07:55Z</time>
      </trkpt>
      <trkpt lat="55.075998036190867" lon="-3.566535003483295">
        <ele>12.15</ele>
        <time>2023-09-03T09:08:03Z</time>
      </trkpt>
      <trkpt lat="55.07383500225842" lon="-3.562948973849416">
        <ele>13.119999999999999</ele>
        <time>2023-09-03T09:08:16Z</time>
      </trkpt>
      <trkpt lat="55.072294995188713" lon="-3.560396013781428">
        <ele>14.08</ele>
        <time>2023-09-03T09:08:26Z</time>
      </trkpt>
      <trkpt lat="55.070711988955736" lon="-3.55820800177753">
        <ele>14.08</ele>
        <time>2023-09-03T09:08:36Z</time>
      </trkpt>
      <trkpt lat="55.069722002372146" lon="-3.557455977424979">
        <ele>15.039999999999999</ele>
        <time>2023-09-03T09:08:43Z</time>
      </trkpt>
      <trkpt lat="55.069328974932432" lon="-3.557062027975917">
        <ele>15.52</ele>
        <time>2023-09-03T09:08:48Z</time>
      </trkpt>
      <trkpt lat="55.069233002141118" lon="-3.556935964152217">
        <ele>15.52</ele>
        <time>2023-09-03T09:08:51Z</time>
      </trkpt>
      <trkpt lat="55.06919695995748" lon="-3.556888019666076">
        <ele>15.52</ele>
        <time>2023-09-03T09:08:52Z</time>
      </trkpt>
      <trkpt lat="55.068921027705073" lon="-3.556477976962924">
        <ele>16</ele>
        <time>2023-09-03T09:08:57Z</time>
      </trkpt>
      <trkpt lat="55.06885196082294" lon="-3.556353002786636">
        <ele>16.48</ele>
        <time>2023-09-03T09:08:58Z</time>
      </trkpt>
      <trkpt lat="55.068782977759838" lon="-3.556228028610349">
        <ele>16.48</ele>
        <time>2023-09-03T09:08:59Z</time>
      </trkpt>
      <trkpt lat="55.068741990253329" lon="-3.556086961179972">
        <ele>16.48</ele>
        <time>2023-09-03T09:09:00Z</time>
      </trkpt>
      <trkpt lat="55.068718018010259" lon="-3.555932985618711">
        <ele>16.48</ele>
        <time>2023-09-03T09:09:01Z</time>
      </trkpt>
      <trkpt lat="55.068694967776537" lon="-3.555776998400688">
        <ele>16.48</ele>
        <time>2023-09-03T09:09:02Z</time>
      </trkpt>
      <trkpt lat="55.068669989705086" lon="-3.555613970384002">
        <ele>16.48</ele>
        <time>2023-09-03T09:09:03Z</time>
      </trkpt>
      <trkpt lat="55.068641994148493" lon="-3.555428981781006">
        <ele>16.48</ele>
        <time>2023-09-03T09:09:04Z</time>
      </trkpt>
      <trkpt lat="55.068567981943488" lon="-3.553641038015485">
        <ele>16</ele>
        <time>2023-09-03T09:09:11Z</time>
      </trkpt>
      <trkpt lat="55.068623973056674" lon="-3.550035981461406">
        <ele>16.48</ele>
        <time>2023-09-03T09:09:22Z</time>
      </trkpt>
      <trkpt lat="55.068702008575201" lon="-3.546647010371089">
        <ele>18.399999999999999</ele>
        <time>2023-09-03T09:09:31Z</time>
      </trkpt>
      <trkpt lat="55.068730004131794" lon="-3.542145006358624">
        <ele>20.32</ele>
        <time>2023-09-03T09:09:42Z</time>
      </trkpt>
      <trkpt lat="55.068674013018608" lon="-3.539507975801826">
        <ele>23.690000000000001</ele>
        <time>2023-09-03T09:09:49Z</time>
      </trkpt>
      <trkpt lat="55.068373018875718" lon="-3.535925969481468">
        <ele>21.77</ele>
        <time>2023-09-03T09:09:59Z</time>
      </trkpt>
      <trkpt lat="55.067847976461053" lon="-3.532306998968124">
        <ele>20.32</ele>
        <time>2023-09-03T09:10:08Z</time>
      </trkpt>
      <trkpt lat="55.067229978740215" lon="-3.528277985751629">
        <ele>17.920000000000002</ele>
        <time>2023-09-03T09:10:18Z</time>
      </trkpt>
      <trkpt lat="55.066866958513856" lon="-3.524168003350496">
        <ele>19.84</ele>
        <time>2023-09-03T09:10:28Z</time>
      </trkpt>
      <trkpt lat="55.066585997119546" lon="-3.520474014803767">
        <ele>22.25</ele>
        <time>2023-09-03T09:10:37Z</time>
      </trkpt>
      <trkpt lat="55.06625097244978" lon="-3.515959018841386">
        <ele>28.5</ele>
        <time>2023-09-03T09:10:47Z</time>
      </trkpt>
      <trkpt lat="55.06569198332727" lon="-3.510960973799229">
        <ele>34.259999999999998</ele>
        <time>2023-09-03T09:10:58Z</time>
      </trkpt>
      <trkpt lat="55.065272971987724" lon="-3.507817005738616">
        <ele>36.189999999999998</ele>
        <time>2023-09-03T09:11:06Z</time>
      </trkpt>
      <trkpt lat="55.064589008688927" lon="-3.503907015547156">
        <ele>40.509999999999998</ele>
        <time>2023-09-03T09:11:17Z</time>
      </trkpt>
      <trkpt lat="55.064033959060907" lon="-3.501406023278832">
        <ele>46.280000000000001</ele>
        <time>2023-09-03T09:11:25Z</time>
      </trkpt>
      <trkpt lat="55.063342032954097" lon="-3.498291978612542">
        <ele>50.609999999999999</ele>
        <time>2023-09-03T09:11:35Z</time>
      </trkpt>
      <trkpt lat="55.062583973631263" lon="-3.494528001174331">
        <ele>53.009999999999998</ele>
        <time>2023-09-03T09:11:48Z</time>
      </trkpt>
      <trkpt lat="55.061989026144147" lon="-3.491400964558125">
        <ele>53.969999999999999</ele>
        <time>2023-09-03T09:11:59Z</time>
      </trkpt>
      <trkpt lat="55.061411010101438" lon="-3.488414995372295">
        <ele>57.82</ele>
        <time>2023-09-03T09:12:09Z</time>
      </trkpt>
      <trkpt lat="55.060869036242366" lon="-3.485613008961082">
        <ele>58.780000000000001</ele>
        <time>2023-09-03T09:12:16Z</time>
      </trkpt>
      <trkpt lat="55.060399984940886" lon="-3.483241014182568">
        <ele>59.740000000000002</ele>
        <time>2023-09-03T09:12:22Z</time>
      </trkpt>
      <trkpt lat="55.059920037165284" lon="-3.480849992483854">
        <ele>61.659999999999997</ele>
        <time>2023-09-03T09:12:28Z</time>
      </trkpt>
      <trkpt lat="55.05946297198534" lon="-3.478589979931712">
        <ele>63.579999999999998</ele>
        <time>2023-09-03T09:12:34Z</time>
      </trkpt>
      <trkpt lat="55.058953016996384" lon="-3.476429041475058">
        <ele>68.390000000000001</ele>
        <time>2023-09-03T09:12:42Z</time>
      </trkpt>
      <trkpt lat="55.058091022074223" lon="-3.474734975025058">
        <ele>71.269999999999996</ele>
        <time>2023-09-03T09:12:49Z</time>
      </trkpt>
      <trkpt lat="55.056914035230875" lon="-3.472831025719643">
        <ele>77.040000000000006</ele>
        <time>2023-09-03T09:12:57Z</time>
      </trkpt>
      <trkpt lat="55.056184977293015" lon="-3.47166501916945">
        <ele>79.930000000000007</ele>
        <time>2023-09-03T09:13:01Z</time>
      </trkpt>
      <trkpt lat="55.05462602712214" lon="-3.469060007482767">
        <ele>92.420000000000002</ele>
        <time>2023-09-03T09:13:12Z</time>
      </trkpt>
      <trkpt lat="55.053750034421682" lon="-3.467072993516922">
        <ele>95.310000000000002</ele>
        <time>2023-09-03T09:13:18Z</time>
      </trkpt>
      <trkpt lat="55.052626021206379" lon="-3.464405033737421">
        <ele>96.269999999999996</ele>
        <time>2023-09-03T09:13:25Z</time>
      </trkpt>
      <trkpt lat="55.052471961826086" lon="-3.464088030159473">
        <ele>96.269999999999996</ele>
        <time>2023-09-03T09:13:26Z</time>
      </trkpt>
      <trkpt lat="55.051159020513296" lon="-3.462034966796637">
        <ele>99.150000000000006</ele>
        <time>2023-09-03T09:13:34Z</time>
      </trkpt>
      <trkpt lat="55.049269990995526" lon="-3.459071964025497">
        <ele>106.36</ele>
        <time>2023-09-03T09:13:46Z</time>
      </trkpt>
      <trkpt lat="55.047879014164209" lon="-3.456845982000232">
        <ele>111.17</ele>
        <time>2023-09-03T09:13:54Z</time>
      </trkpt>
      <trkpt lat="55.046607982367277" lon="-3.454701974987984">
        <ele>113.09</ele>
        <time>2023-09-03T09:14:01Z</time>
      </trkpt>
      <trkpt lat="55.045440969988704" lon="-3.451895965263248">
        <ele>109.25</ele>
        <time>2023-09-03T09:14:10Z</time>
      </trkpt>
      <trkpt lat="55.044188965111971" lon="-3.448820980265737">
        <ele>98.670000000000002</ele>
        <time>2023-09-03T09:14:18Z</time>
      </trkpt>
      <trkpt lat="55.043236026540399" lon="-3.446412021294236">
        <ele>97.709999999999994</ele>
        <time>2023-09-03T09:14:25Z</time>
      </trkpt>
      <trkpt lat="55.04240496084094" lon="-3.44435703009367">
        <ele>98.670000000000002</ele>
        <time>2023-09-03T09:14:33Z</time>
      </trkpt>
      <trkpt lat="55.041083972901106" lon="-3.440975015982986">
        <ele>106.84</ele>
        <time>2023-09-03T09:14:46Z</time>
      </trkpt>
      <trkpt lat="55.039963982999325" lon="-3.438487015664578">
        <ele>110.69</ele>
        <time>2023-09-03T09:14:56Z</time>
      </trkpt>
      <trkpt lat="55.038651041686535" lon="-3.435937995091081">
        <ele>110.69</ele>
        <time>2023-09-03T09:15:05Z</time>
      </trkpt>
      <trkpt lat="55.037628030404449" lon="-3.433951986953616">
        <ele>107.81</ele>
        <time>2023-09-03T09:15:12Z</time>
      </trkpt>
      <trkpt lat="55.036174021661282" lon="-3.430949002504349">
        <ele>104.44</ele>
        <time>2023-09-03T09:15:23Z</time>
      </trkpt>
      <trkpt lat="55.035498021170497" lon="-3.428977997973561">
        <ele>104.44</ele>
        <time>2023-09-03T09:15:28Z</time>
      </trkpt>
      <trkpt lat="55.034872982650995" lon="-3.426281036809087">
        <ele>108.77</ele>
        <time>2023-09-03T09:15:35Z</time>
      </trkpt>
      <trkpt lat="55.034365961328149" lon="-3.422412034124136">
        <ele>112.61</ele>
        <time>2023-09-03T09:15:45Z</time>
      </trkpt>
      <trkpt lat="55.033852988854051" lon="-3.418526016175747">
        <ele>110.69</ele>
        <time>2023-09-03T09:15:55Z</time>
      </trkpt>
      <trkpt lat="55.033262986689806" lon="-3.41387003660202">
        <ele>106.84</ele>
        <time>2023-09-03T09:16:07Z</time>
      </trkpt>
      <trkpt lat="55.032865013927221" lon="-3.410721039399505">
        <ele>103</ele>
        <time>2023-09-03T09:16:15Z</time>
      </trkpt>
      <trkpt lat="55.032195970416069" lon="-3.405833970755339">
        <ele>86.659999999999997</ele>
        <time>2023-09-03T09:16:27Z</time>
      </trkpt>
      <trkpt lat="55.031141024082899" lon="-3.40031499043107">
        <ele>73.680000000000007</ele>
        <time>2023-09-03T09:16:41Z</time>
      </trkpt>
      <trkpt lat="55.029792040586472" lon="-3.394967000931501">
        <ele>69.349999999999994</ele>
        <time>2023-09-03T09:16:55Z</time>
      </trkpt>
      <trkpt lat="55.028752014040947" lon="-3.391696969047189">
        <ele>69.829999999999998</ele>
        <time>2023-09-03T09:17:04Z</time>
      </trkpt>
      <trkpt lat="55.027115028351545" lon="-3.387087006121874">
        <ele>61.18</ele>
        <time>2023-09-03T09:17:17Z</time>
      </trkpt>
      <trkpt lat="55.025336975231767" lon="-3.382192980498076">
        <ele>50.130000000000003</ele>
        <time>2023-09-03T09:17:31Z</time>
      </trkpt>
      <trkpt lat="55.023293970152736" lon="-3.376557994633913">
        <ele>64.549999999999997</ele>
        <time>2023-09-03T09:17:47Z</time>
      </trkpt>
      <trkpt lat="55.021791011095047" lon="-3.372794017195702">
        <ele>68.870000000000005</ele>
        <time>2023-09-03T09:17:58Z</time>
      </trkpt>
      <trkpt lat="55.019600987434387" lon="-3.367314012721181">
        <ele>70.310000000000002</ele>
        <time>2023-09-03T09:18:14Z</time>
      </trkpt>
      <trkpt lat="55.017983028665185" lon="-3.36269399151206">
        <ele>65.030000000000001</ele>
        <time>2023-09-03T09:18:27Z</time>
      </trkpt>
      <trkpt lat="55.016188966110349" lon="-3.358263988047838">
        <ele>61.18</ele>
        <time>2023-09-03T09:18:40Z</time>
      </trkpt>
      <trkpt lat="55.013831974938512" lon="-3.352520959451795">
        <ele>60.219999999999999</ele>
        <time>2023-09-03T09:18:57Z</time>
      </trkpt>
      <trkpt lat="55.012770993635058" lon="-3.349729031324387">
        <ele>60.219999999999999</ele>
        <time>2023-09-03T09:19:05Z</time>
      </trkpt>
      <trkpt lat="55.01131203956902" lon="-3.345406986773014">
        <ele>60.219999999999999</ele>
        <time>2023-09-03T09:19:17Z</time>
      </trkpt>
      <trkpt lat="55.009973030537367" lon="-3.340982012450695">
        <ele>59.259999999999998</ele>
        <time>2023-09-03T09:19:29Z</time>
      </trkpt>
      <trkpt lat="55.008782967925072" lon="-3.336897008121014">
        <ele>57.82</ele>
        <time>2023-09-03T09:19:40Z</time>
      </trkpt>
      <trkpt lat="55.007581003010273" lon="-3.332381006330252">
        <ele>53.969999999999999</ele>
        <time>2023-09-03T09:19:52Z</time>
      </trkpt>
      <trkpt lat="55.006166975945234" lon="-3.326607970520854">
        <ele>46.280000000000001</ele>
        <time>2023-09-03T09:20:07Z</time>
      </trkpt>
      <trkpt lat="55.004851017147303" lon="-3.321240032091737">
        <ele>40.990000000000002</ele>
        <time>2023-09-03T09:20:21Z</time>
      </trkpt>
      <trkpt lat="55.003432966768742" lon="-3.315500020980835">
        <ele>42.439999999999998</ele>
        <time>2023-09-03T09:20:36Z</time>
      </trkpt>
      <trkpt lat="55.00220300629735" lon="-3.310513040050864">
        <ele>40.509999999999998</ele>
        <time>2023-09-03T09:20:49Z</time>
      </trkpt>
      <trkpt lat="55.000922000035644" lon="-3.305595964193344">
        <ele>38.109999999999999</ele>
        <time>2023-09-03T09:21:02Z</time>
      </trkpt>
      <trkpt lat="54.999080998823047" lon="-3.29926704056561">
        <ele>33.299999999999997</ele>
        <time>2023-09-03T09:21:19Z</time>
      </trkpt>
      <trkpt lat="54.997387016192079" lon="-3.292825967073441">
        <ele>28.5</ele>
        <time>2023-09-03T09:21:36Z</time>
      </trkpt>
      <trkpt lat="54.996128976345062" lon="-3.286976991221309">
        <ele>25.609999999999999</ele>
        <time>2023-09-03T09:21:51Z</time>
      </trkpt>
      <trkpt lat="54.995524976402521" lon="-3.282099980860949">
        <ele>25.129999999999999</ele>
        <time>2023-09-03T09:22:03Z</time>
      </trkpt>
      <trkpt lat="54.995374018326402" lon="-3.278350001201034">
        <ele>24.649999999999999</ele>
        <time>2023-09-03T09:22:12Z</time>
      </trkpt>
      <trkpt lat="54.995758999139071" lon="-3.273798041045666">
        <ele>25.609999999999999</ele>
        <time>2023-09-03T09:22:23Z</time>
      </trkpt>
      <trkpt lat="54.996490990743041" lon="-3.269417993724346">
        <ele>23.690000000000001</ele>
        <time>2023-09-03T09:22:34Z</time>
      </trkpt>
      <trkpt lat="54.997287020087242" lon="-3.263740008696914">
        <ele>20.32</ele>
        <time>2023-09-03T09:22:48Z</time>
      </trkpt>
      <trkpt lat="54.997581979259849" lon="-3.258784040808678">
        <ele>20.32</ele>
        <time>2023-09-03T09:23:00Z</time>
      </trkpt>
      <trkpt lat="54.997621960937977" lon="-3.255916005000472">
        <ele>21.77</ele>
        <time>2023-09-03T09:23:07Z</time>
      </trkpt>
      <trkpt lat="54.997362038120627" lon="-3.250959031283855">
        <ele>28.5</ele>
        <time>2023-09-03T09:23:19Z</time>
      </trkpt>
      <trkpt lat="54.996819980442524" lon="-3.246042039245367">
        <ele>37.630000000000003</ele>
        <time>2023-09-03T09:23:31Z</time>
      </trkpt>
      <trkpt lat="54.996264008805156" lon="-3.241973966360092">
        <ele>43.880000000000003</ele>
        <time>2023-09-03T09:23:41Z</time>
      </trkpt>
      <trkpt lat="54.995582979172468" lon="-3.235842017456889">
        <ele>44.840000000000003</ele>
        <time>2023-09-03T09:23:56Z</time>
      </trkpt>
      <trkpt lat="54.995282990857959" lon="-3.2321269903332">
        <ele>41.950000000000003</ele>
        <time>2023-09-03T09:24:05Z</time>
      </trkpt>
      <trkpt lat="54.995250971987844" lon="-3.231726000085473">
        <ele>41.950000000000003</ele>
        <time>2023-09-03T09:24:06Z</time>
      </trkpt>
      <trkpt lat="54.995217025279999" lon="-3.231325009837747">
        <ele>41.469999999999999</ele>
        <time>2023-09-03T09:24:07Z</time>
      </trkpt>
      <trkpt lat="54.994846964254975" lon="-3.226337023079395">
        <ele>38.109999999999999</ele>
        <time>2023-09-03T09:24:19Z</time>
      </trkpt>
      <trkpt lat="54.994369028136134" lon="-3.220129972323775">
        <ele>31.859999999999999</ele>
        <time>2023-09-03T09:24:34Z</time>
      </trkpt>
      <trkpt lat="54.993799980729818" lon="-3.214374035596848">
        <ele>27.050000000000001</ele>
        <time>2023-09-03T09:24:48Z</time>
      </trkpt>
      <trkpt lat="54.99311501160264" lon="-3.208669982850552">
        <ele>24.649999999999999</ele>
        <time>2023-09-03T09:25:02Z</time>
      </trkpt>
      <trkpt lat="54.992174981161952" lon="-3.202238967642188">
        <ele>23.690000000000001</ele>
        <time>2023-09-03T09:25:18Z</time>
      </trkpt>
      <trkpt lat="54.991083992645144" lon="-3.195423977449536">
        <ele>22.73</ele>
        <time>2023-09-03T09:25:35Z</time>
      </trkpt>
      <trkpt lat="54.990433976054192" lon="-3.190992968156934">
        <ele>22.73</ele>
        <time>2023-09-03T09:25:46Z</time>
      </trkpt>
      <trkpt lat="54.990328028798103" lon="-3.187242988497019">
        <ele>23.690000000000001</ele>
        <time>2023-09-03T09:25:55Z</time>
      </trkpt>
      <trkpt lat="54.990675039589405" lon="-3.183134011924267">
        <ele>24.649999999999999</ele>
        <time>2023-09-03T09:26:05Z</time>
      </trkpt>
      <trkpt lat="54.991359002888203" lon="-3.178708031773567">
        <ele>25.129999999999999</ele>
        <time>2023-09-03T09:26:16Z</time>
      </trkpt>
      <trkpt lat="54.991810033097863" lon="-3.175042038783431">
        <ele>25.609999999999999</ele>
        <time>2023-09-03T09:26:25Z</time>
      </trkpt>
      <trkpt lat="54.992114966735244" lon="-3.170496029779315">
        <ele>25.609999999999999</ele>
        <time>2023-09-03T09:26:36Z</time>
      </trkpt>
      <trkpt lat="54.992112033069134" lon="-3.165493039414287">
        <ele>27.050000000000001</ele>
        <time>2023-09-03T09:26:48Z</time>
      </trkpt>
      <trkpt lat="54.991851020604372" lon="-3.159261010587215">
        <ele>26.09</ele>
        <time>2023-09-03T09:27:03Z</time>
      </trkpt>
      <trkpt lat="54.991935007274151" lon="-3.153829034417868">
        <ele>26.57</ele>
        <time>2023-09-03T09:27:16Z</time>
      </trkpt>
      <trkpt lat="54.992054030299187" lon="-3.147584013640881">
        <ele>26.57</ele>
        <time>2023-09-03T09:27:31Z</time>
      </trkpt>
      <trkpt lat="54.992116978392005" lon="-3.143843002617359">
        <ele>23.210000000000001</ele>
        <time>2023-09-03T09:27:40Z</time>
      </trkpt>
      <trkpt lat="54.99216802418232" lon="-3.138416977599263">
        <ele>22.25</ele>
        <time>2023-09-03T09:27:53Z</time>
      </trkpt>
      <trkpt lat="54.9923209939152" lon="-3.133435025811195">
        <ele>20.809999999999999</ele>
        <time>2023-09-03T09:28:05Z</time>
      </trkpt>
      <trkpt lat="54.992516040802002" lon="-3.130142027512193">
        <ele>18.399999999999999</ele>
        <time>2023-09-03T09:28:13Z</time>
      </trkpt>
      <trkpt lat="54.99296497553587" lon="-3.123936988413334">
        <ele>24.649999999999999</ele>
        <time>2023-09-03T09:28:28Z</time>
      </trkpt>
      <trkpt lat="54.993120962753892" lon="-3.119805967435241">
        <ele>30.420000000000002</ele>
        <time>2023-09-03T09:28:38Z</time>
      </trkpt>
      <trkpt lat="54.992717960849404" lon="-3.116556974127889">
        <ele>31.379999999999999</ele>
        <time>2023-09-03T09:28:46Z</time>
      </trkpt>
      <trkpt lat="54.992357958108187" lon="-3.113294988870621">
        <ele>28.98</ele>
        <time>2023-09-03T09:28:54Z</time>
      </trkpt>
      <trkpt lat="54.99251302331686" lon="-3.110403986647725">
        <ele>26.09</ele>
        <time>2023-09-03T09:29:01Z</time>
      </trkpt>
      <trkpt lat="54.993188017979264" lon="-3.106404980644584">
        <ele>20.809999999999999</ele>
        <time>2023-09-03T09:29:11Z</time>
      </trkpt>
      <trkpt lat="54.994028974324465" lon="-3.101620003581047">
        <ele>17.440000000000001</ele>
        <time>2023-09-03T09:29:23Z</time>
      </trkpt>
      <trkpt lat="54.994932962581515" lon="-3.095993986353278">
        <ele>19.359999999999999</ele>
        <time>2023-09-03T09:29:37Z</time>
      </trkpt>
      <trkpt lat="54.996028980240226" lon="-3.089607981964946">
        <ele>23.690000000000001</ele>
        <time>2023-09-03T09:29:53Z</time>
      </trkpt>
      <trkpt lat="54.997117035090923" lon="-3.084091013297439">
        <ele>27.530000000000001</ele>
        <time>2023-09-03T09:30:07Z</time>
      </trkpt>
      <trkpt lat="54.99842100776732" lon="-3.079159017652273">
        <ele>30.420000000000002</ele>
        <time>2023-09-03T09:30:20Z</time>
      </trkpt>
      <trkpt lat="54.999442007392645" lon="-3.074939986690879">
        <ele>29.940000000000001</ele>
        <time>2023-09-03T09:30:31Z</time>
      </trkpt>
      <trkpt lat="55.000064028427005" lon="-3.070502020418644">
        <ele>29.460000000000001</ele>
        <time>2023-09-03T09:30:42Z</time>
      </trkpt>
      <trkpt lat="55.00054900534451" lon="-3.065126035362482">
        <ele>30.420000000000002</ele>
        <time>2023-09-03T09:30:55Z</time>
      </trkpt>
      <trkpt lat="55.00091303139925" lon="-3.061600020155311">
        <ele>29.460000000000001</ele>
        <time>2023-09-03T09:31:04Z</time>
      </trkpt>
      <trkpt lat="55.000942032784224" lon="-3.060958972200751">
        <ele>29.460000000000001</ele>
        <time>2023-09-03T09:31:06Z</time>
      </trkpt>
      <trkpt lat="55.000894004479051" lon="-3.060349021106958">
        <ele>29.460000000000001</ele>
        <time>2023-09-03T09:31:08Z</time>
      </trkpt>
      <trkpt lat="55.000855028629303" lon="-3.060042997822166">
        <ele>29.460000000000001</ele>
        <time>2023-09-03T09:31:09Z</time>
      </trkpt>
      <trkpt lat="55.000817980617285" lon="-3.059749966487289">
        <ele>29.940000000000001</ele>
        <time>2023-09-03T09:31:10Z</time>
      </trkpt>
      <trkpt lat="55.000783028081059" lon="-3.05947101674974">
        <ele>29.940000000000001</ele>
        <time>2023-09-03T09:31:11Z</time>
      </trkpt>
      <trkpt lat="55.000736005604267" lon="-3.059203969314694">
        <ele>30.420000000000002</ele>
        <time>2023-09-03T09:31:12Z</time>
      </trkpt>
      <trkpt lat="55.000670962035656" lon="-3.058984028175473">
        <ele>30.899999999999999</ele>
        <time>2023-09-03T09:31:13Z</time>
      </trkpt>
      <trkpt lat="55.000381032004952" lon="-3.058232003822923">
        <ele>30.899999999999999</ele>
        <time>2023-09-03T09:31:16Z</time>
      </trkpt>
      <trkpt lat="54.999384004622698" lon="-3.056616978719831">
        <ele>29.940000000000001</ele>
        <time>2023-09-03T09:31:23Z</time>
      </trkpt>
      <trkpt lat="54.997985986992717" lon="-3.055739980190992">
        <ele>27.050000000000001</ele>
        <time>2023-09-03T09:31:30Z</time>
      </trkpt>
      <trkpt lat="54.996672961860895" lon="-3.054783018305898">
        <ele>25.129999999999999</ele>
        <time>2023-09-03T09:31:36Z</time>
      </trkpt>
      <trkpt lat="54.99524200335145" lon="-3.05296003818512">
        <ele>21.77</ele>
        <time>2023-09-03T09:31:43Z</time>
      </trkpt>
      <trkpt lat="54.993709959089756" lon="-3.049777010455728">
        <ele>18.399999999999999</ele>
        <time>2023-09-03T09:31:52Z</time>
      </trkpt>
      <trkpt lat="54.992425013333559" lon="-3.046313021332026">
        <ele>19.359999999999999</ele>
        <time>2023-09-03T09:32:01Z</time>
      </trkpt>
      <trkpt lat="54.990778975188732" lon="-3.042724980041385">
        <ele>20.809999999999999</ele>
        <time>2023-09-03T09:32:11Z</time>
      </trkpt>
      <trkpt lat="54.988762959837914" lon="-3.039735993370414">
        <ele>20.809999999999999</ele>
        <time>2023-09-03T09:32:21Z</time>
      </trkpt>
      <trkpt lat="54.986103968694806" lon="-3.035949971526861">
        <ele>15.039999999999999</ele>
        <time>2023-09-03T09:32:34Z</time>
      </trkpt>
      <trkpt lat="54.984230026602745" lon="-3.032074011862278">
        <ele>10.710000000000001</ele>
        <time>2023-09-03T09:32:45Z</time>
      </trkpt>
      <trkpt lat="54.981940006837249" lon="-3.027633028104901">
        <ele>14.08</ele>
        <time>2023-09-03T09:32:58Z</time>
      </trkpt>
      <trkpt lat="54.980199001729488" lon="-3.023593034595251">
        <ele>19.359999999999999</ele>
        <time>2023-09-03T09:33:09Z</time>
      </trkpt>
      <trkpt lat="54.978618007153273" lon="-3.018727004528046">
        <ele>15.52</ele>
        <time>2023-09-03T09:33:21Z</time>
      </trkpt>
      <trkpt lat="54.976845989003778" lon="-3.013422014191747">
        <ele>15.52</ele>
        <time>2023-09-03T09:33:34Z</time>
      </trkpt>
      <trkpt lat="54.975370019674301" lon="-3.010098002851009">
        <ele>16.48</ele>
        <time>2023-09-03T09:33:43Z</time>
      </trkpt>
      <trkpt lat="54.973034989088774" lon="-3.006359003484249">
        <ele>16.960000000000001</ele>
        <time>2023-09-03T09:33:55Z</time>
      </trkpt>
      <trkpt lat="54.970833985134959" lon="-3.003842001780868">
        <ele>17.440000000000001</ele>
        <time>2023-09-03T09:34:05Z</time>
      </trkpt>
      <trkpt lat="54.967940971255302" lon="-3.000600971281529">
        <ele>16.960000000000001</ele>
        <time>2023-09-03T09:34:18Z</time>
      </trkpt>
      <trkpt lat="54.965538969263434" lon="-2.997555993497372">
        <ele>16</ele>
        <time>2023-09-03T09:34:29Z</time>
      </trkpt>
      <trkpt lat="54.961293032392859" lon="-2.992169028148055">
        <ele>16.48</ele>
        <time>2023-09-03T09:34:48Z</time>
      </trkpt>
      <trkpt lat="54.957679007202387" lon="-2.987709017470479">
        <ele>18.399999999999999</ele>
        <time>2023-09-03T09:35:04Z</time>
      </trkpt>
      <trkpt lat="54.955067960545421" lon="-2.984142014756799">
        <ele>18.879999999999999</ele>
        <time>2023-09-03T09:35:16Z</time>
      </trkpt>
      <trkpt lat="54.953590985387564" lon="-2.982090041041374">
        <ele>18.399999999999999</ele>
        <time>2023-09-03T09:35:23Z</time>
      </trkpt>
      <trkpt lat="54.950935011729598" lon="-2.97857902944088">
        <ele>17.440000000000001</ele>
        <time>2023-09-03T09:35:36Z</time>
      </trkpt>
      <trkpt lat="54.947848040610552" lon="-2.974672978743911">
        <ele>18.399999999999999</ele>
        <time>2023-09-03T09:35:50Z</time>
      </trkpt>
      <trkpt lat="54.944661995396018" lon="-2.97084404155612">
        <ele>19.84</ele>
        <time>2023-09-03T09:36:04Z</time>
      </trkpt>
      <trkpt lat="54.943223996087909" lon="-2.969279978424311">
        <ele>21.289999999999999</ele>
        <time>2023-09-03T09:36:11Z</time>
      </trkpt>
      <trkpt lat="54.940646979957819" lon="-2.966566001996398">
        <ele>23.210000000000001</ele>
        <time>2023-09-03T09:36:26Z</time>
      </trkpt>
      <trkpt lat="54.938259981572628" lon="-2.964054029434919">
        <ele>21.77</ele>
        <time>2023-09-03T09:36:40Z</time>
      </trkpt>
      <trkpt lat="54.936035005375743" lon="-2.961716987192631">
        <ele>26.57</ele>
        <time>2023-09-03T09:36:53Z</time>
      </trkpt>
      <trkpt lat="54.934099959209561" lon="-2.959270980209112">
        <ele>28.98</ele>
        <time>2023-09-03T09:37:05Z</time>
      </trkpt>
      <trkpt lat="54.932508990168571" lon="-2.956161964684725">
        <ele>30.899999999999999</ele>
        <time>2023-09-03T09:37:17Z</time>
      </trkpt>
      <trkpt lat="54.931281041353941" lon="-2.952603008598089">
        <ele>31.859999999999999</ele>
        <time>2023-09-03T09:37:29Z</time>
      </trkpt>
      <trkpt lat="54.930574027821422" lon="-2.949368013069034">
        <ele>33.299999999999997</ele>
        <time>2023-09-03T09:37:39Z</time>
      </trkpt>
      <trkpt lat="54.930234979838133" lon="-2.946608019992709">
        <ele>31.379999999999999</ele>
        <time>2023-09-03T09:37:47Z</time>
      </trkpt>
      <trkpt lat="54.930102964863181" lon="-2.942815963178873">
        <ele>29.460000000000001</ele>
        <time>2023-09-03T09:37:58Z</time>
      </trkpt>
      <trkpt lat="54.930216036736965" lon="-2.938101980835199">
        <ele>28.98</ele>
        <time>2023-09-03T09:38:11Z</time>
      </trkpt>
      <trkpt lat="54.930298011749983" lon="-2.935261018574238">
        <ele>27.050000000000001</ele>
        <time>2023-09-03T09:38:19Z</time>
      </trkpt>
      <trkpt lat="54.930437989532948" lon="-2.92869295924902">
        <ele>21.289999999999999</ele>
        <time>2023-09-03T09:38:38Z</time>
      </trkpt>
      <trkpt lat="54.930181000381708" lon="-2.925269035622478">
        <ele>15.039999999999999</ele>
        <time>2023-09-03T09:38:48Z</time>
      </trkpt>
      <trkpt lat="54.929444985464215" lon="-2.921350998803973">
        <ele>10.23</ele>
        <time>2023-09-03T09:39:00Z</time>
      </trkpt>
      <trkpt lat="54.928304962813854" lon="-2.918136036023498">
        <ele>12.15</ele>
        <time>2023-09-03T09:39:11Z</time>
      </trkpt>
      <trkpt lat="54.926818013191223" lon="-2.915323991328478">
        <ele>13.119999999999999</ele>
        <time>2023-09-03T09:39:22Z</time>
      </trkpt>
      <trkpt lat="54.924623966217041" lon="-2.912272978574038">
        <ele>14.56</ele>
        <time>2023-09-03T09:39:36Z</time>
      </trkpt>
      <trkpt lat="54.922315003350377" lon="-2.909537041559815">
        <ele>16</ele>
        <time>2023-09-03T09:39:50Z</time>
      </trkpt>
      <trkpt lat="54.920080974698067" lon="-2.907244004309177">
        <ele>16.48</ele>
        <time>2023-09-03T09:40:03Z</time>
      </trkpt>
      <trkpt lat="54.91849604062736" lon="-2.905792007222772">
        <ele>15.52</ele>
        <time>2023-09-03T09:40:12Z</time>
      </trkpt>
      <trkpt lat="54.915422983467579" lon="-2.9032969661057">
        <ele>16.960000000000001</ele>
        <time>2023-09-03T09:40:29Z</time>
      </trkpt>
      <trkpt lat="54.913324993103743" lon="-2.901301989331842">
        <ele>20.809999999999999</ele>
        <time>2023-09-03T09:40:41Z</time>
      </trkpt>
      <trkpt lat="54.912207014858723" lon="-2.899887962266803">
        <ele>20.809999999999999</ele>
        <time>2023-09-03T09:40:48Z</time>
      </trkpt>
      <trkpt lat="54.910157974809408" lon="-2.896562023088336">
        <ele>22.73</ele>
        <time>2023-09-03T09:41:02Z</time>
      </trkpt>
      <trkpt lat="54.908647974953055" lon="-2.893875036388636">
        <ele>22.25</ele>
        <time>2023-09-03T09:41:12Z</time>
      </trkpt>
      <trkpt lat="54.906876040622592" lon="-2.891085036098957">
        <ele>22.25</ele>
        <time>2023-09-03T09:41:21Z</time>
      </trkpt>
      <trkpt lat="54.904719963669777" lon="-2.888937005773187">
        <ele>21.77</ele>
        <time>2023-09-03T09:41:30Z</time>
      </trkpt>
      <trkpt lat="54.902334976941347" lon="-2.88776102475822">
        <ele>21.77</ele>
        <time>2023-09-03T09:41:39Z</time>
      </trkpt>
      <trkpt lat="54.899039966985583" lon="-2.88707697764039">
        <ele>21.289999999999999</ele>
        <time>2023-09-03T09:41:51Z</time>
      </trkpt>
      <trkpt lat="54.895731965079904" lon="-2.886763997375965">
        <ele>24.170000000000002</ele>
        <time>2023-09-03T09:42:03Z</time>
      </trkpt>
      <trkpt lat="54.894042005762458" lon="-2.886490998789668">
        <ele>27.530000000000001</ele>
        <time>2023-09-03T09:42:09Z</time>
      </trkpt>
      <trkpt lat="54.889940991997719" lon="-2.885560020804405">
        <ele>40.990000000000002</ele>
        <time>2023-09-03T09:42:24Z</time>
      </trkpt>
      <trkpt lat="54.885866967961192" lon="-2.884164014831185">
        <ele>52.049999999999997</ele>
        <time>2023-09-03T09:42:39Z</time>
      </trkpt>
      <trkpt lat="54.881594041362405" lon="-2.882116986438632">
        <ele>53.969999999999999</ele>
        <time>2023-09-03T09:42:55Z</time>
      </trkpt>
      <trkpt lat="54.877966018393636" lon="-2.879740968346596">
        <ele>49.649999999999999</ele>
        <time>2023-09-03T09:43:09Z</time>
      </trkpt>
      <trkpt lat="54.874415025115013" lon="-2.877207035198808">
        <ele>54.450000000000003</ele>
        <time>2023-09-03T09:43:23Z</time>
      </trkpt>
      <trkpt lat="54.872007993981242" lon="-2.876110011711717">
        <ele>57.82</ele>
        <time>2023-09-03T09:43:32Z</time>
      </trkpt>
      <trkpt lat="54.868999980390072" lon="-2.875611959025264">
        <ele>64.549999999999997</ele>
        <time>2023-09-03T09:43:43Z</time>
      </trkpt>
      <trkpt lat="54.866253985092044" lon="-2.875885963439941">
        <ele>66.950000000000003</ele>
        <time>2023-09-03T09:43:53Z</time>
      </trkpt>
      <trkpt lat="54.863498015329242" lon="-2.8765460383147">
        <ele>67.430000000000007</ele>
        <time>2023-09-03T09:44:03Z</time>
      </trkpt>
      <trkpt lat="54.859661031514406" lon="-2.87759997881949">
        <ele>60.700000000000003</ele>
        <time>2023-09-03T09:44:17Z</time>
      </trkpt>
      <trkpt lat="54.856690987944603" lon="-2.878565993160009">
        <ele>59.259999999999998</ele>
        <time>2023-09-03T09:44:28Z</time>
      </trkpt>
      <trkpt lat="54.853449035435915" lon="-2.879762006923556">
        <ele>54.93</ele>
        <time>2023-09-03T09:44:40Z</time>
      </trkpt>
      <trkpt lat="54.850212028250098" lon="-2.881105039268732">
        <ele>53.009999999999998</ele>
        <time>2023-09-03T09:44:52Z</time>
      </trkpt>
      <trkpt lat="54.847068982198834" lon="-2.882874961942434">
        <ele>56.859999999999999</ele>
        <time>2023-09-03T09:45:04Z</time>
      </trkpt>
      <trkpt lat="54.844528008252382" lon="-2.884641028940678">
        <ele>59.740000000000002</ele>
        <time>2023-09-03T09:45:14Z</time>
      </trkpt>
      <trkpt lat="54.841104000806808" lon="-2.886574985459447">
        <ele>69.829999999999998</ele>
        <time>2023-09-03T09:45:27Z</time>
      </trkpt>
      <trkpt lat="54.837322002276778" lon="-2.888103006407619">
        <ele>83.290000000000006</ele>
        <time>2023-09-03T09:45:41Z</time>
      </trkpt>
      <trkpt lat="54.834306025877595" lon="-2.888885959982872">
        <ele>94.349999999999994</ele>
        <time>2023-09-03T09:45:52Z</time>
      </trkpt>
      <trkpt lat="54.831274040043354" lon="-2.889278987422586">
        <ele>105.40000000000001</ele>
        <time>2023-09-03T09:46:03Z</time>
      </trkpt>
      <trkpt lat="54.827374024316669" lon="-2.889173962175846">
        <ele>112.61</ele>
        <time>2023-09-03T09:46:17Z</time>
      </trkpt>
      <trkpt lat="54.824888035655022" lon="-2.888755034655333">
        <ele>114.05</ele>
        <time>2023-09-03T09:46:26Z</time>
      </trkpt>
      <trkpt lat="54.821898965165019" lon="-2.88780502974987">
        <ele>116.45999999999999</ele>
        <time>2023-09-03T09:46:37Z</time>
      </trkpt>
      <trkpt lat="54.818722978234291" lon="-2.886139964684844">
        <ele>118.38</ele>
        <time>2023-09-03T09:46:49Z</time>
      </trkpt>
      <trkpt lat="54.815413970500231" lon="-2.883693035691977">
        <ele>119.81999999999999</ele>
        <time>2023-09-03T09:47:02Z</time>
      </trkpt>
      <trkpt lat="54.812753973528743" lon="-2.881125994026661">
        <ele>121.26000000000001</ele>
        <time>2023-09-03T09:47:13Z</time>
      </trkpt>
      <trkpt lat="54.809758029878139" lon="-2.877682037651539">
        <ele>123.67</ele>
        <time>2023-09-03T09:47:26Z</time>
      </trkpt>
      <trkpt lat="54.806740041822195" lon="-2.874322989955545">
        <ele>124.15000000000001</ele>
        <time>2023-09-03T09:47:39Z</time>
      </trkpt>
      <trkpt lat="54.804210970178246" lon="-2.872423985973001">
        <ele>124.63</ele>
        <time>2023-09-03T09:47:49Z</time>
      </trkpt>
      <trkpt lat="54.801523983478546" lon="-2.871360993012786">
        <ele>127.51000000000001</ele>
        <time>2023-09-03T09:47:59Z</time>
      </trkpt>
      <trkpt lat="54.799049980938435" lon="-2.870857995003462">
        <ele>128.47</ele>
        <time>2023-09-03T09:48:08Z</time>
      </trkpt>
      <trkpt lat="54.796605985611677" lon="-2.870103036984801">
        <ele>126.06999999999999</ele>
        <time>2023-09-03T09:48:17Z</time>
      </trkpt>
      <trkpt lat="54.793725041672587" lon="-2.86844601854682">
        <ele>127.98999999999999</ele>
        <time>2023-09-03T09:48:28Z</time>
      </trkpt>
      <trkpt lat="54.790987009182572" lon="-2.866120040416718">
        <ele>130.88</ele>
        <time>2023-09-03T09:48:39Z</time>
      </trkpt>
      <trkpt lat="54.78825300000608" lon="-2.862883033230901">
        <ele>132.31999999999999</ele>
        <time>2023-09-03T09:48:51Z</time>
      </trkpt>
      <trkpt lat="54.785484038293362" lon="-2.859732024371624">
        <ele>137.13</ele>
        <time>2023-09-03T09:49:03Z</time>
      </trkpt>
      <trkpt lat="54.782376028597355" lon="-2.85658503882587">
        <ele>139.05000000000001</ele>
        <time>2023-09-03T09:49:16Z</time>
      </trkpt>
      <trkpt lat="54.778691008687019" lon="-2.853254992514849">
        <ele>140.49000000000001</ele>
        <time>2023-09-03T09:49:31Z</time>
      </trkpt>
      <trkpt lat="54.776718998327851" lon="-2.851356994360685">
        <ele>143.37</ele>
        <time>2023-09-03T09:49:40Z</time>
      </trkpt>
      <trkpt lat="54.774496033787727" lon="-2.849043002352119">
        <ele>145.78</ele>
        <time>2023-09-03T09:49:50Z</time>
      </trkpt>
      <trkpt lat="54.771296996623278" lon="-2.845295034348965">
        <ele>145.30000000000001</ele>
        <time>2023-09-03T09:50:04Z</time>
      </trkpt>
      <trkpt lat="54.768871022388339" lon="-2.842103037983179">
        <ele>145.78</ele>
        <time>2023-09-03T09:50:15Z</time>
      </trkpt>
      <trkpt lat="54.765916988253593" lon="-2.837727013975382">
        <ele>144.81999999999999</ele>
        <time>2023-09-03T09:50:29Z</time>
      </trkpt>
      <trkpt lat="54.762872010469437" lon="-2.83263199031353">
        <ele>142.88999999999999</ele>
        <time>2023-09-03T09:50:44Z</time>
      </trkpt>
      <trkpt lat="54.760110005736351" lon="-2.82758298330009">
        <ele>141.44999999999999</ele>
        <time>2023-09-03T09:50:58Z</time>
      </trkpt>
      <trkpt lat="54.757374990731478" lon="-2.82341399230063">
        <ele>136.63999999999999</ele>
        <time>2023-09-03T09:51:11Z</time>
      </trkpt>
      <trkpt lat="54.754884978756309" lon="-2.820359040051699">
        <ele>136.16</ele>
        <time>2023-09-03T09:51:22Z</time>
      </trkpt>
      <trkpt lat="54.75153598934412" lon="-2.817042991518974">
        <ele>137.13</ele>
        <time>2023-09-03T09:51:36Z</time>
      </trkpt>
      <trkpt lat="54.748074011877179" lon="-2.814043024554849">
        <ele>138.56999999999999</ele>
        <time>2023-09-03T09:51:50Z</time>
      </trkpt>
      <trkpt lat="54.744567023590207" lon="-2.811216982081533">
        <ele>139.53</ele>
        <time>2023-09-03T09:52:04Z</time>
      </trkpt>
      <trkpt lat="54.740500040352345" lon="-2.808176027610898">
        <ele>142.88999999999999</ele>
        <time>2023-09-03T09:52:20Z</time>
      </trkpt>
      <trkpt lat="54.736606981605291" lon="-2.805674029514194">
        <ele>142.88999999999999</ele>
        <time>2023-09-03T09:52:35Z</time>
      </trkpt>
      <trkpt lat="54.732900001108646" lon="-2.803746024146676">
        <ele>140.00999999999999</ele>
        <time>2023-09-03T09:52:49Z</time>
      </trkpt>
      <trkpt lat="54.728855984285474" lon="-2.802146002650261">
        <ele>137.13</ele>
        <time>2023-09-03T09:53:04Z</time>
      </trkpt>
      <trkpt lat="54.724489012733102" lon="-2.800818979740143">
        <ele>134.72</ele>
        <time>2023-09-03T09:53:20Z</time>
      </trkpt>
      <trkpt lat="54.721793979406357" lon="-2.799805020913482">
        <ele>132.31999999999999</ele>
        <time>2023-09-03T09:53:30Z</time>
      </trkpt>
      <trkpt lat="54.718308029696345" lon="-2.798212040215731">
        <ele>132.80000000000001</ele>
        <time>2023-09-03T09:53:43Z</time>
      </trkpt>
      <trkpt lat="54.714618986472487" lon="-2.796166017651558">
        <ele>135.68000000000001</ele>
        <time>2023-09-03T09:53:57Z</time>
      </trkpt>
      <trkpt lat="54.711187016218901" lon="-2.794389976188541">
        <ele>140.97</ele>
        <time>2023-09-03T09:54:10Z</time>
      </trkpt>
      <trkpt lat="54.707701988518238" lon="-2.792903026565909">
        <ele>146.74000000000001</ele>
        <time>2023-09-03T09:54:23Z</time>
      </trkpt>
      <trkpt lat="54.704700009897351" lon="-2.79193801805377">
        <ele>152.03</ele>
        <time>2023-09-03T09:54:34Z</time>
      </trkpt>
      <trkpt lat="54.700855985283852" lon="-2.791183982044458">
        <ele>159.24000000000001</ele>
        <time>2023-09-03T09:54:48Z</time>
      </trkpt>
      <trkpt lat="54.697256041690707" lon="-2.7912060264498">
        <ele>162.12</ele>
        <time>2023-09-03T09:55:01Z</time>
      </trkpt>
      <trkpt lat="54.693931024521589" lon="-2.791556976735592">
        <ele>161.16</ele>
        <time>2023-09-03T09:55:13Z</time>
      </trkpt>
      <trkpt lat="54.693649979308248" lon="-2.791556976735592">
        <ele>161.16</ele>
        <time>2023-09-03T09:55:14Z</time>
      </trkpt>
      <trkpt lat="54.690601984038949" lon="-2.791340975090861">
        <ele>161.63999999999999</ele>
        <time>2023-09-03T09:55:25Z</time>
      </trkpt>
      <trkpt lat="54.687067000195384" lon="-2.790462970733643">
        <ele>157.78999999999999</ele>
        <time>2023-09-03T09:55:38Z</time>
      </trkpt>
      <trkpt lat="54.6846710331738" lon="-2.789185987785459">
        <ele>156.34999999999999</ele>
        <time>2023-09-03T09:55:47Z</time>
      </trkpt>
      <trkpt lat="54.682209016755223" lon="-2.787032006308436">
        <ele>155.87</ele>
        <time>2023-09-03T09:55:57Z</time>
      </trkpt>
      <trkpt lat="54.679973982274532" lon="-2.784222979098558">
        <ele>154.43000000000001</ele>
        <time>2023-09-03T09:56:07Z</time>
      </trkpt>
      <trkpt lat="54.677048027515411" lon="-2.780625969171524">
        <ele>154.91</ele>
        <time>2023-09-03T09:56:20Z</time>
      </trkpt>
      <trkpt lat="54.673912022262812" lon="-2.777626002207398">
        <ele>156.83000000000001</ele>
        <time>2023-09-03T09:56:33Z</time>
      </trkpt>
      <trkpt lat="54.671131996437907" lon="-2.77554796077311">
        <ele>156.34999999999999</ele>
        <time>2023-09-03T09:56:44Z</time>
      </trkpt>
      <trkpt lat="54.667961038649082" lon="-2.773840986192226">
        <ele>156.83000000000001</ele>
        <time>2023-09-03T09:56:56Z</time>
      </trkpt>
      <trkpt lat="54.664706010371447" lon="-2.772706998512149">
        <ele>157.31</ele>
        <time>2023-09-03T09:57:08Z</time>
      </trkpt>
      <trkpt lat="54.662279030308127" lon="-2.771740984171629">
        <ele>155.38999999999999</ele>
        <time>2023-09-03T09:57:17Z</time>
      </trkpt>
      <trkpt lat="54.659985993057489" lon="-2.77006896212697">
        <ele>152.50999999999999</ele>
        <time>2023-09-03T09:57:26Z</time>
      </trkpt>
      <trkpt lat="54.65854799374938" lon="-2.76849702000618">
        <ele>150.09999999999999</ele>
        <time>2023-09-03T09:57:33Z</time>
      </trkpt>
      <trkpt lat="54.656302984803915" lon="-2.76544701308012">
        <ele>144.34</ele>
        <time>2023-09-03T09:57:45Z</time>
      </trkpt>
      <trkpt lat="54.655170002952218" lon="-2.76355798356235">
        <ele>142.88999999999999</ele>
        <time>2023-09-03T09:57:52Z</time>
      </trkpt>
      <trkpt lat="54.654452009126544" lon="-2.762006996199489">
        <ele>139.53</ele>
        <time>2023-09-03T09:57:59Z</time>
      </trkpt>
      <trkpt lat="54.65433700941503" lon="-2.761755958199501">
        <ele>138.56999999999999</ele>
        <time>2023-09-03T09:58:01Z</time>
      </trkpt>
      <trkpt lat="54.654291998594999" lon="-2.761657973751426">
        <ele>138.56999999999999</ele>
        <time>2023-09-03T09:58:02Z</time>
      </trkpt>
      <trkpt lat="54.654137017205358" lon="-2.761319009587169">
        <ele>138.09</ele>
        <time>2023-09-03T09:58:08Z</time>
      </trkpt>
      <trkpt lat="54.65390601195395" lon="-2.760718027129769">
        <ele>139.05000000000001</ele>
        <time>2023-09-03T09:58:14Z</time>
      </trkpt>
      <trkpt lat="54.653881033882499" lon="-2.760585006326437">
        <ele>139.05000000000001</ele>
        <time>2023-09-03T09:58:15Z</time>
      </trkpt>
      <trkpt lat="54.653857983648777" lon="-2.760464977473021">
        <ele>139.05000000000001</ele>
        <time>2023-09-03T09:58:16Z</time>
      </trkpt>
      <trkpt lat="54.653858989477158" lon="-2.760337991639972">
        <ele>139.05000000000001</ele>
        <time>2023-09-03T09:58:17Z</time>
      </trkpt>
      <trkpt lat="54.653868963941932" lon="-2.760230032727122">
        <ele>139.05000000000001</ele>
        <time>2023-09-03T09:58:18Z</time>
      </trkpt>
      <trkpt lat="54.653879022225738" lon="-2.760137999430299">
        <ele>139.05000000000001</ele>
        <time>2023-09-03T09:58:19Z</time>
      </trkpt>
      <trkpt lat="54.653896959498525" lon="-2.759984023869038">
        <ele>139.05000000000001</ele>
        <time>2023-09-03T09:58:26Z</time>
      </trkpt>
      <trkpt lat="54.654006008058786" lon="-2.759679006412625">
        <ele>138.09</ele>
        <time>2023-09-03T09:58:33Z</time>
      </trkpt>
      <trkpt lat="54.654019000008702" lon="-2.759552020579577">
        <ele>138.09</ele>
        <time>2023-09-03T09:58:34Z</time>
      </trkpt>
      <trkpt lat="54.654032997786999" lon="-2.759413970634341">
        <ele>138.09</ele>
        <time>2023-09-03T09:58:35Z</time>
      </trkpt>
      <trkpt lat="54.654034003615379" lon="-2.759249014779925">
        <ele>138.09</ele>
        <time>2023-09-03T09:58:36Z</time>
      </trkpt>
      <trkpt lat="54.654006008058786" lon="-2.759081041440368">
        <ele>138.09</ele>
        <time>2023-09-03T09:58:37Z</time>
      </trkpt>
      <trkpt lat="54.653979018330574" lon="-2.758920025080442">
        <ele>138.09</ele>
        <time>2023-09-03T09:58:38Z</time>
      </trkpt>
      <trkpt lat="54.653912968933582" lon="-2.758761020377278">
        <ele>138.09</ele>
        <time>2023-09-03T09:58:39Z</time>
      </trkpt>
      <trkpt lat="54.653880028054118" lon="-2.758590029552579">
        <ele>138.09</ele>
        <time>2023-09-03T09:58:40Z</time>
      </trkpt>
      <trkpt lat="54.653816996142268" lon="-2.75822700932622">
        <ele>138.09</ele>
        <time>2023-09-03T09:58:42Z</time>
      </trkpt>
      <trkpt lat="54.653793023899198" lon="-2.758031040430069">
        <ele>138.09</ele>
        <time>2023-09-03T09:58:43Z</time>
      </trkpt>
      <trkpt lat="54.653568975627422" lon="-2.756266985088587">
        <ele>139.05000000000001</ele>
        <time>2023-09-03T09:58:50Z</time>
      </trkpt>
      <trkpt lat="54.653284996747971" lon="-2.752911038696766">
        <ele>140.00999999999999</ele>
        <time>2023-09-03T09:59:00Z</time>
      </trkpt>
      <trkpt lat="54.653420029208064" lon="-2.749094003811479">
        <ele>140.00999999999999</ele>
        <time>2023-09-03T09:59:10Z</time>
      </trkpt>
      <trkpt lat="54.653864018619061" lon="-2.746328981593251">
        <ele>140.00999999999999</ele>
        <time>2023-09-03T09:59:18Z</time>
      </trkpt>
      <trkpt lat="54.65412201359868" lon="-2.7451659925282">
        <ele>140.00999999999999</ele>
        <time>2023-09-03T09:59:24Z</time>
      </trkpt>
      <trkpt lat="54.654351007193327" lon="-2.744136024266481">
        <ele>140.49000000000001</ele>
        <time>2023-09-03T09:59:31Z</time>
      </trkpt>
      <trkpt lat="54.654397023841739" lon="-2.744007026776671">
        <ele>140.00999999999999</ele>
        <time>2023-09-03T09:59:32Z</time>
      </trkpt>
      <trkpt lat="54.654451003298163" lon="-2.743899989873171">
        <ele>140.00999999999999</ele>
        <time>2023-09-03T09:59:33Z</time>
      </trkpt>
      <trkpt lat="54.654503976926208" lon="-2.743794964626432">
        <ele>140.00999999999999</ele>
        <time>2023-09-03T09:59:34Z</time>
      </trkpt>
      <trkpt lat="54.654590981081128" lon="-2.743675019592047">
        <ele>140.00999999999999</ele>
        <time>2023-09-03T09:59:35Z</time>
      </trkpt>
      <trkpt lat="54.654678991064429" lon="-2.743648029863834">
        <ele>140.00999999999999</ele>
        <time>2023-09-03T09:59:36Z</time>
      </trkpt>
      <trkpt lat="54.654771024361253" lon="-2.743619028478861">
        <ele>140.00999999999999</ele>
        <time>2023-09-03T09:59:37Z</time>
      </trkpt>
      <trkpt lat="54.654963975772262" lon="-2.743516014888883">
        <ele>140.00999999999999</ele>
        <time>2023-09-03T09:59:39Z</time>
      </trkpt>
      <trkpt lat="54.655043017119169" lon="-2.743388023227453">
        <ele>140.00999999999999</ele>
        <time>2023-09-03T09:59:40Z</time>
      </trkpt>
      <trkpt lat="54.655098002403975" lon="-2.743251984938979">
        <ele>140.00999999999999</ele>
        <time>2023-09-03T09:59:41Z</time>
      </trkpt>
      <trkpt lat="54.655151981860399" lon="-2.743118964135647">
        <ele>140.00999999999999</ele>
        <time>2023-09-03T09:59:42Z</time>
      </trkpt>
      <trkpt lat="54.655207972973585" lon="-2.742980998009443">
        <ele>140.00999999999999</ele>
        <time>2023-09-03T09:59:43Z</time>
      </trkpt>
      <trkpt lat="54.655331019312143" lon="-2.742612026631832">
        <ele>139.53</ele>
        <time>2023-09-03T09:59:46Z</time>
      </trkpt>
      <trkpt lat="54.655331019312143" lon="-2.742423014715314">
        <ele>139.53</ele>
        <time>2023-09-03T09:59:47Z</time>
      </trkpt>
      <trkpt lat="54.655331019312143" lon="-2.742273984476924">
        <ele>139.53</ele>
        <time>2023-09-03T09:59:48Z</time>
      </trkpt>
      <trkpt lat="54.655331019312143" lon="-2.742111962288618">
        <ele>139.53</ele>
        <time>2023-09-03T09:59:49Z</time>
      </trkpt>
      <trkpt lat="54.655308974906802" lon="-2.741967039182782">
        <ele>139.05000000000001</ele>
        <time>2023-09-03T09:59:50Z</time>
      </trkpt>
      <trkpt lat="54.655283996835351" lon="-2.741768974810839">
        <ele>139.05000000000001</ele>
        <time>2023-09-03T09:59:51Z</time>
      </trkpt>
      <trkpt lat="54.655268993228674" lon="-2.741386005654931">
        <ele>139.05000000000001</ele>
        <time>2023-09-03T09:59:53Z</time>
      </trkpt>
      <trkpt lat="54.655285002663732" lon="-2.741190958768129">
        <ele>139.05000000000001</ele>
        <time>2023-09-03T09:59:54Z</time>
      </trkpt>
      <trkpt lat="54.655310986563563" lon="-2.740999013185501">
        <ele>139.05000000000001</ele>
        <time>2023-09-03T09:59:55Z</time>
      </trkpt>
      <trkpt lat="54.655350968241692" lon="-2.740807989612222">
        <ele>139.05000000000001</ele>
        <time>2023-09-03T09:59:56Z</time>
      </trkpt>
      <trkpt lat="54.655425986275077" lon="-2.740641022101045">
        <ele>139.05000000000001</ele>
        <time>2023-09-03T09:59:57Z</time>
      </trkpt>
      <trkpt lat="54.655508967116475" lon="-2.740457039326429">
        <ele>139.53</ele>
        <time>2023-09-03T09:59:58Z</time>
      </trkpt>
      <trkpt lat="54.655596977099776" lon="-2.740260986611247">
        <ele>139.53</ele>
        <time>2023-09-03T09:59:59Z</time>
      </trkpt>
      <trkpt lat="54.656351013109088" lon="-2.738520987331867">
        <ele>138.09</ele>
        <time>2023-09-03T10:00:06Z</time>
      </trkpt>
      <trkpt lat="54.657132038846612" lon="-2.73581899702549">
        <ele>132.80000000000001</ele>
        <time>2023-09-03T10:00:14Z</time>
      </trkpt>
      <trkpt lat="54.65749204158783" lon="-2.732954984530807">
        <ele>127.03</ele>
        <time>2023-09-03T10:00:21Z</time>
      </trkpt>
      <trkpt lat="54.657612992450595" lon="-2.728587007150054">
        <ele>121.73999999999999</ele>
        <time>2023-09-03T10:00:31Z</time>
      </trkpt>
      <trkpt lat="54.657268999144435" lon="-2.723869001492858">
        <ele>116.94</ele>
        <time>2023-09-03T10:00:41Z</time>
      </trkpt>
      <trkpt lat="54.656456038355827" lon="-2.71931704133749">
        <ele>116.94</ele>
        <time>2023-09-03T10:00:51Z</time>
      </trkpt>
      <trkpt lat="54.65513102710247" lon="-2.714588977396488">
        <ele>118.86</ele>
        <time>2023-09-03T10:01:02Z</time>
      </trkpt>
      <trkpt lat="54.654328040778637" lon="-2.711049970239401">
        <ele>121.26000000000001</ele>
        <time>2023-09-03T10:01:10Z</time>
      </trkpt>
      <trkpt lat="54.654034003615379" lon="-2.707895021885634">
        <ele>121.73999999999999</ele>
        <time>2023-09-03T10:01:17Z</time>
      </trkpt>
      <trkpt lat="54.653877010568976" lon="-2.704959008842707">
        <ele>121.26000000000001</ele>
        <time>2023-09-03T10:01:25Z</time>
      </trkpt>
      <trkpt lat="54.65377701446414" lon="-2.700272016227245">
        <ele>114.53</ele>
        <time>2023-09-03T10:01:37Z</time>
      </trkpt>
      <trkpt lat="54.653618009760976" lon="-2.693848963826895">
        <ele>116.94</ele>
        <time>2023-09-03T10:01:54Z</time>
      </trkpt>
      <trkpt lat="54.653494041413069" lon="-2.688787970691919">
        <ele>117.90000000000001</ele>
        <time>2023-09-03T10:02:07Z</time>
      </trkpt>
      <trkpt lat="54.653370995074511" lon="-2.683787997812033">
        <ele>121.73999999999999</ele>
        <time>2023-09-03T10:02:20Z</time>
      </trkpt>
      <trkpt lat="54.65326395817101" lon="-2.679404010996223">
        <ele>129.43000000000001</ele>
        <time>2023-09-03T10:02:32Z</time>
      </trkpt>
      <trkpt lat="54.653143007308245" lon="-2.67445701174438">
        <ele>134.72</ele>
        <time>2023-09-03T10:02:44Z</time>
      </trkpt>
      <trkpt lat="54.653050974011421" lon="-2.670724969357252">
        <ele>137.61000000000001</ele>
        <time>2023-09-03T10:02:53Z</time>
      </trkpt>
      <trkpt lat="54.652945026755333" lon="-2.666158005595207">
        <ele>136.63999999999999</ele>
        <time>2023-09-03T10:03:05Z</time>
      </trkpt>
      <trkpt lat="54.652832960709929" lon="-2.661825986579061">
        <ele>137.61000000000001</ele>
        <time>2023-09-03T10:03:16Z</time>
      </trkpt>
      <trkpt lat="54.652544958516955" lon="-2.656079018488526">
        <ele>139.05000000000001</ele>
        <time>2023-09-03T10:03:31Z</time>
      </trkpt>
      <trkpt lat="54.652287969365716" lon="-2.651803996413946">
        <ele>136.16</ele>
        <time>2023-09-03T10:03:43Z</time>
      </trkpt>
      <trkpt lat="54.652053024619818" lon="-2.648034989833832">
        <ele>130.88</ele>
        <time>2023-09-03T10:03:53Z</time>
      </trkpt>
      <trkpt lat="54.651728980243206" lon="-2.644103961065412">
        <ele>129.43000000000001</ele>
        <time>2023-09-03T10:04:04Z</time>
      </trkpt>
      <trkpt lat="54.651389010250568" lon="-2.639446975663304">
        <ele>129.91999999999999</ele>
        <time>2023-09-03T10:04:16Z</time>
      </trkpt>
      <trkpt lat="54.651164039969444" lon="-2.635699007660151">
        <ele>126.06999999999999</ele>
        <time>2023-09-03T10:04:25Z</time>
      </trkpt>
      <trkpt lat="54.65062097646296" lon="-2.63135701417923">
        <ele>119.34</ele>
        <time>2023-09-03T10:04:35Z</time>
      </trkpt>
      <trkpt lat="54.649752024561167" lon="-2.62819997034967">
        <ele>116.45999999999999</ele>
        <time>2023-09-03T10:04:43Z</time>
      </trkpt>
      <trkpt lat="54.648938979953527" lon="-2.626127041876316">
        <ele>114.05</ele>
        <time>2023-09-03T10:04:50Z</time>
      </trkpt>
      <trkpt lat="54.648787016049027" lon="-2.625798974186182">
        <ele>113.09</ele>
        <time>2023-09-03T10:04:52Z</time>
      </trkpt>
      <trkpt lat="54.648850969970226" lon="-2.625667965039611">
        <ele>112.61</ele>
        <time>2023-09-03T10:04:53Z</time>
      </trkpt>
      <trkpt lat="54.64887703768909" lon="-2.625567968934774">
        <ele>111.65000000000001</ele>
        <time>2023-09-03T10:04:54Z</time>
      </trkpt>
      <trkpt lat="54.648935962468386" lon="-2.625346016138792">
        <ele>110.69</ele>
        <time>2023-09-03T10:04:55Z</time>
      </trkpt>
      <trkpt lat="54.648967981338501" lon="-2.625316008925438">
        <ele>109.73</ele>
        <time>2023-09-03T10:04:56Z</time>
      </trkpt>
      <trkpt lat="54.649067977443337" lon="-2.625220036134124">
        <ele>109.25</ele>
        <time>2023-09-03T10:04:57Z</time>
      </trkpt>
      <trkpt lat="54.649798041209579" lon="-2.62465400621295">
        <ele>102.04000000000001</ele>
        <time>2023-09-03T10:05:04Z</time>
      </trkpt>
      <trkpt lat="54.64999501593411" lon="-2.624530959874392">
        <ele>98.189999999999998</ele>
        <time>2023-09-03T10:05:10Z</time>
      </trkpt>
      <trkpt lat="54.6500179823488" lon="-2.624459965154529">
        <ele>97.709999999999994</ele>
        <time>2023-09-03T10:05:11Z</time>
      </trkpt>
      <trkpt lat="54.649989986792207" lon="-2.624352006241679">
        <ele>97.230000000000004</ele>
        <time>2023-09-03T10:05:12Z</time>
      </trkpt>
      <trkpt lat="54.649954028427601" lon="-2.624212028458715">
        <ele>96.75</ele>
        <time>2023-09-03T10:05:13Z</time>
      </trkpt>
      <trkpt lat="54.649911029264331" lon="-2.624043971300125">
        <ele>96.75</ele>
        <time>2023-09-03T10:05:14Z</time>
      </trkpt>
      <trkpt lat="54.649403002113104" lon="-2.622745027765632">
        <ele>96.75</ele>
        <time>2023-09-03T10:05:20Z</time>
      </trkpt>
      <trkpt lat="54.648546036332846" lon="-2.620245963335037">
        <ele>97.230000000000004</ele>
        <time>2023-09-03T10:05:28Z</time>
      </trkpt>
      <trkpt lat="54.647502992302179" lon="-2.616551974788308">
        <ele>97.230000000000004</ele>
        <time>2023-09-03T10:05:38Z</time>
      </trkpt>
      <trkpt lat="54.646706962957978" lon="-2.613887032493949">
        <ele>96.269999999999996</ele>
        <time>2023-09-03T10:05:46Z</time>
      </trkpt>
      <trkpt lat="54.646370010450482" lon="-2.613228969275951">
        <ele>96.269999999999996</ele>
        <time>2023-09-03T10:05:49Z</time>
      </trkpt>
      <trkpt lat="54.646229026839137" lon="-2.613058984279633">
        <ele>96.269999999999996</ele>
        <time>2023-09-03T10:05:50Z</time>
      </trkpt>
      <trkpt lat="54.644715003669262" lon="-2.611417975276709">
        <ele>100.11</ele>
        <time>2023-09-03T10:05:59Z</time>
      </trkpt>
      <trkpt lat="54.643683023750782" lon="-2.610476016998291">
        <ele>103</ele>
        <time>2023-09-03T10:06:05Z</time>
      </trkpt>
      <trkpt lat="54.641963979229331" lon="-2.608978003263474">
        <ele>107.31999999999999</ele>
        <time>2023-09-03T10:06:16Z</time>
      </trkpt>
      <trkpt lat="54.640721026808023" lon="-2.607862036675215">
        <ele>108.29000000000001</ele>
        <time>2023-09-03T10:06:26Z</time>
      </trkpt>
      <trkpt lat="54.639056967571378" lon="-2.606468964368105">
        <ele>109.73</ele>
        <time>2023-09-03T10:06:39Z</time>
      </trkpt>
      <trkpt lat="54.638226991519332" lon="-2.605470009148121">
        <ele>108.77</ele>
        <time>2023-09-03T10:06:47Z</time>
      </trkpt>
      <trkpt lat="54.638143004849553" lon="-2.605312010273337">
        <ele>108.29000000000001</ele>
        <time>2023-09-03T10:06:48Z</time>
      </trkpt>
      <trkpt lat="54.637586027383804" lon="-2.604080960154533">
        <ele>106.84</ele>
        <time>2023-09-03T10:06:56Z</time>
      </trkpt>
      <trkpt lat="54.636768959462643" lon="-2.602972034364939">
        <ele>108.29000000000001</ele>
        <time>2023-09-03T10:07:06Z</time>
      </trkpt>
      <trkpt lat="54.635394997894764" lon="-2.601146958768368">
        <ele>109.25</ele>
        <time>2023-09-03T10:07:21Z</time>
      </trkpt>
      <trkpt lat="54.63491597212851" lon="-2.600437011569738">
        <ele>111.65000000000001</ele>
        <time>2023-09-03T10:07:28Z</time>
      </trkpt>
      <trkpt lat="54.634885964915156" lon="-2.600383032113314">
        <ele>112.13</ele>
        <time>2023-09-03T10:07:29Z</time>
      </trkpt>
      <trkpt lat="54.634860986843705" lon="-2.600339027121663">
        <ele>112.13</ele>
        <time>2023-09-03T10:07:30Z</time>
      </trkpt>
      <trkpt lat="54.634841037914157" lon="-2.600302984938026">
        <ele>112.13</ele>
        <time>2023-09-03T10:07:31Z</time>
      </trkpt>
      <trkpt lat="54.634757973253727" lon="-2.600154038518667">
        <ele>112.13</ele>
        <time>2023-09-03T10:07:41Z</time>
      </trkpt>
      <trkpt lat="54.634710028767586" lon="-2.600068962201476">
        <ele>112.13</ele>
        <time>2023-09-03T10:07:42Z</time>
      </trkpt>
      <trkpt lat="54.634640961885452" lon="-2.599857989698649">
        <ele>113.09</ele>
        <time>2023-09-03T10:07:46Z</time>
      </trkpt>
      <trkpt lat="54.634521016851068" lon="-2.599492035806179">
        <ele>113.09</ele>
        <time>2023-09-03T10:07:49Z</time>
      </trkpt>
      <trkpt lat="54.634082978591323" lon="-2.598154032602906">
        <ele>115.5</ele>
        <time>2023-09-03T10:07:57Z</time>
      </trkpt>
      <trkpt lat="54.633643012493849" lon="-2.596765989437699">
        <ele>118.38</ele>
        <time>2023-09-03T10:08:04Z</time>
      </trkpt>
      <trkpt lat="54.63338702917099" lon="-2.595927966758609">
        <ele>120.78</ele>
        <time>2023-09-03T10:08:09Z</time>
      </trkpt>
      <trkpt lat="54.633361967280507" lon="-2.595851020887494">
        <ele>121.26000000000001</ele>
        <time>2023-09-03T10:08:10Z</time>
      </trkpt>
      <trkpt lat="54.633340006694198" lon="-2.595782037824392">
        <ele>121.73999999999999</ele>
        <time>2023-09-03T10:08:11Z</time>
      </trkpt>
      <trkpt lat="54.633320979773998" lon="-2.595724035054445">
        <ele>122.22</ele>
        <time>2023-09-03T10:08:12Z</time>
      </trkpt>
      <trkpt lat="54.633293990045786" lon="-2.595641976222396">
        <ele>124.15000000000001</ele>
        <time>2023-09-03T10:08:19Z</time>
      </trkpt>
      <trkpt lat="54.633293990045786" lon="-2.595641976222396">
        <ele>124.63</ele>
        <time>2023-09-03T10:08:20Z</time>
      </trkpt>
      <trkpt lat="54.633283009752631" lon="-2.595608029514551">
        <ele>124.63</ele>
        <time>2023-09-03T10:08:21Z</time>
      </trkpt>
      <trkpt lat="54.633288038894534" lon="-2.595624038949609">
        <ele>125.11</ele>
        <time>2023-09-03T10:08:22Z</time>
      </trkpt>
      <trkpt lat="54.633294995874166" lon="-2.595644993707538">
        <ele>125.11</ele>
        <time>2023-09-03T10:08:23Z</time>
      </trkpt>
      <trkpt lat="54.633302958682179" lon="-2.595668965950608">
        <ele>125.11</ele>
        <time>2023-09-03T10:08:24Z</time>
      </trkpt>
      <trkpt lat="54.633313016965985" lon="-2.595701990649104">
        <ele>125.59</ele>
        <time>2023-09-03T10:08:25Z</time>
      </trkpt>
      <trkpt lat="54.633326008915901" lon="-2.595741972327232">
        <ele>125.59</ele>
        <time>2023-09-03T10:08:26Z</time>
      </trkpt>
      <trkpt lat="54.633360961452127" lon="-2.595849009230733">
        <ele>126.06999999999999</ele>
        <time>2023-09-03T10:08:36Z</time>
      </trkpt>
      <trkpt lat="54.633508985862136" lon="-2.596327029168606">
        <ele>126.06999999999999</ele>
        <time>2023-09-03T10:08:42Z</time>
      </trkpt>
      <trkpt lat="54.633923973888159" lon="-2.597653968259692">
        <ele>125.59</ele>
        <time>2023-09-03T10:08:53Z</time>
      </trkpt>
      <trkpt lat="54.633950041607022" lon="-2.597737032920122">
        <ele>125.59</ele>
        <time>2023-09-03T10:08:54Z</time>
      </trkpt>
      <trkpt lat="54.633953981101513" lon="-2.597946999594569">
        <ele>125.59</ele>
        <time>2023-09-03T10:08:55Z</time>
      </trkpt>
      <trkpt lat="54.633897989988327" lon="-2.597998967394233">
        <ele>125.59</ele>
        <time>2023-09-03T10:08:56Z</time>
      </trkpt>
      <trkpt lat="54.633818026632071" lon="-2.598072979599237">
        <ele>125.11</ele>
        <time>2023-09-03T10:08:57Z</time>
      </trkpt>
      <trkpt lat="54.633722975850105" lon="-2.5981630012393">
        <ele>125.11</ele>
        <time>2023-09-03T10:08:58Z</time>
      </trkpt>
      <trkpt lat="54.633615016937256" lon="-2.598264003172517">
        <ele>125.11</ele>
        <time>2023-09-03T10:08:59Z</time>
      </trkpt>
      <trkpt lat="54.632727038115263" lon="-2.598909996449947">
        <ele>126.06999999999999</ele>
        <time>2023-09-03T10:09:06Z</time>
      </trkpt>
      <trkpt lat="54.632612960413098" lon="-2.598909996449947">
        <ele>126.06999999999999</ele>
        <time>2023-09-03T10:09:07Z</time>
      </trkpt>
      <trkpt lat="54.632515981793404" lon="-2.598884012550116">
        <ele>126.06999999999999</ele>
        <time>2023-09-03T10:09:08Z</time>
      </trkpt>
      <trkpt lat="54.632417997345328" lon="-2.598794996738434">
        <ele>126.55</ele>
        <time>2023-09-03T10:09:09Z</time>
      </trkpt>
      <trkpt lat="54.632342979311943" lon="-2.598655018955469">
        <ele>126.55</ele>
        <time>2023-09-03T10:09:10Z</time>
      </trkpt>
      <trkpt lat="54.632275002077222" lon="-2.598432982340455">
        <ele>126.55</ele>
        <time>2023-09-03T10:09:11Z</time>
      </trkpt>
      <trkpt lat="54.63222898542881" lon="-2.598204994574189">
        <ele>126.55</ele>
        <time>2023-09-03T10:09:12Z</time>
      </trkpt>
      <trkpt lat="54.631817014887929" lon="-2.596203982830048">
        <ele>127.51000000000001</ele>
        <time>2023-09-03T10:09:19Z</time>
      </trkpt>
      <trkpt lat="54.631215026602149" lon="-2.59309496730566">
        <ele>129.43000000000001</ele>
        <time>2023-09-03T10:09:27Z</time>
      </trkpt>
      <trkpt lat="54.63008196093142" lon="-2.58748303167522">
        <ele>133.28</ele>
        <time>2023-09-03T10:09:40Z</time>
      </trkpt>
      <trkpt lat="54.628944033756852" lon="-2.583898007869721">
        <ele>132.80000000000001</ele>
        <time>2023-09-03T10:09:50Z</time>
      </trkpt>
      <trkpt lat="54.627754976972938" lon="-2.580753033980727">
        <ele>127.51000000000001</ele>
        <time>2023-09-03T10:10:01Z</time>
      </trkpt>
      <trkpt lat="54.626634987071157" lon="-2.5779880117625">
        <ele>122.70999999999999</ele>
        <time>2023-09-03T10:10:12Z</time>
      </trkpt>
      <trkpt lat="54.626182029023767" lon="-2.576844971626997">
        <ele>122.70999999999999</ele>
        <time>2023-09-03T10:10:18Z</time>
      </trkpt>
      <trkpt lat="54.625206040218472" lon="-2.574381027370691">
        <ele>120.3</ele>
        <time>2023-09-03T10:10:30Z</time>
      </trkpt>
      <trkpt lat="54.62397800758481" lon="-2.571527995169163">
        <ele>112.61</ele>
        <time>2023-09-03T10:10:45Z</time>
      </trkpt>
      <trkpt lat="54.623100003227592" lon="-2.569326991215348">
        <ele>112.61</ele>
        <time>2023-09-03T10:10:56Z</time>
      </trkpt>
      <trkpt lat="54.622133988887072" lon="-2.567277029156685">
        <ele>114.05</ele>
        <time>2023-09-03T10:11:08Z</time>
      </trkpt>
      <trkpt lat="54.621697962284088" lon="-2.56647395901382">
        <ele>111.17</ele>
        <time>2023-09-03T10:11:13Z</time>
      </trkpt>
      <trkpt lat="54.621073007583618" lon="-2.564879972487688">
        <ele>108.77</ele>
        <time>2023-09-03T10:11:21Z</time>
      </trkpt>
      <trkpt lat="54.620527010411024" lon="-2.563451025635004">
        <ele>109.73</ele>
        <time>2023-09-03T10:11:29Z</time>
      </trkpt>
      <trkpt lat="54.620315032079816" lon="-2.562897987663746">
        <ele>110.20999999999999</ele>
        <time>2023-09-03T10:11:35Z</time>
      </trkpt>
      <trkpt lat="54.620315032079816" lon="-2.562897987663746">
        <ele>110.69</ele>
        <time>2023-09-03T10:11:38Z</time>
      </trkpt>
      <trkpt lat="54.620292987674475" lon="-2.562839984893799">
        <ele>110.69</ele>
        <time>2023-09-03T10:11:39Z</time>
      </trkpt>
      <trkpt lat="54.620281001552939" lon="-2.562808971852064">
        <ele>111.17</ele>
        <time>2023-09-03T10:11:40Z</time>
      </trkpt>
      <trkpt lat="54.620269015431404" lon="-2.5627760309726">
        <ele>111.17</ele>
        <time>2023-09-03T10:11:41Z</time>
      </trkpt>
      <trkpt lat="54.620258035138249" lon="-2.562748035416007">
        <ele>111.17</ele>
        <time>2023-09-03T10:11:42Z</time>
      </trkpt>
      <trkpt lat="54.620189974084496" lon="-2.562571009621024">
        <ele>111.17</ele>
        <time>2023-09-03T10:11:50Z</time>
      </trkpt>
      <trkpt lat="54.620189974084496" lon="-2.562571009621024">
        <ele>111.17</ele>
        <time>2023-09-03T10:12:28Z</time>
      </trkpt>
      <trkpt lat="54.620033986866474" lon="-2.562662037089467">
        <ele>112.61</ele>
        <time>2023-09-03T10:16:58Z</time>
      </trkpt>
      <trkpt lat="54.620023006573319" lon="-2.562704030424357">
        <ele>117.90000000000001</ele>
        <time>2023-09-03T10:17:40Z</time>
      </trkpt>
      <trkpt lat="54.620023006573319" lon="-2.562732025980949">
        <ele>116.45999999999999</ele>
        <time>2023-09-03T10:18:00Z</time>
      </trkpt>
      <trkpt lat="54.620100036263466" lon="-2.562890024855733">
        <ele>115.01000000000001</ele>
        <time>2023-09-03T10:18:15Z</time>
      </trkpt>
      <trkpt lat="54.620176982134581" lon="-2.562908967956901">
        <ele>114.53</ele>
        <time>2023-09-03T10:18:29Z</time>
      </trkpt>
      <trkpt lat="54.620163990184665" lon="-2.562918020412326">
        <ele>115.01000000000001</ele>
        <time>2023-09-03T10:19:11Z</time>
      </trkpt>
      <trkpt lat="54.620140017941594" lon="-2.562964037060738">
        <ele>105.88</ele>
        <time>2023-09-03T10:32:00Z</time>
      </trkpt>
      <trkpt lat="54.620215035974979" lon="-2.562906034290791">
        <ele>114.53</ele>
        <time>2023-09-03T10:32:12Z</time>
      </trkpt>
      <trkpt lat="54.620240014046431" lon="-2.562859011813998">
        <ele>115.5</ele>
        <time>2023-09-03T10:32:38Z</time>
      </trkpt>
      <trkpt lat="54.62028200738132" lon="-2.562831016257405">
        <ele>115.01000000000001</ele>
        <time>2023-09-03T10:33:10Z</time>
      </trkpt>
      <trkpt lat="54.620228027924895" lon="-2.562671005725861">
        <ele>115.01000000000001</ele>
        <time>2023-09-03T10:33:14Z</time>
      </trkpt>
      <trkpt lat="54.620186034590006" lon="-2.562560029327869">
        <ele>115.01000000000001</ele>
        <time>2023-09-03T10:33:15Z</time>
      </trkpt>
      <trkpt lat="54.620135994628072" lon="-2.562442012131214">
        <ele>115.01000000000001</ele>
        <time>2023-09-03T10:33:16Z</time>
      </trkpt>
      <trkpt lat="54.619555966928601" lon="-2.561210040003061">
        <ele>114.05</ele>
        <time>2023-09-03T10:33:23Z</time>
      </trkpt>
      <trkpt lat="54.618557011708617" lon="-2.559091011062264">
        <ele>117.42</ele>
        <time>2023-09-03T10:33:31Z</time>
      </trkpt>
      <trkpt lat="54.617565013468266" lon="-2.556574009358883">
        <ele>121.26000000000001</ele>
        <time>2023-09-03T10:33:38Z</time>
      </trkpt>
      <trkpt lat="54.616140006110072" lon="-2.553719971328974">
        <ele>123.19</ele>
        <time>2023-09-03T10:33:47Z</time>
      </trkpt>
      <trkpt lat="54.614421967417002" lon="-2.550869034603238">
        <ele>124.15000000000001</ele>
        <time>2023-09-03T10:33:57Z</time>
      </trkpt>
      <trkpt lat="54.612847007811069" lon="-2.547746021300554">
        <ele>127.03</ele>
        <time>2023-09-03T10:34:07Z</time>
      </trkpt>
      <trkpt lat="54.611291997134686" lon="-2.545218039304018">
        <ele>127.03</ele>
        <time>2023-09-03T10:34:16Z</time>
      </trkpt>
      <trkpt lat="54.609844023361802" lon="-2.543819015845656">
        <ele>128.94999999999999</ele>
        <time>2023-09-03T10:34:23Z</time>
      </trkpt>
      <trkpt lat="54.606943968683481" lon="-2.540889959782362">
        <ele>129.91999999999999</ele>
        <time>2023-09-03T10:34:37Z</time>
      </trkpt>
      <trkpt lat="54.605421982705593" lon="-2.539511974900961">
        <ele>127.98999999999999</ele>
        <time>2023-09-03T10:34:45Z</time>
      </trkpt>
      <trkpt lat="54.603520967066288" lon="-2.538500027731061">
        <ele>131.36000000000001</ele>
        <time>2023-09-03T10:34:54Z</time>
      </trkpt>
      <trkpt lat="54.60101000033319" lon="-2.537309965118766">
        <ele>136.16</ele>
        <time>2023-09-03T10:35:06Z</time>
      </trkpt>
      <trkpt lat="54.599108984693885" lon="-2.535988977178931">
        <ele>138.09</ele>
        <time>2023-09-03T10:35:15Z</time>
      </trkpt>
      <trkpt lat="54.596607992425561" lon="-2.533520003780723">
        <ele>147.22</ele>
        <time>2023-09-03T10:35:28Z</time>
      </trkpt>
      <trkpt lat="54.594850977882743" lon="-2.531280023977161">
        <ele>155.87</ele>
        <time>2023-09-03T10:35:38Z</time>
      </trkpt>
      <trkpt lat="54.593135034665465" lon="-2.528102025389671">
        <ele>157.31</ele>
        <time>2023-09-03T10:35:49Z</time>
      </trkpt>
      <trkpt lat="54.592039017006755" lon="-2.52519903704524">
        <ele>153.47</ele>
        <time>2023-09-03T10:35:58Z</time>
      </trkpt>
      <trkpt lat="54.591070991009474" lon="-2.52146297134459">
        <ele>152.50999999999999</ele>
        <time>2023-09-03T10:36:09Z</time>
      </trkpt>
      <trkpt lat="54.590537985786796" lon="-2.518056984990835">
        <ele>158.75</ele>
        <time>2023-09-03T10:36:18Z</time>
      </trkpt>
      <trkpt lat="54.590154010802507" lon="-2.513816999271512">
        <ele>159.24000000000001</ele>
        <time>2023-09-03T10:36:29Z</time>
      </trkpt>
      <trkpt lat="54.589656963944435" lon="-2.509690001606941">
        <ele>158.75</ele>
        <time>2023-09-03T10:36:40Z</time>
      </trkpt>
      <trkpt lat="54.588888008147478" lon="-2.504894966259599">
        <ele>158.75</ele>
        <time>2023-09-03T10:36:52Z</time>
      </trkpt>
      <trkpt lat="54.587625022977591" lon="-2.497835978865624">
        <ele>165</ele>
        <time>2023-09-03T10:37:10Z</time>
      </trkpt>
      <trkpt lat="54.586693039163947" lon="-2.493898998945952">
        <ele>173.16999999999999</ele>
        <time>2023-09-03T10:37:20Z</time>
      </trkpt>
      <trkpt lat="54.585269037634134" lon="-2.489863028749824">
        <ele>181.83000000000001</ele>
        <time>2023-09-03T10:37:30Z</time>
      </trkpt>
      <trkpt lat="54.582781037315726" lon="-2.483554976060987">
        <ele>186.63</ele>
        <time>2023-09-03T10:37:46Z</time>
      </trkpt>
      <trkpt lat="54.580869041383266" lon="-2.478904025629163">
        <ele>188.56</ele>
        <time>2023-09-03T10:37:58Z</time>
      </trkpt>
      <trkpt lat="54.578740959987044" lon="-2.473937999457121">
        <ele>191.91999999999999</ele>
        <time>2023-09-03T10:38:11Z</time>
      </trkpt>
      <trkpt lat="54.577128030359745" lon="-2.470665033906698">
        <ele>193.84</ele>
        <time>2023-09-03T10:38:20Z</time>
      </trkpt>
      <trkpt lat="54.574526958167553" lon="-2.466378025710583">
        <ele>190</ele>
        <time>2023-09-03T10:38:33Z</time>
      </trkpt>
      <trkpt lat="54.571588011458516" lon="-2.462080037221313">
        <ele>181.34999999999999</ele>
        <time>2023-09-03T10:38:47Z</time>
      </trkpt>
      <trkpt lat="54.567790003493428" lon="-2.456545969471335">
        <ele>168.37</ele>
        <time>2023-09-03T10:39:05Z</time>
      </trkpt>
      <trkpt lat="54.565331004559994" lon="-2.452749973163009">
        <ele>161.63999999999999</ele>
        <time>2023-09-03T10:39:17Z</time>
      </trkpt>
      <trkpt lat="54.563573990017176" lon="-2.449107030406594">
        <ele>160.19999999999999</ele>
        <time>2023-09-03T10:39:27Z</time>
      </trkpt>
      <trkpt lat="54.562029959633946" lon="-2.444622041657567">
        <ele>164.03999999999999</ele>
        <time>2023-09-03T10:39:38Z</time>
      </trkpt>
      <trkpt lat="54.560705032199621" lon="-2.441591983661056">
        <ele>170.77000000000001</ele>
        <time>2023-09-03T10:39:46Z</time>
      </trkpt>
      <trkpt lat="54.558716006577015" lon="-2.438394958153367">
        <ele>172.69</ele>
        <time>2023-09-03T10:39:56Z</time>
      </trkpt>
      <trkpt lat="54.557168958708644" lon="-2.435711994767189">
        <ele>167.88999999999999</ele>
        <time>2023-09-03T10:40:05Z</time>
      </trkpt>
      <trkpt lat="54.555790973827243" lon="-2.433055015280843">
        <ele>164.03999999999999</ele>
        <time>2023-09-03T10:40:14Z</time>
      </trkpt>
      <trkpt lat="54.554459005594254" lon="-2.430392000824213">
        <ele>162.59999999999999</ele>
        <time>2023-09-03T10:40:23Z</time>
      </trkpt>
      <trkpt lat="54.55292503349483" lon="-2.426725002005696">
        <ele>163.56</ele>
        <time>2023-09-03T10:40:35Z</time>
      </trkpt>
      <trkpt lat="54.551420984789729" lon="-2.422235989943147">
        <ele>167.88999999999999</ele>
        <time>2023-09-03T10:40:49Z</time>
      </trkpt>
      <trkpt lat="54.550006035715342" lon="-2.417887039482594">
        <ele>171.25</ele>
        <time>2023-09-03T10:41:02Z</time>
      </trkpt>
      <trkpt lat="54.549031974747777" lon="-2.41482999175787">
        <ele>171.25</ele>
        <time>2023-09-03T10:41:12Z</time>
      </trkpt>
      <trkpt lat="54.547515017911792" lon="-2.410136964172125">
        <ele>160.19999999999999</ele>
        <time>2023-09-03T10:41:28Z</time>
      </trkpt>
      <trkpt lat="54.546229988336563" lon="-2.406457979232073">
        <ele>160.68000000000001</ele>
        <time>2023-09-03T10:41:41Z</time>
      </trkpt>
      <trkpt lat="54.545378973707557" lon="-2.403870988637209">
        <ele>167.41</ele>
        <time>2023-09-03T10:41:51Z</time>
      </trkpt>
      <trkpt lat="54.544432992115617" lon="-2.401275029405952">
        <ele>171.25</ele>
        <time>2023-09-03T10:42:01Z</time>
      </trkpt>
      <trkpt lat="54.544090004637837" lon="-2.399783972650766">
        <ele>169.81</ele>
        <time>2023-09-03T10:42:07Z</time>
      </trkpt>
      <trkpt lat="54.54405102878809" lon="-2.399513991549611">
        <ele>169.33000000000001</ele>
        <time>2023-09-03T10:42:08Z</time>
      </trkpt>
      <trkpt lat="54.54405102878809" lon="-2.399243004620075">
        <ele>168.37</ele>
        <time>2023-09-03T10:42:09Z</time>
      </trkpt>
      <trkpt lat="54.544139038771391" lon="-2.396878972649574">
        <ele>161.16</ele>
        <time>2023-09-03T10:42:17Z</time>
      </trkpt>
      <trkpt lat="54.54398900270462" lon="-2.394786011427641">
        <ele>156.83000000000001</ele>
        <time>2023-09-03T10:42:24Z</time>
      </trkpt>
      <trkpt lat="54.543276038020849" lon="-2.392278984189034">
        <ele>158.75</ele>
        <time>2023-09-03T10:42:33Z</time>
      </trkpt>
      <trkpt lat="54.542381018400192" lon="-2.390002962201834">
        <ele>160.19999999999999</ele>
        <time>2023-09-03T10:42:42Z</time>
      </trkpt>
      <trkpt lat="54.542243974283338" lon="-2.389800036326051">
        <ele>160.19999999999999</ele>
        <time>2023-09-03T10:42:43Z</time>
      </trkpt>
      <trkpt lat="54.542088992893696" lon="-2.389644971117377">
        <ele>160.68000000000001</ele>
        <time>2023-09-03T10:42:44Z</time>
      </trkpt>
      <trkpt lat="54.540567006915808" lon="-2.387983007356525">
        <ele>158.75</ele>
        <time>2023-09-03T10:42:53Z</time>
      </trkpt>
      <trkpt lat="54.539636028930545" lon="-2.386652966961265">
        <ele>157.31</ele>
        <time>2023-09-03T10:42:59Z</time>
      </trkpt>
      <trkpt lat="54.538635984063148" lon="-2.384350039064884">
        <ele>156.34999999999999</ele>
        <time>2023-09-03T10:43:07Z</time>
      </trkpt>
      <trkpt lat="54.537010984495282" lon="-2.380343992263079">
        <ele>154.91</ele>
        <time>2023-09-03T10:43:20Z</time>
      </trkpt>
      <trkpt lat="54.536187965422869" lon="-2.37832697108388">
        <ele>155.87</ele>
        <time>2023-09-03T10:43:25Z</time>
      </trkpt>
      <trkpt lat="54.535194961354136" lon="-2.375860009342432">
        <ele>160.19999999999999</ele>
        <time>2023-09-03T10:43:31Z</time>
      </trkpt>
      <trkpt lat="54.534536981955171" lon="-2.374102994799614">
        <ele>165.47999999999999</ele>
        <time>2023-09-03T10:43:37Z</time>
      </trkpt>
      <trkpt lat="54.533711029216647" lon="-2.371527990326285">
        <ele>168.84999999999999</ele>
        <time>2023-09-03T10:43:46Z</time>
      </trkpt>
      <trkpt lat="54.532783990725875" lon="-2.367914970964193">
        <ele>176.06</ele>
        <time>2023-09-03T10:43:57Z</time>
      </trkpt>
      <trkpt lat="54.53242801129818" lon="-2.365322029218078">
        <ele>177.02000000000001</ele>
        <time>2023-09-03T10:44:05Z</time>
      </trkpt>
      <trkpt lat="54.532165993005037" lon="-2.363081965595484">
        <ele>175.09999999999999</ele>
        <time>2023-09-03T10:44:12Z</time>
      </trkpt>
      <trkpt lat="54.532169010490179" lon="-2.362761022523046">
        <ele>175.09999999999999</ele>
        <time>2023-09-03T10:44:13Z</time>
      </trkpt>
      <trkpt lat="54.532141014933586" lon="-2.359854010865092">
        <ele>177.5</ele>
        <time>2023-09-03T10:44:22Z</time>
      </trkpt>
      <trkpt lat="54.531983016058803" lon="-2.354936012998223">
        <ele>169.33000000000001</ele>
        <time>2023-09-03T10:44:37Z</time>
      </trkpt>
      <trkpt lat="54.532077983021736" lon="-2.351716021075845">
        <ele>158.75</ele>
        <time>2023-09-03T10:44:47Z</time>
      </trkpt>
      <trkpt lat="54.532126011326909" lon="-2.348868018016219">
        <ele>166.44999999999999</ele>
        <time>2023-09-03T10:44:56Z</time>
      </trkpt>
      <trkpt lat="54.532140009105206" lon="-2.348210038617253">
        <ele>169.33000000000001</ele>
        <time>2023-09-03T10:44:58Z</time>
      </trkpt>
      <trkpt lat="54.531993996351957" lon="-2.345245024189353">
        <ele>177.97999999999999</ele>
        <time>2023-09-03T10:45:07Z</time>
      </trkpt>
      <trkpt lat="54.531716974452138" lon="-2.342023020610213">
        <ele>180.38</ele>
        <time>2023-09-03T10:45:17Z</time>
      </trkpt>
      <trkpt lat="54.531339034438133" lon="-2.338820965960622">
        <ele>183.27000000000001</ele>
        <time>2023-09-03T10:45:27Z</time>
      </trkpt>
      <trkpt lat="54.531105011701584" lon="-2.336046975106001">
        <ele>177.5</ele>
        <time>2023-09-03T10:45:35Z</time>
      </trkpt>
      <trkpt lat="54.530509980395436" lon="-2.333426037803292">
        <ele>173.66</ele>
        <time>2023-09-03T10:45:42Z</time>
      </trkpt>
      <trkpt lat="54.529499961063266" lon="-2.331162001937628">
        <ele>176.06</ele>
        <time>2023-09-03T10:45:49Z</time>
      </trkpt>
      <trkpt lat="54.527174988761544" lon="-2.327055959030986">
        <ele>177.5</ele>
        <time>2023-09-03T10:46:02Z</time>
      </trkpt>
      <trkpt lat="54.525496009737253" lon="-2.323333974927664">
        <ele>180.38</ele>
        <time>2023-09-03T10:46:12Z</time>
      </trkpt>
      <trkpt lat="54.524719007313251" lon="-2.320309029892087">
        <ele>185.19</ele>
        <time>2023-09-03T10:46:19Z</time>
      </trkpt>
      <trkpt lat="54.524345006793737" lon="-2.317079985514283">
        <ele>190.96000000000001</ele>
        <time>2023-09-03T10:46:26Z</time>
      </trkpt>
      <trkpt lat="54.524325979873538" lon="-2.314921980723739">
        <ele>194.31999999999999</ele>
        <time>2023-09-03T10:46:32Z</time>
      </trkpt>
      <trkpt lat="54.524433016777039" lon="-2.311375010758638">
        <ele>202.97999999999999</ele>
        <time>2023-09-03T10:46:43Z</time>
      </trkpt>
      <trkpt lat="54.524713978171349" lon="-2.307739024981856">
        <ele>213.06999999999999</ele>
        <time>2023-09-03T10:46:53Z</time>
      </trkpt>
      <trkpt lat="54.525437001138926" lon="-2.304583992809057">
        <ele>224.12</ele>
        <time>2023-09-03T10:47:02Z</time>
      </trkpt>
      <trkpt lat="54.52604996971786" lon="-2.302794037386775">
        <ele>232.30000000000001</ele>
        <time>2023-09-03T10:47:09Z</time>
      </trkpt>
      <trkpt lat="54.526770981028676" lon="-2.300699986517429">
        <ele>240.47</ele>
        <time>2023-09-03T10:47:18Z</time>
      </trkpt>
      <trkpt lat="54.527324018999934" lon="-2.298241993412376">
        <ele>247.19999999999999</ele>
        <time>2023-09-03T10:47:26Z</time>
      </trkpt>
      <trkpt lat="54.527500960975885" lon="-2.295121997594833">
        <ele>252</ele>
        <time>2023-09-03T10:47:35Z</time>
      </trkpt>
      <trkpt lat="54.527140036225319" lon="-2.292316993698478">
        <ele>252.47999999999999</ele>
        <time>2023-09-03T10:47:43Z</time>
      </trkpt>
      <trkpt lat="54.52624199911952" lon="-2.288870019838214">
        <ele>248.63999999999999</ele>
        <time>2023-09-03T10:47:53Z</time>
      </trkpt>
      <trkpt lat="54.52585500665009" lon="-2.285977005958557">
        <ele>248.16</ele>
        <time>2023-09-03T10:48:01Z</time>
      </trkpt>
      <trkpt lat="54.525967994704843" lon="-2.282613012939692">
        <ele>252.47999999999999</ele>
        <time>2023-09-03T10:48:10Z</time>
      </trkpt>
      <trkpt lat="54.526525977998972" lon="-2.279612040147185">
        <ele>257.76999999999998</ele>
        <time>2023-09-03T10:48:17Z</time>
      </trkpt>
      <trkpt lat="54.527899017557502" lon="-2.27388896048069">
        <ele>259.69</ele>
        <time>2023-09-03T10:48:30Z</time>
      </trkpt>
      <trkpt lat="54.528949018567801" lon="-2.270073015242815">
        <ele>269.79000000000002</ele>
        <time>2023-09-03T10:48:39Z</time>
      </trkpt>
      <trkpt lat="54.529858035966754" lon="-2.266120025888085">
        <ele>287.08999999999997</ele>
        <time>2023-09-03T10:48:48Z</time>
      </trkpt>
      <trkpt lat="54.530265983194113" lon="-2.261395985260606">
        <ele>299.11000000000001</ele>
        <time>2023-09-03T10:48:58Z</time>
      </trkpt>
      <trkpt lat="54.530277969315648" lon="-2.255706014111638">
        <ele>304.38999999999999</ele>
        <time>2023-09-03T10:49:10Z</time>
      </trkpt>
      <trkpt lat="54.529891982674599" lon="-2.250518035143614">
        <ele>313.05000000000001</ele>
        <time>2023-09-03T10:49:21Z</time>
      </trkpt>
      <trkpt lat="54.529019007459283" lon="-2.245014980435371">
        <ele>325.06</ele>
        <time>2023-09-03T10:49:33Z</time>
      </trkpt>
      <trkpt lat="54.527727020904422" lon="-2.239240016788244">
        <ele>334.19999999999999</ele>
        <time>2023-09-03T10:49:46Z</time>
      </trkpt>
      <trkpt lat="54.526475016027689" lon="-2.233004970476031">
        <ele>345.25</ele>
        <time>2023-09-03T10:50:00Z</time>
      </trkpt>
      <trkpt lat="54.525515036657453" lon="-2.230159984901547">
        <ele>358.23000000000002</ele>
        <time>2023-09-03T10:50:07Z</time>
      </trkpt>
      <trkpt lat="54.523808984085917" lon="-2.226392989978194">
        <ele>373.13</ele>
        <time>2023-09-03T10:50:17Z</time>
      </trkpt>
      <trkpt lat="54.52153698541224" lon="-2.221539029851556">
        <ele>377.94</ele>
        <time>2023-09-03T10:50:30Z</time>
      </trkpt>
      <trkpt lat="54.519381998106837" lon="-2.21656403504312">
        <ele>373.61000000000001</ele>
        <time>2023-09-03T10:50:43Z</time>
      </trkpt>
      <trkpt lat="54.51704503968358" lon="-2.210136959329248">
        <ele>365.92000000000002</ele>
        <time>2023-09-03T10:50:59Z</time>
      </trkpt>
      <trkpt lat="54.514956017956138" lon="-2.204585960134864">
        <ele>385.63</ele>
        <time>2023-09-03T10:51:13Z</time>
      </trkpt>
      <trkpt lat="54.513001022860408" lon="-2.20055996440351">
        <ele>398.12</ele>
        <time>2023-09-03T10:51:24Z</time>
      </trkpt>
      <trkpt lat="54.511162033304572" lon="-2.197008971124888">
        <ele>404.85000000000002</ele>
        <time>2023-09-03T10:51:34Z</time>
      </trkpt>
      <trkpt lat="54.510243963450193" lon="-2.19409198500216">
        <ele>410.13999999999999</ele>
        <time>2023-09-03T10:51:41Z</time>
      </trkpt>
      <trkpt lat="54.509351039305329" lon="-2.189584029838443">
        <ele>419.75</ele>
        <time>2023-09-03T10:51:51Z</time>
      </trkpt>
      <trkpt lat="54.508532965555787" lon="-2.184063037857413">
        <ele>437.06</ele>
        <time>2023-09-03T10:52:03Z</time>
      </trkpt>
      <trkpt lat="54.508457025513053" lon="-2.18025497160852">
        <ele>442.81999999999999</ele>
        <time>2023-09-03T10:52:11Z</time>
      </trkpt>
      <trkpt lat="54.508287040516734" lon="-2.175509976223111">
        <ele>447.14999999999998</ele>
        <time>2023-09-03T10:52:21Z</time>
      </trkpt>
      <trkpt lat="54.507734002545476" lon="-2.169882031157613">
        <ele>451</ele>
        <time>2023-09-03T10:52:33Z</time>
      </trkpt>
      <trkpt lat="54.506873013451695" lon="-2.164347963407636">
        <ele>446.19</ele>
        <time>2023-09-03T10:52:45Z</time>
      </trkpt>
      <trkpt lat="54.506270019337535" lon="-2.160237981006503">
        <ele>445.70999999999998</ele>
        <time>2023-09-03T10:52:54Z</time>
      </trkpt>
      <trkpt lat="54.505986962467432" lon="-2.155520981177688">
        <ele>450.51999999999998</ele>
        <time>2023-09-03T10:53:04Z</time>
      </trkpt>
      <trkpt lat="54.505678005516529" lon="-2.149328012019396">
        <ele>445.23000000000002</ele>
        <time>2023-09-03T10:53:17Z</time>
      </trkpt>
      <trkpt lat="54.505170984193683" lon="-2.14177499525249">
        <ele>434.17000000000002</ele>
        <time>2023-09-03T10:53:33Z</time>
      </trkpt>
      <trkpt lat="54.505160003900528" lon="-2.13556501083076">
        <ele>421.68000000000001</ele>
        <time>2023-09-03T10:53:46Z</time>
      </trkpt>
      <trkpt lat="54.505595024675131" lon="-2.128971973434091">
        <ele>404.85000000000002</ele>
        <time>2023-09-03T10:54:00Z</time>
      </trkpt>
      <trkpt lat="54.506211010739207" lon="-2.120496025308967">
        <ele>403.41000000000003</ele>
        <time>2023-09-03T10:54:18Z</time>
      </trkpt>
      <trkpt lat="54.506842000409961" lon="-2.11440104059875">
        <ele>403.41000000000003</ele>
        <time>2023-09-03T10:54:31Z</time>
      </trkpt>
      <trkpt lat="54.507577009499073" lon="-2.10881500504911">
        <ele>402.93000000000001</ele>
        <time>2023-09-03T10:54:43Z</time>
      </trkpt>
      <trkpt lat="54.508285028859973" lon="-2.100814981386066">
        <ele>391.38999999999999</ele>
        <time>2023-09-03T10:55:00Z</time>
      </trkpt>
      <trkpt lat="54.508878970518708" lon="-2.09422898478806">
        <ele>387.55000000000001</ele>
        <time>2023-09-03T10:55:14Z</time>
      </trkpt>
      <trkpt lat="54.509602999314666" lon="-2.086240025237203">
        <ele>387.06999999999999</ele>
        <time>2023-09-03T10:55:31Z</time>
      </trkpt>
      <trkpt lat="54.510391987860203" lon="-2.078733025118709">
        <ele>379.86000000000001</ele>
        <time>2023-09-03T10:55:47Z</time>
      </trkpt>
      <trkpt lat="54.511054996401072" lon="-2.072644997388125">
        <ele>371.20999999999998</ele>
        <time>2023-09-03T10:56:00Z</time>
      </trkpt>
      <trkpt lat="54.511422961950302" lon="-2.068420015275478">
        <ele>364.48000000000002</ele>
        <time>2023-09-03T10:56:09Z</time>
      </trkpt>
      <trkpt lat="54.512502970173955" lon="-2.061516009271145">
        <ele>348.62</ele>
        <time>2023-09-03T10:56:24Z</time>
      </trkpt>
      <trkpt lat="54.513067994266748" lon="-2.056846031919122">
        <ele>337.07999999999998</ele>
        <time>2023-09-03T10:56:34Z</time>
      </trkpt>
      <trkpt lat="54.513316014781594" lon="-2.052634041756392">
        <ele>328.43000000000001</ele>
        <time>2023-09-03T10:56:43Z</time>
      </trkpt>
      <trkpt lat="54.51360896229744" lon="-2.046935018151999">
        <ele>327.94999999999999</ele>
        <time>2023-09-03T10:56:55Z</time>
      </trkpt>
      <trkpt lat="54.514054963365197" lon="-2.041256027296186">
        <ele>319.30000000000001</ele>
        <time>2023-09-03T10:57:07Z</time>
      </trkpt>
      <trkpt lat="54.514806987717748" lon="-2.035705028101802">
        <ele>307.75999999999999</ele>
        <time>2023-09-03T10:57:19Z</time>
      </trkpt>
      <trkpt lat="54.515730002894998" lon="-2.029735017567873">
        <ele>306.31999999999999</ele>
        <time>2023-09-03T10:57:32Z</time>
      </trkpt>
      <trkpt lat="54.516962980851531" lon="-2.022405965253711">
        <ele>296.69999999999999</ele>
        <time>2023-09-03T10:57:48Z</time>
      </trkpt>
      <trkpt lat="54.517976017668843" lon="-2.016986981034279">
        <ele>295.74000000000001</ele>
        <time>2023-09-03T10:58:00Z</time>
      </trkpt>
      <trkpt lat="54.51906499452889" lon="-2.010577004402876">
        <ele>300.06999999999999</ele>
        <time>2023-09-03T10:58:14Z</time>
      </trkpt>
      <trkpt lat="54.51930396258831" lon="-2.005855981260538">
        <ele>298.63</ele>
        <time>2023-09-03T10:58:24Z</time>
      </trkpt>
      <trkpt lat="54.519156021997333" lon="-2.002289984375238">
        <ele>295.74000000000001</ele>
        <time>2023-09-03T10:58:32Z</time>
      </trkpt>
      <trkpt lat="54.518773974850774" lon="-1.999400993809104">
        <ele>291.42000000000002</ele>
        <time>2023-09-03T10:58:40Z</time>
      </trkpt>
      <trkpt lat="54.518164023756981" lon="-1.99601897969842">
        <ele>285.17000000000002</ele>
        <time>2023-09-03T10:58:49Z</time>
      </trkpt>
      <trkpt lat="54.517677035182714" lon="-1.992575023323298">
        <ele>278.92000000000002</ele>
        <time>2023-09-03T10:58:58Z</time>
      </trkpt>
      <trkpt lat="54.517487017437816" lon="-1.989502971991897">
        <ele>275.06999999999999</ele>
        <time>2023-09-03T10:59:07Z</time>
      </trkpt>
      <trkpt lat="54.517590031027794" lon="-1.985688032582402">
        <ele>274.11000000000001</ele>
        <time>2023-09-03T10:59:18Z</time>
      </trkpt>
      <trkpt lat="54.517909968271852" lon="-1.982350023463368">
        <ele>273.14999999999998</ele>
        <time>2023-09-03T10:59:27Z</time>
      </trkpt>
      <trkpt lat="54.518281035125256" lon="-1.978246998041868">
        <ele>275.06999999999999</ele>
        <time>2023-09-03T10:59:36Z</time>
      </trkpt>
      <trkpt lat="54.518551016226411" lon="-1.974584022536874">
        <ele>281.80000000000001</ele>
        <time>2023-09-03T10:59:44Z</time>
      </trkpt>
      <trkpt lat="54.518685964867473" lon="-1.967453034594655">
        <ele>299.58999999999997</ele>
        <time>2023-09-03T10:59:59Z</time>
      </trkpt>
      <trkpt lat="54.518762994557619" lon="-1.962665962055326">
        <ele>302.47000000000003</ele>
        <time>2023-09-03T11:00:09Z</time>
      </trkpt>
      <trkpt lat="54.519015038385987" lon="-1.95554000325501">
        <ele>294.30000000000001</ele>
        <time>2023-09-03T11:00:24Z</time>
      </trkpt>
      <trkpt lat="54.519477970898151" lon="-1.947939964011312">
        <ele>282.27999999999997</ele>
        <time>2023-09-03T11:00:40Z</time>
      </trkpt>
      <trkpt lat="54.519733032211661" lon="-1.942710997536779">
        <ele>265.94</ele>
        <time>2023-09-03T11:00:51Z</time>
      </trkpt>
      <trkpt lat="54.519720040261745" lon="-1.937009962275624">
        <ele>241.91</ele>
        <time>2023-09-03T11:01:03Z</time>
      </trkpt>
      <trkpt lat="54.519642004743218" lon="-1.929420987144113">
        <ele>220.75999999999999</ele>
        <time>2023-09-03T11:01:19Z</time>
      </trkpt>
      <trkpt lat="54.519556006416678" lon="-1.923968978226185">
        <ele>211.63</ele>
        <time>2023-09-03T11:01:31Z</time>
      </trkpt>
      <trkpt lat="54.519547037780285" lon="-1.922738011926413">
        <ele>208.74000000000001</ele>
        <time>2023-09-03T11:01:36Z</time>
      </trkpt>
      <trkpt lat="54.519506972283125" lon="-1.919911969453096">
        <ele>205.38</ele>
        <time>2023-09-03T11:01:50Z</time>
      </trkpt>
      <trkpt lat="54.51947595924139" lon="-1.917696967720985">
        <ele>204.90000000000001</ele>
        <time>2023-09-03T11:02:02Z</time>
      </trkpt>
      <trkpt lat="54.519447041675448" lon="-1.915324972942472">
        <ele>203.46000000000001</ele>
        <time>2023-09-03T11:02:15Z</time>
      </trkpt>
      <trkpt lat="54.519433965906501" lon="-1.914402041584253">
        <ele>202.49000000000001</ele>
        <time>2023-09-03T11:02:22Z</time>
      </trkpt>
      <trkpt lat="54.519414016976953" lon="-1.913084993138909">
        <ele>199.61000000000001</ele>
        <time>2023-09-03T11:02:28Z</time>
      </trkpt>
      <trkpt lat="54.519377974793315" lon="-1.910573020577431">
        <ele>196.25</ele>
        <time>2023-09-03T11:02:36Z</time>
      </trkpt>
      <trkpt lat="54.519325001165271" lon="-1.906886994838715">
        <ele>192.40000000000001</ele>
        <time>2023-09-03T11:02:46Z</time>
      </trkpt>
      <trkpt lat="54.519264986738563" lon="-1.902767959982157">
        <ele>195.77000000000001</ele>
        <time>2023-09-03T11:02:57Z</time>
      </trkpt>
      <trkpt lat="54.519208995625377" lon="-1.898696031421423">
        <ele>195.28</ele>
        <time>2023-09-03T11:03:08Z</time>
      </trkpt>
      <trkpt lat="54.51915199868381" lon="-1.894872039556503">
        <ele>189.03999999999999</ele>
        <time>2023-09-03T11:03:18Z</time>
      </trkpt>
      <trkpt lat="54.519125008955598" lon="-1.892313966527581">
        <ele>184.71000000000001</ele>
        <time>2023-09-03T11:03:26Z</time>
      </trkpt>
      <trkpt lat="54.519110005348921" lon="-1.890503978356719">
        <ele>182.31</ele>
        <time>2023-09-03T11:03:35Z</time>
      </trkpt>
      <trkpt lat="54.519087038934231" lon="-1.888473965227604">
        <ele>180.38</ele>
        <time>2023-09-03T11:03:46Z</time>
      </trkpt>
      <trkpt lat="54.519020989537239" lon="-1.885723024606705">
        <ele>175.09999999999999</ele>
        <time>2023-09-03T11:03:57Z</time>
      </trkpt>
      <trkpt lat="54.518946977332234" lon="-1.88264099881053">
        <ele>165.47999999999999</ele>
        <time>2023-09-03T11:04:08Z</time>
      </trkpt>
      <trkpt lat="54.518920993432403" lon="-1.879072990268469">
        <ele>158.27000000000001</ele>
        <time>2023-09-03T11:04:19Z</time>
      </trkpt>
      <trkpt lat="54.518585968762636" lon="-1.876151980832219">
        <ele>155.38999999999999</ele>
        <time>2023-09-03T11:04:27Z</time>
      </trkpt>
      <trkpt lat="54.517824975773692" lon="-1.873088981956244">
        <ele>149.13999999999999</ele>
        <time>2023-09-03T11:04:34Z</time>
      </trkpt>
      <trkpt lat="54.516190001741052" lon="-1.869267001748085">
        <ele>137.61000000000001</ele>
        <time>2023-09-03T11:04:44Z</time>
      </trkpt>
      <trkpt lat="54.514709003269672" lon="-1.866371976211667">
        <ele>133.28</ele>
        <time>2023-09-03T11:04:53Z</time>
      </trkpt>
      <trkpt lat="54.513518018648028" lon="-1.86427298001945">
        <ele>133.28</ele>
        <time>2023-09-03T11:05:03Z</time>
      </trkpt>
      <trkpt lat="54.512659963220358" lon="-1.862814025953412">
        <ele>133.28</ele>
        <time>2023-09-03T11:05:08Z</time>
      </trkpt>
      <trkpt lat="54.510102979838848" lon="-1.858463985845447">
        <ele>134.72</ele>
        <time>2023-09-03T11:05:21Z</time>
      </trkpt>
      <trkpt lat="54.508808981627226" lon="-1.855402998626232">
        <ele>137.61000000000001</ele>
        <time>2023-09-03T11:05:29Z</time>
      </trkpt>
      <trkpt lat="54.507079962641001" lon="-1.850554989650846">
        <ele>151.06</ele>
        <time>2023-09-03T11:05:41Z</time>
      </trkpt>
      <trkpt lat="54.505170984193683" lon="-1.845848970115185">
        <ele>158.75</ele>
        <time>2023-09-03T11:05:53Z</time>
      </trkpt>
      <trkpt lat="54.502664962783456" lon="-1.840738020837307">
        <ele>155.38999999999999</ele>
        <time>2023-09-03T11:06:07Z</time>
      </trkpt>
      <trkpt lat="54.499918967485428" lon="-1.836055973544717">
        <ele>149.62</ele>
        <time>2023-09-03T11:06:21Z</time>
      </trkpt>
      <trkpt lat="54.49764596298337" lon="-1.831973986700177">
        <ele>145.78</ele>
        <time>2023-09-03T11:06:33Z</time>
      </trkpt>
      <trkpt lat="54.497035006061196" lon="-1.829341985285282">
        <ele>144.81999999999999</ele>
        <time>2023-09-03T11:06:39Z</time>
      </trkpt>
      <trkpt lat="54.496080977842212" lon="-1.824893038719893">
        <ele>147.22</ele>
        <time>2023-09-03T11:06:49Z</time>
      </trkpt>
      <trkpt lat="54.494576007127762" lon="-1.820817003026605">
        <ele>145.78</ele>
        <time>2023-09-03T11:06:59Z</time>
      </trkpt>
      <trkpt lat="54.49354000389576" lon="-1.818183995783329">
        <ele>147.22</ele>
        <time>2023-09-03T11:07:05Z</time>
      </trkpt>
      <trkpt lat="54.492150032892823" lon="-1.814202005043626">
        <ele>162.12</ele>
        <time>2023-09-03T11:07:15Z</time>
      </trkpt>
      <trkpt lat="54.491373030468822" lon="-1.812008041888475">
        <ele>167.41</ele>
        <time>2023-09-03T11:07:22Z</time>
      </trkpt>
      <trkpt lat="54.490870032459497" lon="-1.810612035915256">
        <ele>168.37</ele>
        <time>2023-09-03T11:07:29Z</time>
      </trkpt>
      <trkpt lat="54.490066040307283" lon="-1.808398040011525">
        <ele>170.77000000000001</ele>
        <time>2023-09-03T11:07:40Z</time>
      </trkpt>
      <trkpt lat="54.488947978243232" lon="-1.805555988103151">
        <ele>175.09999999999999</ele>
        <time>2023-09-03T11:07:53Z</time>
      </trkpt>
      <trkpt lat="54.488167958334088" lon="-1.80355598218739">
        <ele>177.02000000000001</ele>
        <time>2023-09-03T11:08:02Z</time>
      </trkpt>
      <trkpt lat="54.487292971462011" lon="-1.801311979070306">
        <ele>178.46000000000001</ele>
        <time>2023-09-03T11:08:12Z</time>
      </trkpt>
      <trkpt lat="54.486446985974908" lon="-1.799142993986607">
        <ele>180.87</ele>
        <time>2023-09-03T11:08:22Z</time>
      </trkpt>
      <trkpt lat="54.485760005190969" lon="-1.797381034120917">
        <ele>181.34999999999999</ele>
        <time>2023-09-03T11:08:30Z</time>
      </trkpt>
      <trkpt lat="54.484790973365307" lon="-1.794713996350765">
        <ele>179.41999999999999</ele>
        <time>2023-09-03T11:08:41Z</time>
      </trkpt>
      <trkpt lat="54.483767040073872" lon="-1.79163197055459">
        <ele>182.31</ele>
        <time>2023-09-03T11:08:53Z</time>
      </trkpt>
      <trkpt lat="54.48299297131598" lon="-1.789301969110966">
        <ele>184.22999999999999</ele>
        <time>2023-09-03T11:09:03Z</time>
      </trkpt>
      <trkpt lat="54.482244970276952" lon="-1.787112029269338">
        <ele>181.34999999999999</ele>
        <time>2023-09-03T11:09:13Z</time>
      </trkpt>
      <trkpt lat="54.481429997831583" lon="-1.784786973148584">
        <ele>178.46000000000001</ele>
        <time>2023-09-03T11:09:24Z</time>
      </trkpt>
      <trkpt lat="54.480743017047644" lon="-1.782847987487912">
        <ele>173.66</ele>
        <time>2023-09-03T11:09:32Z</time>
      </trkpt>
      <trkpt lat="54.479976994916797" lon="-1.780657963827252">
        <ele>165.96000000000001</ele>
        <time>2023-09-03T11:09:41Z</time>
      </trkpt>
      <trkpt lat="54.47912497445941" lon="-1.778269037604332">
        <ele>163.56</ele>
        <time>2023-09-03T11:09:51Z</time>
      </trkpt>
      <trkpt lat="54.478248981758952" lon="-1.775824036449194">
        <ele>160.68000000000001</ele>
        <time>2023-09-03T11:10:02Z</time>
      </trkpt>
      <trkpt lat="54.477456975728273" lon="-1.77349403500557">
        <ele>155.38999999999999</ele>
        <time>2023-09-03T11:10:13Z</time>
      </trkpt>
      <trkpt lat="54.476581988856196" lon="-1.77102698944509">
        <ele>152.03</ele>
        <time>2023-09-03T11:10:24Z</time>
      </trkpt>
      <trkpt lat="54.475768022239208" lon="-1.768733030185103">
        <ele>156.34999999999999</ele>
        <time>2023-09-03T11:10:33Z</time>
      </trkpt>
      <trkpt lat="54.474857999011874" lon="-1.766150984913111">
        <ele>160.19999999999999</ele>
        <time>2023-09-03T11:10:44Z</time>
      </trkpt>
      <trkpt lat="54.474065992981195" lon="-1.763815032318234">
        <ele>159.24000000000001</ele>
        <time>2023-09-03T11:10:55Z</time>
      </trkpt>
      <trkpt lat="54.473249008879066" lon="-1.761285960674286">
        <ele>156.83000000000001</ele>
        <time>2023-09-03T11:11:05Z</time>
      </trkpt>
      <trkpt lat="54.472386008128524" lon="-1.758853029459715">
        <ele>154.91</ele>
        <time>2023-09-03T11:11:14Z</time>
      </trkpt>
      <trkpt lat="54.471448995172977" lon="-1.756280036643148">
        <ele>158.75</ele>
        <time>2023-09-03T11:11:24Z</time>
      </trkpt>
      <trkpt lat="54.470600998029113" lon="-1.754005020484328">
        <ele>157.31</ele>
        <time>2023-09-03T11:11:33Z</time>
      </trkpt>
      <trkpt lat="54.469760963693261" lon="-1.7518409807235">
        <ele>159.24000000000001</ele>
        <time>2023-09-03T11:11:41Z</time>
      </trkpt>
      <trkpt lat="54.469212032854557" lon="-1.750193014740944">
        <ele>159.72</ele>
        <time>2023-09-03T11:11:46Z</time>
      </trkpt>
      <trkpt lat="54.468473000451922" lon="-1.747474009171128">
        <ele>158.75</ele>
        <time>2023-09-03T11:11:54Z</time>
      </trkpt>
      <trkpt lat="54.467272963374853" lon="-1.74395302310586">
        <ele>167.41</ele>
        <time>2023-09-03T11:12:04Z</time>
      </trkpt>
      <trkpt lat="54.466178035363555" lon="-1.740919025614858">
        <ele>179.41999999999999</ele>
        <time>2023-09-03T11:12:12Z</time>
      </trkpt>
      <trkpt lat="54.464122960343957" lon="-1.735216984525323">
        <ele>202.00999999999999</ele>
        <time>2023-09-03T11:12:26Z</time>
      </trkpt>
      <trkpt lat="54.462108034640551" lon="-1.729523995891213">
        <ele>203.46000000000001</ele>
        <time>2023-09-03T11:12:40Z</time>
      </trkpt>
      <trkpt lat="54.460307015106082" lon="-1.724207019433379">
        <ele>205.38</ele>
        <time>2023-09-03T11:12:53Z</time>
      </trkpt>
      <trkpt lat="54.458503983914852" lon="-1.718824999406934">
        <ele>208.74000000000001</ele>
        <time>2023-09-03T11:13:06Z</time>
      </trkpt>
      <trkpt lat="54.456275990232825" lon="-1.712253000587225">
        <ele>208.25999999999999</ele>
        <time>2023-09-03T11:13:22Z</time>
      </trkpt>
      <trkpt lat="54.454399030655622" lon="-1.706435959786177">
        <ele>197.69</ele>
        <time>2023-09-03T11:13:36Z</time>
      </trkpt>
      <trkpt lat="54.452834967523813" lon="-1.701635979115963">
        <ele>198.16999999999999</ele>
        <time>2023-09-03T11:13:48Z</time>
      </trkpt>
      <trkpt lat="54.451616993173957" lon="-1.697666980326176">
        <ele>193.36000000000001</ele>
        <time>2023-09-03T11:13:57Z</time>
      </trkpt>
      <trkpt lat="54.450806966051459" lon="-1.694807996973395">
        <ele>188.56</ele>
        <time>2023-09-03T11:14:04Z</time>
      </trkpt>
      <trkpt lat="54.449639031663537" lon="-1.691072015091777">
        <ele>187.11000000000001</ele>
        <time>2023-09-03T11:14:13Z</time>
      </trkpt>
      <trkpt lat="54.44816499017179" lon="-1.68824203312397">
        <ele>188.08000000000001</ele>
        <time>2023-09-03T11:14:21Z</time>
      </trkpt>
      <trkpt lat="54.445591997355223" lon="-1.684600012376905">
        <ele>180.87</ele>
        <time>2023-09-03T11:14:33Z</time>
      </trkpt>
      <trkpt lat="54.44401896558702" lon="-1.681958958506584">
        <ele>176.53999999999999</ele>
        <time>2023-09-03T11:14:41Z</time>
      </trkpt>
      <trkpt lat="54.443088993430138" lon="-1.679065022617579">
        <ele>173.16999999999999</ele>
        <time>2023-09-03T11:14:48Z</time>
      </trkpt>
      <trkpt lat="54.442741982638836" lon="-1.676674000918865">
        <ele>168.37</ele>
        <time>2023-09-03T11:14:54Z</time>
      </trkpt>
      <trkpt lat="54.442664030939341" lon="-1.673787022009492">
        <ele>161.63999999999999</ele>
        <time>2023-09-03T11:15:03Z</time>
      </trkpt>
      <trkpt lat="54.442664030939341" lon="-1.672791000455618">
        <ele>158.75</ele>
        <time>2023-09-03T11:15:08Z</time>
      </trkpt>
      <trkpt lat="54.442664030939341" lon="-1.672485982999206">
        <ele>156.83000000000001</ele>
        <time>2023-09-03T11:15:14Z</time>
      </trkpt>
      <trkpt lat="54.442690014839172" lon="-1.672095973044634">
        <ele>155.87</ele>
        <time>2023-09-03T11:15:25Z</time>
      </trkpt>
      <trkpt lat="54.442712981253862" lon="-1.671760026365519">
        <ele>155.87</ele>
        <time>2023-09-03T11:15:27Z</time>
      </trkpt>
      <trkpt lat="54.442727984860539" lon="-1.671531032770872">
        <ele>155.38999999999999</ele>
        <time>2023-09-03T11:15:28Z</time>
      </trkpt>
      <trkpt lat="54.442754974588752" lon="-1.671394994482398">
        <ele>155.38999999999999</ele>
        <time>2023-09-03T11:15:30Z</time>
      </trkpt>
      <trkpt lat="54.442885983735323" lon="-1.671078996732831">
        <ele>154.43000000000001</ele>
        <time>2023-09-03T11:15:32Z</time>
      </trkpt>
      <trkpt lat="54.442933006212115" lon="-1.670749001204968">
        <ele>153.94999999999999</ele>
        <time>2023-09-03T11:15:33Z</time>
      </trkpt>
      <trkpt lat="54.44294398650527" lon="-1.670562000945211">
        <ele>153.94999999999999</ele>
        <time>2023-09-03T11:15:34Z</time>
      </trkpt>
      <trkpt lat="54.442953960970044" lon="-1.670369971543551">
        <ele>153.94999999999999</ele>
        <time>2023-09-03T11:15:35Z</time>
      </trkpt>
      <trkpt lat="54.44296401925385" lon="-1.670178025960922">
        <ele>153.47</ele>
        <time>2023-09-03T11:15:36Z</time>
      </trkpt>
      <trkpt lat="54.44296401925385" lon="-1.669976022094488">
        <ele>152.99000000000001</ele>
        <time>2023-09-03T11:15:37Z</time>
      </trkpt>
      <trkpt lat="54.442947003990412" lon="-1.668014992028475">
        <ele>149.62</ele>
        <time>2023-09-03T11:15:48Z</time>
      </trkpt>
      <trkpt lat="54.442913979291916" lon="-1.667856993153691">
        <ele>149.62</ele>
        <time>2023-09-03T11:15:50Z</time>
      </trkpt>
      <trkpt lat="54.442885983735323" lon="-1.66778801009059">
        <ele>149.13999999999999</ele>
        <time>2023-09-03T11:15:51Z</time>
      </trkpt>
      <trkpt lat="54.442852037027478" lon="-1.667706035077572">
        <ele>149.13999999999999</ele>
        <time>2023-09-03T11:15:52Z</time>
      </trkpt>
      <trkpt lat="54.44281498901546" lon="-1.66761701926589">
        <ele>149.62</ele>
        <time>2023-09-03T11:15:53Z</time>
      </trkpt>
      <trkpt lat="54.442793028429151" lon="-1.667562033981085">
        <ele>149.62</ele>
        <time>2023-09-03T11:15:54Z</time>
      </trkpt>
      <trkpt lat="54.442737959325314" lon="-1.667529009282589">
        <ele>149.62</ele>
        <time>2023-09-03T11:15:55Z</time>
      </trkpt>
      <trkpt lat="54.442684985697269" lon="-1.667496990412474">
        <ele>150.09999999999999</ele>
        <time>2023-09-03T11:15:56Z</time>
      </trkpt>
      <trkpt lat="54.442611979320645" lon="-1.667496990412474">
        <ele>150.09999999999999</ele>
        <time>2023-09-03T11:15:57Z</time>
      </trkpt>
      <trkpt lat="54.442524975165725" lon="-1.667496990412474">
        <ele>150.58000000000001</ele>
        <time>2023-09-03T11:15:58Z</time>
      </trkpt>
      <trkpt lat="54.442455992102623" lon="-1.667515011504293">
        <ele>150.09999999999999</ele>
        <time>2023-09-03T11:15:59Z</time>
      </trkpt>
      <trkpt lat="54.442352978512645" lon="-1.667563961818814">
        <ele>150.09999999999999</ele>
        <time>2023-09-03T11:16:00Z</time>
      </trkpt>
      <trkpt lat="54.441243968904018" lon="-1.668011974543333">
        <ele>149.13999999999999</ele>
        <time>2023-09-03T11:16:08Z</time>
      </trkpt>
      <trkpt lat="54.439469017088413" lon="-1.668189000338316">
        <ele>144.81999999999999</ele>
        <time>2023-09-03T11:16:17Z</time>
      </trkpt>
      <trkpt lat="54.436495034024119" lon="-1.668067965656519">
        <ele>140.49000000000001</ele>
        <time>2023-09-03T11:16:31Z</time>
      </trkpt>
      <trkpt lat="54.433671003207564" lon="-1.667601009830833">
        <ele>133.75999999999999</ele>
        <time>2023-09-03T11:16:44Z</time>
      </trkpt>
      <trkpt lat="54.431352987885475" lon="-1.667041014879942">
        <ele>129.43000000000001</ele>
        <time>2023-09-03T11:16:56Z</time>
      </trkpt>
      <trkpt lat="54.429301014170051" lon="-1.66652100160718">
        <ele>125.59</ele>
        <time>2023-09-03T11:17:07Z</time>
      </trkpt>
      <trkpt lat="54.427841976284981" lon="-1.666142977774143">
        <ele>122.70999999999999</ele>
        <time>2023-09-03T11:17:16Z</time>
      </trkpt>
      <trkpt lat="54.426213959231973" lon="-1.665630005300045">
        <ele>121.73999999999999</ele>
        <time>2023-09-03T11:17:26Z</time>
      </trkpt>
      <trkpt lat="54.42397297360003" lon="-1.664916034787893">
        <ele>117.42</ele>
        <time>2023-09-03T11:17:40Z</time>
      </trkpt>
      <trkpt lat="54.421552028506994" lon="-1.664138026535511">
        <ele>113.09</ele>
        <time>2023-09-03T11:17:54Z</time>
      </trkpt>
      <trkpt lat="54.418717017397285" lon="-1.663195984438062">
        <ele>108.29000000000001</ele>
        <time>2023-09-03T11:18:12Z</time>
      </trkpt>
      <trkpt lat="54.416327001526952" lon="-1.662540016695857">
        <ele>105.40000000000001</ele>
        <time>2023-09-03T11:18:27Z</time>
      </trkpt>
      <trkpt lat="54.414113005623221" lon="-1.661997959017754">
        <ele>105.40000000000001</ele>
        <time>2023-09-03T11:18:39Z</time>
      </trkpt>
      <trkpt lat="54.411787027493119" lon="-1.661351965740323">
        <ele>104.92</ele>
        <time>2023-09-03T11:18:53Z</time>
      </trkpt>
      <trkpt lat="54.409315958619118" lon="-1.660691974684596">
        <ele>102.04000000000001</ele>
        <time>2023-09-03T11:19:07Z</time>
      </trkpt>
      <trkpt lat="54.407372027635574" lon="-1.660778978839517">
        <ele>97.709999999999994</ele>
        <time>2023-09-03T11:19:16Z</time>
      </trkpt>
      <trkpt lat="54.405016964301467" lon="-1.661412985995412">
        <ele>90.019999999999996</ele>
        <time>2023-09-03T11:19:26Z</time>
      </trkpt>
      <trkpt lat="54.401997970417142" lon="-1.662290990352631">
        <ele>82.329999999999998</ele>
        <time>2023-09-03T11:19:37Z</time>
      </trkpt>
      <trkpt lat="54.399531008675694" lon="-1.662318985909224">
        <ele>78.969999999999999</ele>
        <time>2023-09-03T11:19:46Z</time>
      </trkpt>
      <trkpt lat="54.397104028612375" lon="-1.661470988765359">
        <ele>79.930000000000007</ele>
        <time>2023-09-03T11:19:55Z</time>
      </trkpt>
      <trkpt lat="54.39453799277544" lon="-1.659706011414528">
        <ele>79.450000000000003</ele>
        <time>2023-09-03T11:20:05Z</time>
      </trkpt>
      <trkpt lat="54.391230996698141" lon="-1.657225973904133">
        <ele>79.450000000000003</ele>
        <time>2023-09-03T11:20:18Z</time>
      </trkpt>
      <trkpt lat="54.388568988069892" lon="-1.655875984579325">
        <ele>74.640000000000001</ele>
        <time>2023-09-03T11:20:28Z</time>
      </trkpt>
      <trkpt lat="54.385379003360868" lon="-1.654399009421468">
        <ele>71.760000000000005</ele>
        <time>2023-09-03T11:20:40Z</time>
      </trkpt>
      <trkpt lat="54.381383014842868" lon="-1.652529006823897">
        <ele>73.200000000000003</ele>
        <time>2023-09-03T11:20:55Z</time>
      </trkpt>
      <trkpt lat="54.378795018419623" lon="-1.650823038071394">
        <ele>74.640000000000001</ele>
        <time>2023-09-03T11:21:05Z</time>
      </trkpt>
      <trkpt lat="54.377189967781305" lon="-1.648965021595359">
        <ele>73.200000000000003</ele>
        <time>2023-09-03T11:21:12Z</time>
      </trkpt>
      <trkpt lat="54.375696983188391" lon="-1.6461549885571">
        <ele>71.269999999999996</ele>
        <time>2023-09-03T11:21:20Z</time>
      </trkpt>
      <trkpt lat="54.374336013570428" lon="-1.64256501942873">
        <ele>69.829999999999998</ele>
        <time>2023-09-03T11:21:29Z</time>
      </trkpt>
      <trkpt lat="54.372485037893057" lon="-1.639054007828236">
        <ele>69.349999999999994</ele>
        <time>2023-09-03T11:21:39Z</time>
      </trkpt>
      <trkpt lat="54.370489977300167" lon="-1.636517979204655">
        <ele>69.349999999999994</ele>
        <time>2023-09-03T11:21:48Z</time>
      </trkpt>
      <trkpt lat="54.36851603910327" lon="-1.63480899296701">
        <ele>66.469999999999999</ele>
        <time>2023-09-03T11:21:56Z</time>
      </trkpt>
      <trkpt lat="54.365826034918427" lon="-1.632400033995509">
        <ele>64.069999999999993</ele>
        <time>2023-09-03T11:22:07Z</time>
      </trkpt>
      <trkpt lat="54.3639209959656" lon="-1.629668958485127">
        <ele>62.619999999999997</ele>
        <time>2023-09-03T11:22:16Z</time>
      </trkpt>
      <trkpt lat="54.362343018874526" lon="-1.626375960186124">
        <ele>62.140000000000001</ele>
        <time>2023-09-03T11:22:25Z</time>
      </trkpt>
      <trkpt lat="54.361188998445868" lon="-1.62314398214221">
        <ele>61.659999999999997</ele>
        <time>2023-09-03T11:22:33Z</time>
      </trkpt>
      <trkpt lat="54.359643962234259" lon="-1.619774959981442">
        <ele>63.579999999999998</ele>
        <time>2023-09-03T11:22:42Z</time>
      </trkpt>
      <trkpt lat="54.357755016535521" lon="-1.617005998268724">
        <ele>65.030000000000001</ele>
        <time>2023-09-03T11:22:51Z</time>
      </trkpt>
      <trkpt lat="54.354106038808823" lon="-1.612703986465931">
        <ele>59.259999999999998</ele>
        <time>2023-09-03T11:23:07Z</time>
      </trkpt>
      <trkpt lat="54.350867019966245" lon="-1.608976973220706">
        <ele>59.740000000000002</ele>
        <time>2023-09-03T11:23:21Z</time>
      </trkpt>
      <trkpt lat="54.346428969874978" lon="-1.604002984240651">
        <ele>66.469999999999999</ele>
        <time>2023-09-03T11:23:40Z</time>
      </trkpt>
      <trkpt lat="54.342674966901541" lon="-1.59983198158443">
        <ele>68.390000000000001</ele>
        <time>2023-09-03T11:23:56Z</time>
      </trkpt>
      <trkpt lat="54.339605011045933" lon="-1.596502019092441">
        <ele>65.510000000000005</ele>
        <time>2023-09-03T11:24:09Z</time>
      </trkpt>
      <trkpt lat="54.336256021633744" lon="-1.593060996383429">
        <ele>67.909999999999997</ele>
        <time>2023-09-03T11:24:23Z</time>
      </trkpt>
      <trkpt lat="54.332465976476669" lon="-1.588970040902495">
        <ele>65.030000000000001</ele>
        <time>2023-09-03T11:24:39Z</time>
      </trkpt>
      <trkpt lat="54.329262999817729" lon="-1.585185024887323">
        <ele>64.549999999999997</ele>
        <time>2023-09-03T11:24:53Z</time>
      </trkpt>
      <trkpt lat="54.3257209751755" lon="-1.581391040235758">
        <ele>73.680000000000007</ele>
        <time>2023-09-03T11:25:08Z</time>
      </trkpt>
      <trkpt lat="54.321199022233486" lon="-1.576575972139835">
        <ele>76.560000000000002</ele>
        <time>2023-09-03T11:25:27Z</time>
      </trkpt>
      <trkpt lat="54.318062011152506" lon="-1.57340501435101">
        <ele>75.120000000000005</ele>
        <time>2023-09-03T11:25:40Z</time>
      </trkpt>
      <trkpt lat="54.315455993637443" lon="-1.571681024506688">
        <ele>71.760000000000005</ele>
        <time>2023-09-03T11:25:50Z</time>
      </trkpt>
      <trkpt lat="54.312990959733725" lon="-1.570995971560478">
        <ele>68.390000000000001</ele>
        <time>2023-09-03T11:25:59Z</time>
      </trkpt>
      <trkpt lat="54.310215041041374" lon="-1.570996977388859">
        <ele>65.989999999999995</ele>
        <time>2023-09-03T11:26:09Z</time>
      </trkpt>
      <trkpt lat="54.307409031316638" lon="-1.571031007915735">
        <ele>65.030000000000001</ele>
        <time>2023-09-03T11:26:19Z</time>
      </trkpt>
      <trkpt lat="54.304932011291385" lon="-1.570197008550167">
        <ele>63.100000000000001</ele>
        <time>2023-09-03T11:26:28Z</time>
      </trkpt>
      <trkpt lat="54.302613995969296" lon="-1.568518029525876">
        <ele>59.259999999999998</ele>
        <time>2023-09-03T11:26:37Z</time>
      </trkpt>
      <trkpt lat="54.300568979233503" lon="-1.566054001450539">
        <ele>57.340000000000003</ele>
        <time>2023-09-03T11:26:46Z</time>
      </trkpt>
      <trkpt lat="54.299039030447602" lon="-1.563287973403931">
        <ele>52.049999999999997</ele>
        <time>2023-09-03T11:26:54Z</time>
      </trkpt>
      <trkpt lat="54.297286039218307" lon="-1.558996019884944">
        <ele>42.439999999999998</ele>
        <time>2023-09-03T11:27:05Z</time>
      </trkpt>
      <trkpt lat="54.295559031888843" lon="-1.555266994982958">
        <ele>40.990000000000002</ele>
        <time>2023-09-03T11:27:15Z</time>
      </trkpt>
      <trkpt lat="54.293502029031515" lon="-1.552033005282283">
        <ele>42.439999999999998</ele>
        <time>2023-09-03T11:27:25Z</time>
      </trkpt>
      <trkpt lat="54.291195999830961" lon="-1.549329003319144">
        <ele>43.880000000000003</ele>
        <time>2023-09-03T11:27:35Z</time>
      </trkpt>
      <trkpt lat="54.287157012149692" lon="-1.545056998729706">
        <ele>45.799999999999997</ele>
        <time>2023-09-03T11:27:52Z</time>
      </trkpt>
      <trkpt lat="54.284137012436986" lon="-1.541603989899159">
        <ele>46.759999999999998</ele>
        <time>2023-09-03T11:28:05Z</time>
      </trkpt>
      <trkpt lat="54.282283019274473" lon="-1.53870502486825">
        <ele>46.759999999999998</ele>
        <time>2023-09-03T11:28:14Z</time>
      </trkpt>
      <trkpt lat="54.279319010674953" lon="-1.533659035339952">
        <ele>47.240000000000002</ele>
        <time>2023-09-03T11:28:29Z</time>
      </trkpt>
      <trkpt lat="54.277104008942842" lon="-1.53075696900487">
        <ele>47.719999999999999</ele>
        <time>2023-09-03T11:28:39Z</time>
      </trkpt>
      <trkpt lat="54.273932967334986" lon="-1.527754990383983">
        <ele>48.68</ele>
        <time>2023-09-03T11:28:52Z</time>
      </trkpt>
      <trkpt lat="54.271474974229932" lon="-1.525554992258549">
        <ele>48.200000000000003</ele>
        <time>2023-09-03T11:29:02Z</time>
      </trkpt>
      <trkpt lat="54.268836015835404" lon="-1.52280698530376">
        <ele>48.200000000000003</ele>
        <time>2023-09-03T11:29:13Z</time>
      </trkpt>
      <trkpt lat="54.26611902192235" lon="-1.5203130338341">
        <ele>43.880000000000003</ele>
        <time>2023-09-03T11:29:24Z</time>
      </trkpt>
      <trkpt lat="54.262344986200333" lon="-1.517243999987841">
        <ele>43.399999999999999</ele>
        <time>2023-09-03T11:29:39Z</time>
      </trkpt>
      <trkpt lat="54.258840009570122" lon="-1.514221988618374">
        <ele>41.950000000000003</ele>
        <time>2023-09-03T11:29:53Z</time>
      </trkpt>
      <trkpt lat="54.255342995747924" lon="-1.511224033311009">
        <ele>37.630000000000003</ele>
        <time>2023-09-03T11:30:07Z</time>
      </trkpt>
      <trkpt lat="54.25035098567605" lon="-1.506943982094526">
        <ele>37.630000000000003</ele>
        <time>2023-09-03T11:30:27Z</time>
      </trkpt>
      <trkpt lat="54.246649034321308" lon="-1.503603961318731">
        <ele>37.149999999999999</ele>
        <time>2023-09-03T11:30:42Z</time>
      </trkpt>
      <trkpt lat="54.243844030424953" lon="-1.501477975398302">
        <ele>38.109999999999999</ele>
        <time>2023-09-03T11:30:53Z</time>
      </trkpt>
      <trkpt lat="54.239659029990435" lon="-1.498769028112292">
        <ele>41.950000000000003</ele>
        <time>2023-09-03T11:31:09Z</time>
      </trkpt>
      <trkpt lat="54.23548199236393" lon="-1.49605798535049">
        <ele>41.469999999999999</ele>
        <time>2023-09-03T11:31:25Z</time>
      </trkpt>
      <trkpt lat="54.233299009501934" lon="-1.494310023263097">
        <ele>39.07</ele>
        <time>2023-09-03T11:31:34Z</time>
      </trkpt>
      <trkpt lat="54.230792988091707" lon="-1.492181019857526">
        <ele>37.630000000000003</ele>
        <time>2023-09-03T11:31:44Z</time>
      </trkpt>
      <trkpt lat="54.227411979809403" lon="-1.48997699841857">
        <ele>41.950000000000003</ele>
        <time>2023-09-03T11:31:57Z</time>
      </trkpt>
      <trkpt lat="54.224811997264624" lon="-1.488198023289442">
        <ele>47.240000000000002</ele>
        <time>2023-09-03T11:32:07Z</time>
      </trkpt>
      <trkpt lat="54.222171027213335" lon="-1.485478011891246">
        <ele>48.200000000000003</ele>
        <time>2023-09-03T11:32:18Z</time>
      </trkpt>
      <trkpt lat="54.220088962465525" lon="-1.483498038724065">
        <ele>44.840000000000003</ele>
        <time>2023-09-03T11:32:27Z</time>
      </trkpt>
      <trkpt lat="54.218503022566438" lon="-1.482275035232306">
        <ele>42.439999999999998</ele>
        <time>2023-09-03T11:32:33Z</time>
      </trkpt>
      <trkpt lat="54.216393968090415" lon="-1.480966033414006">
        <ele>43.399999999999999</ele>
        <time>2023-09-03T11:32:41Z</time>
      </trkpt>
      <trkpt lat="54.212970966473222" lon="-1.478873994201422">
        <ele>49.159999999999997</ele>
        <time>2023-09-03T11:32:54Z</time>
      </trkpt>
      <trkpt lat="54.209072962403297" lon="-1.476296978071332">
        <ele>53.490000000000002</ele>
        <time>2023-09-03T11:33:09Z</time>
      </trkpt>
      <trkpt lat="54.205457009375095" lon="-1.47380000911653">
        <ele>54.93</ele>
        <time>2023-09-03T11:33:23Z</time>
      </trkpt>
      <trkpt lat="54.201834015548229" lon="-1.471329024061561">
        <ele>54.450000000000003</ele>
        <time>2023-09-03T11:33:37Z</time>
      </trkpt>
      <trkpt lat="54.19768899679184" lon="-1.468380019068718">
        <ele>52.049999999999997</ele>
        <time>2023-09-03T11:33:53Z</time>
      </trkpt>
      <trkpt lat="54.194046976044774" lon="-1.465883972123265">
        <ele>50.609999999999999</ele>
        <time>2023-09-03T11:34:07Z</time>
      </trkpt>
      <trkpt lat="54.190128017216921" lon="-1.463332017883658">
        <ele>50.130000000000003</ele>
        <time>2023-09-03T11:34:22Z</time>
      </trkpt>
      <trkpt lat="54.187926007434726" lon="-1.461899969726801">
        <ele>52.049999999999997</ele>
        <time>2023-09-03T11:34:31Z</time>
      </trkpt>
      <trkpt lat="54.185300962999463" lon="-1.460249992087483">
        <ele>54.93</ele>
        <time>2023-09-03T11:34:43Z</time>
      </trkpt>
      <trkpt lat="54.182216003537178" lon="-1.45843698643148">
        <ele>58.299999999999997</ele>
        <time>2023-09-03T11:34:55Z</time>
      </trkpt>
      <trkpt lat="54.180108960717916" lon="-1.457054978236556">
        <ele>60.219999999999999</ele>
        <time>2023-09-03T11:35:04Z</time>
      </trkpt>
      <trkpt lat="54.177056020125747" lon="-1.455055978149176">
        <ele>60.700000000000003</ele>
        <time>2023-09-03T11:35:16Z</time>
      </trkpt>
      <trkpt lat="54.174067033454776" lon="-1.45317398943007">
        <ele>61.659999999999997</ele>
        <time>2023-09-03T11:35:28Z</time>
      </trkpt>
      <trkpt lat="54.170397017151117" lon="-1.45119502209127">
        <ele>61.659999999999997</ele>
        <time>2023-09-03T11:35:42Z</time>
      </trkpt>
      <trkpt lat="54.167425967752934" lon="-1.449894988909364">
        <ele>60.700000000000003</ele>
        <time>2023-09-03T11:35:54Z</time>
      </trkpt>
      <trkpt lat="54.164196001365781" lon="-1.44799598492682">
        <ele>61.659999999999997</ele>
        <time>2023-09-03T11:36:07Z</time>
      </trkpt>
      <trkpt lat="54.161623008549213" lon="-1.446223966777325">
        <ele>64.549999999999997</ele>
        <time>2023-09-03T11:36:17Z</time>
      </trkpt>
      <trkpt lat="54.158769976347685" lon="-1.443819031119347">
        <ele>65.510000000000005</ele>
        <time>2023-09-03T11:36:28Z</time>
      </trkpt>
      <trkpt lat="54.156357999891043" lon="-1.441769991070032">
        <ele>63.579999999999998</ele>
        <time>2023-09-03T11:36:38Z</time>
      </trkpt>
      <trkpt lat="54.153091991320252" lon="-1.439092978835106">
        <ele>59.740000000000002</ele>
        <time>2023-09-03T11:36:51Z</time>
      </trkpt>
      <trkpt lat="54.150256980210543" lon="-1.436045989394188">
        <ele>57.82</ele>
        <time>2023-09-03T11:37:03Z</time>
      </trkpt>
      <trkpt lat="54.147079987451434" lon="-1.432990031316876">
        <ele>54.450000000000003</ele>
        <time>2023-09-03T11:37:16Z</time>
      </trkpt>
      <trkpt lat="54.144008019939065" lon="-1.430814005434513">
        <ele>49.649999999999999</ele>
        <time>2023-09-03T11:37:28Z</time>
      </trkpt>
      <trkpt lat="54.140408998355269" lon="-1.428125007078052">
        <ele>41.469999999999999</ele>
        <time>2023-09-03T11:37:42Z</time>
      </trkpt>
      <trkpt lat="54.137217001989484" lon="-1.425130991265178">
        <ele>34.259999999999998</ele>
        <time>2023-09-03T11:37:55Z</time>
      </trkpt>
      <trkpt lat="54.134121984243393" lon="-1.421859031543136">
        <ele>30.899999999999999</ele>
        <time>2023-09-03T11:38:08Z</time>
      </trkpt>
      <trkpt lat="54.130085008218884" lon="-1.417603958398104">
        <ele>27.050000000000001</ele>
        <time>2023-09-03T11:38:25Z</time>
      </trkpt>
      <trkpt lat="54.12762600928545" lon="-1.415556007996202">
        <ele>27.530000000000001</ele>
        <time>2023-09-03T11:38:35Z</time>
      </trkpt>
      <trkpt lat="54.126801984384656" lon="-1.415021996945143">
        <ele>26.57</ele>
        <time>2023-09-03T11:38:40Z</time>
      </trkpt>
      <trkpt lat="54.126311978325248" lon="-1.41471697948873">
        <ele>25.609999999999999</ele>
        <time>2023-09-03T11:38:46Z</time>
      </trkpt>
      <trkpt lat="54.126022970303893" lon="-1.414578007534146">
        <ele>25.609999999999999</ele>
        <time>2023-09-03T11:38:55Z</time>
      </trkpt>
      <trkpt lat="54.126022970303893" lon="-1.414578007534146">
        <ele>25.609999999999999</ele>
        <time>2023-09-03T11:39:29Z</time>
      </trkpt>
      <trkpt lat="54.126022970303893" lon="-1.414578007534146">
        <ele>26.09</ele>
        <time>2023-09-03T11:40:18Z</time>
      </trkpt>
      <trkpt lat="54.126022970303893" lon="-1.414578007534146">
        <ele>26.09</ele>
        <time>2023-09-03T11:41:01Z</time>
      </trkpt>
      <trkpt lat="54.125894978642464" lon="-1.414517993107438">
        <ele>26.57</ele>
        <time>2023-09-03T11:41:22Z</time>
      </trkpt>
      <trkpt lat="54.125299025326967" lon="-1.414238037541509">
        <ele>25.129999999999999</ele>
        <time>2023-09-03T11:41:28Z</time>
      </trkpt>
      <trkpt lat="54.124363018199801" lon="-1.413821037858725">
        <ele>24.649999999999999</ele>
        <time>2023-09-03T11:41:33Z</time>
      </trkpt>
      <trkpt lat="54.124136958271265" lon="-1.413750965148211">
        <ele>24.170000000000002</ele>
        <time>2023-09-03T11:41:34Z</time>
      </trkpt>
      <trkpt lat="54.122273996472359" lon="-1.413238998502493">
        <ele>21.77</ele>
        <time>2023-09-03T11:41:41Z</time>
      </trkpt>
      <trkpt lat="54.119220972061157" lon="-1.413027020171285">
        <ele>21.289999999999999</ele>
        <time>2023-09-03T11:41:52Z</time>
      </trkpt>
      <trkpt lat="54.115878017619252" lon="-1.413536975160241">
        <ele>21.77</ele>
        <time>2023-09-03T11:42:04Z</time>
      </trkpt>
      <trkpt lat="54.113105032593012" lon="-1.414080038666725">
        <ele>20.809999999999999</ele>
        <time>2023-09-03T11:42:14Z</time>
      </trkpt>
      <trkpt lat="54.110192991793156" lon="-1.414633998647332">
        <ele>19.84</ele>
        <time>2023-09-03T11:42:25Z</time>
      </trkpt>
      <trkpt lat="54.107442973181605" lon="-1.414825022220612">
        <ele>18.399999999999999</ele>
        <time>2023-09-03T11:42:36Z</time>
      </trkpt>
      <trkpt lat="54.105172986164689" lon="-1.414526961743832">
        <ele>16</ele>
        <time>2023-09-03T11:42:46Z</time>
      </trkpt>
      <trkpt lat="54.102259017527103" lon="-1.413499005138874">
        <ele>13.119999999999999</ele>
        <time>2023-09-03T11:42:59Z</time>
      </trkpt>
      <trkpt lat="54.099918035790324" lon="-1.412099981680512">
        <ele>10.710000000000001</ele>
        <time>2023-09-03T11:43:10Z</time>
      </trkpt>
      <trkpt lat="54.097114037722349" lon="-1.409883974120021">
        <ele>8.789999999999999</ele>
        <time>2023-09-03T11:43:24Z</time>
      </trkpt>
      <trkpt lat="54.094471978023648" lon="-1.407728986814618">
        <ele>8.789999999999999</ele>
        <time>2023-09-03T11:43:37Z</time>
      </trkpt>
      <trkpt lat="54.091752972453833" lon="-1.405523037537932">
        <ele>8.789999999999999</ele>
        <time>2023-09-03T11:43:51Z</time>
      </trkpt>
      <trkpt lat="54.088294012472034" lon="-1.402601022273302">
        <ele>4.94</ele>
        <time>2023-09-03T11:44:09Z</time>
      </trkpt>
      <trkpt lat="54.085679026320577" lon="-1.400330029428005">
        <ele>-0.82</ele>
        <time>2023-09-03T11:44:23Z</time>
      </trkpt>
      <trkpt lat="54.083810029551387" lon="-1.398856993764639">
        <ele>-2.27</ele>
        <time>2023-09-03T11:44:32Z</time>
      </trkpt>
      <trkpt lat="54.082709988579154" lon="-1.397454030811787">
        <ele>0.62</ele>
        <time>2023-09-03T11:44:39Z</time>
      </trkpt>
      <trkpt lat="54.082152005285025" lon="-1.396825974807143">
        <ele>3.98</ele>
        <time>2023-09-03T11:44:44Z</time>
      </trkpt>
      <trkpt lat="54.082118980586529" lon="-1.396726984530687">
        <ele>4.94</ele>
        <time>2023-09-03T11:44:45Z</time>
      </trkpt>
      <trkpt lat="54.082090985029936" lon="-1.396641992032528">
        <ele>5.42</ele>
        <time>2023-09-03T11:44:46Z</time>
      </trkpt>
      <trkpt lat="54.082094002515078" lon="-1.396619025617838">
        <ele>6.39</ele>
        <time>2023-09-03T11:44:47Z</time>
      </trkpt>
      <trkpt lat="54.082123003900051" lon="-1.396518023684621">
        <ele>7.35</ele>
        <time>2023-09-03T11:44:48Z</time>
      </trkpt>
      <trkpt lat="54.082150999456644" lon="-1.396420961245894">
        <ele>8.310000000000001</ele>
        <time>2023-09-03T11:44:49Z</time>
      </trkpt>
      <trkpt lat="54.082172960042953" lon="-1.39634401537478">
        <ele>9.27</ele>
        <time>2023-09-03T11:44:50Z</time>
      </trkpt>
      <trkpt lat="54.082185029983521" lon="-1.396303027868271">
        <ele>10.23</ele>
        <time>2023-09-03T11:44:51Z</time>
      </trkpt>
      <trkpt lat="54.082191986963153" lon="-1.396276038140059">
        <ele>11.19</ele>
        <time>2023-09-03T11:44:52Z</time>
      </trkpt>
      <trkpt lat="54.082346968352795" lon="-1.396078979596496">
        <ele>16.48</ele>
        <time>2023-09-03T11:44:59Z</time>
      </trkpt>
      <trkpt lat="54.082371024414897" lon="-1.396078979596496">
        <ele>16.960000000000001</ele>
        <time>2023-09-03T11:45:00Z</time>
      </trkpt>
      <trkpt lat="54.082474960014224" lon="-1.396078979596496">
        <ele>17.440000000000001</ele>
        <time>2023-09-03T11:45:01Z</time>
      </trkpt>
      <trkpt lat="54.082514019683003" lon="-1.396021982654929">
        <ele>17.920000000000002</ele>
        <time>2023-09-03T11:45:02Z</time>
      </trkpt>
      <trkpt lat="54.082574034109712" lon="-1.39591796323657">
        <ele>17.920000000000002</ele>
        <time>2023-09-03T11:45:03Z</time>
      </trkpt>
      <trkpt lat="54.082606974989176" lon="-1.395840011537075">
        <ele>18.879999999999999</ele>
        <time>2023-09-03T11:45:05Z</time>
      </trkpt>
      <trkpt lat="54.082793975248933" lon="-1.395628033205867">
        <ele>18.879999999999999</ele>
        <time>2023-09-03T11:45:07Z</time>
      </trkpt>
      <trkpt lat="54.082853989675641" lon="-1.395559972152114">
        <ele>18.879999999999999</ele>
        <time>2023-09-03T11:45:08Z</time>
      </trkpt>
      <trkpt lat="54.083032021299005" lon="-1.395456036552787">
        <ele>18.399999999999999</ele>
        <time>2023-09-03T11:45:11Z</time>
      </trkpt>
      <trkpt lat="54.083242993801832" lon="-1.395353022962809">
        <ele>17.440000000000001</ele>
        <time>2023-09-03T11:45:15Z</time>
      </trkpt>
      <trkpt lat="54.083256991580129" lon="-1.395299965515733">
        <ele>17.440000000000001</ele>
        <time>2023-09-03T11:45:16Z</time>
      </trkpt>
      <trkpt lat="54.083270989358425" lon="-1.39525000937283">
        <ele>16.960000000000001</ele>
        <time>2023-09-03T11:45:17Z</time>
      </trkpt>
      <trkpt lat="54.08328297547996" lon="-1.395204998552799">
        <ele>16.960000000000001</ele>
        <time>2023-09-03T11:45:18Z</time>
      </trkpt>
      <trkpt lat="54.083293033763766" lon="-1.395168034359813">
        <ele>16.48</ele>
        <time>2023-09-03T11:45:19Z</time>
      </trkpt>
      <trkpt lat="54.083317006006837" lon="-1.395081030204892">
        <ele>16</ele>
        <time>2023-09-03T11:45:21Z</time>
      </trkpt>
      <trkpt lat="54.083335027098656" lon="-1.39501104131341">
        <ele>15.52</ele>
        <time>2023-09-03T11:45:22Z</time>
      </trkpt>
      <trkpt lat="54.083392024040222" lon="-1.394803002476692">
        <ele>15.039999999999999</ele>
        <time>2023-09-03T11:45:24Z</time>
      </trkpt>
      <trkpt lat="54.083549017086625" lon="-1.394251976162195">
        <ele>15.52</ele>
        <time>2023-09-03T11:45:30Z</time>
      </trkpt>
      <trkpt lat="54.083567038178444" lon="-1.394200008362532">
        <ele>15.52</ele>
        <time>2023-09-03T11:45:31Z</time>
      </trkpt>
      <trkpt lat="54.083582041785121" lon="-1.394152985885739">
        <ele>15.52</ele>
        <time>2023-09-03T11:45:32Z</time>
      </trkpt>
      <trkpt lat="54.083595033735037" lon="-1.39411099255085">
        <ele>15.52</ele>
        <time>2023-09-03T11:45:33Z</time>
      </trkpt>
      <trkpt lat="54.083607019856572" lon="-1.394076040014625">
        <ele>15.52</ele>
        <time>2023-09-03T11:45:34Z</time>
      </trkpt>
      <trkpt lat="54.083607019856572" lon="-1.394076040014625">
        <ele>15.52</ele>
        <time>2023-09-03T11:45:45Z</time>
      </trkpt>
      <trkpt lat="54.083607019856572" lon="-1.394076040014625">
        <ele>16.48</ele>
        <time>2023-09-03T11:46:20Z</time>
      </trkpt>
      <trkpt lat="54.083372997120023" lon="-1.393683012574911">
        <ele>19.84</ele>
        <time>2023-09-03T11:52:25Z</time>
      </trkpt>
      <trkpt lat="54.08349696546793" lon="-1.393813015893102">
        <ele>22.25</ele>
        <time>2023-09-03T11:52:50Z</time>
      </trkpt>
      <trkpt lat="54.083620011806488" lon="-1.394034968689084">
        <ele>23.690000000000001</ele>
        <time>2023-09-03T11:52:54Z</time>
      </trkpt>
      <trkpt lat="54.083569971844554" lon="-1.394191039726138">
        <ele>23.690000000000001</ele>
        <time>2023-09-03T11:52:55Z</time>
      </trkpt>
      <trkpt lat="54.083569971844554" lon="-1.394191039726138">
        <ele>23.690000000000001</ele>
        <time>2023-09-03T11:52:56Z</time>
      </trkpt>
      <trkpt lat="54.083556979894638" lon="-1.394229009747505">
        <ele>23.690000000000001</ele>
        <time>2023-09-03T11:52:57Z</time>
      </trkpt>
      <trkpt lat="54.083532001823187" lon="-1.394305033609271">
        <ele>23.210000000000001</ele>
        <time>2023-09-03T11:52:58Z</time>
      </trkpt>
      <trkpt lat="54.083399986848235" lon="-1.394772995263338">
        <ele>22.25</ele>
        <time>2023-09-03T11:53:03Z</time>
      </trkpt>
      <trkpt lat="54.083372997120023" lon="-1.394873997196555">
        <ele>21.77</ele>
        <time>2023-09-03T11:53:04Z</time>
      </trkpt>
      <trkpt lat="54.083294961601496" lon="-1.395159987732768">
        <ele>17.920000000000002</ele>
        <time>2023-09-03T11:53:11Z</time>
      </trkpt>
      <trkpt lat="54.083149032667279" lon="-1.395429968833923">
        <ele>16.960000000000001</ele>
        <time>2023-09-03T11:53:14Z</time>
      </trkpt>
      <trkpt lat="54.082682998850942" lon="-1.395500041544437">
        <ele>16</ele>
        <time>2023-09-03T11:53:21Z</time>
      </trkpt>
      <trkpt lat="54.082624996080995" lon="-1.395500041544437">
        <ele>16</ele>
        <time>2023-09-03T11:53:22Z</time>
      </trkpt>
      <trkpt lat="54.082474960014224" lon="-1.395434997975826">
        <ele>15.52</ele>
        <time>2023-09-03T11:53:23Z</time>
      </trkpt>
      <trkpt lat="54.082456016913056" lon="-1.395423011854291">
        <ele>15.52</ele>
        <time>2023-09-03T11:53:24Z</time>
      </trkpt>
      <trkpt lat="54.082411006093025" lon="-1.395391998812556">
        <ele>15.039999999999999</ele>
        <time>2023-09-03T11:53:25Z</time>
      </trkpt>
      <trkpt lat="54.082388961687684" lon="-1.395405996590853">
        <ele>15.52</ele>
        <time>2023-09-03T11:53:26Z</time>
      </trkpt>
      <trkpt lat="54.082316961139441" lon="-1.395451007410884">
        <ele>15.52</ele>
        <time>2023-09-03T11:53:27Z</time>
      </trkpt>
      <trkpt lat="54.082239009439945" lon="-1.395500041544437">
        <ele>16</ele>
        <time>2023-09-03T11:53:28Z</time>
      </trkpt>
      <trkpt lat="54.082224005833268" lon="-1.395574975758791">
        <ele>16.48</ele>
        <time>2023-09-03T11:53:29Z</time>
      </trkpt>
      <trkpt lat="54.082193998619914" lon="-1.395725011825562">
        <ele>16.960000000000001</ele>
        <time>2023-09-03T11:53:30Z</time>
      </trkpt>
      <trkpt lat="54.082158962264657" lon="-1.395879993215203">
        <ele>17.920000000000002</ele>
        <time>2023-09-03T11:53:31Z</time>
      </trkpt>
      <trkpt lat="54.082052009180188" lon="-1.39634502120316">
        <ele>18.879999999999999</ele>
        <time>2023-09-03T11:53:34Z</time>
      </trkpt>
      <trkpt lat="54.081998029723763" lon="-1.396497990936041">
        <ele>19.359999999999999</ele>
        <time>2023-09-03T11:53:35Z</time>
      </trkpt>
      <trkpt lat="54.081931980326772" lon="-1.396578960120678">
        <ele>19.84</ele>
        <time>2023-09-03T11:53:36Z</time>
      </trkpt>
      <trkpt lat="54.081868026405573" lon="-1.396656995639205">
        <ele>19.84</ele>
        <time>2023-09-03T11:53:37Z</time>
      </trkpt>
      <trkpt lat="54.08175696618855" lon="-1.396701000630856">
        <ele>19.359999999999999</ele>
        <time>2023-09-03T11:53:38Z</time>
      </trkpt>
      <trkpt lat="54.081635009497404" lon="-1.396699994802475">
        <ele>18.879999999999999</ele>
        <time>2023-09-03T11:53:39Z</time>
      </trkpt>
      <trkpt lat="54.081505006179214" lon="-1.396650960668922">
        <ele>18.399999999999999</ele>
        <time>2023-09-03T11:53:40Z</time>
      </trkpt>
      <trkpt lat="54.08046598546207" lon="-1.396246030926704">
        <ele>14.56</ele>
        <time>2023-09-03T11:53:46Z</time>
      </trkpt>
      <trkpt lat="54.078326001763344" lon="-1.395306000486016">
        <ele>13.119999999999999</ele>
        <time>2023-09-03T11:53:57Z</time>
      </trkpt>
      <trkpt lat="54.075956018641591" lon="-1.394201014190912">
        <ele>18.879999999999999</ele>
        <time>2023-09-03T11:54:06Z</time>
      </trkpt>
      <trkpt lat="54.072962002828717" lon="-1.393055040389299">
        <ele>26.57</ele>
        <time>2023-09-03T11:54:17Z</time>
      </trkpt>
      <trkpt lat="54.068786976858974" lon="-1.391985006630421">
        <ele>32.82</ele>
        <time>2023-09-03T11:54:32Z</time>
      </trkpt>
      <trkpt lat="54.064350016415119" lon="-1.390979010611773">
        <ele>34.740000000000002</ele>
        <time>2023-09-03T11:54:48Z</time>
      </trkpt>
      <trkpt lat="54.060198040679097" lon="-1.390060018748045">
        <ele>36.189999999999998</ele>
        <time>2023-09-03T11:55:03Z</time>
      </trkpt>
      <trkpt lat="54.056023014709353" lon="-1.389170028269291">
        <ele>37.630000000000003</ele>
        <time>2023-09-03T11:55:18Z</time>
      </trkpt>
      <trkpt lat="54.05154699459672" lon="-1.388508025556803">
        <ele>41.469999999999999</ele>
        <time>2023-09-03T11:55:34Z</time>
      </trkpt>
      <trkpt lat="54.047928024083376" lon="-1.387920035049319">
        <ele>44.359999999999999</ele>
        <time>2023-09-03T11:55:47Z</time>
      </trkpt>
      <trkpt lat="54.044643994420767" lon="-1.386712035164237">
        <ele>43.880000000000003</ele>
        <time>2023-09-03T11:55:59Z</time>
      </trkpt>
      <trkpt lat="54.041084032505751" lon="-1.385399010032415">
        <ele>43.880000000000003</ele>
        <time>2023-09-03T11:56:12Z</time>
      </trkpt>
      <trkpt lat="54.037739988416433" lon="-1.38487002812326">
        <ele>45.32</ele>
        <time>2023-09-03T11:56:24Z</time>
      </trkpt>
      <trkpt lat="54.035380985587835" lon="-1.38487002812326">
        <ele>46.280000000000001</ele>
        <time>2023-09-03T11:56:33Z</time>
      </trkpt>
      <trkpt lat="54.033017037436366" lon="-1.384861981496215">
        <ele>46.759999999999998</ele>
        <time>2023-09-03T11:56:43Z</time>
      </trkpt>
      <trkpt lat="54.029648015275598" lon="-1.384536009281874">
        <ele>45.32</ele>
        <time>2023-09-03T11:56:56Z</time>
      </trkpt>
      <trkpt lat="54.025790998712182" lon="-1.383793959394097">
        <ele>42.920000000000002</ele>
        <time>2023-09-03T11:57:10Z</time>
      </trkpt>
      <trkpt lat="54.022211004048586" lon="-1.382668018341065">
        <ele>39.07</ele>
        <time>2023-09-03T11:57:23Z</time>
      </trkpt>
      <trkpt lat="54.017003998160362" lon="-1.380745964124799">
        <ele>31.379999999999999</ele>
        <time>2023-09-03T11:57:42Z</time>
      </trkpt>
      <trkpt lat="54.012331003323197" lon="-1.379038989543915">
        <ele>28.5</ele>
        <time>2023-09-03T11:57:59Z</time>
      </trkpt>
      <trkpt lat="54.009346039965749" lon="-1.377615993842483">
        <ele>25.609999999999999</ele>
        <time>2023-09-03T11:58:10Z</time>
      </trkpt>
      <trkpt lat="54.007827993482351" lon="-1.376488041132689">
        <ele>24.649999999999999</ele>
        <time>2023-09-03T11:58:16Z</time>
      </trkpt>
      <trkpt lat="54.005421968176961" lon="-1.374104982241988">
        <ele>25.129999999999999</ele>
        <time>2023-09-03T11:58:26Z</time>
      </trkpt>
      <trkpt lat="54.003464039415121" lon="-1.371426964178681">
        <ele>26.09</ele>
        <time>2023-09-03T11:58:35Z</time>
      </trkpt>
      <trkpt lat="54.001021971926093" lon="-1.368270004168153">
        <ele>28.98</ele>
        <time>2023-09-03T11:58:46Z</time>
      </trkpt>
      <trkpt lat="53.99871502071619" lon="-1.366375023499131">
        <ele>29.460000000000001</ele>
        <time>2023-09-03T11:58:55Z</time>
      </trkpt>
      <trkpt lat="53.995497040450573" lon="-1.364686992019415">
        <ele>25.609999999999999</ele>
        <time>2023-09-03T11:59:07Z</time>
      </trkpt>
      <trkpt lat="53.992210999131203" lon="-1.363576976582408">
        <ele>22.25</ele>
        <time>2023-09-03T11:59:19Z</time>
      </trkpt>
      <trkpt lat="53.989722998812795" lon="-1.363099040463567">
        <ele>16.960000000000001</ele>
        <time>2023-09-03T11:59:28Z</time>
      </trkpt>
      <trkpt lat="53.985282015055418" lon="-1.362777007743716">
        <ele>11.67</ele>
        <time>2023-09-03T11:59:44Z</time>
      </trkpt>
      <trkpt lat="53.981100032106042" lon="-1.36295503936708">
        <ele>9.75</ele>
        <time>2023-09-03T11:59:59Z</time>
      </trkpt>
      <trkpt lat="53.97802697494626" lon="-1.363501958549023">
        <ele>11.67</ele>
        <time>2023-09-03T12:00:10Z</time>
      </trkpt>
      <trkpt lat="53.976437011733651" lon="-1.364412987604737">
        <ele>13.119999999999999</ele>
        <time>2023-09-03T12:00:16Z</time>
      </trkpt>
      <trkpt lat="53.974156966432929" lon="-1.366274021565914">
        <ele>17.920000000000002</ele>
        <time>2023-09-03T12:00:25Z</time>
      </trkpt>
      <trkpt lat="53.970776963979006" lon="-1.368584996089339">
        <ele>20.32</ele>
        <time>2023-09-03T12:00:38Z</time>
      </trkpt>
      <trkpt lat="53.967511961236596" lon="-1.370002962648869">
        <ele>19.359999999999999</ele>
        <time>2023-09-03T12:00:50Z</time>
      </trkpt>
      <trkpt lat="53.964168000966311" lon="-1.370663037523627">
        <ele>18.399999999999999</ele>
        <time>2023-09-03T12:01:02Z</time>
      </trkpt>
      <trkpt lat="53.961083963513374" lon="-1.370615009218454">
        <ele>18.399999999999999</ele>
        <time>2023-09-03T12:01:13Z</time>
      </trkpt>
      <trkpt lat="53.958289017900825" lon="-1.370024001225829">
        <ele>22.25</ele>
        <time>2023-09-03T12:01:23Z</time>
      </trkpt>
      <trkpt lat="53.954697959125042" lon="-1.368848020210862">
        <ele>23.210000000000001</ele>
        <time>2023-09-03T12:01:36Z</time>
      </trkpt>
      <trkpt lat="53.95217802375555" lon="-1.368746012449265">
        <ele>21.77</ele>
        <time>2023-09-03T12:01:45Z</time>
      </trkpt>
      <trkpt lat="53.950000992044806" lon="-1.369429975748062">
        <ele>20.809999999999999</ele>
        <time>2023-09-03T12:01:53Z</time>
      </trkpt>
      <trkpt lat="53.947712983936071" lon="-1.370767978951335">
        <ele>21.77</ele>
        <time>2023-09-03T12:02:02Z</time>
      </trkpt>
      <trkpt lat="53.94474696367979" lon="-1.373186996206641">
        <ele>20.32</ele>
        <time>2023-09-03T12:02:14Z</time>
      </trkpt>
      <trkpt lat="53.942420985549688" lon="-1.374757010489702">
        <ele>22.25</ele>
        <time>2023-09-03T12:02:23Z</time>
      </trkpt>
      <trkpt lat="53.940222999081016" lon="-1.375451032072306">
        <ele>23.690000000000001</ele>
        <time>2023-09-03T12:02:31Z</time>
      </trkpt>
      <trkpt lat="53.937988970428705" lon="-1.375422030687332">
        <ele>25.129999999999999</ele>
        <time>2023-09-03T12:02:39Z</time>
      </trkpt>
      <trkpt lat="53.935799030587077" lon="-1.374554000794888">
        <ele>22.73</ele>
        <time>2023-09-03T12:02:47Z</time>
      </trkpt>
      <trkpt lat="53.932794034481049" lon="-1.373280035331845">
        <ele>20.809999999999999</ele>
        <time>2023-09-03T12:02:58Z</time>
      </trkpt>
      <trkpt lat="53.930333023890853" lon="-1.372652985155582">
        <ele>24.649999999999999</ele>
        <time>2023-09-03T12:03:07Z</time>
      </trkpt>
      <trkpt lat="53.928699977695942" lon="-1.37305498123169">
        <ele>26.09</ele>
        <time>2023-09-03T12:03:13Z</time>
      </trkpt>
      <trkpt lat="53.92691396176815" lon="-1.374342022463679">
        <ele>25.609999999999999</ele>
        <time>2023-09-03T12:03:20Z</time>
      </trkpt>
      <trkpt lat="53.925427012145519" lon="-1.376465996727347">
        <ele>23.690000000000001</ele>
        <time>2023-09-03T12:03:27Z</time>
      </trkpt>
      <trkpt lat="53.924081968143582" lon="-1.379494965076447">
        <ele>21.289999999999999</ele>
        <time>2023-09-03T12:03:35Z</time>
      </trkpt>
      <trkpt lat="53.922556964680552" lon="-1.38227398507297">
        <ele>19.84</ele>
        <time>2023-09-03T12:03:43Z</time>
      </trkpt>
      <trkpt lat="53.921136986464262" lon="-1.383721958845854">
        <ele>18.879999999999999</ele>
        <time>2023-09-03T12:03:49Z</time>
      </trkpt>
      <trkpt lat="53.919276036322117" lon="-1.384725021198392">
        <ele>21.289999999999999</ele>
        <time>2023-09-03T12:03:56Z</time>
      </trkpt>
      <trkpt lat="53.916758028790355" lon="-1.385243022814393">
        <ele>26.09</ele>
        <time>2023-09-03T12:04:05Z</time>
      </trkpt>
      <trkpt lat="53.913116008043289" lon="-1.385570000857115">
        <ele>32.340000000000003</ele>
        <time>2023-09-03T12:04:18Z</time>
      </trkpt>
      <trkpt lat="53.911483967676759" lon="-1.38497999869287">
        <ele>38.109999999999999</ele>
        <time>2023-09-03T12:04:24Z</time>
      </trkpt>
      <trkpt lat="53.910027025267482" lon="-1.383624980226159">
        <ele>43.399999999999999</ele>
        <time>2023-09-03T12:04:30Z</time>
      </trkpt>
      <trkpt lat="53.908617021515965" lon="-1.381317023187876">
        <ele>49.649999999999999</ele>
        <time>2023-09-03T12:04:37Z</time>
      </trkpt>
      <trkpt lat="53.906764034181833" lon="-1.378370029851794">
        <ele>54.450000000000003</ele>
        <time>2023-09-03T12:04:46Z</time>
      </trkpt>
      <trkpt lat="53.90278397127986" lon="-1.37382703833282">
        <ele>59.259999999999998</ele>
        <time>2023-09-03T12:05:03Z</time>
      </trkpt>
      <trkpt lat="53.900777008384466" lon="-1.37211000546813">
        <ele>58.780000000000001</ele>
        <time>2023-09-03T12:05:11Z</time>
      </trkpt>
      <trkpt lat="53.897386025637388" lon="-1.369828032329679">
        <ele>57.340000000000003</ele>
        <time>2023-09-03T12:05:24Z</time>
      </trkpt>
      <trkpt lat="53.89421196654439" lon="-1.367911007255316">
        <ele>50.130000000000003</ele>
        <time>2023-09-03T12:05:36Z</time>
      </trkpt>
      <trkpt lat="53.891185009852052" lon="-1.365541024133563">
        <ele>43.399999999999999</ele>
        <time>2023-09-03T12:05:48Z</time>
      </trkpt>
      <trkpt lat="53.887469982728362" lon="-1.362179964780808">
        <ele>42.439999999999998</ele>
        <time>2023-09-03T12:06:03Z</time>
      </trkpt>
      <trkpt lat="53.88473697938025" lon="-1.359845018014312">
        <ele>35.229999999999997</ele>
        <time>2023-09-03T12:06:14Z</time>
      </trkpt>
      <trkpt lat="53.882863959297538" lon="-1.359257027506828">
        <ele>33.780000000000001</ele>
        <time>2023-09-03T12:06:21Z</time>
      </trkpt>
      <trkpt lat="53.879886958748102" lon="-1.358123039826751">
        <ele>35.710000000000001</ele>
        <time>2023-09-03T12:06:32Z</time>
      </trkpt>
      <trkpt lat="53.878463041037321" lon="-1.356644975021482">
        <ele>35.710000000000001</ele>
        <time>2023-09-03T12:06:38Z</time>
      </trkpt>
      <trkpt lat="53.875999012961984" lon="-1.353583987802267">
        <ele>36.189999999999998</ele>
        <time>2023-09-03T12:06:49Z</time>
      </trkpt>
      <trkpt lat="53.873411016538739" lon="-1.350721986964345">
        <ele>41.950000000000003</ele>
        <time>2023-09-03T12:07:00Z</time>
      </trkpt>
      <trkpt lat="53.871615026146173" lon="-1.349326986819506">
        <ele>45.32</ele>
        <time>2023-09-03T12:07:07Z</time>
      </trkpt>
      <trkpt lat="53.868897026404738" lon="-1.348158968612552">
        <ele>43.880000000000003</ele>
        <time>2023-09-03T12:07:17Z</time>
      </trkpt>
      <trkpt lat="53.865079991519451" lon="-1.346933031454682">
        <ele>47.240000000000002</ele>
        <time>2023-09-03T12:07:31Z</time>
      </trkpt>
      <trkpt lat="53.862662985920906" lon="-1.3461550232023">
        <ele>55.409999999999997</ele>
        <time>2023-09-03T12:07:40Z</time>
      </trkpt>
      <trkpt lat="53.86065099388361" lon="-1.346148988232017">
        <ele>59.740000000000002</ele>
        <time>2023-09-03T12:07:48Z</time>
      </trkpt>
      <trkpt lat="53.857456985861063" lon="-1.346508990973234">
        <ele>62.140000000000001</ele>
        <time>2023-09-03T12:08:00Z</time>
      </trkpt>
      <trkpt lat="53.854947024956346" lon="-1.346033988520503">
        <ele>65.030000000000001</ele>
        <time>2023-09-03T12:08:09Z</time>
      </trkpt>
      <trkpt lat="53.852535970509052" lon="-1.344773015007377">
        <ele>66.469999999999999</ele>
        <time>2023-09-03T12:08:18Z</time>
      </trkpt>
      <trkpt lat="53.849296029657125" lon="-1.343235019594431">
        <ele>72.239999999999995</ele>
        <time>2023-09-03T12:08:30Z</time>
      </trkpt>
      <trkpt lat="53.847068035975099" lon="-1.342871999368072">
        <ele>76.079999999999998</ele>
        <time>2023-09-03T12:08:38Z</time>
      </trkpt>
      <trkpt lat="53.843987016007304" lon="-1.342363972216845">
        <ele>71.760000000000005</ele>
        <time>2023-09-03T12:08:49Z</time>
      </trkpt>
      <trkpt lat="53.841284019872546" lon="-1.341053964570165">
        <ele>62.619999999999997</ele>
        <time>2023-09-03T12:08:59Z</time>
      </trkpt>
      <trkpt lat="53.839265992864966" lon="-1.339908996596932">
        <ele>53.490000000000002</ele>
        <time>2023-09-03T12:09:07Z</time>
      </trkpt>
      <trkpt lat="53.836829038336873" lon="-1.339005008339882">
        <ele>42.920000000000002</ele>
        <time>2023-09-03T12:09:17Z</time>
      </trkpt>
      <trkpt lat="53.834581011906266" lon="-1.33852900005877">
        <ele>33.299999999999997</ele>
        <time>2023-09-03T12:09:26Z</time>
      </trkpt>
      <trkpt lat="53.831417011097074" lon="-1.338015021756291">
        <ele>29.940000000000001</ele>
        <time>2023-09-03T12:09:39Z</time>
      </trkpt>
      <trkpt lat="53.828410003334284" lon="-1.338029019534588">
        <ele>42.439999999999998</ele>
        <time>2023-09-03T12:09:51Z</time>
      </trkpt>
      <trkpt lat="53.824541000649333" lon="-1.338307969272137">
        <ele>51.090000000000003</ele>
        <time>2023-09-03T12:10:06Z</time>
      </trkpt>
      <trkpt lat="53.820996964350343" lon="-1.338555989786983">
        <ele>51.57</ele>
        <time>2023-09-03T12:10:20Z</time>
      </trkpt>
      <trkpt lat="53.818223979324102" lon="-1.338767968118191">
        <ele>59.259999999999998</ele>
        <time>2023-09-03T12:10:32Z</time>
      </trkpt>
      <trkpt lat="53.815066013485193" lon="-1.338991010561585">
        <ele>67.909999999999997</ele>
        <time>2023-09-03T12:10:45Z</time>
      </trkpt>
      <trkpt lat="53.811843004077673" lon="-1.339223021641374">
        <ele>71.760000000000005</ele>
        <time>2023-09-03T12:10:58Z</time>
      </trkpt>
      <trkpt lat="53.809116035699844" lon="-1.33945201523602">
        <ele>74.159999999999997</ele>
        <time>2023-09-03T12:11:08Z</time>
      </trkpt>
      <trkpt lat="53.806318994611502" lon="-1.339027974754572">
        <ele>75.599999999999994</ele>
        <time>2023-09-03T12:11:18Z</time>
      </trkpt>
      <trkpt lat="53.804160989820957" lon="-1.337930029258132">
        <ele>72.239999999999995</ele>
        <time>2023-09-03T12:11:26Z</time>
      </trkpt>
      <trkpt lat="53.802453009411693" lon="-1.336297988891602">
        <ele>67.430000000000007</ele>
        <time>2023-09-03T12:11:33Z</time>
      </trkpt>
      <trkpt lat="53.800822980701923" lon="-1.333709992468357">
        <ele>60.700000000000003</ele>
        <time>2023-09-03T12:11:41Z</time>
      </trkpt>
      <trkpt lat="53.79961296916008" lon="-1.330563006922603">
        <ele>55.890000000000001</ele>
        <time>2023-09-03T12:11:49Z</time>
      </trkpt>
      <trkpt lat="53.798205982893705" lon="-1.326473979279399">
        <ele>53.009999999999998</ele>
        <time>2023-09-03T12:11:59Z</time>
      </trkpt>
      <trkpt lat="53.796806037425995" lon="-1.324198041111231">
        <ele>51.090000000000003</ele>
        <time>2023-09-03T12:12:06Z</time>
      </trkpt>
      <trkpt lat="53.79507701843977" lon="-1.322698015719652">
        <ele>50.130000000000003</ele>
        <time>2023-09-03T12:12:13Z</time>
      </trkpt>
      <trkpt lat="53.793181031942368" lon="-1.322112958878279">
        <ele>50.130000000000003</ele>
        <time>2023-09-03T12:12:20Z</time>
      </trkpt>
      <trkpt lat="53.790397988632321" lon="-1.322054034098983">
        <ele>55.409999999999997</ele>
        <time>2023-09-03T12:12:30Z</time>
      </trkpt>
      <trkpt lat="53.786480035632849" lon="-1.321763014420867">
        <ele>61.659999999999997</ele>
        <time>2023-09-03T12:12:44Z</time>
      </trkpt>
      <trkpt lat="53.78461598418653" lon="-1.320792976766825">
        <ele>62.619999999999997</ele>
        <time>2023-09-03T12:12:51Z</time>
      </trkpt>
      <trkpt lat="53.782934993505478" lon="-1.319079967215657">
        <ele>63.579999999999998</ele>
        <time>2023-09-03T12:12:58Z</time>
      </trkpt>
      <trkpt lat="53.781592966988683" lon="-1.31665600463748">
        <ele>65.030000000000001</ele>
        <time>2023-09-03T12:13:05Z</time>
      </trkpt>
      <trkpt lat="53.7806629948318" lon="-1.313771037384868">
        <ele>65.989999999999995</ele>
        <time>2023-09-03T12:13:12Z</time>
      </trkpt>
      <trkpt lat="53.780151028186083" lon="-1.310605024918914">
        <ele>63.579999999999998</ele>
        <time>2023-09-03T12:13:19Z</time>
      </trkpt>
      <trkpt lat="53.779402021318674" lon="-1.305083027109504">
        <ele>55.890000000000001</ele>
        <time>2023-09-03T12:13:31Z</time>
      </trkpt>
      <trkpt lat="53.778332993388176" lon="-1.300699962303042">
        <ele>47.719999999999999</ele>
        <time>2023-09-03T12:13:41Z</time>
      </trkpt>
      <trkpt lat="53.776831962168217" lon="-1.296699028462172">
        <ele>43.880000000000003</ele>
        <time>2023-09-03T12:13:51Z</time>
      </trkpt>
      <trkpt lat="53.774952990934253" lon="-1.293149963021278">
        <ele>41.950000000000003</ele>
        <time>2023-09-03T12:14:01Z</time>
      </trkpt>
      <trkpt lat="53.772997995838523" lon="-1.290476974099875">
        <ele>39.549999999999997</ele>
        <time>2023-09-03T12:14:10Z</time>
      </trkpt>
      <trkpt lat="53.770813001319766" lon="-1.288334978744388">
        <ele>35.710000000000001</ele>
        <time>2023-09-03T12:14:19Z</time>
      </trkpt>
      <trkpt lat="53.767284974455833" lon="-1.2855230178684">
        <ele>34.740000000000002</ele>
        <time>2023-09-03T12:14:33Z</time>
      </trkpt>
      <trkpt lat="53.763957023620605" lon="-1.282918006181717">
        <ele>38.109999999999999</ele>
        <time>2023-09-03T12:14:46Z</time>
      </trkpt>
      <trkpt lat="53.761675972491503" lon="-1.281110029667616">
        <ele>38.109999999999999</ele>
        <time>2023-09-03T12:14:55Z</time>
      </trkpt>
      <trkpt lat="53.759544035419822" lon="-1.279438007622957">
        <ele>39.549999999999997</ele>
        <time>2023-09-03T12:15:04Z</time>
      </trkpt>
      <trkpt lat="53.757267007604241" lon="-1.277737990021706">
        <ele>39.07</ele>
        <time>2023-09-03T12:15:13Z</time>
      </trkpt>
      <trkpt lat="53.753825984895229" lon="-1.275736978277564">
        <ele>35.229999999999997</ele>
        <time>2023-09-03T12:15:26Z</time>
      </trkpt>
      <trkpt lat="53.750827023759484" lon="-1.274379026144743">
        <ele>24.170000000000002</ele>
        <time>2023-09-03T12:15:37Z</time>
      </trkpt>
      <trkpt lat="53.748096032068133" lon="-1.273508984595537">
        <ele>16</ele>
        <time>2023-09-03T12:15:47Z</time>
      </trkpt>
      <trkpt lat="53.745606020092964" lon="-1.273440001532435">
        <ele>12.15</ele>
        <time>2023-09-03T12:15:56Z</time>
      </trkpt>
      <trkpt lat="53.74342898838222" lon="-1.274163024500012">
        <ele>12.15</ele>
        <time>2023-09-03T12:16:04Z</time>
      </trkpt>
      <trkpt lat="53.741366034373641" lon="-1.275586020201445">
        <ele>18.399999999999999</ele>
        <time>2023-09-03T12:16:12Z</time>
      </trkpt>
      <trkpt lat="53.739279024302959" lon="-1.27800403162837">
        <ele>21.289999999999999</ele>
        <time>2023-09-03T12:16:21Z</time>
      </trkpt>
      <trkpt lat="53.737459983676672" lon="-1.280962005257607">
        <ele>23.690000000000001</ele>
        <time>2023-09-03T12:16:30Z</time>
      </trkpt>
      <trkpt lat="53.735039960592985" lon="-1.284868977963924">
        <ele>22.25</ele>
        <time>2023-09-03T12:16:42Z</time>
      </trkpt>
      <trkpt lat="53.732897965237498" lon="-1.287119016051292">
        <ele>20.32</ele>
        <time>2023-09-03T12:16:51Z</time>
      </trkpt>
      <trkpt lat="53.730785977095366" lon="-1.288412008434534">
        <ele>17.440000000000001</ele>
        <time>2023-09-03T12:16:59Z</time>
      </trkpt>
      <trkpt lat="53.728296970948577" lon="-1.288986001163721">
        <ele>15.039999999999999</ele>
        <time>2023-09-03T12:17:08Z</time>
      </trkpt>
      <trkpt lat="53.723808964714408" lon="-1.289195967838168">
        <ele>14.08</ele>
        <time>2023-09-03T12:17:24Z</time>
      </trkpt>
      <trkpt lat="53.720442038029432" lon="-1.289332006126642">
        <ele>16</ele>
        <time>2023-09-03T12:17:36Z</time>
      </trkpt>
      <trkpt lat="53.716820972040296" lon="-1.289131008088589">
        <ele>20.32</ele>
        <time>2023-09-03T12:17:49Z</time>
      </trkpt>
      <trkpt lat="53.714644024148583" lon="-1.288249986246228">
        <ele>23.210000000000001</ele>
        <time>2023-09-03T12:17:57Z</time>
      </trkpt>
      <trkpt lat="53.712630020454526" lon="-1.286568995565176">
        <ele>24.649999999999999</ele>
        <time>2023-09-03T12:18:05Z</time>
      </trkpt>
      <trkpt lat="53.710562959313393" lon="-1.284165987744927">
        <ele>28.98</ele>
        <time>2023-09-03T12:18:14Z</time>
      </trkpt>
      <trkpt lat="53.708104966208339" lon="-1.280980026349425">
        <ele>36.670000000000002</ele>
        <time>2023-09-03T12:18:25Z</time>
      </trkpt>
      <trkpt lat="53.705695001408458" lon="-1.278590010479093">
        <ele>39.07</ele>
        <time>2023-09-03T12:18:35Z</time>
      </trkpt>
      <trkpt lat="53.703084038570523" lon="-1.276877000927925">
        <ele>36.189999999999998</ele>
        <time>2023-09-03T12:18:45Z</time>
      </trkpt>
      <trkpt lat="53.700374001637101" lon="-1.275848960503936">
        <ele>28.02</ele>
        <time>2023-09-03T12:18:55Z</time>
      </trkpt>
      <trkpt lat="53.69903901591897" lon="-1.275591971352696">
        <ele>23.690000000000001</ele>
        <time>2023-09-03T12:19:01Z</time>
      </trkpt>
      <trkpt lat="53.697053007781506" lon="-1.275410000234842">
        <ele>22.73</ele>
        <time>2023-09-03T12:19:11Z</time>
      </trkpt>
      <trkpt lat="53.694285973906517" lon="-1.274696029722691">
        <ele>31.859999999999999</ele>
        <time>2023-09-03T12:19:25Z</time>
      </trkpt>
      <trkpt lat="53.691824041306973" lon="-1.273355009034276">
        <ele>42.439999999999998</ele>
        <time>2023-09-03T12:19:38Z</time>
      </trkpt>
      <trkpt lat="53.69023097679019" lon="-1.272038966417313">
        <ele>48.68</ele>
        <time>2023-09-03T12:19:48Z</time>
      </trkpt>
      <trkpt lat="53.688011029735208" lon="-1.269962014630437">
        <ele>48.68</ele>
        <time>2023-09-03T12:20:03Z</time>
      </trkpt>
      <trkpt lat="53.687066975980997" lon="-1.268936991691589">
        <ele>47.240000000000002</ele>
        <time>2023-09-03T12:20:12Z</time>
      </trkpt>
      <trkpt lat="53.686024015769362" lon="-1.267710970714688">
        <ele>45.799999999999997</ele>
        <time>2023-09-03T12:20:24Z</time>
      </trkpt>
      <trkpt lat="53.685735007748008" lon="-1.26736999489367">
        <ele>44.359999999999999</ele>
        <time>2023-09-03T12:20:33Z</time>
      </trkpt>
      <trkpt lat="53.685564016923308" lon="-1.267166985198855">
        <ele>42.439999999999998</ele>
        <time>2023-09-03T12:20:45Z</time>
      </trkpt>
      <trkpt lat="53.685364024713635" lon="-1.26691997051239">
        <ele>39.07</ele>
        <time>2023-09-03T12:20:59Z</time>
      </trkpt>
      <trkpt lat="53.684889022260904" lon="-1.266315970569849">
        <ele>39.549999999999997</ele>
        <time>2023-09-03T12:21:13Z</time>
      </trkpt>
      <trkpt lat="53.684659022837877" lon="-1.26601598225534">
        <ele>41.469999999999999</ele>
        <time>2023-09-03T12:21:27Z</time>
      </trkpt>
      <trkpt lat="53.684339001774788" lon="-1.265599988400936">
        <ele>42.439999999999998</ele>
        <time>2023-09-03T12:21:42Z</time>
      </trkpt>
      <trkpt lat="53.683942034840584" lon="-1.265082992613316">
        <ele>42.920000000000002</ele>
        <time>2023-09-03T12:22:00Z</time>
      </trkpt>
      <trkpt lat="53.683363012969494" lon="-1.264372039586306">
        <ele>43.880000000000003</ele>
        <time>2023-09-03T12:22:22Z</time>
      </trkpt>
      <trkpt lat="53.682930003851652" lon="-1.263920003548265">
        <ele>45.32</ele>
        <time>2023-09-03T12:22:40Z</time>
      </trkpt>
      <trkpt lat="53.682587016373873" lon="-1.263561006635428">
        <ele>45.32</ele>
        <time>2023-09-03T12:22:55Z</time>
      </trkpt>
      <trkpt lat="53.682021992281079" lon="-1.263075023889542">
        <ele>45.799999999999997</ele>
        <time>2023-09-03T12:23:14Z</time>
      </trkpt>
      <trkpt lat="53.681440958753228" lon="-1.262638997286558">
        <ele>45.799999999999997</ele>
        <time>2023-09-03T12:23:34Z</time>
      </trkpt>
      <trkpt lat="53.681134013459086" lon="-1.262450991198421">
        <ele>45.32</ele>
        <time>2023-09-03T12:23:48Z</time>
      </trkpt>
      <trkpt lat="53.68064995855093" lon="-1.262172963470221">
        <ele>45.799999999999997</ele>
        <time>2023-09-03T12:24:04Z</time>
      </trkpt>
      <trkpt lat="53.679886031895876" lon="-1.261864006519318">
        <ele>47.719999999999999</ele>
        <time>2023-09-03T12:24:25Z</time>
      </trkpt>
      <trkpt lat="53.679456040263176" lon="-1.261693015694618">
        <ele>49.159999999999997</ele>
        <time>2023-09-03T12:24:36Z</time>
      </trkpt>
      <trkpt lat="53.679223023355007" lon="-1.261629983782768">
        <ele>48.68</ele>
        <time>2023-09-03T12:24:47Z</time>
      </trkpt>
      <trkpt lat="53.678722037002444" lon="-1.261516995728016">
        <ele>49.159999999999997</ele>
        <time>2023-09-03T12:25:01Z</time>
      </trkpt>
      <trkpt lat="53.678190037608147" lon="-1.26141800545156">
        <ele>50.609999999999999</ele>
        <time>2023-09-03T12:25:19Z</time>
      </trkpt>
      <trkpt lat="53.677774965763092" lon="-1.261349022388458">
        <ele>50.609999999999999</ele>
        <time>2023-09-03T12:25:37Z</time>
      </trkpt>
      <trkpt lat="53.677460979670286" lon="-1.261327983811498">
        <ele>50.609999999999999</ele>
        <time>2023-09-03T12:25:49Z</time>
      </trkpt>
      <trkpt lat="53.677169037982821" lon="-1.26131096854806">
        <ele>50.609999999999999</ele>
        <time>2023-09-03T12:26:02Z</time>
      </trkpt>
      <trkpt lat="53.676884975284338" lon="-1.261294037103653">
        <ele>49.649999999999999</ele>
        <time>2023-09-03T12:26:14Z</time>
      </trkpt>
      <trkpt lat="53.676300002261996" lon="-1.261259000748396">
        <ele>48.200000000000003</ele>
        <time>2023-09-03T12:26:34Z</time>
      </trkpt>
      <trkpt lat="53.675976963713765" lon="-1.261239973828197">
        <ele>47.240000000000002</ele>
        <time>2023-09-03T12:26:46Z</time>
      </trkpt>
      <trkpt lat="53.675226029008627" lon="-1.261194963008165">
        <ele>44.840000000000003</ele>
        <time>2023-09-03T12:27:05Z</time>
      </trkpt>
      <trkpt lat="53.674648012965918" lon="-1.261165961623192">
        <ele>42.439999999999998</ele>
        <time>2023-09-03T12:27:15Z</time>
      </trkpt>
      <trkpt lat="53.674269989132881" lon="-1.261145006865263">
        <ele>39.549999999999997</ele>
        <time>2023-09-03T12:27:25Z</time>
      </trkpt>
      <trkpt lat="53.67392398416996" lon="-1.261125979945064">
        <ele>37.149999999999999</ele>
        <time>2023-09-03T12:27:34Z</time>
      </trkpt>
      <trkpt lat="53.673627013340592" lon="-1.261108964681625">
        <ele>36.189999999999998</ele>
        <time>2023-09-03T12:27:40Z</time>
      </trkpt>
      <trkpt lat="53.672990994527936" lon="-1.261105025187135">
        <ele>37.149999999999999</ele>
        <time>2023-09-03T12:27:52Z</time>
      </trkpt>
      <trkpt lat="53.672620011493564" lon="-1.261126985773444">
        <ele>37.630000000000003</ele>
        <time>2023-09-03T12:28:00Z</time>
      </trkpt>
      <trkpt lat="53.672572989016771" lon="-1.261128997430205">
        <ele>37.630000000000003</ele>
        <time>2023-09-03T12:28:01Z</time>
      </trkpt>
      <trkpt lat="53.672078037634492" lon="-1.261175014078617">
        <ele>40.030000000000001</ele>
        <time>2023-09-03T12:28:12Z</time>
      </trkpt>
      <trkpt lat="53.671357026323676" lon="-1.261392021551728">
        <ele>41.950000000000003</ele>
        <time>2023-09-03T12:28:28Z</time>
      </trkpt>
      <trkpt lat="53.671134989708662" lon="-1.261479025706649">
        <ele>42.920000000000002</ele>
        <time>2023-09-03T12:28:33Z</time>
      </trkpt>
      <trkpt lat="53.671092996373773" lon="-1.261496040970087">
        <ele>42.920000000000002</ele>
        <time>2023-09-03T12:28:34Z</time>
      </trkpt>
      <trkpt lat="53.670718995854259" lon="-1.261703995987773">
        <ele>44.359999999999999</ele>
        <time>2023-09-03T12:28:46Z</time>
      </trkpt>
      <trkpt lat="53.670304007828236" lon="-1.261962996795774">
        <ele>45.799999999999997</ele>
        <time>2023-09-03T12:29:01Z</time>
      </trkpt>
      <trkpt lat="53.670028997585177" lon="-1.262152008712292">
        <ele>46.280000000000001</ele>
        <time>2023-09-03T12:29:12Z</time>
      </trkpt>
      <trkpt lat="53.669607974588871" lon="-1.262491978704929">
        <ele>47.240000000000002</ele>
        <time>2023-09-03T12:29:28Z</time>
      </trkpt>
      <trkpt lat="53.669212013483047" lon="-1.262895986437798">
        <ele>48.68</ele>
        <time>2023-09-03T12:29:42Z</time>
      </trkpt>
      <trkpt lat="53.668785961344838" lon="-1.263341987505555">
        <ele>49.649999999999999</ele>
        <time>2023-09-03T12:30:00Z</time>
      </trkpt>
      <trkpt lat="53.668327974155545" lon="-1.263821013271809">
        <ele>50.609999999999999</ele>
        <time>2023-09-03T12:30:10Z</time>
      </trkpt>
      <trkpt lat="53.668282041326165" lon="-1.263869041576982">
        <ele>50.609999999999999</ele>
        <time>2023-09-03T12:30:11Z</time>
      </trkpt>
      <trkpt lat="53.667830005288124" lon="-1.264342032372952">
        <ele>51.090000000000003</ele>
        <time>2023-09-03T12:30:21Z</time>
      </trkpt>
      <trkpt lat="53.667794968932867" lon="-1.264378996565938">
        <ele>51.090000000000003</ele>
        <time>2023-09-03T12:30:22Z</time>
      </trkpt>
      <trkpt lat="53.667750963941216" lon="-1.26442501321435">
        <ele>51.090000000000003</ele>
        <time>2023-09-03T12:30:23Z</time>
      </trkpt>
      <trkpt lat="53.667696984484792" lon="-1.264479998499155">
        <ele>51.090000000000003</ele>
        <time>2023-09-03T12:30:24Z</time>
      </trkpt>
      <trkpt lat="53.667634036391973" lon="-1.26453498378396">
        <ele>50.609999999999999</ele>
        <time>2023-09-03T12:30:25Z</time>
      </trkpt>
      <trkpt lat="53.667567986994982" lon="-1.264590974897146">
        <ele>50.609999999999999</ele>
        <time>2023-09-03T12:30:26Z</time>
      </trkpt>
      <trkpt lat="53.666910007596016" lon="-1.265158010646701">
        <ele>48.200000000000003</ele>
        <time>2023-09-03T12:30:37Z</time>
      </trkpt>
      <trkpt lat="53.666576994583011" lon="-1.265404019504786">
        <ele>47.240000000000002</ele>
        <time>2023-09-03T12:30:42Z</time>
      </trkpt>
      <trkpt lat="53.665949022397399" lon="-1.265791011974216">
        <ele>46.759999999999998</ele>
        <time>2023-09-03T12:30:53Z</time>
      </trkpt>
      <trkpt lat="53.665731009095907" lon="-1.265861000865698">
        <ele>47.240000000000002</ele>
        <time>2023-09-03T12:30:59Z</time>
      </trkpt>
      <trkpt lat="53.665538979694247" lon="-1.265923026949167">
        <ele>47.240000000000002</ele>
        <time>2023-09-03T12:31:03Z</time>
      </trkpt>
      <trkpt lat="53.664810005575418" lon="-1.26605998724699">
        <ele>47.719999999999999</ele>
        <time>2023-09-03T12:31:12Z</time>
      </trkpt>
      <trkpt lat="53.664137022569776" lon="-1.266170963644981">
        <ele>51.57</ele>
        <time>2023-09-03T12:31:21Z</time>
      </trkpt>
      <trkpt lat="53.663236973807216" lon="-1.266297027468681">
        <ele>56.369999999999997</ele>
        <time>2023-09-03T12:31:32Z</time>
      </trkpt>
      <trkpt lat="53.662095023319125" lon="-1.266462989151478">
        <ele>58.299999999999997</ele>
        <time>2023-09-03T12:31:40Z</time>
      </trkpt>
      <trkpt lat="53.660253016278148" lon="-1.266367016360164">
        <ele>60.219999999999999</ele>
        <time>2023-09-03T12:31:52Z</time>
      </trkpt>
      <trkpt lat="53.658671015873551" lon="-1.265398990362883">
        <ele>60.700000000000003</ele>
        <time>2023-09-03T12:32:03Z</time>
      </trkpt>
      <trkpt lat="53.657395038753748" lon="-1.263811960816383">
        <ele>62.619999999999997</ele>
        <time>2023-09-03T12:32:13Z</time>
      </trkpt>
      <trkpt lat="53.655844973400235" lon="-1.261034030467272">
        <ele>65.510000000000005</ele>
        <time>2023-09-03T12:32:27Z</time>
      </trkpt>
      <trkpt lat="53.654431030154228" lon="-1.258488027378917">
        <ele>63.100000000000001</ele>
        <time>2023-09-03T12:32:40Z</time>
      </trkpt>
      <trkpt lat="53.653327971696854" lon="-1.256788009777665">
        <ele>62.140000000000001</ele>
        <time>2023-09-03T12:32:49Z</time>
      </trkpt>
      <trkpt lat="53.651931965723634" lon="-1.255559977144003">
        <ele>58.299999999999997</ele>
        <time>2023-09-03T12:32:58Z</time>
      </trkpt>
      <trkpt lat="53.65078398026526" lon="-1.25516502186656">
        <ele>54.93</ele>
        <time>2023-09-03T12:33:05Z</time>
      </trkpt>
      <trkpt lat="53.649188987910748" lon="-1.255240039899945">
        <ele>48.68</ele>
        <time>2023-09-03T12:33:15Z</time>
      </trkpt>
      <trkpt lat="53.647137014195323" lon="-1.255556037649512">
        <ele>49.159999999999997</ele>
        <time>2023-09-03T12:33:28Z</time>
      </trkpt>
      <trkpt lat="53.645695997402072" lon="-1.255680005997419">
        <ele>53.009999999999998</ele>
        <time>2023-09-03T12:33:37Z</time>
      </trkpt>
      <trkpt lat="53.644192032516003" lon="-1.255471967160702">
        <ele>58.780000000000001</ele>
        <time>2023-09-03T12:33:47Z</time>
      </trkpt>
      <trkpt lat="53.642815975472331" lon="-1.254951031878591">
        <ele>63.579999999999998</ele>
        <time>2023-09-03T12:33:58Z</time>
      </trkpt>
      <trkpt lat="53.641231041401625" lon="-1.253796005621553">
        <ele>64.549999999999997</ele>
        <time>2023-09-03T12:34:10Z</time>
      </trkpt>
      <trkpt lat="53.639651974663138" lon="-1.252076961100102">
        <ele>63.100000000000001</ele>
        <time>2023-09-03T12:34:24Z</time>
      </trkpt>
      <trkpt lat="53.638504995033145" lon="-1.250381972640753">
        <ele>62.619999999999997</ele>
        <time>2023-09-03T12:34:35Z</time>
      </trkpt>
      <trkpt lat="53.637363966554403" lon="-1.248696958646178">
        <ele>63.579999999999998</ele>
        <time>2023-09-03T12:34:46Z</time>
      </trkpt>
      <trkpt lat="53.635967960581183" lon="-1.246634004637599">
        <ele>68.390000000000001</ele>
        <time>2023-09-03T12:34:59Z</time>
      </trkpt>
      <trkpt lat="53.634581007063389" lon="-1.244569960981607">
        <ele>73.200000000000003</ele>
        <time>2023-09-03T12:35:11Z</time>
      </trkpt>
      <trkpt lat="53.633192963898182" lon="-1.242731977254152">
        <ele>73.200000000000003</ele>
        <time>2023-09-03T12:35:22Z</time>
      </trkpt>
      <trkpt lat="53.631796035915613" lon="-1.241459017619491">
        <ele>70.310000000000002</ele>
        <time>2023-09-03T12:35:32Z</time>
      </trkpt>
      <trkpt lat="53.629520013928413" lon="-1.240158984437585">
        <ele>62.619999999999997</ele>
        <time>2023-09-03T12:35:47Z</time>
      </trkpt>
      <trkpt lat="53.62730098888278" lon="-1.238654013723135">
        <ele>55.409999999999997</ele>
        <time>2023-09-03T12:36:02Z</time>
      </trkpt>
      <trkpt lat="53.625167962163687" lon="-1.236832039430738">
        <ele>58.299999999999997</ele>
        <time>2023-09-03T12:36:17Z</time>
      </trkpt>
      <trkpt lat="53.623207015916705" lon="-1.234993971884251">
        <ele>61.659999999999997</ele>
        <time>2023-09-03T12:36:31Z</time>
      </trkpt>
      <trkpt lat="53.621494006365538" lon="-1.233553038910031">
        <ele>63.579999999999998</ele>
        <time>2023-09-03T12:36:42Z</time>
      </trkpt>
      <trkpt lat="53.619421999901533" lon="-1.231965003535152">
        <ele>69.349999999999994</ele>
        <time>2023-09-03T12:36:51Z</time>
      </trkpt>
      <trkpt lat="53.617722988128662" lon="-1.230381997302175">
        <ele>75.120000000000005</ele>
        <time>2023-09-03T12:36:58Z</time>
      </trkpt>
      <trkpt lat="53.61516198143363" lon="-1.22746903449297">
        <ele>76.560000000000002</ele>
        <time>2023-09-03T12:37:09Z</time>
      </trkpt>
      <trkpt lat="53.613457018509507" lon="-1.225922992452979">
        <ele>74.640000000000001</ele>
        <time>2023-09-03T12:37:16Z</time>
      </trkpt>
      <trkpt lat="53.610596023499966" lon="-1.224021976813674">
        <ele>68.870000000000005</ele>
        <time>2023-09-03T12:37:27Z</time>
      </trkpt>
      <trkpt lat="53.608008027076721" lon="-1.22220603749156">
        <ele>55.409999999999997</ele>
        <time>2023-09-03T12:37:37Z</time>
      </trkpt>
      <trkpt lat="53.605318022891879" lon="-1.221002982929349">
        <ele>40.990000000000002</ele>
        <time>2023-09-03T12:37:47Z</time>
      </trkpt>
      <trkpt lat="53.602384021505713" lon="-1.219531958922744">
        <ele>29.940000000000001</ele>
        <time>2023-09-03T12:37:58Z</time>
      </trkpt>
      <trkpt lat="53.599568037316203" lon="-1.217532958835363">
        <ele>30.420000000000002</ele>
        <time>2023-09-03T12:38:09Z</time>
      </trkpt>
      <trkpt lat="53.59765000641346" lon="-1.216957960277796">
        <ele>32.340000000000003</ele>
        <time>2023-09-03T12:38:17Z</time>
      </trkpt>
      <trkpt lat="53.594329012557864" lon="-1.21629998087883">
        <ele>36.189999999999998</ele>
        <time>2023-09-03T12:38:28Z</time>
      </trkpt>
      <trkpt lat="53.59133499674499" lon="-1.215102039277554">
        <ele>33.780000000000001</ele>
        <time>2023-09-03T12:38:39Z</time>
      </trkpt>
      <trkpt lat="53.587520979344845" lon="-1.213619029149413">
        <ele>28.98</ele>
        <time>2023-09-03T12:38:53Z</time>
      </trkpt>
      <trkpt lat="53.583193989470601" lon="-1.21187400072813">
        <ele>17.440000000000001</ele>
        <time>2023-09-03T12:39:09Z</time>
      </trkpt>
      <trkpt lat="53.580984016880393" lon="-1.211459012702107">
        <ele>21.289999999999999</ele>
        <time>2023-09-03T12:39:17Z</time>
      </trkpt>
      <trkpt lat="53.579060034826398" lon="-1.211951030418277">
        <ele>24.649999999999999</ele>
        <time>2023-09-03T12:39:24Z</time>
      </trkpt>
      <trkpt lat="53.578001987189054" lon="-1.212499039247632">
        <ele>27.530000000000001</ele>
        <time>2023-09-03T12:39:28Z</time>
      </trkpt>
      <trkpt lat="53.577742986381054" lon="-1.212651003152132">
        <ele>28.98</ele>
        <time>2023-09-03T12:39:29Z</time>
      </trkpt>
      <trkpt lat="53.575188014656305" lon="-1.214541038498282">
        <ele>39.07</ele>
        <time>2023-09-03T12:39:39Z</time>
      </trkpt>
      <trkpt lat="53.57249197550118" lon="-1.217067008838058">
        <ele>48.200000000000003</ele>
        <time>2023-09-03T12:39:50Z</time>
      </trkpt>
      <trkpt lat="53.570105982944369" lon="-1.218406017869711">
        <ele>52.049999999999997</ele>
        <time>2023-09-03T12:39:59Z</time>
      </trkpt>
      <trkpt lat="53.567883018404245" lon="-1.218816982582212">
        <ele>50.130000000000003</ele>
        <time>2023-09-03T12:40:07Z</time>
      </trkpt>
      <trkpt lat="53.565643960610032" lon="-1.218424960970879">
        <ele>44.359999999999999</ele>
        <time>2023-09-03T12:40:15Z</time>
      </trkpt>
      <trkpt lat="53.562916992232203" lon="-1.217276975512505">
        <ele>34.740000000000002</ele>
        <time>2023-09-03T12:40:25Z</time>
      </trkpt>
      <trkpt lat="53.55962198227644" lon="-1.216469965875149">
        <ele>28.98</ele>
        <time>2023-09-03T12:40:37Z</time>
      </trkpt>
      <trkpt lat="53.556301994249225" lon="-1.216036034747958">
        <ele>32.82</ele>
        <time>2023-09-03T12:40:49Z</time>
      </trkpt>
      <trkpt lat="53.553295992314816" lon="-1.214925013482571">
        <ele>35.710000000000001</ele>
        <time>2023-09-03T12:41:00Z</time>
      </trkpt>
      <trkpt lat="53.550422005355358" lon="-1.213023997843266">
        <ele>34.259999999999998</ele>
        <time>2023-09-03T12:41:11Z</time>
      </trkpt>
      <trkpt lat="53.546371031552553" lon="-1.209900984540582">
        <ele>36.670000000000002</ele>
        <time>2023-09-03T12:41:27Z</time>
      </trkpt>
      <trkpt lat="53.542081005871296" lon="-1.20656699873507">
        <ele>47.240000000000002</ele>
        <time>2023-09-03T12:41:44Z</time>
      </trkpt>
      <trkpt lat="53.539430983364582" lon="-1.203909013420343">
        <ele>53.009999999999998</ele>
        <time>2023-09-03T12:41:55Z</time>
      </trkpt>
      <trkpt lat="53.536871988326311" lon="-1.200264981016517">
        <ele>53.969999999999999</ele>
        <time>2023-09-03T12:42:07Z</time>
      </trkpt>
      <trkpt lat="53.534815991297364" lon="-1.197092011570931">
        <ele>53.009999999999998</ele>
        <time>2023-09-03T12:42:17Z</time>
      </trkpt>
      <trkpt lat="53.532222965732217" lon="-1.193089988082647">
        <ele>51.57</ele>
        <time>2023-09-03T12:42:30Z</time>
      </trkpt>
      <trkpt lat="53.530367966741323" lon="-1.190228993073106">
        <ele>49.649999999999999</ele>
        <time>2023-09-03T12:42:41Z</time>
      </trkpt>
      <trkpt lat="53.528728969395161" lon="-1.18791600689292">
        <ele>47.719999999999999</ele>
        <time>2023-09-03T12:42:49Z</time>
      </trkpt>
      <trkpt lat="53.526951000094414" lon="-1.185689019039273">
        <ele>46.280000000000001</ele>
        <time>2023-09-03T12:42:57Z</time>
      </trkpt>
      <trkpt lat="53.524166028946638" lon="-1.182570029050112">
        <ele>42.920000000000002</ele>
        <time>2023-09-03T12:43:09Z</time>
      </trkpt>
      <trkpt lat="53.52133302949369" lon="-1.178724998608232">
        <ele>37.630000000000003</ele>
        <time>2023-09-03T12:43:22Z</time>
      </trkpt>
      <trkpt lat="53.519298993051052" lon="-1.176288966089487">
        <ele>32.82</ele>
        <time>2023-09-03T12:43:31Z</time>
      </trkpt>
      <trkpt lat="53.517234027385712" lon="-1.17496102117002">
        <ele>29.460000000000001</ele>
        <time>2023-09-03T12:43:39Z</time>
      </trkpt>
      <trkpt lat="53.515032017603517" lon="-1.174534969031811">
        <ele>28.5</ele>
        <time>2023-09-03T12:43:47Z</time>
      </trkpt>
      <trkpt lat="53.512837970629334" lon="-1.175024975091219">
        <ele>28.5</ele>
        <time>2023-09-03T12:43:55Z</time>
      </trkpt>
      <trkpt lat="53.508779034018517" lon="-1.176614016294479">
        <ele>31.379999999999999</ele>
        <time>2023-09-03T12:44:10Z</time>
      </trkpt>
      <trkpt lat="53.50629698485136" lon="-1.177240982651711">
        <ele>34.259999999999998</ele>
        <time>2023-09-03T12:44:19Z</time>
      </trkpt>
      <trkpt lat="53.504351964220405" lon="-1.176929008215666">
        <ele>39.07</ele>
        <time>2023-09-03T12:44:26Z</time>
      </trkpt>
      <trkpt lat="53.501953985542059" lon="-1.175544988363981">
        <ele>38.590000000000003</ele>
        <time>2023-09-03T12:44:35Z</time>
      </trkpt>
      <trkpt lat="53.499624989926815" lon="-1.174002969637513">
        <ele>29.460000000000001</ele>
        <time>2023-09-03T12:44:44Z</time>
      </trkpt>
      <trkpt lat="53.497360032051802" lon="-1.172152999788523">
        <ele>24.649999999999999</ele>
        <time>2023-09-03T12:44:53Z</time>
      </trkpt>
      <trkpt lat="53.495409982278943" lon="-1.169514963403344">
        <ele>22.73</ele>
        <time>2023-09-03T12:45:02Z</time>
      </trkpt>
      <trkpt lat="53.493578033521771" lon="-1.165977967903018">
        <ele>21.77</ele>
        <time>2023-09-03T12:45:12Z</time>
      </trkpt>
      <trkpt lat="53.492013970389962" lon="-1.16329500451684">
        <ele>19.359999999999999</ele>
        <time>2023-09-03T12:45:20Z</time>
      </trkpt>
      <trkpt lat="53.489661002531648" lon="-1.159995971247554">
        <ele>18.879999999999999</ele>
        <time>2023-09-03T12:45:31Z</time>
      </trkpt>
      <trkpt lat="53.48663697950542" lon="-1.155852964147925">
        <ele>21.77</ele>
        <time>2023-09-03T12:45:45Z</time>
      </trkpt>
      <trkpt lat="53.484130958095193" lon="-1.152837993577123">
        <ele>24.170000000000002</ele>
        <time>2023-09-03T12:45:56Z</time>
      </trkpt>
      <trkpt lat="53.480504024773836" lon="-1.149273002520204">
        <ele>23.690000000000001</ele>
        <time>2023-09-03T12:46:11Z</time>
      </trkpt>
      <trkpt lat="53.478803001344204" lon="-1.147630987688899">
        <ele>25.609999999999999</ele>
        <time>2023-09-03T12:46:18Z</time>
      </trkpt>
      <trkpt lat="53.476139986887574" lon="-1.145042991265655">
        <ele>25.609999999999999</ele>
        <time>2023-09-03T12:46:29Z</time>
      </trkpt>
      <trkpt lat="53.473312016576529" lon="-1.14208803512156">
        <ele>25.129999999999999</ele>
        <time>2023-09-03T12:46:41Z</time>
      </trkpt>
      <trkpt lat="53.471980970352888" lon="-1.140421964228153">
        <ele>25.609999999999999</ele>
        <time>2023-09-03T12:46:47Z</time>
      </trkpt>
      <trkpt lat="53.469228018075228" lon="-1.136475009843707">
        <ele>30.899999999999999</ele>
        <time>2023-09-03T12:47:00Z</time>
      </trkpt>
      <trkpt lat="53.466862980276346" lon="-1.133158039301634">
        <ele>35.229999999999997</ele>
        <time>2023-09-03T12:47:11Z</time>
      </trkpt>
      <trkpt lat="53.464327035471797" lon="-1.130238035693765">
        <ele>37.149999999999999</ele>
        <time>2023-09-03T12:47:22Z</time>
      </trkpt>
      <trkpt lat="53.461897037923336" lon="-1.127898981794715">
        <ele>36.189999999999998</ele>
        <time>2023-09-03T12:47:32Z</time>
      </trkpt>
      <trkpt lat="53.459167974069715" lon="-1.124616963788867">
        <ele>33.780000000000001</ele>
        <time>2023-09-03T12:47:44Z</time>
      </trkpt>
      <trkpt lat="53.457358991727233" lon="-1.121709030121565">
        <ele>30.899999999999999</ele>
        <time>2023-09-03T12:47:53Z</time>
      </trkpt>
      <trkpt lat="53.455373989418149" lon="-1.117770960554481">
        <ele>26.09</ele>
        <time>2023-09-03T12:48:04Z</time>
      </trkpt>
      <trkpt lat="53.45313903875649" lon="-1.114271013066173">
        <ele>21.289999999999999</ele>
        <time>2023-09-03T12:48:15Z</time>
      </trkpt>
      <trkpt lat="53.451092010363936" lon="-1.11183799803257">
        <ele>19.359999999999999</ele>
        <time>2023-09-03T12:48:24Z</time>
      </trkpt>
      <trkpt lat="53.448704006150365" lon="-1.10947597771883">
        <ele>16.48</ele>
        <time>2023-09-03T12:48:34Z</time>
      </trkpt>
      <trkpt lat="53.445076989009976" lon="-1.105953985825181">
        <ele>14.56</ele>
        <time>2023-09-03T12:48:49Z</time>
      </trkpt>
      <trkpt lat="53.44214097596705" lon="-1.103210002183914">
        <ele>14.56</ele>
        <time>2023-09-03T12:49:01Z</time>
      </trkpt>
      <trkpt lat="53.43876801431179" lon="-1.10092299990356">
        <ele>13.119999999999999</ele>
        <time>2023-09-03T12:49:14Z</time>
      </trkpt>
      <trkpt lat="53.436544965952635" lon="-1.098994994536042">
        <ele>15.52</ele>
        <time>2023-09-03T12:49:23Z</time>
      </trkpt>
      <trkpt lat="53.433948000892997" lon="-1.096246987581253">
        <ele>21.77</ele>
        <time>2023-09-03T12:49:34Z</time>
      </trkpt>
      <trkpt lat="53.432126026600599" lon="-1.095018032938242">
        <ele>23.210000000000001</ele>
        <time>2023-09-03T12:49:41Z</time>
      </trkpt>
      <trkpt lat="53.429930973798037" lon="-1.094285035505891">
        <ele>20.32</ele>
        <time>2023-09-03T12:49:49Z</time>
      </trkpt>
      <trkpt lat="53.426083009690046" lon="-1.09327401034534">
        <ele>14.56</ele>
        <time>2023-09-03T12:50:03Z</time>
      </trkpt>
      <trkpt lat="53.423669021576643" lon="-1.092196013778448">
        <ele>14.08</ele>
        <time>2023-09-03T12:50:12Z</time>
      </trkpt>
      <trkpt lat="53.42138403095305" lon="-1.090464983135462">
        <ele>15.039999999999999</ele>
        <time>2023-09-03T12:50:21Z</time>
      </trkpt>
      <trkpt lat="53.418763009831309" lon="-1.087801968678832">
        <ele>17.440000000000001</ele>
        <time>2023-09-03T12:50:32Z</time>
      </trkpt>
      <trkpt lat="53.415530025959015" lon="-1.085053039714694">
        <ele>23.690000000000001</ele>
        <time>2023-09-03T12:50:45Z</time>
      </trkpt>
      <trkpt lat="53.412118004634976" lon="-1.082994025200605">
        <ele>27.050000000000001</ele>
        <time>2023-09-03T12:50:58Z</time>
      </trkpt>
      <trkpt lat="53.408853001892567" lon="-1.081675970926881">
        <ele>24.649999999999999</ele>
        <time>2023-09-03T12:51:10Z</time>
      </trkpt>
      <trkpt lat="53.405543994158506" lon="-1.080783968791366">
        <ele>21.77</ele>
        <time>2023-09-03T12:51:22Z</time>
      </trkpt>
      <trkpt lat="53.40202703140676" lon="-1.079318979755044">
        <ele>16.960000000000001</ele>
        <time>2023-09-03T12:51:35Z</time>
      </trkpt>
      <trkpt lat="53.398644011467695" lon="-1.077100038528442">
        <ele>14.56</ele>
        <time>2023-09-03T12:51:48Z</time>
      </trkpt>
      <trkpt lat="53.395444974303246" lon="-1.07423703186214">
        <ele>14.56</ele>
        <time>2023-09-03T12:52:01Z</time>
      </trkpt>
      <trkpt lat="53.392692022025585" lon="-1.071026008576155">
        <ele>17.920000000000002</ele>
        <time>2023-09-03T12:52:13Z</time>
      </trkpt>
      <trkpt lat="53.389764977619052" lon="-1.066661970689893">
        <ele>22.25</ele>
        <time>2023-09-03T12:52:27Z</time>
      </trkpt>
      <trkpt lat="53.387714009732008" lon="-1.062887012958527">
        <ele>19.84</ele>
        <time>2023-09-03T12:52:38Z</time>
      </trkpt>
      <trkpt lat="53.385654995217919" lon="-1.059095961973071">
        <ele>23.690000000000001</ele>
        <time>2023-09-03T12:52:49Z</time>
      </trkpt>
      <trkpt lat="53.383826985955238" lon="-1.056922031566501">
        <ele>25.609999999999999</ele>
        <time>2023-09-03T12:52:57Z</time>
      </trkpt>
      <trkpt lat="53.381826980039477" lon="-1.055261995643377">
        <ele>23.690000000000001</ele>
        <time>2023-09-03T12:53:05Z</time>
      </trkpt>
      <trkpt lat="53.379159020259976" lon="-1.053990963846445">
        <ele>20.809999999999999</ele>
        <time>2023-09-03T12:53:15Z</time>
      </trkpt>
      <trkpt lat="53.376387963071465" lon="-1.053595002740622">
        <ele>18.399999999999999</ele>
        <time>2023-09-03T12:53:25Z</time>
      </trkpt>
      <trkpt lat="53.37390398606658" lon="-1.054047960788012">
        <ele>19.84</ele>
        <time>2023-09-03T12:53:34Z</time>
      </trkpt>
      <trkpt lat="53.37005602195859" lon="-1.055006012320519">
        <ele>24.170000000000002</ele>
        <time>2023-09-03T12:53:48Z</time>
      </trkpt>
      <trkpt lat="53.368108989670873" lon="-1.054659001529217">
        <ele>26.09</ele>
        <time>2023-09-03T12:53:55Z</time>
      </trkpt>
      <trkpt lat="53.36627603508532" lon="-1.053561978042126">
        <ele>30.899999999999999</ele>
        <time>2023-09-03T12:54:02Z</time>
      </trkpt>
      <trkpt lat="53.363878978416324" lon="-1.051132986322045">
        <ele>33.299999999999997</ele>
        <time>2023-09-03T12:54:12Z</time>
      </trkpt>
      <trkpt lat="53.361070035025477" lon="-1.04809002019465">
        <ele>34.740000000000002</ele>
        <time>2023-09-03T12:54:24Z</time>
      </trkpt>
      <trkpt lat="53.359353002160788" lon="-1.045693969354034">
        <ele>35.710000000000001</ele>
        <time>2023-09-03T12:54:32Z</time>
      </trkpt>
      <trkpt lat="53.356828959658742" lon="-1.042059995234013">
        <ele>38.109999999999999</ele>
        <time>2023-09-03T12:54:44Z</time>
      </trkpt>
      <trkpt lat="53.354368032887578" lon="-1.038953997194767">
        <ele>38.590000000000003</ele>
        <time>2023-09-03T12:54:55Z</time>
      </trkpt>
      <trkpt lat="53.350829025730491" lon="-1.035146014764905">
        <ele>31.379999999999999</ele>
        <time>2023-09-03T12:55:10Z</time>
      </trkpt>
      <trkpt lat="53.348118988797069" lon="-1.032767985016108">
        <ele>25.609999999999999</ele>
        <time>2023-09-03T12:55:21Z</time>
      </trkpt>
      <trkpt lat="53.345246007665992" lon="-1.030992027372122">
        <ele>24.170000000000002</ele>
        <time>2023-09-03T12:55:32Z</time>
      </trkpt>
      <trkpt lat="53.34169602021575" lon="-1.029672967270017">
        <ele>22.25</ele>
        <time>2023-09-03T12:55:45Z</time>
      </trkpt>
      <trkpt lat="53.338123988360167" lon="-1.028738971799612">
        <ele>21.77</ele>
        <time>2023-09-03T12:55:58Z</time>
      </trkpt>
      <trkpt lat="53.334226990118623" lon="-1.028163973242044">
        <ele>27.530000000000001</ele>
        <time>2023-09-03T12:56:12Z</time>
      </trkpt>
      <trkpt lat="53.330318005755544" lon="-1.027601966634393">
        <ele>26.09</ele>
        <time>2023-09-03T12:56:26Z</time>
      </trkpt>
      <trkpt lat="53.326694006100297" lon="-1.027308013290167">
        <ele>25.609999999999999</ele>
        <time>2023-09-03T12:56:39Z</time>
      </trkpt>
      <trkpt lat="53.323889002203941" lon="-1.027434999123216">
        <ele>24.649999999999999</ele>
        <time>2023-09-03T12:56:49Z</time>
      </trkpt>
      <trkpt lat="53.320279000326991" lon="-1.027740016579628">
        <ele>27.050000000000001</ele>
        <time>2023-09-03T12:57:02Z</time>
      </trkpt>
      <trkpt lat="53.31795402802527" lon="-1.028194986283779">
        <ele>30.899999999999999</ele>
        <time>2023-09-03T12:57:11Z</time>
      </trkpt>
      <trkpt lat="53.3157869707793" lon="-1.028624977916479">
        <ele>34.740000000000002</ele>
        <time>2023-09-03T12:57:20Z</time>
      </trkpt>
      <trkpt lat="53.312807958573103" lon="-1.029233001172543">
        <ele>34.740000000000002</ele>
        <time>2023-09-03T12:57:31Z</time>
      </trkpt>
      <trkpt lat="53.309642029926181" lon="-1.029777992516756">
        <ele>33.299999999999997</ele>
        <time>2023-09-03T12:57:43Z</time>
      </trkpt>
      <trkpt lat="53.307016985490918" lon="-1.030287025496364">
        <ele>38.590000000000003</ele>
        <time>2023-09-03T12:57:54Z</time>
      </trkpt>
      <trkpt lat="53.305205991491675" lon="-1.030878033488989">
        <ele>41.950000000000003</ele>
        <time>2023-09-03T12:58:01Z</time>
      </trkpt>
      <trkpt lat="53.302578013390303" lon="-1.031602984294295">
        <ele>47.719999999999999</ele>
        <time>2023-09-03T12:58:11Z</time>
      </trkpt>
      <trkpt lat="53.30051003023982" lon="-1.031546993181109">
        <ele>46.280000000000001</ele>
        <time>2023-09-03T12:58:19Z</time>
      </trkpt>
      <trkpt lat="53.298122026026249" lon="-1.030718022957444">
        <ele>44.840000000000003</ele>
        <time>2023-09-03T12:58:28Z</time>
      </trkpt>
      <trkpt lat="53.295835023745894" lon="-1.029147002846003">
        <ele>42.920000000000002</ele>
        <time>2023-09-03T12:58:37Z</time>
      </trkpt>
      <trkpt lat="53.293690010905266" lon="-1.026968965306878">
        <ele>46.280000000000001</ele>
        <time>2023-09-03T12:58:46Z</time>
      </trkpt>
      <trkpt lat="53.292200965806842" lon="-1.024692021310329">
        <ele>49.159999999999997</ele>
        <time>2023-09-03T12:58:53Z</time>
      </trkpt>
      <trkpt lat="53.290910990908742" lon="-1.021468006074429">
        <ele>50.130000000000003</ele>
        <time>2023-09-03T12:59:01Z</time>
      </trkpt>
      <trkpt lat="53.289927961304784" lon="-1.017580982297659">
        <ele>51.090000000000003</ele>
        <time>2023-09-03T12:59:10Z</time>
      </trkpt>
      <trkpt lat="53.289216002449393" lon="-1.014472972601652">
        <ele>50.130000000000003</ele>
        <time>2023-09-03T12:59:18Z</time>
      </trkpt>
      <trkpt lat="53.288152003660798" lon="-1.00982503965497">
        <ele>47.240000000000002</ele>
        <time>2023-09-03T12:59:29Z</time>
      </trkpt>
      <trkpt lat="53.287267964333296" lon="-1.006133984774351">
        <ele>46.759999999999998</ele>
        <time>2023-09-03T12:59:38Z</time>
      </trkpt>
      <trkpt lat="53.286027023568749" lon="-1.001164019107819">
        <ele>41.469999999999999</ele>
        <time>2023-09-03T12:59:51Z</time>
      </trkpt>
      <trkpt lat="53.284735037013888" lon="-0.996263036504388">
        <ele>41.469999999999999</ele>
        <time>2023-09-03T13:00:04Z</time>
      </trkpt>
      <trkpt lat="53.283643964678049" lon="-0.993280000984669">
        <ele>41.469999999999999</ele>
        <time>2023-09-03T13:00:12Z</time>
      </trkpt>
      <trkpt lat="53.281869012862444" lon="-0.989313013851643">
        <ele>41.950000000000003</ele>
        <time>2023-09-03T13:00:24Z</time>
      </trkpt>
      <trkpt lat="53.280008984729648" lon="-0.985220968723297">
        <ele>45.32</ele>
        <time>2023-09-03T13:00:37Z</time>
      </trkpt>
      <trkpt lat="53.278086008504033" lon="-0.981498984619975">
        <ele>40.030000000000001</ele>
        <time>2023-09-03T13:00:49Z</time>
      </trkpt>
      <trkpt lat="53.276506019756198" lon="-0.979658989235759">
        <ele>38.590000000000003</ele>
        <time>2023-09-03T13:00:56Z</time>
      </trkpt>
      <trkpt lat="53.275269018486142" lon="-0.977635011076927">
        <ele>37.149999999999999</ele>
        <time>2023-09-03T13:01:02Z</time>
      </trkpt>
      <trkpt lat="53.274410041049123" lon="-0.975259998813272">
        <ele>36.189999999999998</ele>
        <time>2023-09-03T13:01:08Z</time>
      </trkpt>
      <trkpt lat="53.273979965597391" lon="-0.972917005419731">
        <ele>34.740000000000002</ele>
        <time>2023-09-03T13:01:14Z</time>
      </trkpt>
      <trkpt lat="53.273774022236466" lon="-0.970218032598495">
        <ele>32.340000000000003</ele>
        <time>2023-09-03T13:01:22Z</time>
      </trkpt>
      <trkpt lat="53.273227019235492" lon="-0.967009020969272">
        <ele>29.940000000000001</ele>
        <time>2023-09-03T13:01:32Z</time>
      </trkpt>
      <trkpt lat="53.272151034325361" lon="-0.96232496201992">
        <ele>32.340000000000003</ele>
        <time>2023-09-03T13:01:47Z</time>
      </trkpt>
      <trkpt lat="53.271172028034925" lon="-0.95976697281003">
        <ele>32.340000000000003</ele>
        <time>2023-09-03T13:01:56Z</time>
      </trkpt>
      <trkpt lat="53.270212970674038" lon="-0.956828026100993">
        <ele>28.02</ele>
        <time>2023-09-03T13:02:06Z</time>
      </trkpt>
      <trkpt lat="53.269649958238006" lon="-0.953609040006995">
        <ele>21.77</ele>
        <time>2023-09-03T13:02:16Z</time>
      </trkpt>
      <trkpt lat="53.268717974424362" lon="-0.950694987550378">
        <ele>18.879999999999999</ele>
        <time>2023-09-03T13:02:26Z</time>
      </trkpt>
      <trkpt lat="53.267351975664496" lon="-0.948248980566859">
        <ele>19.84</ele>
        <time>2023-09-03T13:02:36Z</time>
      </trkpt>
      <trkpt lat="53.265581969171762" lon="-0.946046970784664">
        <ele>20.809999999999999</ele>
        <time>2023-09-03T13:02:47Z</time>
      </trkpt>
      <trkpt lat="53.264299035072327" lon="-0.944264978170395">
        <ele>22.25</ele>
        <time>2023-09-03T13:02:54Z</time>
      </trkpt>
      <trkpt lat="53.262123009189963" lon="-0.940869972109795">
        <ele>24.170000000000002</ele>
        <time>2023-09-03T13:03:05Z</time>
      </trkpt>
      <trkpt lat="53.260109005495906" lon="-0.937018990516663">
        <ele>23.690000000000001</ele>
        <time>2023-09-03T13:03:16Z</time>
      </trkpt>
      <trkpt lat="53.257901966571808" lon="-0.931612998247147">
        <ele>23.210000000000001</ele>
        <time>2023-09-03T13:03:30Z</time>
      </trkpt>
      <trkpt lat="53.256619032472372" lon="-0.927765034139156">
        <ele>25.129999999999999</ele>
        <time>2023-09-03T13:03:40Z</time>
      </trkpt>
      <trkpt lat="53.255054969340563" lon="-0.922435987740755">
        <ele>29.940000000000001</ele>
        <time>2023-09-03T13:03:53Z</time>
      </trkpt>
      <trkpt lat="53.253196030855179" lon="-0.916747022420168">
        <ele>41.469999999999999</ele>
        <time>2023-09-03T13:04:07Z</time>
      </trkpt>
      <trkpt lat="53.251626016572118" lon="-0.91290601529181">
        <ele>52.530000000000001</ele>
        <time>2023-09-03T13:04:17Z</time>
      </trkpt>
      <trkpt lat="53.249765988439322" lon="-0.909431967884302">
        <ele>60.700000000000003</ele>
        <time>2023-09-03T13:04:27Z</time>
      </trkpt>
      <trkpt lat="53.247387958690524" lon="-0.906157996505499">
        <ele>65.510000000000005</ele>
        <time>2023-09-03T13:04:38Z</time>
      </trkpt>
      <trkpt lat="53.245965968817472" lon="-0.90465503744781">
        <ele>65.989999999999995</ele>
        <time>2023-09-03T13:04:44Z</time>
      </trkpt>
      <trkpt lat="53.24572398327291" lon="-0.904425960034132">
        <ele>66.469999999999999</ele>
        <time>2023-09-03T13:04:45Z</time>
      </trkpt>
      <trkpt lat="53.243478974327445" lon="-0.902584958821535">
        <ele>64.549999999999997</ele>
        <time>2023-09-03T13:04:54Z</time>
      </trkpt>
      <trkpt lat="53.240283038467169" lon="-0.900930035859346">
        <ele>61.18</ele>
        <time>2023-09-03T13:05:06Z</time>
      </trkpt>
      <trkpt lat="53.237029016017914" lon="-0.899474015459418">
        <ele>59.740000000000002</ele>
        <time>2023-09-03T13:05:18Z</time>
      </trkpt>
      <trkpt lat="53.235194971784949" lon="-0.89842401444912">
        <ele>58.299999999999997</ele>
        <time>2023-09-03T13:05:25Z</time>
      </trkpt>
      <trkpt lat="53.231885964050889" lon="-0.895936014130712">
        <ele>59.740000000000002</ele>
        <time>2023-09-03T13:05:38Z</time>
      </trkpt>
      <trkpt lat="53.229943960905075" lon="-0.894058970734477">
        <ele>61.659999999999997</ele>
        <time>2023-09-03T13:05:46Z</time>
      </trkpt>
      <trkpt lat="53.227547993883491" lon="-0.89161497540772">
        <ele>54.93</ele>
        <time>2023-09-03T13:05:56Z</time>
      </trkpt>
      <trkpt lat="53.224463034421206" lon="-0.888411998748779">
        <ele>47.719999999999999</ele>
        <time>2023-09-03T13:06:09Z</time>
      </trkpt>
      <trkpt lat="53.221628023311496" lon="-0.885453019291162">
        <ele>43.880000000000003</ele>
        <time>2023-09-03T13:06:21Z</time>
      </trkpt>
      <trkpt lat="53.218582961708307" lon="-0.882171001285315">
        <ele>41.469999999999999</ele>
        <time>2023-09-03T13:06:34Z</time>
      </trkpt>
      <trkpt lat="53.215845013037324" lon="-0.878962995484471">
        <ele>40.509999999999998</ele>
        <time>2023-09-03T13:06:46Z</time>
      </trkpt>
      <trkpt lat="53.212760975584388" lon="-0.874979998916388">
        <ele>39.07</ele>
        <time>2023-09-03T13:07:00Z</time>
      </trkpt>
      <trkpt lat="53.210370959714055" lon="-0.871743997558951">
        <ele>36.670000000000002</ele>
        <time>2023-09-03T13:07:11Z</time>
      </trkpt>
      <trkpt lat="53.208057973533869" lon="-0.868365000933409">
        <ele>34.259999999999998</ele>
        <time>2023-09-03T13:07:22Z</time>
      </trkpt>
      <trkpt lat="53.206438003107905" lon="-0.86580902338028">
        <ele>32.340000000000003</ele>
        <time>2023-09-03T13:07:30Z</time>
      </trkpt>
      <trkpt lat="53.203466031700373" lon="-0.860866969451308">
        <ele>33.299999999999997</ele>
        <time>2023-09-03T13:07:45Z</time>
      </trkpt>
      <trkpt lat="53.200645018368959" lon="-0.855687037110329">
        <ele>30.899999999999999</ele>
        <time>2023-09-03T13:08:00Z</time>
      </trkpt>
      <trkpt lat="53.198137991130352" lon="-0.850698966532946">
        <ele>28.02</ele>
        <time>2023-09-03T13:08:14Z</time>
      </trkpt>
      <trkpt lat="53.195909997448325" lon="-0.845900997519493">
        <ele>26.57</ele>
        <time>2023-09-03T13:08:27Z</time>
      </trkpt>
      <trkpt lat="53.193536996841431" lon="-0.840749982744455">
        <ele>28.5</ele>
        <time>2023-09-03T13:08:41Z</time>
      </trkpt>
      <trkpt lat="53.191422997042537" lon="-0.836384017020464">
        <ele>28.98</ele>
        <time>2023-09-03T13:08:53Z</time>
      </trkpt>
      <trkpt lat="53.189354008063674" lon="-0.832574022933841">
        <ele>24.170000000000002</ele>
        <time>2023-09-03T13:09:04Z</time>
      </trkpt>
      <trkpt lat="53.186567025259137" lon="-0.828055003657937">
        <ele>19.359999999999999</ele>
        <time>2023-09-03T13:09:18Z</time>
      </trkpt>
      <trkpt lat="53.183814994990826" lon="-0.824154987931252">
        <ele>21.77</ele>
        <time>2023-09-03T13:09:31Z</time>
      </trkpt>
      <trkpt lat="53.181105963885784" lon="-0.820867018774152">
        <ele>25.609999999999999</ele>
        <time>2023-09-03T13:09:43Z</time>
      </trkpt>
      <trkpt lat="53.17806601524353" lon="-0.817546024918556">
        <ele>28.02</ele>
        <time>2023-09-03T13:09:56Z</time>
      </trkpt>
      <trkpt lat="53.174953982234001" lon="-0.814414964988828">
        <ele>26.57</ele>
        <time>2023-09-03T13:10:09Z</time>
      </trkpt>
      <trkpt lat="53.173152962699533" lon="-0.81315197981894">
        <ele>22.25</ele>
        <time>2023-09-03T13:10:16Z</time>
      </trkpt>
      <trkpt lat="53.168855980038643" lon="-0.811179969459772">
        <ele>14.08</ele>
        <time>2023-09-03T13:10:32Z</time>
      </trkpt>
      <trkpt lat="53.165360977873206" lon="-0.809596963226795">
        <ele>13.119999999999999</ele>
        <time>2023-09-03T13:10:45Z</time>
      </trkpt>
      <trkpt lat="53.162400992587209" lon="-0.808268012478948">
        <ele>14.08</ele>
        <time>2023-09-03T13:10:56Z</time>
      </trkpt>
      <trkpt lat="53.159175971522927" lon="-0.80681199207902">
        <ele>14.56</ele>
        <time>2023-09-03T13:11:08Z</time>
      </trkpt>
      <trkpt lat="53.155644005164504" lon="-0.805406011641026">
        <ele>16</ele>
        <time>2023-09-03T13:11:21Z</time>
      </trkpt>
      <trkpt lat="53.153417017310858" lon="-0.80537298694253">
        <ele>16</ele>
        <time>2023-09-03T13:11:29Z</time>
      </trkpt>
      <trkpt lat="53.150630034506321" lon="-0.805219011381269">
        <ele>15.52</ele>
        <time>2023-09-03T13:11:39Z</time>
      </trkpt>
      <trkpt lat="53.147900970652699" lon="-0.804165992885828">
        <ele>15.52</ele>
        <time>2023-09-03T13:11:49Z</time>
      </trkpt>
      <trkpt lat="53.145712958648801" lon="-0.803613038733602">
        <ele>15.52</ele>
        <time>2023-09-03T13:11:57Z</time>
      </trkpt>
      <trkpt lat="53.143766010180116" lon="-0.803876984864473">
        <ele>16.960000000000001</ele>
        <time>2023-09-03T13:12:04Z</time>
      </trkpt>
      <trkpt lat="53.141638012602925" lon="-0.804952969774604">
        <ele>17.440000000000001</ele>
        <time>2023-09-03T13:12:12Z</time>
      </trkpt>
      <trkpt lat="53.138186009600759" lon="-0.806853985413909">
        <ele>17.440000000000001</ele>
        <time>2023-09-03T13:12:25Z</time>
      </trkpt>
      <trkpt lat="53.134164959192276" lon="-0.80874502658844">
        <ele>16.960000000000001</ele>
        <time>2023-09-03T13:12:40Z</time>
      </trkpt>
      <trkpt lat="53.131568999961019" lon="-0.810418976470828">
        <ele>16.48</ele>
        <time>2023-09-03T13:12:50Z</time>
      </trkpt>
      <trkpt lat="53.128013983368874" lon="-0.813117027282715">
        <ele>16.48</ele>
        <time>2023-09-03T13:13:04Z</time>
      </trkpt>
      <trkpt lat="53.125465968623757" lon="-0.815040003508329">
        <ele>17.440000000000001</ele>
        <time>2023-09-03T13:13:14Z</time>
      </trkpt>
      <trkpt lat="53.12332397326827" lon="-0.815992020070553">
        <ele>19.84</ele>
        <time>2023-09-03T13:13:22Z</time>
      </trkpt>
      <trkpt lat="53.121112994849682" lon="-0.816164016723633">
        <ele>22.73</ele>
        <time>2023-09-03T13:13:30Z</time>
      </trkpt>
      <trkpt lat="53.117181966081262" lon="-0.816122023388743">
        <ele>20.32</ele>
        <time>2023-09-03T13:13:44Z</time>
      </trkpt>
      <trkpt lat="53.114419961348176" lon="-0.815589018166065">
        <ele>18.399999999999999</ele>
        <time>2023-09-03T13:13:54Z</time>
      </trkpt>
      <trkpt lat="53.111758958548307" lon="-0.814187983050942">
        <ele>18.399999999999999</ele>
        <time>2023-09-03T13:14:04Z</time>
      </trkpt>
      <trkpt lat="53.109301971271634" lon="-0.812006006017327">
        <ele>17.920000000000002</ele>
        <time>2023-09-03T13:14:14Z</time>
      </trkpt>
      <trkpt lat="53.106868034228683" lon="-0.808948958292603">
        <ele>19.359999999999999</ele>
        <time>2023-09-03T13:14:25Z</time>
      </trkpt>
      <trkpt lat="53.105105990543962" lon="-0.805957959964871">
        <ele>19.84</ele>
        <time>2023-09-03T13:14:34Z</time>
      </trkpt>
      <trkpt lat="53.103058040142059" lon="-0.801534997299314">
        <ele>21.289999999999999</ele>
        <time>2023-09-03T13:14:46Z</time>
      </trkpt>
      <trkpt lat="53.100886037573218" lon="-0.79669201746583">
        <ele>23.690000000000001</ele>
        <time>2023-09-03T13:14:59Z</time>
      </trkpt>
      <trkpt lat="53.098706994205713" lon="-0.792447002604604">
        <ele>22.73</ele>
        <time>2023-09-03T13:15:11Z</time>
      </trkpt>
      <trkpt lat="53.096792986616492" lon="-0.78975398093462">
        <ele>20.809999999999999</ele>
        <time>2023-09-03T13:15:20Z</time>
      </trkpt>
      <trkpt lat="53.09425100684166" lon="-0.78687597066164">
        <ele>19.359999999999999</ele>
        <time>2023-09-03T13:15:31Z</time>
      </trkpt>
      <trkpt lat="53.091930979862809" lon="-0.784325022250414">
        <ele>20.32</ele>
        <time>2023-09-03T13:15:41Z</time>
      </trkpt>
      <trkpt lat="53.088912991806865" lon="-0.780964968726039">
        <ele>22.73</ele>
        <time>2023-09-03T13:15:54Z</time>
      </trkpt>
      <trkpt lat="53.085657963529229" lon="-0.777395032346249">
        <ele>29.460000000000001</ele>
        <time>2023-09-03T13:16:08Z</time>
      </trkpt>
      <trkpt lat="53.082532016560435" lon="-0.774343013763428">
        <ele>38.109999999999999</ele>
        <time>2023-09-03T13:16:21Z</time>
      </trkpt>
      <trkpt lat="53.079213034361601" lon="-0.771814025938511">
        <ele>42.439999999999998</ele>
        <time>2023-09-03T13:16:34Z</time>
      </trkpt>
      <trkpt lat="53.076301999390125" lon="-0.770136974751949">
        <ele>40.990000000000002</ele>
        <time>2023-09-03T13:16:45Z</time>
      </trkpt>
      <trkpt lat="53.073880970478058" lon="-0.768986977636814">
        <ele>41.950000000000003</ele>
        <time>2023-09-03T13:16:54Z</time>
      </trkpt>
      <trkpt lat="53.070394014939666" lon="-0.767335994169116">
        <ele>41.950000000000003</ele>
        <time>2023-09-03T13:17:07Z</time>
      </trkpt>
      <trkpt lat="53.066630037501454" lon="-0.765676964074373">
        <ele>29.940000000000001</ele>
        <time>2023-09-03T13:17:21Z</time>
      </trkpt>
      <trkpt lat="53.063611965626478" lon="-0.765115963295102">
        <ele>25.609999999999999</ele>
        <time>2023-09-03T13:17:32Z</time>
      </trkpt>
      <trkpt lat="53.061392018571496" lon="-0.765257030725479">
        <ele>26.09</ele>
        <time>2023-09-03T13:17:40Z</time>
      </trkpt>
      <trkpt lat="53.058663038536906" lon="-0.766202006489038">
        <ele>27.530000000000001</ele>
        <time>2023-09-03T13:17:50Z</time>
      </trkpt>
      <trkpt lat="53.056048974394798" lon="-0.767861036583781">
        <ele>29.460000000000001</ele>
        <time>2023-09-03T13:18:00Z</time>
      </trkpt>
      <trkpt lat="53.053428959101439" lon="-0.770548023283482">
        <ele>23.690000000000001</ele>
        <time>2023-09-03T13:18:11Z</time>
      </trkpt>
      <trkpt lat="53.051105998456478" lon="-0.773902041837573">
        <ele>20.809999999999999</ele>
        <time>2023-09-03T13:18:22Z</time>
      </trkpt>
      <trkpt lat="53.049007002264261" lon="-0.776186026632786">
        <ele>20.32</ele>
        <time>2023-09-03T13:18:31Z</time>
      </trkpt>
      <trkpt lat="53.046680018305779" lon="-0.777695020660758">
        <ele>19.84</ele>
        <time>2023-09-03T13:18:40Z</time>
      </trkpt>
      <trkpt lat="53.044478008523583" lon="-0.77823699451983">
        <ele>20.32</ele>
        <time>2023-09-03T13:18:48Z</time>
      </trkpt>
      <trkpt lat="53.041971987113357" lon="-0.778014035895467">
        <ele>20.809999999999999</ele>
        <time>2023-09-03T13:18:57Z</time>
      </trkpt>
      <trkpt lat="53.039566967636347" lon="-0.776848029345274">
        <ele>22.73</ele>
        <time>2023-09-03T13:19:06Z</time>
      </trkpt>
      <trkpt lat="53.036750983446836" lon="-0.774797983467579">
        <ele>24.649999999999999</ele>
        <time>2023-09-03T13:19:17Z</time>
      </trkpt>
      <trkpt lat="53.032423993572593" lon="-0.77157698571682">
        <ele>23.690000000000001</ele>
        <time>2023-09-03T13:19:34Z</time>
      </trkpt>
      <trkpt lat="53.029490998014808" lon="-0.770064974203706">
        <ele>22.73</ele>
        <time>2023-09-03T13:19:45Z</time>
      </trkpt>
      <trkpt lat="53.024578029289842" lon="-0.768310977146029">
        <ele>21.77</ele>
        <time>2023-09-03T13:20:03Z</time>
      </trkpt>
      <trkpt lat="53.020212985575199" lon="-0.766714978963137">
        <ele>21.77</ele>
        <time>2023-09-03T13:20:19Z</time>
      </trkpt>
      <trkpt lat="53.016136027872562" lon="-0.765029964968562">
        <ele>23.210000000000001</ele>
        <time>2023-09-03T13:20:34Z</time>
      </trkpt>
      <trkpt lat="53.013971988111734" lon="-0.764319011941552">
        <ele>22.73</ele>
        <time>2023-09-03T13:20:42Z</time>
      </trkpt>
      <trkpt lat="53.010345976799726" lon="-0.763729009777308">
        <ele>22.73</ele>
        <time>2023-09-03T13:20:55Z</time>
      </trkpt>
      <trkpt lat="53.006748966872692" lon="-0.762922000139952">
        <ele>22.73</ele>
        <time>2023-09-03T13:21:08Z</time>
      </trkpt>
      <trkpt lat="53.003141982480884" lon="-0.762259997427464">
        <ele>23.690000000000001</ele>
        <time>2023-09-03T13:21:21Z</time>
      </trkpt>
      <trkpt lat="53.000066997483373" lon="-0.762609019875526">
        <ele>22.73</ele>
        <time>2023-09-03T13:21:32Z</time>
      </trkpt>
      <trkpt lat="52.997055966407061" lon="-0.763553995639086">
        <ele>22.25</ele>
        <time>2023-09-03T13:21:43Z</time>
      </trkpt>
      <trkpt lat="52.993736984208226" lon="-0.76425296254456">
        <ele>26.09</ele>
        <time>2023-09-03T13:21:55Z</time>
      </trkpt>
      <trkpt lat="52.991794981062412" lon="-0.763849960640073">
        <ele>29.940000000000001</ele>
        <time>2023-09-03T13:22:02Z</time>
      </trkpt>
      <trkpt lat="52.989959008991718" lon="-0.762743968516588">
        <ele>33.299999999999997</ele>
        <time>2023-09-03T13:22:09Z</time>
      </trkpt>
      <trkpt lat="52.98781399615109" lon="-0.760573977604508">
        <ele>36.189999999999998</ele>
        <time>2023-09-03T13:22:18Z</time>
      </trkpt>
      <trkpt lat="52.985186018049717" lon="-0.757104037329555">
        <ele>34.259999999999998</ele>
        <time>2023-09-03T13:22:30Z</time>
      </trkpt>
      <trkpt lat="52.982816034927964" lon="-0.753177031874657">
        <ele>28.98</ele>
        <time>2023-09-03T13:22:42Z</time>
      </trkpt>
      <trkpt lat="52.98093899153173" lon="-0.749126980081201">
        <ele>26.57</ele>
        <time>2023-09-03T13:22:53Z</time>
      </trkpt>
      <trkpt lat="52.979232016950846" lon="-0.744334962219">
        <ele>25.609999999999999</ele>
        <time>2023-09-03T13:23:05Z</time>
      </trkpt>
      <trkpt lat="52.976705962792039" lon="-0.736607015132904">
        <ele>26.57</ele>
        <time>2023-09-03T13:23:24Z</time>
      </trkpt>
      <trkpt lat="52.9747099801898" lon="-0.730516975745559">
        <ele>30.420000000000002</ele>
        <time>2023-09-03T13:23:39Z</time>
      </trkpt>
      <trkpt lat="52.972594974562526" lon="-0.724029969424009">
        <ele>37.630000000000003</ele>
        <time>2023-09-03T13:23:55Z</time>
      </trkpt>
      <trkpt lat="52.971676988527179" lon="-0.720182005316019">
        <ele>40.990000000000002</ele>
        <time>2023-09-03T13:24:04Z</time>
      </trkpt>
      <trkpt lat="52.971187988296151" lon="-0.716060036793351">
        <ele>38.109999999999999</ele>
        <time>2023-09-03T13:24:13Z</time>
      </trkpt>
      <trkpt lat="52.970443004742265" lon="-0.713090999051929">
        <ele>34.740000000000002</ele>
        <time>2023-09-03T13:24:20Z</time>
      </trkpt>
      <trkpt lat="52.968722032383084" lon="-0.706786969676614">
        <ele>31.859999999999999</ele>
        <time>2023-09-03T13:24:35Z</time>
      </trkpt>
      <trkpt lat="52.967362990602851" lon="-0.702770026400685">
        <ele>31.859999999999999</ele>
        <time>2023-09-03T13:24:45Z</time>
      </trkpt>
      <trkpt lat="52.965248990803957" lon="-0.697317011654377">
        <ele>34.259999999999998</ele>
        <time>2023-09-03T13:24:59Z</time>
      </trkpt>
      <trkpt lat="52.963488958775997" lon="-0.693121030926704">
        <ele>35.710000000000001</ele>
        <time>2023-09-03T13:25:10Z</time>
      </trkpt>
      <trkpt lat="52.961840992793441" lon="-0.690644010901451">
        <ele>36.670000000000002</ele>
        <time>2023-09-03T13:25:18Z</time>
      </trkpt>
      <trkpt lat="52.959211003035307" lon="-0.688016032800078">
        <ele>38.590000000000003</ele>
        <time>2023-09-03T13:25:29Z</time>
      </trkpt>
      <trkpt lat="52.954868003726006" lon="-0.683813011273742">
        <ele>40.509999999999998</ele>
        <time>2023-09-03T13:25:47Z</time>
      </trkpt>
      <trkpt lat="52.953019039705396" lon="-0.682764016091824">
        <ele>40.990000000000002</ele>
        <time>2023-09-03T13:25:54Z</time>
      </trkpt>
      <trkpt lat="52.95081602409482" lon="-0.682375011965632">
        <ele>41.469999999999999</ele>
        <time>2023-09-03T13:26:02Z</time>
      </trkpt>
      <trkpt lat="52.946911985054612" lon="-0.682638958096504">
        <ele>43.399999999999999</ele>
        <time>2023-09-03T13:26:16Z</time>
      </trkpt>
      <trkpt lat="52.944161966443062" lon="-0.683314958587289">
        <ele>46.759999999999998</ele>
        <time>2023-09-03T13:26:26Z</time>
      </trkpt>
      <trkpt lat="52.941456958651543" lon="-0.684445006772876">
        <ele>52.049999999999997</ele>
        <time>2023-09-03T13:26:36Z</time>
      </trkpt>
      <trkpt lat="52.938392031937838" lon="-0.684997038915753">
        <ele>61.18</ele>
        <time>2023-09-03T13:26:47Z</time>
      </trkpt>
      <trkpt lat="52.936155991628766" lon="-0.685006007552147">
        <ele>64.549999999999997</ele>
        <time>2023-09-03T13:26:55Z</time>
      </trkpt>
      <trkpt lat="52.933101039379835" lon="-0.684354985132813">
        <ele>66.950000000000003</ele>
        <time>2023-09-03T13:27:06Z</time>
      </trkpt>
      <trkpt lat="52.929229019209743" lon="-0.683450996875763">
        <ele>70.790000000000006</ele>
        <time>2023-09-03T13:27:20Z</time>
      </trkpt>
      <trkpt lat="52.924827011302114" lon="-0.682399990037084">
        <ele>83.290000000000006</ele>
        <time>2023-09-03T13:27:36Z</time>
      </trkpt>
      <trkpt lat="52.921217009425163" lon="-0.681526008993387">
        <ele>93.390000000000001</ele>
        <time>2023-09-03T13:27:49Z</time>
      </trkpt>
      <trkpt lat="52.917352030053735" lon="-0.680421022698283">
        <ele>93.870000000000005</ele>
        <time>2023-09-03T13:28:03Z</time>
      </trkpt>
      <trkpt lat="52.914122985675931" lon="-0.678862994536757">
        <ele>91.459999999999994</ele>
        <time>2023-09-03T13:28:15Z</time>
      </trkpt>
      <trkpt lat="52.91076896712184" lon="-0.676561994478107">
        <ele>87.620000000000005</ele>
        <time>2023-09-03T13:28:28Z</time>
      </trkpt>
      <trkpt lat="52.907981984317303" lon="-0.674427039921284">
        <ele>84.25</ele>
        <time>2023-09-03T13:28:39Z</time>
      </trkpt>
      <trkpt lat="52.904427973553538" lon="-0.67171398550272">
        <ele>81.370000000000005</ele>
        <time>2023-09-03T13:28:53Z</time>
      </trkpt>
      <trkpt lat="52.901140004396439" lon="-0.669135041534901">
        <ele>78.480000000000004</ele>
        <time>2023-09-03T13:29:06Z</time>
      </trkpt>
      <trkpt lat="52.899515004828572" lon="-0.66735103726387">
        <ele>77.040000000000006</ele>
        <time>2023-09-03T13:29:13Z</time>
      </trkpt>
      <trkpt lat="52.897970974445343" lon="-0.664704032242298">
        <ele>77.040000000000006</ele>
        <time>2023-09-03T13:29:21Z</time>
      </trkpt>
      <trkpt lat="52.896833969280124" lon="-0.661545982584357">
        <ele>78</ele>
        <time>2023-09-03T13:29:29Z</time>
      </trkpt>
      <trkpt lat="52.895942972972989" lon="-0.657695000991225">
        <ele>82.810000000000002</ele>
        <time>2023-09-03T13:29:38Z</time>
      </trkpt>
      <trkpt lat="52.894888026639819" lon="-0.653965976089239">
        <ele>91.459999999999994</ele>
        <time>2023-09-03T13:29:47Z</time>
      </trkpt>
      <trkpt lat="52.893479028716683" lon="-0.651116967201233">
        <ele>99.150000000000006</ele>
        <time>2023-09-03T13:29:55Z</time>
      </trkpt>
      <trkpt lat="52.891523027792573" lon="-0.648486977443099">
        <ele>110.69</ele>
        <time>2023-09-03T13:30:04Z</time>
      </trkpt>
      <trkpt lat="52.88818996399641" lon="-0.644243974238634">
        <ele>121.26000000000001</ele>
        <time>2023-09-03T13:30:19Z</time>
      </trkpt>
      <trkpt lat="52.883932963013649" lon="-0.63895097002387">
        <ele>105.88</ele>
        <time>2023-09-03T13:30:38Z</time>
      </trkpt>
      <trkpt lat="52.881050007417798" lon="-0.636124005541205">
        <ele>93.870000000000005</ele>
        <time>2023-09-03T13:30:50Z</time>
      </trkpt>
      <trkpt lat="52.878264030441642" lon="-0.633979998528957">
        <ele>85.209999999999994</ele>
        <time>2023-09-03T13:31:01Z</time>
      </trkpt>
      <trkpt lat="52.87748996168375" lon="-0.633477000519633">
        <ele>83.290000000000006</ele>
        <time>2023-09-03T13:31:04Z</time>
      </trkpt>
      <trkpt lat="52.87723196670413" lon="-0.633325036615133">
        <ele>82.329999999999998</ele>
        <time>2023-09-03T13:31:05Z</time>
      </trkpt>
      <trkpt lat="52.874627038836479" lon="-0.631791986525059">
        <ele>84.730000000000004</ele>
        <time>2023-09-03T13:31:15Z</time>
      </trkpt>
      <trkpt lat="52.871934017166495" lon="-0.630523972213268">
        <ele>93.870000000000005</ele>
        <time>2023-09-03T13:31:25Z</time>
      </trkpt>
      <trkpt lat="52.869146028533578" lon="-0.629856018349528">
        <ele>97.230000000000004</ele>
        <time>2023-09-03T13:31:35Z</time>
      </trkpt>
      <trkpt lat="52.865217011421919" lon="-0.629515964537859">
        <ele>88.099999999999994</ele>
        <time>2023-09-03T13:31:49Z</time>
      </trkpt>
      <trkpt lat="52.861319007351995" lon="-0.629254030063748">
        <ele>84.25</ele>
        <time>2023-09-03T13:32:03Z</time>
      </trkpt>
      <trkpt lat="52.857695007696748" lon="-0.62865698710084">
        <ele>79.450000000000003</ele>
        <time>2023-09-03T13:32:16Z</time>
      </trkpt>
      <trkpt lat="52.8544129896909" lon="-0.627740006893873">
        <ele>79.450000000000003</ele>
        <time>2023-09-03T13:32:28Z</time>
      </trkpt>
      <trkpt lat="52.851412016898394" lon="-0.62672303058207">
        <ele>87.620000000000005</ele>
        <time>2023-09-03T13:32:39Z</time>
      </trkpt>
      <trkpt lat="52.849464984610677" lon="-0.626969961449504">
        <ele>93.870000000000005</ele>
        <time>2023-09-03T13:32:46Z</time>
      </trkpt>
      <trkpt lat="52.846984025090933" lon="-0.627707988023758">
        <ele>99.150000000000006</ele>
        <time>2023-09-03T13:32:55Z</time>
      </trkpt>
      <trkpt lat="52.843074034899473" lon="-0.62852798961103">
        <ele>100.59999999999999</ele>
        <time>2023-09-03T13:33:09Z</time>
      </trkpt>
      <trkpt lat="52.839740971103311" lon="-0.628823032602668">
        <ele>94.349999999999994</ele>
        <time>2023-09-03T13:33:21Z</time>
      </trkpt>
      <trkpt lat="52.83640799112618" lon="-0.629331981763244">
        <ele>96.75</ele>
        <time>2023-09-03T13:33:33Z</time>
      </trkpt>
      <trkpt lat="52.832844005897641" lon="-0.630469992756844">
        <ele>98.189999999999998</ele>
        <time>2023-09-03T13:33:46Z</time>
      </trkpt>
      <trkpt lat="52.829807996749878" lon="-0.631225034594536">
        <ele>105.40000000000001</ele>
        <time>2023-09-03T13:33:57Z</time>
      </trkpt>
      <trkpt lat="52.827858030796051" lon="-0.630895961076021">
        <ele>108.77</ele>
        <time>2023-09-03T13:34:04Z</time>
      </trkpt>
      <trkpt lat="52.825759034603834" lon="-0.629655020311475">
        <ele>106.84</ele>
        <time>2023-09-03T13:34:12Z</time>
      </trkpt>
      <trkpt lat="52.822750015184283" lon="-0.627207001671195">
        <ele>102.04000000000001</ele>
        <time>2023-09-03T13:34:24Z</time>
      </trkpt>
      <trkpt lat="52.819513007998466" lon="-0.624430999159813">
        <ele>102.04000000000001</ele>
        <time>2023-09-03T13:34:37Z</time>
      </trkpt>
      <trkpt lat="52.816974967718124" lon="-0.622535012662411">
        <ele>99.150000000000006</ele>
        <time>2023-09-03T13:34:47Z</time>
      </trkpt>
      <trkpt lat="52.813677024096251" lon="-0.620119012892246">
        <ele>105.88</ele>
        <time>2023-09-03T13:35:00Z</time>
      </trkpt>
      <trkpt lat="52.811633013188839" lon="-0.617692032828927">
        <ele>111.17</ele>
        <time>2023-09-03T13:35:09Z</time>
      </trkpt>
      <trkpt lat="52.809431003406644" lon="-0.614903038367629">
        <ele>116.45999999999999</ele>
        <time>2023-09-03T13:35:19Z</time>
      </trkpt>
      <trkpt lat="52.806662963703275" lon="-0.612709997221828">
        <ele>126.06999999999999</ele>
        <time>2023-09-03T13:35:30Z</time>
      </trkpt>
      <trkpt lat="52.805068977177143" lon="-0.611540973186493">
        <ele>127.51000000000001</ele>
        <time>2023-09-03T13:35:37Z</time>
      </trkpt>
      <trkpt lat="52.804589029401541" lon="-0.611263029277325">
        <ele>126.06999999999999</ele>
        <time>2023-09-03T13:35:41Z</time>
      </trkpt>
      <trkpt lat="52.804527003318071" lon="-0.611231010407209">
        <ele>126.06999999999999</ele>
        <time>2023-09-03T13:35:42Z</time>
      </trkpt>
      <trkpt lat="52.804482998326421" lon="-0.611207960173488">
        <ele>125.59</ele>
        <time>2023-09-03T13:35:43Z</time>
      </trkpt>
      <trkpt lat="52.80445902608335" lon="-0.611195974051952">
        <ele>125.11</ele>
        <time>2023-09-03T13:35:44Z</time>
      </trkpt>
      <trkpt lat="52.804436981678009" lon="-0.611184993758798">
        <ele>123.67</ele>
        <time>2023-09-03T13:35:52Z</time>
      </trkpt>
      <trkpt lat="52.804315024986863" lon="-0.611122967675328">
        <ele>118.86</ele>
        <time>2023-09-03T13:36:04Z</time>
      </trkpt>
      <trkpt lat="52.804225003346801" lon="-0.611011991277337">
        <ele>118.38</ele>
        <time>2023-09-03T13:48:36Z</time>
      </trkpt>
      <trkpt lat="52.804217040538788" lon="-0.610975027084351">
        <ele>121.73999999999999</ele>
        <time>2023-09-03T13:49:27Z</time>
      </trkpt>
      <trkpt lat="52.804219974204898" lon="-0.610965974628925">
        <ele>123.67</ele>
        <time>2023-09-03T13:50:10Z</time>
      </trkpt>
      <trkpt lat="52.804218968376517" lon="-0.61097402125597">
        <ele>123.67</ele>
        <time>2023-09-03T13:50:53Z</time>
      </trkpt>
      <trkpt lat="52.804217962548137" lon="-0.610972009599209">
        <ele>123.67</ele>
        <time>2023-09-03T13:51:29Z</time>
      </trkpt>
      <trkpt lat="52.804218968376517" lon="-0.610977038741112">
        <ele>123.67</ele>
        <time>2023-09-03T13:52:13Z</time>
      </trkpt>
      <trkpt lat="52.804219974204898" lon="-0.610979972407222">
        <ele>123.67</ele>
        <time>2023-09-03T13:52:46Z</time>
      </trkpt>
      <trkpt lat="52.803887967020273" lon="-0.610708985477686">
        <ele>119.81999999999999</ele>
        <time>2023-09-03T13:52:56Z</time>
      </trkpt>
      <trkpt lat="52.803863994777203" lon="-0.61063296161592">
        <ele>119.34</ele>
        <time>2023-09-03T13:52:57Z</time>
      </trkpt>
      <trkpt lat="52.803838010877371" lon="-0.610550986602902">
        <ele>119.34</ele>
        <time>2023-09-03T13:52:58Z</time>
      </trkpt>
      <trkpt lat="52.803790988400578" lon="-0.610387036576867">
        <ele>118.86</ele>
        <time>2023-09-03T13:52:59Z</time>
      </trkpt>
      <trkpt lat="52.803785959258676" lon="-0.610143039375544">
        <ele>117.42</ele>
        <time>2023-09-03T13:53:02Z</time>
      </trkpt>
      <trkpt lat="52.803785037249327" lon="-0.610095011070371">
        <ele>116.94</ele>
        <time>2023-09-03T13:53:03Z</time>
      </trkpt>
      <trkpt lat="52.803810015320778" lon="-0.610004989430308">
        <ele>115.01000000000001</ele>
        <time>2023-09-03T13:53:09Z</time>
      </trkpt>
      <trkpt lat="52.803784031420946" lon="-0.61002803966403">
        <ele>115.01000000000001</ele>
        <time>2023-09-03T13:53:11Z</time>
      </trkpt>
      <trkpt lat="52.803785037249327" lon="-0.610089981928468">
        <ele>115.01000000000001</ele>
        <time>2023-09-03T13:53:12Z</time>
      </trkpt>
      <trkpt lat="52.803786965087056" lon="-0.610191989690065">
        <ele>115.01000000000001</ele>
        <time>2023-09-03T13:53:13Z</time>
      </trkpt>
      <trkpt lat="52.803788976743817" lon="-0.610314030200243">
        <ele>114.53</ele>
        <time>2023-09-03T13:53:14Z</time>
      </trkpt>
      <trkpt lat="52.803736003115773" lon="-0.610589040443301">
        <ele>114.05</ele>
        <time>2023-09-03T13:53:16Z</time>
      </trkpt>
      <trkpt lat="52.80372703447938" lon="-0.610620975494385">
        <ele>114.05</ele>
        <time>2023-09-03T13:53:17Z</time>
      </trkpt>
      <trkpt lat="52.803627038374543" lon="-0.610699011012912">
        <ele>113.56999999999999</ele>
        <time>2023-09-03T13:53:18Z</time>
      </trkpt>
      <trkpt lat="52.803576998412609" lon="-0.610737986862659">
        <ele>113.56999999999999</ele>
        <time>2023-09-03T13:53:19Z</time>
      </trkpt>
      <trkpt lat="52.803507009521127" lon="-0.610764976590872">
        <ele>113.56999999999999</ele>
        <time>2023-09-03T13:53:20Z</time>
      </trkpt>
      <trkpt lat="52.803418999537826" lon="-0.610746033489704">
        <ele>113.09</ele>
        <time>2023-09-03T13:53:21Z</time>
      </trkpt>
      <trkpt lat="52.802536971867085" lon="-0.610564984381199">
        <ele>114.05</ele>
        <time>2023-09-03T13:53:28Z</time>
      </trkpt>
      <trkpt lat="52.802084013819695" lon="-0.610602032393217">
        <ele>115.5</ele>
        <time>2023-09-03T13:53:33Z</time>
      </trkpt>
      <trkpt lat="52.801288990303874" lon="-0.610601026564837">
        <ele>115.5</ele>
        <time>2023-09-03T13:53:40Z</time>
      </trkpt>
      <trkpt lat="52.799807991832495" lon="-0.610574036836624">
        <ele>113.56999999999999</ele>
        <time>2023-09-03T13:53:48Z</time>
      </trkpt>
      <trkpt lat="52.797887027263641" lon="-0.610514022409916">
        <ele>119.81999999999999</ele>
        <time>2023-09-03T13:53:56Z</time>
      </trkpt>
      <trkpt lat="52.794918995350599" lon="-0.61054402962327">
        <ele>115.01000000000001</ele>
        <time>2023-09-03T13:54:07Z</time>
      </trkpt>
      <trkpt lat="52.79186898842454" lon="-0.61050103046">
        <ele>111.17</ele>
        <time>2023-09-03T13:54:18Z</time>
      </trkpt>
      <trkpt lat="52.789107989519835" lon="-0.610645031556487">
        <ele>116.45999999999999</ele>
        <time>2023-09-03T13:54:28Z</time>
      </trkpt>
      <trkpt lat="52.785190958529711" lon="-0.610750978812575">
        <ele>123.19</ele>
        <time>2023-09-03T13:54:42Z</time>
      </trkpt>
      <trkpt lat="52.780714016407728" lon="-0.610891040414572">
        <ele>118.38</ele>
        <time>2023-09-03T13:54:58Z</time>
      </trkpt>
      <trkpt lat="52.775688981637359" lon="-0.611113999038935">
        <ele>112.61</ele>
        <time>2023-09-03T13:55:16Z</time>
      </trkpt>
      <trkpt lat="52.772632017731667" lon="-0.611188011243939">
        <ele>114.53</ele>
        <time>2023-09-03T13:55:27Z</time>
      </trkpt>
      <trkpt lat="52.767037013545632" lon="-0.611108969897032">
        <ele>121.26000000000001</ele>
        <time>2023-09-03T13:55:47Z</time>
      </trkpt>
      <trkpt lat="52.763693975284696" lon="-0.610618041828275">
        <ele>122.22</ele>
        <time>2023-09-03T13:55:59Z</time>
      </trkpt>
      <trkpt lat="52.760097971186042" lon="-0.609717993065715">
        <ele>120.3</ele>
        <time>2023-09-03T13:56:12Z</time>
      </trkpt>
      <trkpt lat="52.756046997383237" lon="-0.607971958816051">
        <ele>123.19</ele>
        <time>2023-09-03T13:56:27Z</time>
      </trkpt>
      <trkpt lat="52.752001974731684" lon="-0.606180997565389">
        <ele>124.15000000000001</ele>
        <time>2023-09-03T13:56:42Z</time>
      </trkpt>
      <trkpt lat="52.748201033100486" lon="-0.604607965797186">
        <ele>121.26000000000001</ele>
        <time>2023-09-03T13:56:56Z</time>
      </trkpt>
      <trkpt lat="52.744933012872934" lon="-0.60343399643898">
        <ele>112.13</ele>
        <time>2023-09-03T13:57:08Z</time>
      </trkpt>
      <trkpt lat="52.740810960531235" lon="-0.602102028205991">
        <ele>115.01000000000001</ele>
        <time>2023-09-03T13:57:23Z</time>
      </trkpt>
      <trkpt lat="52.73613897152245" lon="-0.600620023906231">
        <ele>106.84</ele>
        <time>2023-09-03T13:57:40Z</time>
      </trkpt>
      <trkpt lat="52.732323026284575" lon="-0.599353015422821">
        <ele>106.84</ele>
        <time>2023-09-03T13:57:54Z</time>
      </trkpt>
      <trkpt lat="52.729854974895716" lon="-0.598468976095319">
        <ele>111.65000000000001</ele>
        <time>2023-09-03T13:58:03Z</time>
      </trkpt>
      <trkpt lat="52.726574968546629" lon="-0.597213031724095">
        <ele>111.65000000000001</ele>
        <time>2023-09-03T13:58:15Z</time>
      </trkpt>
      <trkpt lat="52.72249398753047" lon="-0.59576204046607">
        <ele>114.53</ele>
        <time>2023-09-03T13:58:30Z</time>
      </trkpt>
      <trkpt lat="52.717544976621866" lon="-0.59406797401607">
        <ele>106.84</ele>
        <time>2023-09-03T13:58:48Z</time>
      </trkpt>
      <trkpt lat="52.71291296929121" lon="-0.592359993606806">
        <ele>100.11</ele>
        <time>2023-09-03T13:59:05Z</time>
      </trkpt>
      <trkpt lat="52.709154020994902" lon="-0.590596022084355">
        <ele>103.48</ele>
        <time>2023-09-03T13:59:19Z</time>
      </trkpt>
      <trkpt lat="52.707487028092146" lon="-0.588912013918161">
        <ele>104.44</ele>
        <time>2023-09-03T13:59:26Z</time>
      </trkpt>
      <trkpt lat="52.705878037959337" lon="-0.586342038586736">
        <ele>103.48</ele>
        <time>2023-09-03T13:59:34Z</time>
      </trkpt>
      <trkpt lat="52.703580977395177" lon="-0.582474963739514">
        <ele>99.150000000000006</ele>
        <time>2023-09-03T13:59:46Z</time>
      </trkpt>
      <trkpt lat="52.701220968738198" lon="-0.578443016856909">
        <ele>94.829999999999998</ele>
        <time>2023-09-03T13:59:59Z</time>
      </trkpt>
      <trkpt lat="52.69864303059876" lon="-0.574065987020731">
        <ele>90.980000000000004</ele>
        <time>2023-09-03T14:00:12Z</time>
      </trkpt>
      <trkpt lat="52.696557026356459" lon="-0.570523962378502">
        <ele>88.099999999999994</ele>
        <time>2023-09-03T14:00:23Z</time>
      </trkpt>
      <trkpt lat="52.693682033568621" lon="-0.565694980323315">
        <ele>86.659999999999997</ele>
        <time>2023-09-03T14:00:38Z</time>
      </trkpt>
      <trkpt lat="52.691262010484934" lon="-0.561578962951899">
        <ele>84.730000000000004</ele>
        <time>2023-09-03T14:00:51Z</time>
      </trkpt>
      <trkpt lat="52.689175000414252" lon="-0.558009026572108">
        <ele>80.409999999999997</ele>
        <time>2023-09-03T14:01:02Z</time>
      </trkpt>
      <trkpt lat="52.687047002837062" lon="-0.554305985569954">
        <ele>74.640000000000001</ele>
        <time>2023-09-03T14:01:13Z</time>
      </trkpt>
      <trkpt lat="52.684175027534366" lon="-0.549292014911771">
        <ele>69.349999999999994</ele>
        <time>2023-09-03T14:01:28Z</time>
      </trkpt>
      <trkpt lat="52.681873021647334" lon="-0.545280016958714">
        <ele>67.430000000000007</ele>
        <time>2023-09-03T14:01:40Z</time>
      </trkpt>
      <trkpt lat="52.680233018472791" lon="-0.542439976707101">
        <ele>67.430000000000007</ele>
        <time>2023-09-03T14:01:49Z</time>
      </trkpt>
      <trkpt lat="52.678485978394747" lon="-0.539474962279201">
        <ele>66.950000000000003</ele>
        <time>2023-09-03T14:02:00Z</time>
      </trkpt>
      <trkpt lat="52.676700968295336" lon="-0.536381034180522">
        <ele>65.989999999999995</ele>
        <time>2023-09-03T14:02:11Z</time>
      </trkpt>
      <trkpt lat="52.674632985144854" lon="-0.532763991504908">
        <ele>60.219999999999999</ele>
        <time>2023-09-03T14:02:23Z</time>
      </trkpt>
      <trkpt lat="52.672921987250447" lon="-0.530192004516721">
        <ele>53.009999999999998</ele>
        <time>2023-09-03T14:02:32Z</time>
      </trkpt>
      <trkpt lat="52.670856015756726" lon="-0.527922017499805">
        <ele>44.359999999999999</ele>
        <time>2023-09-03T14:02:41Z</time>
      </trkpt>
      <trkpt lat="52.668863972648978" lon="-0.526359966024756">
        <ele>37.630000000000003</ele>
        <time>2023-09-03T14:02:49Z</time>
      </trkpt>
      <trkpt lat="52.666320987045765" lon="-0.524513013660908">
        <ele>38.109999999999999</ele>
        <time>2023-09-03T14:02:59Z</time>
      </trkpt>
      <trkpt lat="52.663391008973122" lon="-0.521851005032659">
        <ele>48.68</ele>
        <time>2023-09-03T14:03:11Z</time>
      </trkpt>
      <trkpt lat="52.660961011424661" lon="-0.519069973379374">
        <ele>59.259999999999998</ele>
        <time>2023-09-03T14:03:22Z</time>
      </trkpt>
      <trkpt lat="52.6591129694134" lon="-0.51682697609067">
        <ele>68.390000000000001</ele>
        <time>2023-09-03T14:03:32Z</time>
      </trkpt>
      <trkpt lat="52.657122015953064" lon="-0.514738960191607">
        <ele>71.760000000000005</ele>
        <time>2023-09-03T14:03:41Z</time>
      </trkpt>
      <trkpt lat="52.655325019732118" lon="-0.513233989477158">
        <ele>69.349999999999994</ele>
        <time>2023-09-03T14:03:49Z</time>
      </trkpt>
      <trkpt lat="52.653631959110498" lon="-0.51190503872931">
        <ele>66.950000000000003</ele>
        <time>2023-09-03T14:03:57Z</time>
      </trkpt>
      <trkpt lat="52.650530990213156" lon="-0.509317964315414">
        <ele>62.140000000000001</ele>
        <time>2023-09-03T14:04:11Z</time>
      </trkpt>
      <trkpt lat="52.648218004032969" lon="-0.507038002833724">
        <ele>53.009999999999998</ele>
        <time>2023-09-03T14:04:22Z</time>
      </trkpt>
      <trkpt lat="52.646786961704493" lon="-0.505400011315942">
        <ele>45.799999999999997</ele>
        <time>2023-09-03T14:04:30Z</time>
      </trkpt>
      <trkpt lat="52.64660800807178" lon="-0.505180992186069">
        <ele>45.32</ele>
        <time>2023-09-03T14:04:31Z</time>
      </trkpt>
      <trkpt lat="52.644805982708931" lon="-0.502872029319406">
        <ele>39.549999999999997</ele>
        <time>2023-09-03T14:04:40Z</time>
      </trkpt>
      <trkpt lat="52.642750991508365" lon="-0.499921012669802">
        <ele>31.379999999999999</ele>
        <time>2023-09-03T14:04:51Z</time>
      </trkpt>
      <trkpt lat="52.640924993902445" lon="-0.496886009350419">
        <ele>29.460000000000001</ele>
        <time>2023-09-03T14:05:02Z</time>
      </trkpt>
      <trkpt lat="52.639682041481137" lon="-0.49426699988544">
        <ele>32.340000000000003</ele>
        <time>2023-09-03T14:05:10Z</time>
      </trkpt>
      <trkpt lat="52.638835972175002" lon="-0.491212969645858">
        <ele>37.630000000000003</ele>
        <time>2023-09-03T14:05:18Z</time>
      </trkpt>
      <trkpt lat="52.638194002211094" lon="-0.487146992236376">
        <ele>46.759999999999998</ele>
        <time>2023-09-03T14:05:28Z</time>
      </trkpt>
      <trkpt lat="52.637683041393757" lon="-0.484133027493954">
        <ele>52.530000000000001</ele>
        <time>2023-09-03T14:05:35Z</time>
      </trkpt>
      <trkpt lat="52.636859016492963" lon="-0.481239007785916">
        <ele>58.780000000000001</ele>
        <time>2023-09-03T14:05:42Z</time>
      </trkpt>
      <trkpt lat="52.635440966114402" lon="-0.478426963090897">
        <ele>67.430000000000007</ele>
        <time>2023-09-03T14:05:50Z</time>
      </trkpt>
      <trkpt lat="52.632910972461104" lon="-0.474793994799256">
        <ele>78</ele>
        <time>2023-09-03T14:06:02Z</time>
      </trkpt>
      <trkpt lat="52.629715036600828" lon="-0.470317974686623">
        <ele>79.450000000000003</ele>
        <time>2023-09-03T14:06:17Z</time>
      </trkpt>
      <trkpt lat="52.627531969919801" lon="-0.466785002499819">
        <ele>77.519999999999996</ele>
        <time>2023-09-03T14:06:28Z</time>
      </trkpt>
      <trkpt lat="52.625454012304544" lon="-0.463066035881639">
        <ele>74.640000000000001</ele>
        <time>2023-09-03T14:06:39Z</time>
      </trkpt>
      <trkpt lat="52.62295201420784" lon="-0.458755977451801">
        <ele>70.790000000000006</ele>
        <time>2023-09-03T14:06:52Z</time>
      </trkpt>
      <trkpt lat="52.620780011638999" lon="-0.454551028087735">
        <ele>63.100000000000001</ele>
        <time>2023-09-03T14:07:04Z</time>
      </trkpt>
      <trkpt lat="52.618715967983007" lon="-0.45148802921176">
        <ele>62.140000000000001</ele>
        <time>2023-09-03T14:07:14Z</time>
      </trkpt>
      <trkpt lat="52.616755021736026" lon="-0.448229983448982">
        <ele>62.619999999999997</ele>
        <time>2023-09-03T14:07:24Z</time>
      </trkpt>
      <trkpt lat="52.614354025572538" lon="-0.443155998364091">
        <ele>61.659999999999997</ele>
        <time>2023-09-03T14:07:38Z</time>
      </trkpt>
      <trkpt lat="52.612479999661446" lon="-0.439153974875808">
        <ele>58.299999999999997</ele>
        <time>2023-09-03T14:07:49Z</time>
      </trkpt>
      <trkpt lat="52.610071040689945" lon="-0.435303999111056">
        <ele>53.490000000000002</ele>
        <time>2023-09-03T14:08:01Z</time>
      </trkpt>
      <trkpt lat="52.608134988695383" lon="-0.432693958282471">
        <ele>51.090000000000003</ele>
        <time>2023-09-03T14:08:10Z</time>
      </trkpt>
      <trkpt lat="52.605221020057797" lon="-0.429095020517707">
        <ele>48.200000000000003</ele>
        <time>2023-09-03T14:08:23Z</time>
      </trkpt>
      <trkpt lat="52.602872997522354" lon="-0.425863964483142">
        <ele>46.759999999999998</ele>
        <time>2023-09-03T14:08:34Z</time>
      </trkpt>
      <trkpt lat="52.600632011890411" lon="-0.423116041347384">
        <ele>44.359999999999999</ele>
        <time>2023-09-03T14:08:44Z</time>
      </trkpt>
      <trkpt lat="52.598187010735273" lon="-0.420952001586556">
        <ele>39.549999999999997</ele>
        <time>2023-09-03T14:08:54Z</time>
      </trkpt>
      <trkpt lat="52.595552997663617" lon="-0.419458011165261">
        <ele>37.630000000000003</ele>
        <time>2023-09-03T14:09:04Z</time>
      </trkpt>
      <trkpt lat="52.592351026833057" lon="-0.417751958593726">
        <ele>34.259999999999998</ele>
        <time>2023-09-03T14:09:16Z</time>
      </trkpt>
      <trkpt lat="52.588872034102678" lon="-0.415951022878289">
        <ele>25.609999999999999</ele>
        <time>2023-09-03T14:09:29Z</time>
      </trkpt>
      <trkpt lat="52.585650030523539" lon="-0.414542024955153">
        <ele>23.690000000000001</ele>
        <time>2023-09-03T14:09:41Z</time>
      </trkpt>
      <trkpt lat="52.583468975499272" lon="-0.413587996736169">
        <ele>25.129999999999999</ele>
        <time>2023-09-03T14:09:49Z</time>
      </trkpt>
      <trkpt lat="52.579752020537853" lon="-0.411654962226748">
        <ele>18.399999999999999</ele>
        <time>2023-09-03T14:10:03Z</time>
      </trkpt>
      <trkpt lat="52.578053008764982" lon="-0.410124007612467">
        <ele>16</ele>
        <time>2023-09-03T14:10:10Z</time>
      </trkpt>
      <trkpt lat="52.576913991943002" lon="-0.408139005303383">
        <ele>17.920000000000002</ele>
        <time>2023-09-03T14:10:16Z</time>
      </trkpt>
      <trkpt lat="52.575821997597814" lon="-0.405329978093505">
        <ele>22.25</ele>
        <time>2023-09-03T14:10:24Z</time>
      </trkpt>
      <trkpt lat="52.574716005474329" lon="-0.402071010321379">
        <ele>21.289999999999999</ele>
        <time>2023-09-03T14:10:33Z</time>
      </trkpt>
      <trkpt lat="52.573374984785914" lon="-0.399770010262728">
        <ele>19.84</ele>
        <time>2023-09-03T14:10:40Z</time>
      </trkpt>
      <trkpt lat="52.571355029940605" lon="-0.397315034642816">
        <ele>18.399999999999999</ele>
        <time>2023-09-03T14:10:49Z</time>
      </trkpt>
      <trkpt lat="52.568246014416218" lon="-0.393433040007949">
        <ele>18.879999999999999</ele>
        <time>2023-09-03T14:11:03Z</time>
      </trkpt>
      <trkpt lat="52.567233983427286" lon="-0.391257014125586">
        <ele>19.359999999999999</ele>
        <time>2023-09-03T14:11:09Z</time>
      </trkpt>
      <trkpt lat="52.565655000507832" lon="-0.386382015421987">
        <ele>17.920000000000002</ele>
        <time>2023-09-03T14:11:21Z</time>
      </trkpt>
      <trkpt lat="52.564011979848146" lon="-0.381578011438251">
        <ele>14.56</ele>
        <time>2023-09-03T14:11:33Z</time>
      </trkpt>
      <trkpt lat="52.561859004199505" lon="-0.375704979524016">
        <ele>14.08</ele>
        <time>2023-09-03T14:11:48Z</time>
      </trkpt>
      <trkpt lat="52.560610016807914" lon="-0.371642019599676">
        <ele>21.77</ele>
        <time>2023-09-03T14:11:58Z</time>
      </trkpt>
      <trkpt lat="52.560356967151165" lon="-0.368925025686622">
        <ele>22.25</ele>
        <time>2023-09-03T14:12:04Z</time>
      </trkpt>
      <trkpt lat="52.560460986569524" lon="-0.364783024415374">
        <ele>15.039999999999999</ele>
        <time>2023-09-03T14:12:13Z</time>
      </trkpt>
      <trkpt lat="52.560071982443333" lon="-0.361213004216552">
        <ele>9.27</ele>
        <time>2023-09-03T14:12:21Z</time>
      </trkpt>
      <trkpt lat="52.559296991676092" lon="-0.358284031972289">
        <ele>10.710000000000001</ele>
        <time>2023-09-03T14:12:28Z</time>
      </trkpt>
      <trkpt lat="52.557538971304893" lon="-0.352553995326161">
        <ele>7.35</ele>
        <time>2023-09-03T14:12:42Z</time>
      </trkpt>
      <trkpt lat="52.556429961696267" lon="-0.348354997113347">
        <ele>4.94</ele>
        <time>2023-09-03T14:12:52Z</time>
      </trkpt>
      <trkpt lat="52.554416041821241" lon="-0.34288102760911">
        <ele>3.5</ele>
        <time>2023-09-03T14:13:06Z</time>
      </trkpt>
      <trkpt lat="52.552995979785919" lon="-0.340705001726747">
        <ele>4.46</ele>
        <time>2023-09-03T14:13:13Z</time>
      </trkpt>
      <trkpt lat="52.550158035010099" lon="-0.336982011795044">
        <ele>4.94</ele>
        <time>2023-09-03T14:13:26Z</time>
      </trkpt>
      <trkpt lat="52.549345996230841" lon="-0.33600702881813">
        <ele>6.87</ele>
        <time>2023-09-03T14:13:31Z</time>
      </trkpt>
      <trkpt lat="52.548088962212205" lon="-0.334672965109348">
        <ele>12.15</ele>
        <time>2023-09-03T14:13:40Z</time>
      </trkpt>
      <trkpt lat="52.546821031719446" lon="-0.333331022411585">
        <ele>14.08</ele>
        <time>2023-09-03T14:13:49Z</time>
      </trkpt>
      <trkpt lat="52.545408010482788" lon="-0.33175396732986">
        <ele>14.56</ele>
        <time>2023-09-03T14:13:58Z</time>
      </trkpt>
      <trkpt lat="52.543302979320288" lon="-0.329348025843501">
        <ele>16.960000000000001</ele>
        <time>2023-09-03T14:14:10Z</time>
      </trkpt>
      <trkpt lat="52.541507994756103" lon="-0.327281970530748">
        <ele>21.289999999999999</ele>
        <time>2023-09-03T14:14:19Z</time>
      </trkpt>
      <trkpt lat="52.538952017202973" lon="-0.324414018541574">
        <ele>23.690000000000001</ele>
        <time>2023-09-03T14:14:30Z</time>
      </trkpt>
      <trkpt lat="52.535688020288944" lon="-0.320863025262952">
        <ele>23.210000000000001</ele>
        <time>2023-09-03T14:14:44Z</time>
      </trkpt>
      <trkpt lat="52.533373022451997" lon="-0.318311993032694">
        <ele>21.289999999999999</ele>
        <time>2023-09-03T14:14:54Z</time>
      </trkpt>
      <trkpt lat="52.530817966908216" lon="-0.315492991358042">
        <ele>23.210000000000001</ele>
        <time>2023-09-03T14:15:05Z</time>
      </trkpt>
      <trkpt lat="52.527523962780833" lon="-0.312055991962552">
        <ele>28.5</ele>
        <time>2023-09-03T14:15:19Z</time>
      </trkpt>
      <trkpt lat="52.524676965549588" lon="-0.309127019718289">
        <ele>29.460000000000001</ele>
        <time>2023-09-03T14:15:31Z</time>
      </trkpt>
      <trkpt lat="52.521871961653233" lon="-0.306134009733796">
        <ele>26.09</ele>
        <time>2023-09-03T14:15:43Z</time>
      </trkpt>
      <trkpt lat="52.517495015636086" lon="-0.301245013251901">
        <ele>23.210000000000001</ele>
        <time>2023-09-03T14:16:02Z</time>
      </trkpt>
      <trkpt lat="52.513766996562481" lon="-0.297194039449096">
        <ele>20.32</ele>
        <time>2023-09-03T14:16:18Z</time>
      </trkpt>
      <trkpt lat="52.511511007323861" lon="-0.295445993542671">
        <ele>20.809999999999999</ele>
        <time>2023-09-03T14:16:27Z</time>
      </trkpt>
      <trkpt lat="52.509089978411794" lon="-0.29443496838212">
        <ele>23.690000000000001</ele>
        <time>2023-09-03T14:16:36Z</time>
      </trkpt>
      <trkpt lat="52.506575994193554" lon="-0.294145960360765">
        <ele>24.170000000000002</ele>
        <time>2023-09-03T14:16:45Z</time>
      </trkpt>
      <trkpt lat="52.503500003367662" lon="-0.293843960389495">
        <ele>20.32</ele>
        <time>2023-09-03T14:16:56Z</time>
      </trkpt>
      <trkpt lat="52.501046033576131" lon="-0.292850034311414">
        <ele>15.52</ele>
        <time>2023-09-03T14:17:05Z</time>
      </trkpt>
      <trkpt lat="52.498758025467396" lon="-0.291203996166587">
        <ele>11.67</ele>
        <time>2023-09-03T14:17:14Z</time>
      </trkpt>
      <trkpt lat="52.496981984004378" lon="-0.289532979950309">
        <ele>9.27</ele>
        <time>2023-09-03T14:17:22Z</time>
      </trkpt>
      <trkpt lat="52.49453597702086" lon="-0.287302974611521">
        <ele>8.789999999999999</ele>
        <time>2023-09-03T14:17:33Z</time>
      </trkpt>
      <trkpt lat="52.492232965305448" lon="-0.285738995298743">
        <ele>7.83</ele>
        <time>2023-09-03T14:17:42Z</time>
      </trkpt>
      <trkpt lat="52.48978796415031" lon="-0.28485001064837">
        <ele>6.87</ele>
        <time>2023-09-03T14:17:51Z</time>
      </trkpt>
      <trkpt lat="52.48727498576045" lon="-0.284755965694785">
        <ele>7.83</ele>
        <time>2023-09-03T14:18:00Z</time>
      </trkpt>
      <trkpt lat="52.484523039311171" lon="-0.285488963127136">
        <ele>11.67</ele>
        <time>2023-09-03T14:18:10Z</time>
      </trkpt>
      <trkpt lat="52.48065403662622" lon="-0.286593027412891">
        <ele>16.960000000000001</ele>
        <time>2023-09-03T14:18:24Z</time>
      </trkpt>
      <trkpt lat="52.478158995509148" lon="-0.286538964137435">
        <ele>24.170000000000002</ele>
        <time>2023-09-03T14:18:33Z</time>
      </trkpt>
      <trkpt lat="52.475116029381752" lon="-0.28562399558723">
        <ele>22.25</ele>
        <time>2023-09-03T14:18:44Z</time>
      </trkpt>
      <trkpt lat="52.471581967547536" lon="-0.284358998760581">
        <ele>20.809999999999999</ele>
        <time>2023-09-03T14:18:57Z</time>
      </trkpt>
      <trkpt lat="52.468547970056534" lon="-0.283321989700198">
        <ele>28.02</ele>
        <time>2023-09-03T14:19:08Z</time>
      </trkpt>
      <trkpt lat="52.465785965323448" lon="-0.282459994778037">
        <ele>28.02</ele>
        <time>2023-09-03T14:19:18Z</time>
      </trkpt>
      <trkpt lat="52.463370971381664" lon="-0.281819030642509">
        <ele>26.09</ele>
        <time>2023-09-03T14:19:27Z</time>
      </trkpt>
      <trkpt lat="52.460604021325707" lon="-0.2811339776963">
        <ele>24.649999999999999</ele>
        <time>2023-09-03T14:19:37Z</time>
      </trkpt>
      <trkpt lat="52.457026960328221" lon="-0.280109038576484">
        <ele>23.210000000000001</ele>
        <time>2023-09-03T14:19:50Z</time>
      </trkpt>
      <trkpt lat="52.454261016100645" lon="-0.279313009232283">
        <ele>22.73</ele>
        <time>2023-09-03T14:20:00Z</time>
      </trkpt>
      <trkpt lat="52.449875017628074" lon="-0.27795497328043">
        <ele>16.48</ele>
        <time>2023-09-03T14:20:16Z</time>
      </trkpt>
      <trkpt lat="52.446379009634256" lon="-0.276437010616064">
        <ele>11.19</ele>
        <time>2023-09-03T14:20:29Z</time>
      </trkpt>
      <trkpt lat="52.442869003862143" lon="-0.274941008538008">
        <ele>16</ele>
        <time>2023-09-03T14:20:42Z</time>
      </trkpt>
      <trkpt lat="52.439108965918422" lon="-0.273572998121381">
        <ele>15.52</ele>
        <time>2023-09-03T14:20:56Z</time>
      </trkpt>
      <trkpt lat="52.436699001118541" lon="-0.272685019299388">
        <ele>15.52</ele>
        <time>2023-09-03T14:21:05Z</time>
      </trkpt>
      <trkpt lat="52.432060036808252" lon="-0.271005034446716">
        <ele>13.119999999999999</ele>
        <time>2023-09-03T14:21:22Z</time>
      </trkpt>
      <trkpt lat="52.428514994680882" lon="-0.269741965457797">
        <ele>14.08</ele>
        <time>2023-09-03T14:21:35Z</time>
      </trkpt>
      <trkpt lat="52.424104018136859" lon="-0.268598003312945">
        <ele>16</ele>
        <time>2023-09-03T14:21:51Z</time>
      </trkpt>
      <trkpt lat="52.420765003189445" lon="-0.26804999448359">
        <ele>16</ele>
        <time>2023-09-03T14:22:03Z</time>
      </trkpt>
      <trkpt lat="52.416068958118558" lon="-0.266912989318371">
        <ele>18.399999999999999</ele>
        <time>2023-09-03T14:22:20Z</time>
      </trkpt>
      <trkpt lat="52.411674996837974" lon="-0.265627037733793">
        <ele>21.289999999999999</ele>
        <time>2023-09-03T14:22:36Z</time>
      </trkpt>
      <trkpt lat="52.407555039972067" lon="-0.264425994828343">
        <ele>28.02</ele>
        <time>2023-09-03T14:22:51Z</time>
      </trkpt>
      <trkpt lat="52.403711015358567" lon="-0.263295024633408">
        <ele>35.229999999999997</ele>
        <time>2023-09-03T14:23:05Z</time>
      </trkpt>
      <trkpt lat="52.399027040228248" lon="-0.261917961761355">
        <ele>43.880000000000003</ele>
        <time>2023-09-03T14:23:22Z</time>
      </trkpt>
      <trkpt lat="52.394348010420799" lon="-0.260519022122025">
        <ele>47.240000000000002</ele>
        <time>2023-09-03T14:23:39Z</time>
      </trkpt>
      <trkpt lat="52.390788970515132" lon="-0.25941202417016">
        <ele>49.649999999999999</ele>
        <time>2023-09-03T14:23:52Z</time>
      </trkpt>
      <trkpt lat="52.38820499740541" lon="-0.258581964299083">
        <ele>51.57</ele>
        <time>2023-09-03T14:24:02Z</time>
      </trkpt>
      <trkpt lat="52.385321035981178" lon="-0.257674036547542">
        <ele>52.530000000000001</ele>
        <time>2023-09-03T14:24:13Z</time>
      </trkpt>
      <trkpt lat="52.382053015753627" lon="-0.256569972261786">
        <ele>53.009999999999998</ele>
        <time>2023-09-03T14:24:25Z</time>
      </trkpt>
      <trkpt lat="52.378508979454637" lon="-0.25520003400743">
        <ele>46.759999999999998</ele>
        <time>2023-09-03T14:24:38Z</time>
      </trkpt>
      <trkpt lat="52.378246961161494" lon="-0.255066007375717">
        <ele>46.280000000000001</ele>
        <time>2023-09-03T14:24:39Z</time>
      </trkpt>
      <trkpt lat="52.374770985916257" lon="-0.253269011154771">
        <ele>37.630000000000003</ele>
        <time>2023-09-03T14:24:52Z</time>
      </trkpt>
      <trkpt lat="52.372302012518048" lon="-0.252654030919075">
        <ele>31.859999999999999</ele>
        <time>2023-09-03T14:25:01Z</time>
      </trkpt>
      <trkpt lat="52.370073013007641" lon="-0.252970028668642">
        <ele>27.050000000000001</ele>
        <time>2023-09-03T14:25:09Z</time>
      </trkpt>
      <trkpt lat="52.366530988365412" lon="-0.254382966086268">
        <ele>20.809999999999999</ele>
        <time>2023-09-03T14:25:22Z</time>
      </trkpt>
      <trkpt lat="52.363519035279751" lon="-0.255228029564023">
        <ele>19.359999999999999</ele>
        <time>2023-09-03T14:25:33Z</time>
      </trkpt>
      <trkpt lat="52.361282994970679" lon="-0.254991995170712">
        <ele>17.920000000000002</ele>
        <time>2023-09-03T14:25:41Z</time>
      </trkpt>
      <trkpt lat="52.358575975522399" lon="-0.25397602468729">
        <ele>16.960000000000001</ele>
        <time>2023-09-03T14:25:51Z</time>
      </trkpt>
      <trkpt lat="52.354243034496903" lon="-0.252254968509078">
        <ele>15.52</ele>
        <time>2023-09-03T14:26:07Z</time>
      </trkpt>
      <trkpt lat="52.350922962650657" lon="-0.251552984118462">
        <ele>13.119999999999999</ele>
        <time>2023-09-03T14:26:19Z</time>
      </trkpt>
      <trkpt lat="52.348687006160617" lon="-0.251447958871722">
        <ele>12.15</ele>
        <time>2023-09-03T14:26:27Z</time>
      </trkpt>
      <trkpt lat="52.343918960541487" lon="-0.25128903798759">
        <ele>10.710000000000001</ele>
        <time>2023-09-03T14:26:44Z</time>
      </trkpt>
      <trkpt lat="52.340307030826807" lon="-0.250805988907814">
        <ele>11.67</ele>
        <time>2023-09-03T14:26:57Z</time>
      </trkpt>
      <trkpt lat="52.336750002577901" lon="-0.249789012596011">
        <ele>15.52</ele>
        <time>2023-09-03T14:27:10Z</time>
      </trkpt>
      <trkpt lat="52.334812022745609" lon="-0.249115023761988">
        <ele>19.84</ele>
        <time>2023-09-03T14:27:18Z</time>
      </trkpt>
      <trkpt lat="52.331645004451275" lon="-0.247928984463215">
        <ele>22.73</ele>
        <time>2023-09-03T14:27:32Z</time>
      </trkpt>
      <trkpt lat="52.329708030447364" lon="-0.247721029445529">
        <ele>21.289999999999999</ele>
        <time>2023-09-03T14:27:40Z</time>
      </trkpt>
      <trkpt lat="52.327495040372014" lon="-0.248008025810122">
        <ele>15.039999999999999</ele>
        <time>2023-09-03T14:27:49Z</time>
      </trkpt>
      <trkpt lat="52.325207032263279" lon="-0.247880034148693">
        <ele>15.52</ele>
        <time>2023-09-03T14:27:58Z</time>
      </trkpt>
      <trkpt lat="52.32261199504137" lon="-0.247133038938046">
        <ele>16</ele>
        <time>2023-09-03T14:28:09Z</time>
      </trkpt>
      <trkpt lat="52.319577997550368" lon="-0.245797969400883">
        <ele>15.039999999999999</ele>
        <time>2023-09-03T14:28:21Z</time>
      </trkpt>
      <trkpt lat="52.31663703918457" lon="-0.244883000850677">
        <ele>15.039999999999999</ele>
        <time>2023-09-03T14:28:32Z</time>
      </trkpt>
      <trkpt lat="52.313077999278903" lon="-0.243764016777277">
        <ele>15.039999999999999</ele>
        <time>2023-09-03T14:28:45Z</time>
      </trkpt>
      <trkpt lat="52.31096601113677" lon="-0.242838989943266">
        <ele>21.289999999999999</ele>
        <time>2023-09-03T14:28:53Z</time>
      </trkpt>
      <trkpt lat="52.309636976569891" lon="-0.241206027567387">
        <ele>23.690000000000001</ele>
        <time>2023-09-03T14:28:59Z</time>
      </trkpt>
      <trkpt lat="52.308338033035398" lon="-0.239974977448583">
        <ele>20.809999999999999</ele>
        <time>2023-09-03T14:29:05Z</time>
      </trkpt>
      <trkpt lat="52.306936997920275" lon="-0.238821040838957">
        <ele>16</ele>
        <time>2023-09-03T14:29:12Z</time>
      </trkpt>
      <trkpt lat="52.305932007730007" lon="-0.237268963828683">
        <ele>13.6</ele>
        <time>2023-09-03T14:29:19Z</time>
      </trkpt>
      <trkpt lat="52.304456038400531" lon="-0.234658000990748">
        <ele>11.19</ele>
        <time>2023-09-03T14:29:30Z</time>
      </trkpt>
      <trkpt lat="52.302598021924496" lon="-0.231006005778909">
        <ele>6.87</ele>
        <time>2023-09-03T14:29:43Z</time>
      </trkpt>
      <trkpt lat="52.301337970420718" lon="-0.227431040257216">
        <ele>6.39</ele>
        <time>2023-09-03T14:29:54Z</time>
      </trkpt>
      <trkpt lat="52.300674961879849" lon="-0.224587982520461">
        <ele>6.87</ele>
        <time>2023-09-03T14:30:01Z</time>
      </trkpt>
      <trkpt lat="52.300015976652503" lon="-0.219692029058933">
        <ele>10.23</ele>
        <time>2023-09-03T14:30:12Z</time>
      </trkpt>
      <trkpt lat="52.299694027751684" lon="-0.215873988345265">
        <ele>11.19</ele>
        <time>2023-09-03T14:30:21Z</time>
      </trkpt>
      <trkpt lat="52.299484983086586" lon="-0.210417034104466">
        <ele>15.039999999999999</ele>
        <time>2023-09-03T14:30:34Z</time>
      </trkpt>
      <trkpt lat="52.299326984211802" lon="-0.205343971028924">
        <ele>13.6</ele>
        <time>2023-09-03T14:30:46Z</time>
      </trkpt>
      <trkpt lat="52.298990031704307" lon="-0.200055995956063">
        <ele>15.039999999999999</ele>
        <time>2023-09-03T14:30:58Z</time>
      </trkpt>
      <trkpt lat="52.298349989578128" lon="-0.193988000974059">
        <ele>23.210000000000001</ele>
        <time>2023-09-03T14:31:12Z</time>
      </trkpt>
      <trkpt lat="52.297421023249626" lon="-0.187333021312952">
        <ele>28.5</ele>
        <time>2023-09-03T14:31:27Z</time>
      </trkpt>
      <trkpt lat="52.296562967821956" lon="-0.182096008211374">
        <ele>39.07</ele>
        <time>2023-09-03T14:31:39Z</time>
      </trkpt>
      <trkpt lat="52.295674988999963" lon="-0.176852038130164">
        <ele>51.090000000000003</ele>
        <time>2023-09-03T14:31:51Z</time>
      </trkpt>
      <trkpt lat="52.295112982392311" lon="-0.173358041793108">
        <ele>57.82</ele>
        <time>2023-09-03T14:31:59Z</time>
      </trkpt>
      <trkpt lat="52.294519040733576" lon="-0.169285023584962">
        <ele>57.340000000000003</ele>
        <time>2023-09-03T14:32:08Z</time>
      </trkpt>
      <trkpt lat="52.293633995577693" lon="-0.162563994526863">
        <ele>50.609999999999999</ele>
        <time>2023-09-03T14:32:23Z</time>
      </trkpt>
      <trkpt lat="52.292969981208444" lon="-0.155795020982623">
        <ele>40.990000000000002</ele>
        <time>2023-09-03T14:32:38Z</time>
      </trkpt>
      <trkpt lat="52.292677033692598" lon="-0.151785034686327">
        <ele>34.740000000000002</ele>
        <time>2023-09-03T14:32:47Z</time>
      </trkpt>
      <trkpt lat="52.292411997914314" lon="-0.145406993106008">
        <ele>23.690000000000001</ele>
        <time>2023-09-03T14:33:01Z</time>
      </trkpt>
      <trkpt lat="52.292421972379088" lon="-0.139024006202817">
        <ele>16.48</ele>
        <time>2023-09-03T14:33:15Z</time>
      </trkpt>
      <trkpt lat="52.292561028152704" lon="-0.1353570073843">
        <ele>3.98</ele>
        <time>2023-09-03T14:33:23Z</time>
      </trkpt>
      <trkpt lat="52.292734030634165" lon="-0.130779985338449">
        <ele>-10.92</ele>
        <time>2023-09-03T14:33:33Z</time>
      </trkpt>
      <trkpt lat="52.292879037559032" lon="-0.12622500769794">
        <ele>-19.09</ele>
        <time>2023-09-03T14:33:43Z</time>
      </trkpt>
      <trkpt lat="52.292927987873554" lon="-0.122114019468427">
        <ele>-29.66</ele>
        <time>2023-09-03T14:33:52Z</time>
      </trkpt>
      <trkpt lat="52.292903009802103" lon="-0.117569016292691">
        <ele>-37.829999999999998</ele>
        <time>2023-09-03T14:34:02Z</time>
      </trkpt>
      <trkpt lat="52.292684996500611" lon="-0.110765006393194">
        <ele>-26.300000000000001</ele>
        <time>2023-09-03T14:34:17Z</time>
      </trkpt>
      <trkpt lat="52.292105974629521" lon="-0.102180009707808">
        <ele>-15.720000000000001</ele>
        <time>2023-09-03T14:34:36Z</time>
      </trkpt>
      <trkpt lat="52.291632983833551" lon="-0.096757002174854">
        <ele>-11.4</ele>
        <time>2023-09-03T14:34:48Z</time>
      </trkpt>
      <trkpt lat="52.290966035798192" lon="-0.089552002027631">
        <ele>-5.15</ele>
        <time>2023-09-03T14:35:04Z</time>
      </trkpt>
      <trkpt lat="52.290497990325093" lon="-0.084629980847239">
        <ele>-3.23</ele>
        <time>2023-09-03T14:35:15Z</time>
      </trkpt>
      <trkpt lat="52.28971503674984" lon="-0.076990965753794">
        <ele>-2.27</ele>
        <time>2023-09-03T14:35:32Z</time>
      </trkpt>
      <trkpt lat="52.288951026275754" lon="-0.069801975041628">
        <ele>3.5</ele>
        <time>2023-09-03T14:35:48Z</time>
      </trkpt>
      <trkpt lat="52.288080984726548" lon="-0.062637040391564">
        <ele>8.310000000000001</ele>
        <time>2023-09-03T14:36:04Z</time>
      </trkpt>
      <trkpt lat="52.287158975377679" lon="-0.0559470243752">
        <ele>13.119999999999999</ele>
        <time>2023-09-03T14:36:19Z</time>
      </trkpt>
      <trkpt lat="52.285884004086256" lon="-0.04802000708878">
        <ele>15.039999999999999</ele>
        <time>2023-09-03T14:36:37Z</time>
      </trkpt>
      <trkpt lat="52.284987978637218" lon="-0.043222038075328">
        <ele>16.960000000000001</ele>
        <time>2023-09-03T14:36:48Z</time>
      </trkpt>
      <trkpt lat="52.283964967355132" lon="-0.039027985185385">
        <ele>22.73</ele>
        <time>2023-09-03T14:36:58Z</time>
      </trkpt>
      <trkpt lat="52.282383972778916" lon="-0.034234961494803">
        <ele>28.02</ele>
        <time>2023-09-03T14:37:10Z</time>
      </trkpt>
      <trkpt lat="52.280638022348285" lon="-0.030132019892335">
        <ele>30.899999999999999</ele>
        <time>2023-09-03T14:37:21Z</time>
      </trkpt>
      <trkpt lat="52.279019979760051" lon="-0.026455968618393">
        <ele>28.5</ele>
        <time>2023-09-03T14:37:31Z</time>
      </trkpt>
      <trkpt lat="52.276357971131802" lon="-0.020013973116875">
        <ele>29.940000000000001</ele>
        <time>2023-09-03T14:37:48Z</time>
      </trkpt>
      <trkpt lat="52.274671029299498" lon="-0.016301963478327">
        <ele>31.379999999999999</ele>
        <time>2023-09-03T14:37:58Z</time>
      </trkpt>
      <trkpt lat="52.272369023412466" lon="-0.011115996167064">
        <ele>27.050000000000001</ele>
        <time>2023-09-03T14:38:12Z</time>
      </trkpt>
      <trkpt lat="52.270612008869648" lon="-0.007037026807666">
        <ele>27.050000000000001</ele>
        <time>2023-09-03T14:38:23Z</time>
      </trkpt>
      <trkpt lat="52.268989020958543" lon="-0.003334991633892">
        <ele>28.5</ele>
        <time>2023-09-03T14:38:33Z</time>
      </trkpt>
      <trkpt lat="52.266572015359998" lon="0.002209972590208">
        <ele>25.609999999999999</ele>
        <time>2023-09-03T14:38:48Z</time>
      </trkpt>
      <trkpt lat="52.26589098572731" lon="0.003770012408495">
        <ele>25.129999999999999</ele>
        <time>2023-09-03T14:38:52Z</time>
      </trkpt>
      <trkpt lat="52.264446029439569" lon="0.007125036790967">
        <ele>20.809999999999999</ele>
        <time>2023-09-03T14:39:01Z</time>
      </trkpt>
      <trkpt lat="52.263474985957146" lon="0.009337021037936">
        <ele>19.84</ele>
        <time>2023-09-03T14:39:07Z</time>
      </trkpt>
      <trkpt lat="52.262060036882758" lon="0.012660026550293">
        <ele>19.84</ele>
        <time>2023-09-03T14:39:16Z</time>
      </trkpt>
      <trkpt lat="52.260440988466144" lon="0.016965977847576">
        <ele>23.690000000000001</ele>
        <time>2023-09-03T14:39:27Z</time>
      </trkpt>
      <trkpt lat="52.259029978886247" lon="0.020414963364601">
        <ele>24.170000000000002</ele>
        <time>2023-09-03T14:39:36Z</time>
      </trkpt>
      <trkpt lat="52.257247986271977" lon="0.02438697963953">
        <ele>22.25</ele>
        <time>2023-09-03T14:39:47Z</time>
      </trkpt>
      <trkpt lat="52.255825996398926" lon="0.027392981573939">
        <ele>26.09</ele>
        <time>2023-09-03T14:39:56Z</time>
      </trkpt>
      <trkpt lat="52.254124972969294" lon="0.03093701787293">
        <ele>23.210000000000001</ele>
        <time>2023-09-03T14:40:06Z</time>
      </trkpt>
      <trkpt lat="52.252371981739998" lon="0.034567974507809">
        <ele>24.649999999999999</ele>
        <time>2023-09-03T14:40:16Z</time>
      </trkpt>
      <trkpt lat="52.250829041004181" lon="0.037759970873594">
        <ele>22.25</ele>
        <time>2023-09-03T14:40:25Z</time>
      </trkpt>
      <trkpt lat="52.249089041724801" lon="0.041349017992616">
        <ele>23.690000000000001</ele>
        <time>2023-09-03T14:40:35Z</time>
      </trkpt>
      <trkpt lat="52.247458007186651" lon="0.044525004923344">
        <ele>30.899999999999999</ele>
        <time>2023-09-03T14:40:44Z</time>
      </trkpt>
      <trkpt lat="52.247294979169965" lon="0.044844020158052">
        <ele>31.859999999999999</ele>
        <time>2023-09-03T14:40:45Z</time>
      </trkpt>
      <trkpt lat="52.245613988488913" lon="0.048145987093449">
        <ele>33.780000000000001</ele>
        <time>2023-09-03T14:40:55Z</time>
      </trkpt>
      <trkpt lat="52.243477022275329" lon="0.052282037213445">
        <ele>36.670000000000002</ele>
        <time>2023-09-03T14:41:09Z</time>
      </trkpt>
      <trkpt lat="52.241768036037683" lon="0.055616023018956">
        <ele>32.82</ele>
        <time>2023-09-03T14:41:21Z</time>
      </trkpt>
      <trkpt lat="52.240586020052433" lon="0.057964967563748">
        <ele>27.050000000000001</ele>
        <time>2023-09-03T14:41:30Z</time>
      </trkpt>
      <trkpt lat="52.239207029342651" lon="0.060578025877476">
        <ele>24.170000000000002</ele>
        <time>2023-09-03T14:41:42Z</time>
      </trkpt>
      <trkpt lat="52.238213019445539" lon="0.062280977144837">
        <ele>23.690000000000001</ele>
        <time>2023-09-03T14:41:51Z</time>
      </trkpt>
      <trkpt lat="52.236759010702372" lon="0.064328005537391">
        <ele>26.57</ele>
        <time>2023-09-03T14:42:01Z</time>
      </trkpt>
      <trkpt lat="52.235301984474063" lon="0.06593800149858">
        <ele>24.649999999999999</ele>
        <time>2023-09-03T14:42:09Z</time>
      </trkpt>
      <trkpt lat="52.233215980231762" lon="0.068174041807652">
        <ele>22.73</ele>
        <time>2023-09-03T14:42:19Z</time>
      </trkpt>
      <trkpt lat="52.229474969208241" lon="0.072184028103948">
        <ele>22.25</ele>
        <time>2023-09-03T14:42:35Z</time>
      </trkpt>
      <trkpt lat="52.225656006485224" lon="0.075964014977217">
        <ele>18.399999999999999</ele>
        <time>2023-09-03T14:42:51Z</time>
      </trkpt>
      <trkpt lat="52.223059963434935" lon="0.077621033415198">
        <ele>16</ele>
        <time>2023-09-03T14:43:01Z</time>
      </trkpt>
      <trkpt lat="52.220337018370628" lon="0.078619988635182">
        <ele>16</ele>
        <time>2023-09-03T14:43:11Z</time>
      </trkpt>
      <trkpt lat="52.21754802390933" lon="0.078842025250196">
        <ele>16</ele>
        <time>2023-09-03T14:43:21Z</time>
      </trkpt>
      <trkpt lat="52.214761041104794" lon="0.078412033617496">
        <ele>16.48</ele>
        <time>2023-09-03T14:43:31Z</time>
      </trkpt>
      <trkpt lat="52.212274968624115" lon="0.077875005081296">
        <ele>20.32</ele>
        <time>2023-09-03T14:43:40Z</time>
      </trkpt>
      <trkpt lat="52.208111006766558" lon="0.076978979632258">
        <ele>22.25</ele>
        <time>2023-09-03T14:43:55Z</time>
      </trkpt>
      <trkpt lat="52.204225994646549" lon="0.07614498026669">
        <ele>22.25</ele>
        <time>2023-09-03T14:44:09Z</time>
      </trkpt>
      <trkpt lat="52.199775958433747" lon="0.075206039473414">
        <ele>18.879999999999999</ele>
        <time>2023-09-03T14:44:25Z</time>
      </trkpt>
      <trkpt lat="52.196482038125396" lon="0.074529033154249">
        <ele>21.77</ele>
        <time>2023-09-03T14:44:37Z</time>
      </trkpt>
      <trkpt lat="52.193927988409996" lon="0.07423298433423">
        <ele>21.289999999999999</ele>
        <time>2023-09-03T14:44:46Z</time>
      </trkpt>
      <trkpt lat="52.191851958632469" lon="0.074262991547585">
        <ele>21.289999999999999</ele>
        <time>2023-09-03T14:44:54Z</time>
      </trkpt>
      <trkpt lat="52.18854202888906" lon="0.074802031740546">
        <ele>18.879999999999999</ele>
        <time>2023-09-03T14:45:07Z</time>
      </trkpt>
      <trkpt lat="52.186611006036401" lon="0.075403014197946">
        <ele>18.399999999999999</ele>
        <time>2023-09-03T14:45:14Z</time>
      </trkpt>
      <trkpt lat="52.183091025799513" lon="0.076912008225918">
        <ele>17.440000000000001</ele>
        <time>2023-09-03T14:45:27Z</time>
      </trkpt>
      <trkpt lat="52.180178984999657" lon="0.078575983643532">
        <ele>18.879999999999999</ele>
        <time>2023-09-03T14:45:38Z</time>
      </trkpt>
      <trkpt lat="52.176357004791498" lon="0.081394985318184">
        <ele>18.399999999999999</ele>
        <time>2023-09-03T14:45:53Z</time>
      </trkpt>
      <trkpt lat="52.173442030325532" lon="0.084122037515044">
        <ele>18.879999999999999</ele>
        <time>2023-09-03T14:46:05Z</time>
      </trkpt>
      <trkpt lat="52.170909019187093" lon="0.086946990340948">
        <ele>19.359999999999999</ele>
        <time>2023-09-03T14:46:16Z</time>
      </trkpt>
      <trkpt lat="52.168279029428959" lon="0.090322969481349">
        <ele>18.879999999999999</ele>
        <time>2023-09-03T14:46:28Z</time>
      </trkpt>
      <trkpt lat="52.165601011365652" lon="0.09431803599">
        <ele>17.440000000000001</ele>
        <time>2023-09-03T14:46:41Z</time>
      </trkpt>
      <trkpt lat="52.162872031331062" lon="0.098921963945031">
        <ele>14.56</ele>
        <time>2023-09-03T14:46:55Z</time>
      </trkpt>
      <trkpt lat="52.160630961880088" lon="0.102952988818288">
        <ele>16.48</ele>
        <time>2023-09-03T14:47:07Z</time>
      </trkpt>
      <trkpt lat="52.160442033782601" lon="0.103261023759842">
        <ele>17.920000000000002</ele>
        <time>2023-09-03T14:47:08Z</time>
      </trkpt>
      <trkpt lat="52.158783003687859" lon="0.105678029358387">
        <ele>23.690000000000001</ele>
        <time>2023-09-03T14:47:16Z</time>
      </trkpt>
      <trkpt lat="52.156402040272951" lon="0.10809201747179">
        <ele>23.690000000000001</ele>
        <time>2023-09-03T14:47:26Z</time>
      </trkpt>
      <trkpt lat="52.154325004667044" lon="0.109433038160205">
        <ele>22.25</ele>
        <time>2023-09-03T14:47:34Z</time>
      </trkpt>
      <trkpt lat="52.151909004896879" lon="0.110314982011914">
        <ele>20.32</ele>
        <time>2023-09-03T14:47:43Z</time>
      </trkpt>
      <trkpt lat="52.150045037269592" lon="0.110566020011902">
        <ele>18.399999999999999</ele>
        <time>2023-09-03T14:47:51Z</time>
      </trkpt>
      <trkpt lat="52.147646974772215" lon="0.110287992283702">
        <ele>18.879999999999999</ele>
        <time>2023-09-03T14:48:01Z</time>
      </trkpt>
      <trkpt lat="52.145386962220073" lon="0.109919020906091">
        <ele>20.32</ele>
        <time>2023-09-03T14:48:11Z</time>
      </trkpt>
      <trkpt lat="52.142917988821864" lon="0.109899993985891">
        <ele>21.77</ele>
        <time>2023-09-03T14:48:21Z</time>
      </trkpt>
      <trkpt lat="52.14041699655354" lon="0.110415983945131">
        <ele>21.77</ele>
        <time>2023-09-03T14:48:30Z</time>
      </trkpt>
      <trkpt lat="52.137464974075556" lon="0.111795980483294">
        <ele>19.84</ele>
        <time>2023-09-03T14:48:41Z</time>
      </trkpt>
      <trkpt lat="52.134675979614258" lon="0.113888019695878">
        <ele>16.960000000000001</ele>
        <time>2023-09-03T14:48:52Z</time>
      </trkpt>
      <trkpt lat="52.130979979410768" lon="0.117069035768509">
        <ele>15.039999999999999</ele>
        <time>2023-09-03T14:49:07Z</time>
      </trkpt>
      <trkpt lat="52.127280039712787" lon="0.120266983285546">
        <ele>19.359999999999999</ele>
        <time>2023-09-03T14:49:22Z</time>
      </trkpt>
      <trkpt lat="52.123079029843211" lon="0.123886037617922">
        <ele>21.77</ele>
        <time>2023-09-03T14:49:39Z</time>
      </trkpt>
      <trkpt lat="52.120793033391237" lon="0.125575996935368">
        <ele>20.809999999999999</ele>
        <time>2023-09-03T14:49:48Z</time>
      </trkpt>
      <trkpt lat="52.11813798174262" lon="0.12689396739006">
        <ele>21.289999999999999</ele>
        <time>2023-09-03T14:49:58Z</time>
      </trkpt>
      <trkpt lat="52.114835008978844" lon="0.127654960379004">
        <ele>21.289999999999999</ele>
        <time>2023-09-03T14:50:10Z</time>
      </trkpt>
      <trkpt lat="52.110953014343977" lon="0.128508992493153">
        <ele>23.690000000000001</ele>
        <time>2023-09-03T14:50:24Z</time>
      </trkpt>
      <trkpt lat="52.108023958280683" lon="0.129989990964532">
        <ele>27.050000000000001</ele>
        <time>2023-09-03T14:50:35Z</time>
      </trkpt>
      <trkpt lat="52.105511985719204" lon="0.13198203407228">
        <ele>28.5</ele>
        <time>2023-09-03T14:50:45Z</time>
      </trkpt>
      <trkpt lat="52.102401964366436" lon="0.134710008278489">
        <ele>28.5</ele>
        <time>2023-09-03T14:50:58Z</time>
      </trkpt>
      <trkpt lat="52.101083993911743" lon="0.135912979021668">
        <ele>28.02</ele>
        <time>2023-09-03T14:51:05Z</time>
      </trkpt>
      <trkpt lat="52.099181972444057" lon="0.137602016329765">
        <ele>27.530000000000001</ele>
        <time>2023-09-03T14:51:13Z</time>
      </trkpt>
      <trkpt lat="52.096731020137668" lon="0.139759015291929">
        <ele>28.98</ele>
        <time>2023-09-03T14:51:23Z</time>
      </trkpt>
      <trkpt lat="52.094037998467684" lon="0.142155988141894">
        <ele>30.420000000000002</ele>
        <time>2023-09-03T14:51:34Z</time>
      </trkpt>
      <trkpt lat="52.090653972700238" lon="0.145359970629215">
        <ele>34.259999999999998</ele>
        <time>2023-09-03T14:51:48Z</time>
      </trkpt>
      <trkpt lat="52.087758025154471" lon="0.148878023028374">
        <ele>40.030000000000001</ele>
        <time>2023-09-03T14:52:01Z</time>
      </trkpt>
      <trkpt lat="52.084996020421386" lon="0.151970023289323">
        <ele>44.840000000000003</ele>
        <time>2023-09-03T14:52:13Z</time>
      </trkpt>
      <trkpt lat="52.081646025180817" lon="0.155265033245087">
        <ele>49.159999999999997</ele>
        <time>2023-09-03T14:52:27Z</time>
      </trkpt>
      <trkpt lat="52.078211959451437" lon="0.158335994929075">
        <ele>48.200000000000003</ele>
        <time>2023-09-03T14:52:41Z</time>
      </trkpt>
      <trkpt lat="52.073956970125437" lon="0.161739969626069">
        <ele>42.439999999999998</ele>
        <time>2023-09-03T14:52:58Z</time>
      </trkpt>
      <trkpt lat="52.069770041853189" lon="0.165391964837909">
        <ele>36.189999999999998</ele>
        <time>2023-09-03T14:53:15Z</time>
      </trkpt>
      <trkpt lat="52.068025013431907" lon="0.167657006531954">
        <ele>35.229999999999997</ele>
        <time>2023-09-03T14:53:23Z</time>
      </trkpt>
      <trkpt lat="52.066607968881726" lon="0.170443989336491">
        <ele>35.710000000000001</ele>
        <time>2023-09-03T14:53:31Z</time>
      </trkpt>
      <trkpt lat="52.065532989799976" lon="0.173597009852529">
        <ele>37.630000000000003</ele>
        <time>2023-09-03T14:53:39Z</time>
      </trkpt>
      <trkpt lat="52.064649034291506" lon="0.177873959764838">
        <ele>42.439999999999998</ele>
        <time>2023-09-03T14:53:49Z</time>
      </trkpt>
      <trkpt lat="52.063792990520597" lon="0.181225966662169">
        <ele>46.759999999999998</ele>
        <time>2023-09-03T14:53:57Z</time>
      </trkpt>
      <trkpt lat="52.062567975372076" lon="0.184257030487061">
        <ele>48.68</ele>
        <time>2023-09-03T14:54:05Z</time>
      </trkpt>
      <trkpt lat="52.061000978574157" lon="0.186818959191442">
        <ele>48.68</ele>
        <time>2023-09-03T14:54:13Z</time>
      </trkpt>
      <trkpt lat="52.059156037867069" lon="0.188878979533911">
        <ele>47.719999999999999</ele>
        <time>2023-09-03T14:54:21Z</time>
      </trkpt>
      <trkpt lat="52.056842967867851" lon="0.1904889754951">
        <ele>48.200000000000003</ele>
        <time>2023-09-03T14:54:30Z</time>
      </trkpt>
      <trkpt lat="52.054180959239602" lon="0.191726982593536">
        <ele>50.609999999999999</ele>
        <time>2023-09-03T14:54:40Z</time>
      </trkpt>
      <trkpt lat="52.051778035238385" lon="0.192311033606529">
        <ele>54.93</ele>
        <time>2023-09-03T14:54:50Z</time>
      </trkpt>
      <trkpt lat="52.048792988061905" lon="0.192436007782817">
        <ele>64.069999999999993</ele>
        <time>2023-09-03T14:55:02Z</time>
      </trkpt>
      <trkpt lat="52.046447983011603" lon="0.192044991999865">
        <ele>74.159999999999997</ele>
        <time>2023-09-03T14:55:11Z</time>
      </trkpt>
      <trkpt lat="52.043677009642124" lon="0.191057017073035">
        <ele>86.180000000000007</ele>
        <time>2023-09-03T14:55:22Z</time>
      </trkpt>
      <trkpt lat="52.040793970227242" lon="0.189996035769582">
        <ele>94.829999999999998</ele>
        <time>2023-09-03T14:55:33Z</time>
      </trkpt>
      <trkpt lat="52.037297962233424" lon="0.189440986141562">
        <ele>100.59999999999999</ele>
        <time>2023-09-03T14:55:46Z</time>
      </trkpt>
      <trkpt lat="52.034306963905692" lon="0.189550034701824">
        <ele>100.59999999999999</ele>
        <time>2023-09-03T14:55:57Z</time>
      </trkpt>
      <trkpt lat="52.031218986958265" lon="0.190322007983923">
        <ele>96.75</ele>
        <time>2023-09-03T14:56:09Z</time>
      </trkpt>
      <trkpt lat="52.02895101159811" lon="0.191313000395894">
        <ele>90.980000000000004</ele>
        <time>2023-09-03T14:56:18Z</time>
      </trkpt>
      <trkpt lat="52.02675998210907" lon="0.192666007205844">
        <ele>83.769999999999996</ele>
        <time>2023-09-03T14:56:27Z</time>
      </trkpt>
      <trkpt lat="52.024265024811029" lon="0.194428972899914">
        <ele>77.040000000000006</ele>
        <time>2023-09-03T14:56:37Z</time>
      </trkpt>
      <trkpt lat="52.021147040650249" lon="0.196286989375949">
        <ele>73.200000000000003</ele>
        <time>2023-09-03T14:56:49Z</time>
      </trkpt>
      <trkpt lat="52.018519984558225" lon="0.197249986231327">
        <ele>77.519999999999996</ele>
        <time>2023-09-03T14:57:00Z</time>
      </trkpt>
      <trkpt lat="52.015640968456864" lon="0.197715014219284">
        <ele>84.730000000000004</ele>
        <time>2023-09-03T14:57:11Z</time>
      </trkpt>
      <trkpt lat="52.012449977919459" lon="0.197561960667372">
        <ele>85.689999999999998</ele>
        <time>2023-09-03T14:57:23Z</time>
      </trkpt>
      <trkpt lat="52.009896012023091" lon="0.196931976824999">
        <ele>78.969999999999999</ele>
        <time>2023-09-03T14:57:33Z</time>
      </trkpt>
      <trkpt lat="52.005788963288069" lon="0.195770999416709">
        <ele>69.829999999999998</ele>
        <time>2023-09-03T14:57:49Z</time>
      </trkpt>
      <trkpt lat="52.002431005239487" lon="0.195177979767323">
        <ele>65.510000000000005</ele>
        <time>2023-09-03T14:58:02Z</time>
      </trkpt>
      <trkpt lat="51.998564014211297" lon="0.194909004494548">
        <ele>75.599999999999994</ele>
        <time>2023-09-03T14:58:17Z</time>
      </trkpt>
      <trkpt lat="51.995500009506941" lon="0.195026015862823">
        <ele>85.689999999999998</ele>
        <time>2023-09-03T14:58:28Z</time>
      </trkpt>
      <trkpt lat="51.991592030972242" lon="0.195602020248771">
        <ele>90.5</ele>
        <time>2023-09-03T14:58:42Z</time>
      </trkpt>
      <trkpt lat="51.987988986074924" lon="0.19652696326375">
        <ele>84.25</ele>
        <time>2023-09-03T14:58:55Z</time>
      </trkpt>
      <trkpt lat="51.984448973089457" lon="0.197874018922448">
        <ele>76.079999999999998</ele>
        <time>2023-09-03T14:59:08Z</time>
      </trkpt>
      <trkpt lat="51.98183499276638" lon="0.199422994628549">
        <ele>71.269999999999996</ele>
        <time>2023-09-03T14:59:18Z</time>
      </trkpt>
      <trkpt lat="51.979476995766163" lon="0.201813010498881">
        <ele>70.310000000000002</ele>
        <time>2023-09-03T14:59:28Z</time>
      </trkpt>
      <trkpt lat="51.978005971759558" lon="0.203974032774568">
        <ele>72.719999999999999</ele>
        <time>2023-09-03T14:59:36Z</time>
      </trkpt>
      <trkpt lat="51.976361023262143" lon="0.206969976425171">
        <ele>75.599999999999994</ele>
        <time>2023-09-03T14:59:46Z</time>
      </trkpt>
      <trkpt lat="51.974574001505971" lon="0.209806999191642">
        <ele>77.040000000000006</ele>
        <time>2023-09-03T14:59:55Z</time>
      </trkpt>
      <trkpt lat="51.972469976171851" lon="0.212035998702049">
        <ele>74.640000000000001</ele>
        <time>2023-09-03T15:00:04Z</time>
      </trkpt>
      <trkpt lat="51.970157995820045" lon="0.213594026863575">
        <ele>71.760000000000005</ele>
        <time>2023-09-03T15:00:13Z</time>
      </trkpt>
      <trkpt lat="51.96741702966392" lon="0.214493991807103">
        <ele>75.120000000000005</ele>
        <time>2023-09-03T15:00:23Z</time>
      </trkpt>
      <trkpt lat="51.965174032375216" lon="0.21450899541378">
        <ele>77.040000000000006</ele>
        <time>2023-09-03T15:00:31Z</time>
      </trkpt>
      <trkpt lat="51.963726980611682" lon="0.214214958250523">
        <ele>76.079999999999998</ele>
        <time>2023-09-03T15:00:37Z</time>
      </trkpt>
      <trkpt lat="51.961521031334996" lon="0.213558990508318">
        <ele>71.760000000000005</ele>
        <time>2023-09-03T15:00:46Z</time>
      </trkpt>
      <trkpt lat="51.959925033152103" lon="0.213353969156742">
        <ele>69.349999999999994</ele>
        <time>2023-09-03T15:00:53Z</time>
      </trkpt>
      <trkpt lat="51.958559034392238" lon="0.213471986353397">
        <ele>66.950000000000003</ele>
        <time>2023-09-03T15:01:01Z</time>
      </trkpt>
      <trkpt lat="51.956684002652764" lon="0.214068023487926">
        <ele>66.469999999999999</ele>
        <time>2023-09-03T15:01:10Z</time>
      </trkpt>
      <trkpt lat="51.953996010124683" lon="0.215148031711578">
        <ele>71.760000000000005</ele>
        <time>2023-09-03T15:01:21Z</time>
      </trkpt>
      <trkpt lat="51.951700039207935" lon="0.215792013332248">
        <ele>76.079999999999998</ele>
        <time>2023-09-03T15:01:30Z</time>
      </trkpt>
      <trkpt lat="51.94874600507319" lon="0.216079009696841">
        <ele>77.040000000000006</ele>
        <time>2023-09-03T15:01:43Z</time>
      </trkpt>
      <trkpt lat="51.946551958099008" lon="0.216079009696841">
        <ele>74.159999999999997</ele>
        <time>2023-09-03T15:01:53Z</time>
      </trkpt>
      <trkpt lat="51.94408399052918" lon="0.216543031856418">
        <ele>72.719999999999999</ele>
        <time>2023-09-03T15:02:04Z</time>
      </trkpt>
      <trkpt lat="51.941950963810086" lon="0.217648018151522">
        <ele>76.079999999999998</ele>
        <time>2023-09-03T15:02:14Z</time>
      </trkpt>
      <trkpt lat="51.940008960664272" lon="0.219348035752773">
        <ele>82.810000000000002</ele>
        <time>2023-09-03T15:02:24Z</time>
      </trkpt>
      <trkpt lat="51.937948018312454" lon="0.221616011112928">
        <ele>86.659999999999997</ele>
        <time>2023-09-03T15:02:35Z</time>
      </trkpt>
      <trkpt lat="51.93576998077333" lon="0.223433962091804">
        <ele>87.620000000000005</ele>
        <time>2023-09-03T15:02:45Z</time>
      </trkpt>
      <trkpt lat="51.933810962364078" lon="0.224329987540841">
        <ele>87.140000000000001</ele>
        <time>2023-09-03T15:02:53Z</time>
      </trkpt>
      <trkpt lat="51.931791007518768" lon="0.224717985838652">
        <ele>85.689999999999998</ele>
        <time>2023-09-03T15:03:01Z</time>
      </trkpt>
      <trkpt lat="51.930157039314508" lon="0.224610026925802">
        <ele>81.849999999999994</ele>
        <time>2023-09-03T15:03:09Z</time>
      </trkpt>
      <trkpt lat="51.92876698449254" lon="0.224227979779243">
        <ele>80.890000000000001</ele>
        <time>2023-09-03T15:03:18Z</time>
      </trkpt>
      <trkpt lat="51.926993960514665" lon="0.223357016220689">
        <ele>81.849999999999994</ele>
        <time>2023-09-03T15:03:30Z</time>
      </trkpt>
      <trkpt lat="51.925000995397568" lon="0.221950029954314">
        <ele>84.730000000000004</ele>
        <time>2023-09-03T15:03:43Z</time>
      </trkpt>
      <trkpt lat="51.923263007774949" lon="0.220814030617476">
        <ele>88.579999999999998</ele>
        <time>2023-09-03T15:03:52Z</time>
      </trkpt>
      <trkpt lat="51.921926010400057" lon="0.220143981277943">
        <ele>92.420000000000002</ele>
        <time>2023-09-03T15:04:00Z</time>
      </trkpt>
      <trkpt lat="51.920268991962075" lon="0.219555990770459">
        <ele>97.230000000000004</ele>
        <time>2023-09-03T15:04:10Z</time>
      </trkpt>
      <trkpt lat="51.919006006792188" lon="0.21927603520453">
        <ele>98.189999999999998</ele>
        <time>2023-09-03T15:04:17Z</time>
      </trkpt>
      <trkpt lat="51.916803997009993" lon="0.219184001907706">
        <ele>99.150000000000006</ele>
        <time>2023-09-03T15:04:28Z</time>
      </trkpt>
      <trkpt lat="51.914570974186063" lon="0.219503017142415">
        <ele>96.75</ele>
        <time>2023-09-03T15:04:38Z</time>
      </trkpt>
      <trkpt lat="51.912352032959461" lon="0.220323018729687">
        <ele>89.540000000000006</ele>
        <time>2023-09-03T15:04:48Z</time>
      </trkpt>
      <trkpt lat="51.910153962671757" lon="0.221473015844822">
        <ele>84.730000000000004</ele>
        <time>2023-09-03T15:04:58Z</time>
      </trkpt>
      <trkpt lat="51.907482985407114" lon="0.222652014344931">
        <ele>79.450000000000003</ele>
        <time>2023-09-03T15:05:10Z</time>
      </trkpt>
      <trkpt lat="51.905326992273331" lon="0.222891988232732">
        <ele>79.450000000000003</ele>
        <time>2023-09-03T15:05:20Z</time>
      </trkpt>
      <trkpt lat="51.903054993599653" lon="0.222572972998023">
        <ele>80.890000000000001</ele>
        <time>2023-09-03T15:05:30Z</time>
      </trkpt>
      <trkpt lat="51.900849966332316" lon="0.221567982807755">
        <ele>82.329999999999998</ele>
        <time>2023-09-03T15:05:39Z</time>
      </trkpt>
      <trkpt lat="51.89896403811872" lon="0.220114979892969">
        <ele>86.180000000000007</ele>
        <time>2023-09-03T15:05:47Z</time>
      </trkpt>
      <trkpt lat="51.897276006639004" lon="0.218253023922443">
        <ele>89.540000000000006</ele>
        <time>2023-09-03T15:05:56Z</time>
      </trkpt>
      <trkpt lat="51.895732982084155" lon="0.216053025797009">
        <ele>91.459999999999994</ele>
        <time>2023-09-03T15:06:05Z</time>
      </trkpt>
      <trkpt lat="51.893419995903969" lon="0.212813001126051">
        <ele>94.829999999999998</ele>
        <time>2023-09-03T15:06:17Z</time>
      </trkpt>
      <trkpt lat="51.891341032460332" lon="0.210510995239019">
        <ele>97.230000000000004</ele>
        <time>2023-09-03T15:06:27Z</time>
      </trkpt>
      <trkpt lat="51.888924026861787" lon="0.208402024582028">
        <ele>96.269999999999996</ele>
        <time>2023-09-03T15:06:37Z</time>
      </trkpt>
      <trkpt lat="51.886147018522024" lon="0.206616008654237">
        <ele>93.390000000000001</ele>
        <time>2023-09-03T15:06:48Z</time>
      </trkpt>
      <trkpt lat="51.882944963872433" lon="0.205212039873004">
        <ele>90.980000000000004</ele>
        <time>2023-09-03T15:07:01Z</time>
      </trkpt>
      <trkpt lat="51.87947996892035" lon="0.203761970624328">
        <ele>88.099999999999994</ele>
        <time>2023-09-03T15:07:15Z</time>
      </trkpt>
      <trkpt lat="51.876515038311481" lon="0.202286001294851">
        <ele>86.180000000000007</ele>
        <time>2023-09-03T15:07:27Z</time>
      </trkpt>
      <trkpt lat="51.874603964388371" lon="0.201194006949663">
        <ele>85.689999999999998</ele>
        <time>2023-09-03T15:07:35Z</time>
      </trkpt>
      <trkpt lat="51.871718997135758" lon="0.199410002678633">
        <ele>82.329999999999998</ele>
        <time>2023-09-03T15:07:46Z</time>
      </trkpt>
      <trkpt lat="51.869661994278431" lon="0.197992958128452">
        <ele>81.370000000000005</ele>
        <time>2023-09-03T15:07:54Z</time>
      </trkpt>
      <trkpt lat="51.866126004606485" lon="0.195246962830424">
        <ele>74.640000000000001</ele>
        <time>2023-09-03T15:08:08Z</time>
      </trkpt>
      <trkpt lat="51.862964015454054" lon="0.192447993904352">
        <ele>76.560000000000002</ele>
        <time>2023-09-03T15:08:21Z</time>
      </trkpt>
      <trkpt lat="51.859932029619813" lon="0.189453978091478">
        <ele>80.890000000000001</ele>
        <time>2023-09-03T15:08:34Z</time>
      </trkpt>
      <trkpt lat="51.85771300457418" lon="0.18724400550127">
        <ele>77.040000000000006</ele>
        <time>2023-09-03T15:08:44Z</time>
      </trkpt>
      <trkpt lat="51.855441005900502" lon="0.185664016753435">
        <ele>74.640000000000001</ele>
        <time>2023-09-03T15:08:53Z</time>
      </trkpt>
      <trkpt lat="51.852698028087616" lon="0.184805039316416">
        <ele>73.680000000000007</ele>
        <time>2023-09-03T15:09:03Z</time>
      </trkpt>
      <trkpt lat="51.850195024162531" lon="0.184863964095712">
        <ele>78</ele>
        <time>2023-09-03T15:09:12Z</time>
      </trkpt>
      <trkpt lat="51.848268024623394" lon="0.185453966259956">
        <ele>81.370000000000005</ele>
        <time>2023-09-03T15:09:19Z</time>
      </trkpt>
      <trkpt lat="51.846177997067571" lon="0.186734972521663">
        <ele>81.370000000000005</ele>
        <time>2023-09-03T15:09:27Z</time>
      </trkpt>
      <trkpt lat="51.844023009762168" lon="0.18881200812757">
        <ele>79.450000000000003</ele>
        <time>2023-09-03T15:09:36Z</time>
      </trkpt>
      <trkpt lat="51.841192021965981" lon="0.191703010350466">
        <ele>76.079999999999998</ele>
        <time>2023-09-03T15:09:48Z</time>
      </trkpt>
      <trkpt lat="51.839090008288622" lon="0.192860970273614">
        <ele>73.680000000000007</ele>
        <time>2023-09-03T15:09:56Z</time>
      </trkpt>
      <trkpt lat="51.836623968556523" lon="0.193587010726333">
        <ele>72.239999999999995</ele>
        <time>2023-09-03T15:10:05Z</time>
      </trkpt>
      <trkpt lat="51.834407038986683" lon="0.193518027663231">
        <ele>71.760000000000005</ele>
        <time>2023-09-03T15:10:13Z</time>
      </trkpt>
      <trkpt lat="51.832236964255571" lon="0.192725015804172">
        <ele>73.200000000000003</ele>
        <time>2023-09-03T15:10:21Z</time>
      </trkpt>
      <trkpt lat="51.829920038580894" lon="0.191167993471026">
        <ele>75.120000000000005</ele>
        <time>2023-09-03T15:10:30Z</time>
      </trkpt>
      <trkpt lat="51.827558018267155" lon="0.18876800313592">
        <ele>77.519999999999996</ele>
        <time>2023-09-03T15:10:40Z</time>
      </trkpt>
      <trkpt lat="51.825360031798482" lon="0.186815019696951">
        <ele>78.480000000000004</ele>
        <time>2023-09-03T15:10:49Z</time>
      </trkpt>
      <trkpt lat="51.823233962059021" lon="0.185701986774802">
        <ele>80.890000000000001</ele>
        <time>2023-09-03T15:10:57Z</time>
      </trkpt>
      <trkpt lat="51.820740010589361" lon="0.18518197350204">
        <ele>82.810000000000002</ele>
        <time>2023-09-03T15:11:06Z</time>
      </trkpt>
      <trkpt lat="51.817135037854314" lon="0.184570010751486">
        <ele>83.290000000000006</ele>
        <time>2023-09-03T15:11:19Z</time>
      </trkpt>
      <trkpt lat="51.814742004498839" lon="0.183300990611315">
        <ele>82.329999999999998</ele>
        <time>2023-09-03T15:11:28Z</time>
      </trkpt>
      <trkpt lat="51.813155980780721" lon="0.181938009336591">
        <ele>79.930000000000007</ele>
        <time>2023-09-03T15:11:35Z</time>
      </trkpt>
      <trkpt lat="51.810529008507729" lon="0.179141974076629">
        <ele>72.239999999999995</ele>
        <time>2023-09-03T15:11:47Z</time>
      </trkpt>
      <trkpt lat="51.808338984847069" lon="0.177490990608931">
        <ele>65.989999999999995</ele>
        <time>2023-09-03T15:11:56Z</time>
      </trkpt>
      <trkpt lat="51.805906975641847" lon="0.176465967670083">
        <ele>64.069999999999993</ele>
        <time>2023-09-03T15:12:05Z</time>
      </trkpt>
      <trkpt lat="51.803418975323439" lon="0.176153993234038">
        <ele>65.030000000000001</ele>
        <time>2023-09-03T15:12:14Z</time>
      </trkpt>
      <trkpt lat="51.801181007176638" lon="0.175861967727542">
        <ele>66.469999999999999</ele>
        <time>2023-09-03T15:12:22Z</time>
      </trkpt>
      <trkpt lat="51.797846015542746" lon="0.17508496530354">
        <ele>64.549999999999997</ele>
        <time>2023-09-03T15:12:34Z</time>
      </trkpt>
      <trkpt lat="51.794041972607374" lon="0.173582006245852">
        <ele>57.340000000000003</ele>
        <time>2023-09-03T15:12:48Z</time>
      </trkpt>
      <trkpt lat="51.790602039545774" lon="0.171753996983171">
        <ele>60.700000000000003</ele>
        <time>2023-09-03T15:13:01Z</time>
      </trkpt>
      <trkpt lat="51.787401996552944" lon="0.17022798769176">
        <ele>67.909999999999997</ele>
        <time>2023-09-03T15:13:13Z</time>
      </trkpt>
      <trkpt lat="51.783357979729772" lon="0.168371982872486">
        <ele>73.200000000000003</ele>
        <time>2023-09-03T15:13:28Z</time>
      </trkpt>
      <trkpt lat="51.779929026961327" lon="0.166411036625504">
        <ele>77.040000000000006</ele>
        <time>2023-09-03T15:13:41Z</time>
      </trkpt>
      <trkpt lat="51.776580959558487" lon="0.164109030738473">
        <ele>77.519999999999996</ele>
        <time>2023-09-03T15:13:54Z</time>
      </trkpt>
      <trkpt lat="51.772865010425448" lon="0.160974031314254">
        <ele>75.120000000000005</ele>
        <time>2023-09-03T15:14:09Z</time>
      </trkpt>
      <trkpt lat="51.769566982984543" lon="0.157634010538459">
        <ele>76.560000000000002</ele>
        <time>2023-09-03T15:14:23Z</time>
      </trkpt>
      <trkpt lat="51.766370963305235" lon="0.15402602031827">
        <ele>84.25</ele>
        <time>2023-09-03T15:14:37Z</time>
      </trkpt>
      <trkpt lat="51.763724964112043" lon="0.151481023058295">
        <ele>89.060000000000002</ele>
        <time>2023-09-03T15:14:48Z</time>
      </trkpt>
      <trkpt lat="51.761862002313137" lon="0.15000899322331">
        <ele>90.5</ele>
        <time>2023-09-03T15:14:56Z</time>
      </trkpt>
      <trkpt lat="51.758782994002104" lon="0.14811996370554">
        <ele>94.349999999999994</ele>
        <time>2023-09-03T15:15:08Z</time>
      </trkpt>
      <trkpt lat="51.756661031395197" lon="0.147077003493905">
        <ele>94.349999999999994</ele>
        <time>2023-09-03T15:15:16Z</time>
      </trkpt>
      <trkpt lat="51.753150019794703" lon="0.145599022507668">
        <ele>95.790000000000006</ele>
        <time>2023-09-03T15:15:29Z</time>
      </trkpt>
      <trkpt lat="51.750550959259272" lon="0.143971005454659">
        <ele>98.189999999999998</ele>
        <time>2023-09-03T15:15:39Z</time>
      </trkpt>
      <trkpt lat="51.748083997517824" lon="0.141880977898836">
        <ele>97.709999999999994</ele>
        <time>2023-09-03T15:15:49Z</time>
      </trkpt>
      <trkpt lat="51.744654038920999" lon="0.13879400677979">
        <ele>94.349999999999994</ele>
        <time>2023-09-03T15:16:03Z</time>
      </trkpt>
      <trkpt lat="51.742282966151834" lon="0.137434964999557">
        <ele>91.459999999999994</ele>
        <time>2023-09-03T15:16:12Z</time>
      </trkpt>
      <trkpt lat="51.739801000803709" lon="0.136812021955848">
        <ele>87.620000000000005</ele>
        <time>2023-09-03T15:16:21Z</time>
      </trkpt>
      <trkpt lat="51.737022986635566" lon="0.13698996976018">
        <ele>85.209999999999994</ele>
        <time>2023-09-03T15:16:31Z</time>
      </trkpt>
      <trkpt lat="51.734294006600976" lon="0.137939974665642">
        <ele>81.370000000000005</ele>
        <time>2023-09-03T15:16:41Z</time>
      </trkpt>
      <trkpt lat="51.730594988912344" lon="0.139533961191773">
        <ele>76.079999999999998</ele>
        <time>2023-09-03T15:16:55Z</time>
      </trkpt>
      <trkpt lat="51.727846981957555" lon="0.14049201272428">
        <ele>73.200000000000003</ele>
        <time>2023-09-03T15:17:07Z</time>
      </trkpt>
      <trkpt lat="51.724586002528667" lon="0.141385020688176">
        <ele>72.239999999999995</ele>
        <time>2023-09-03T15:17:21Z</time>
      </trkpt>
      <trkpt lat="51.722244014963508" lon="0.141933029517531">
        <ele>73.200000000000003</ele>
        <time>2023-09-03T15:17:31Z</time>
      </trkpt>
      <trkpt lat="51.718737026676536" lon="0.142921004444361">
        <ele>79.450000000000003</ele>
        <time>2023-09-03T15:17:46Z</time>
      </trkpt>
      <trkpt lat="51.715038008987904" lon="0.144246015697718">
        <ele>90.5</ele>
        <time>2023-09-03T15:18:02Z</time>
      </trkpt>
      <trkpt lat="51.71135701239109" lon="0.145743023604155">
        <ele>104.44</ele>
        <time>2023-09-03T15:18:18Z</time>
      </trkpt>
      <trkpt lat="51.708748983219266" lon="0.146140996366739">
        <ele>111.65000000000001</ele>
        <time>2023-09-03T15:18:29Z</time>
      </trkpt>
      <trkpt lat="51.705907015129924" lon="0.14577797614038">
        <ele>115.01000000000001</ele>
        <time>2023-09-03T15:18:41Z</time>
      </trkpt>
      <trkpt lat="51.703610960394144" lon="0.144807016476989">
        <ele>112.61</ele>
        <time>2023-09-03T15:18:51Z</time>
      </trkpt>
      <trkpt lat="51.701437029987574" lon="0.143278995528817">
        <ele>107.81</ele>
        <time>2023-09-03T15:19:01Z</time>
      </trkpt>
      <trkpt lat="51.698875017464161" lon="0.14141502790153">
        <ele>98.670000000000002</ele>
        <time>2023-09-03T15:19:13Z</time>
      </trkpt>
      <trkpt lat="51.698182001709938" lon="0.141020994633436">
        <ele>94.349999999999994</ele>
        <time>2023-09-03T15:19:18Z</time>
      </trkpt>
      <trkpt lat="51.69715597294271" lon="0.14051103964448">
        <ele>88.099999999999994</ele>
        <time>2023-09-03T15:19:29Z</time>
      </trkpt>
      <trkpt lat="51.696287021040916" lon="0.140132009983063">
        <ele>82.810000000000002</ele>
        <time>2023-09-03T15:19:40Z</time>
      </trkpt>
      <trkpt lat="51.695427959784865" lon="0.139780975878239">
        <ele>77.040000000000006</ele>
        <time>2023-09-03T15:19:49Z</time>
      </trkpt>
      <trkpt lat="51.694581974297762" lon="0.139434970915318">
        <ele>69.829999999999998</ele>
        <time>2023-09-03T15:20:00Z</time>
      </trkpt>
      <trkpt lat="51.69382500462234" lon="0.139083014801145">
        <ele>64.069999999999993</ele>
        <time>2023-09-03T15:20:08Z</time>
      </trkpt>
      <trkpt lat="51.693399958312511" lon="0.138867013156414">
        <ele>59.259999999999998</ele>
        <time>2023-09-03T15:20:14Z</time>
      </trkpt>
      <trkpt lat="51.69333198107779" lon="0.138832982629538">
        <ele>58.299999999999997</ele>
        <time>2023-09-03T15:20:15Z</time>
      </trkpt>
      <trkpt lat="51.69326601549983" lon="0.138799035921693">
        <ele>57.340000000000003</ele>
        <time>2023-09-03T15:20:16Z</time>
      </trkpt>
      <trkpt lat="51.693190997466445" lon="0.138760982081294">
        <ele>56.369999999999997</ele>
        <time>2023-09-03T15:20:17Z</time>
      </trkpt>
      <trkpt lat="51.693110028281808" lon="0.138719994574785">
        <ele>55.409999999999997</ele>
        <time>2023-09-03T15:20:18Z</time>
      </trkpt>
      <trkpt lat="51.692181983962655" lon="0.138184977695346">
        <ele>50.130000000000003</ele>
        <time>2023-09-03T15:20:27Z</time>
      </trkpt>
      <trkpt lat="51.691412022337317" lon="0.137687008827925">
        <ele>47.240000000000002</ele>
        <time>2023-09-03T15:20:36Z</time>
      </trkpt>
      <trkpt lat="51.690552961081266" lon="0.137063981965184">
        <ele>43.880000000000003</ele>
        <time>2023-09-03T15:20:46Z</time>
      </trkpt>
      <trkpt lat="51.689418973401189" lon="0.136203998699784">
        <ele>40.990000000000002</ele>
        <time>2023-09-03T15:20:55Z</time>
      </trkpt>
      <trkpt lat="51.687660031020641" lon="0.134735992178321">
        <ele>37.149999999999999</ele>
        <time>2023-09-03T15:21:07Z</time>
      </trkpt>
      <trkpt lat="51.685878960415721" lon="0.133031029254198">
        <ele>34.740000000000002</ele>
        <time>2023-09-03T15:21:20Z</time>
      </trkpt>
      <trkpt lat="51.683738976716995" lon="0.130659034475684">
        <ele>32.82</ele>
        <time>2023-09-03T15:21:33Z</time>
      </trkpt>
      <trkpt lat="51.681932006031275" lon="0.129058007150888">
        <ele>30.899999999999999</ele>
        <time>2023-09-03T15:21:44Z</time>
      </trkpt>
      <trkpt lat="51.680856021121144" lon="0.128359040245414">
        <ele>31.379999999999999</ele>
        <time>2023-09-03T15:21:51Z</time>
      </trkpt>
      <trkpt lat="51.680691987276077" lon="0.128293996676803">
        <ele>32.340000000000003</ele>
        <time>2023-09-03T15:21:53Z</time>
      </trkpt>
      <trkpt lat="51.680350005626678" lon="0.128240017220378">
        <ele>32.82</ele>
        <time>2023-09-03T15:21:55Z</time>
      </trkpt>
      <trkpt lat="51.68000802397728" lon="0.128476973623037">
        <ele>33.299999999999997</ele>
        <time>2023-09-03T15:21:56Z</time>
      </trkpt>
      <trkpt lat="51.679847007617354" lon="0.128575041890144">
        <ele>33.780000000000001</ele>
        <time>2023-09-03T15:21:58Z</time>
      </trkpt>
      <trkpt lat="51.67936303652823" lon="0.129007967188954">
        <ele>34.259999999999998</ele>
        <time>2023-09-03T15:22:00Z</time>
      </trkpt>
      <trkpt lat="51.679207971319556" lon="0.129179041832685">
        <ele>34.259999999999998</ele>
        <time>2023-09-03T15:22:01Z</time>
      </trkpt>
      <trkpt lat="51.679078973829746" lon="0.129393031820655">
        <ele>34.259999999999998</ele>
        <time>2023-09-03T15:22:02Z</time>
      </trkpt>
      <trkpt lat="51.678950982168317" lon="0.129633005708456">
        <ele>34.740000000000002</ele>
        <time>2023-09-03T15:22:03Z</time>
      </trkpt>
      <trkpt lat="51.678831959143281" lon="0.129879014566541">
        <ele>35.229999999999997</ele>
        <time>2023-09-03T15:22:04Z</time>
      </trkpt>
      <trkpt lat="51.678739003837109" lon="0.130171040073037">
        <ele>35.229999999999997</ele>
        <time>2023-09-03T15:22:06Z</time>
      </trkpt>
      <trkpt lat="51.67749697342515" lon="0.133990002796054">
        <ele>35.229999999999997</ele>
        <time>2023-09-03T15:22:17Z</time>
      </trkpt>
      <trkpt lat="51.676170034334064" lon="0.137270009145141">
        <ele>36.670000000000002</ele>
        <time>2023-09-03T15:22:27Z</time>
      </trkpt>
      <trkpt lat="51.674258960410953" lon="0.14089903794229">
        <ele>43.880000000000003</ele>
        <time>2023-09-03T15:22:39Z</time>
      </trkpt>
      <trkpt lat="51.672336990013719" lon="0.144625967368484">
        <ele>52.530000000000001</ele>
        <time>2023-09-03T15:22:51Z</time>
      </trkpt>
      <trkpt lat="51.671165032312274" lon="0.147341033443809">
        <ele>60.219999999999999</ele>
        <time>2023-09-03T15:23:00Z</time>
      </trkpt>
      <trkpt lat="51.670073959976435" lon="0.150299007073045">
        <ele>66.950000000000003</ele>
        <time>2023-09-03T15:23:10Z</time>
      </trkpt>
      <trkpt lat="51.669970024377108" lon="0.150615004822612">
        <ele>67.430000000000007</ele>
        <time>2023-09-03T15:23:11Z</time>
      </trkpt>
      <trkpt lat="51.669105011969805" lon="0.153584964573383">
        <ele>71.269999999999996</ele>
        <time>2023-09-03T15:23:19Z</time>
      </trkpt>
      <trkpt lat="51.667895000427961" lon="0.157579025253654">
        <ele>65.989999999999995</ele>
        <time>2023-09-03T15:23:29Z</time>
      </trkpt>
      <trkpt lat="51.666777022182941" lon="0.160230975598097">
        <ele>62.619999999999997</ele>
        <time>2023-09-03T15:23:36Z</time>
      </trkpt>
      <trkpt lat="51.665084967389703" lon="0.163248041644692">
        <ele>53.490000000000002</ele>
        <time>2023-09-03T15:23:45Z</time>
      </trkpt>
      <trkpt lat="51.662494959309697" lon="0.166656039655209">
        <ele>42.920000000000002</ele>
        <time>2023-09-03T15:23:57Z</time>
      </trkpt>
      <trkpt lat="51.660369979217649" lon="0.169547041878104">
        <ele>40.509999999999998</ele>
        <time>2023-09-03T15:24:07Z</time>
      </trkpt>
      <trkpt lat="51.65874196216464" lon="0.172615991905332">
        <ele>41.950000000000003</ele>
        <time>2023-09-03T15:24:16Z</time>
      </trkpt>
      <trkpt lat="51.657308991998434" lon="0.176470996811986">
        <ele>41.469999999999999</ele>
        <time>2023-09-03T15:24:26Z</time>
      </trkpt>
      <trkpt lat="51.65616100654006" lon="0.181070985272527">
        <ele>37.149999999999999</ele>
        <time>2023-09-03T15:24:37Z</time>
      </trkpt>
      <trkpt lat="51.654812023043633" lon="0.186481000855565">
        <ele>35.229999999999997</ele>
        <time>2023-09-03T15:24:50Z</time>
      </trkpt>
      <trkpt lat="51.653649033978581" lon="0.190099971368909">
        <ele>35.710000000000001</ele>
        <time>2023-09-03T15:25:00Z</time>
      </trkpt>
      <trkpt lat="51.65235897526145" lon="0.193528002128005">
        <ele>35.710000000000001</ele>
        <time>2023-09-03T15:25:10Z</time>
      </trkpt>
      <trkpt lat="51.65079097263515" lon="0.197282005101442">
        <ele>42.920000000000002</ele>
        <time>2023-09-03T15:25:21Z</time>
      </trkpt>
      <trkpt lat="51.648883000016212" lon="0.201134998351336">
        <ele>52.049999999999997</ele>
        <time>2023-09-03T15:25:32Z</time>
      </trkpt>
      <trkpt lat="51.646967986598611" lon="0.204402012750506">
        <ele>63.579999999999998</ele>
        <time>2023-09-03T15:25:42Z</time>
      </trkpt>
      <trkpt lat="51.644720965996385" lon="0.207671960815787">
        <ele>72.239999999999995</ele>
        <time>2023-09-03T15:25:53Z</time>
      </trkpt>
      <trkpt lat="51.642633033916354" lon="0.210332041606307">
        <ele>77.040000000000006</ele>
        <time>2023-09-03T15:26:03Z</time>
      </trkpt>
      <trkpt lat="51.639376999810338" lon="0.214041033759713">
        <ele>78</ele>
        <time>2023-09-03T15:26:17Z</time>
      </trkpt>
      <trkpt lat="51.636423971503973" lon="0.217431010678411">
        <ele>70.790000000000006</ele>
        <time>2023-09-03T15:26:30Z</time>
      </trkpt>
      <trkpt lat="51.633799010887742" lon="0.220771031454206">
        <ele>75.120000000000005</ele>
        <time>2023-09-03T15:26:42Z</time>
      </trkpt>
      <trkpt lat="51.631105989217758" lon="0.224686972796917">
        <ele>77.519999999999996</ele>
        <time>2023-09-03T15:26:55Z</time>
      </trkpt>
      <trkpt lat="51.628366028890014" lon="0.229228036478162">
        <ele>70.310000000000002</ele>
        <time>2023-09-03T15:27:09Z</time>
      </trkpt>
      <trkpt lat="51.626608008518815" lon="0.232336968183517">
        <ele>61.18</ele>
        <time>2023-09-03T15:27:19Z</time>
      </trkpt>
      <trkpt lat="51.625452982261777" lon="0.234523974359035">
        <ele>52.530000000000001</ele>
        <time>2023-09-03T15:27:27Z</time>
      </trkpt>
      <trkpt lat="51.623790012672544" lon="0.237771961838007">
        <ele>48.68</ele>
        <time>2023-09-03T15:27:38Z</time>
      </trkpt>
      <trkpt lat="51.621675007045269" lon="0.24243900552392">
        <ele>45.799999999999997</ele>
        <time>2023-09-03T15:27:51Z</time>
      </trkpt>
      <trkpt lat="51.619838029146194" lon="0.246965987607837">
        <ele>41.950000000000003</ele>
        <time>2023-09-03T15:28:03Z</time>
      </trkpt>
      <trkpt lat="51.61811001598835" lon="0.251043029129505">
        <ele>38.109999999999999</ele>
        <time>2023-09-03T15:28:14Z</time>
      </trkpt>
      <trkpt lat="51.616666987538338" lon="0.253544021397829">
        <ele>36.189999999999998</ele>
        <time>2023-09-03T15:28:22Z</time>
      </trkpt>
      <trkpt lat="51.61505900323391" lon="0.255633965134621">
        <ele>36.189999999999998</ele>
        <time>2023-09-03T15:28:32Z</time>
      </trkpt>
      <trkpt lat="51.613012980669737" lon="0.257601030170918">
        <ele>37.630000000000003</ele>
        <time>2023-09-03T15:28:42Z</time>
      </trkpt>
      <trkpt lat="51.610675016418099" lon="0.259937988594174">
        <ele>45.32</ele>
        <time>2023-09-03T15:28:54Z</time>
      </trkpt>
      <trkpt lat="51.608737036585808" lon="0.262409979477525">
        <ele>43.880000000000003</ele>
        <time>2023-09-03T15:29:04Z</time>
      </trkpt>
      <trkpt lat="51.606494039297104" lon="0.265132002532482">
        <ele>40.509999999999998</ele>
        <time>2023-09-03T15:29:15Z</time>
      </trkpt>
      <trkpt lat="51.604271996766329" lon="0.266874013468623">
        <ele>34.740000000000002</ele>
        <time>2023-09-03T15:29:24Z</time>
      </trkpt>
      <trkpt lat="51.601854991167784" lon="0.268000960350037">
        <ele>44.359999999999999</ele>
        <time>2023-09-03T15:29:33Z</time>
      </trkpt>
      <trkpt lat="51.598549000918865" lon="0.268718032166362">
        <ele>56.369999999999997</ele>
        <time>2023-09-03T15:29:45Z</time>
      </trkpt>
      <trkpt lat="51.595461023971438" lon="0.269138971343637">
        <ele>66.950000000000003</ele>
        <time>2023-09-03T15:29:56Z</time>
      </trkpt>
      <trkpt lat="51.592156961560249" lon="0.26981002651155">
        <ele>76.560000000000002</ele>
        <time>2023-09-03T15:30:08Z</time>
      </trkpt>
      <trkpt lat="51.590095013380051" lon="0.27047798037529">
        <ele>77.040000000000006</ele>
        <time>2023-09-03T15:30:16Z</time>
      </trkpt>
      <trkpt lat="51.588169019669294" lon="0.271555976942182">
        <ele>76.560000000000002</ele>
        <time>2023-09-03T15:30:24Z</time>
      </trkpt>
      <trkpt lat="51.58596801571548" lon="0.273447018116713">
        <ele>75.599999999999994</ele>
        <time>2023-09-03T15:30:33Z</time>
      </trkpt>
      <trkpt lat="51.583729963749647" lon="0.276166023686528">
        <ele>68.870000000000005</ele>
        <time>2023-09-03T15:30:43Z</time>
      </trkpt>
      <trkpt lat="51.581508005037904" lon="0.278893997892737">
        <ele>58.780000000000001</ele>
        <time>2023-09-03T15:30:53Z</time>
      </trkpt>
      <trkpt lat="51.578842978924513" lon="0.281343022361398">
        <ele>50.130000000000003</ele>
        <time>2023-09-03T15:31:04Z</time>
      </trkpt>
      <trkpt lat="51.575996987521648" lon="0.283192992210388">
        <ele>46.280000000000001</ele>
        <time>2023-09-03T15:31:15Z</time>
      </trkpt>
      <trkpt lat="51.57312098890543" lon="0.284970039501786">
        <ele>48.68</ele>
        <time>2023-09-03T15:31:26Z</time>
      </trkpt>
      <trkpt lat="51.569450972601771" lon="0.287200966849923">
        <ele>40.030000000000001</ele>
        <time>2023-09-03T15:31:40Z</time>
      </trkpt>
      <trkpt lat="51.565984971821308" lon="0.289005003869534">
        <ele>33.780000000000001</ele>
        <time>2023-09-03T15:31:53Z</time>
      </trkpt>
      <trkpt lat="51.562724998220801" lon="0.290213003754616">
        <ele>29.460000000000001</ele>
        <time>2023-09-03T15:32:05Z</time>
      </trkpt>
      <trkpt lat="51.559946984052658" lon="0.290450965985656">
        <ele>25.609999999999999</ele>
        <time>2023-09-03T15:32:15Z</time>
      </trkpt>
      <trkpt lat="51.557181039825082" lon="0.289949979633093">
        <ele>22.25</ele>
        <time>2023-09-03T15:32:25Z</time>
      </trkpt>
      <trkpt lat="51.555048013105989" lon="0.288924034684896">
        <ele>16.960000000000001</ele>
        <time>2023-09-03T15:32:33Z</time>
      </trkpt>
      <trkpt lat="51.552263963967562" lon="0.286912964656949">
        <ele>16</ele>
        <time>2023-09-03T15:32:44Z</time>
      </trkpt>
      <trkpt lat="51.549212029203773" lon="0.284676002338529">
        <ele>18.879999999999999</ele>
        <time>2023-09-03T15:32:56Z</time>
      </trkpt>
      <trkpt lat="51.54733900912106" lon="0.283733960241079">
        <ele>20.32</ele>
        <time>2023-09-03T15:33:04Z</time>
      </trkpt>
      <trkpt lat="51.545403962954879" lon="0.283084027469158">
        <ele>22.25</ele>
        <time>2023-09-03T15:33:12Z</time>
      </trkpt>
      <trkpt lat="51.542906994000077" lon="0.282557979226112">
        <ele>25.129999999999999</ele>
        <time>2023-09-03T15:33:23Z</time>
      </trkpt>
      <trkpt lat="51.540853008627892" lon="0.282195964828134">
        <ele>28.02</ele>
        <time>2023-09-03T15:33:32Z</time>
      </trkpt>
      <trkpt lat="51.538122016936541" lon="0.28147797100246">
        <ele>33.780000000000001</ele>
        <time>2023-09-03T15:33:43Z</time>
      </trkpt>
      <trkpt lat="51.535134958103299" lon="0.28036099858582">
        <ele>35.710000000000001</ele>
        <time>2023-09-03T15:33:56Z</time>
      </trkpt>
      <trkpt lat="51.532246973365545" lon="0.279185017570853">
        <ele>29.460000000000001</ele>
        <time>2023-09-03T15:34:08Z</time>
      </trkpt>
      <trkpt lat="51.530105983838439" lon="0.278205005452037">
        <ele>22.25</ele>
        <time>2023-09-03T15:34:17Z</time>
      </trkpt>
      <trkpt lat="51.5265419986099" lon="0.276428963989019">
        <ele>17.920000000000002</ele>
        <time>2023-09-03T15:34:32Z</time>
      </trkpt>
      <trkpt lat="51.524010999128222" lon="0.274851992726326">
        <ele>16</ele>
        <time>2023-09-03T15:34:43Z</time>
      </trkpt>
      <trkpt lat="51.521692983806133" lon="0.273186005651951">
        <ele>15.52</ele>
        <time>2023-09-03T15:34:54Z</time>
      </trkpt>
      <trkpt lat="51.519001973792911" lon="0.271111987531185">
        <ele>16</ele>
        <time>2023-09-03T15:35:07Z</time>
      </trkpt>
      <trkpt lat="51.516122035682201" lon="0.269430996850133">
        <ele>17.440000000000001</ele>
        <time>2023-09-03T15:35:20Z</time>
      </trkpt>
      <trkpt lat="51.513372017070651" lon="0.268379990011454">
        <ele>18.879999999999999</ele>
        <time>2023-09-03T15:35:32Z</time>
      </trkpt>
      <trkpt lat="51.510873958468437" lon="0.267845978960395">
        <ele>13.6</ele>
        <time>2023-09-03T15:35:43Z</time>
      </trkpt>
      <trkpt lat="51.508167022839189" lon="0.267693009227514">
        <ele>9.75</ele>
        <time>2023-09-03T15:35:55Z</time>
      </trkpt>
      <trkpt lat="51.505810031667352" lon="0.267783030867577">
        <ele>10.710000000000001</ele>
        <time>2023-09-03T15:36:06Z</time>
      </trkpt>
      <trkpt lat="51.503651021048427" lon="0.267933988943696">
        <ele>19.84</ele>
        <time>2023-09-03T15:36:16Z</time>
      </trkpt>
      <trkpt lat="51.50054301135242" lon="0.268398011103272">
        <ele>32.82</ele>
        <time>2023-09-03T15:36:30Z</time>
      </trkpt>
      <trkpt lat="51.498584998771548" lon="0.268677966669202">
        <ele>35.710000000000001</ele>
        <time>2023-09-03T15:36:39Z</time>
      </trkpt>
      <trkpt lat="51.497473977506161" lon="0.268807969987392">
        <ele>36.189999999999998</ele>
        <time>2023-09-03T15:36:44Z</time>
      </trkpt>
      <trkpt lat="51.497249007225037" lon="0.268835965543985">
        <ele>35.710000000000001</ele>
        <time>2023-09-03T15:36:46Z</time>
      </trkpt>
      <trkpt lat="51.495373975485563" lon="0.268890028819442">
        <ele>32.82</ele>
        <time>2023-09-03T15:36:53Z</time>
      </trkpt>
      <trkpt lat="51.492626974359155" lon="0.268472023308277">
        <ele>30.420000000000002</ele>
        <time>2023-09-03T15:37:05Z</time>
      </trkpt>
      <trkpt lat="51.490378025919199" lon="0.267799962311983">
        <ele>33.299999999999997</ele>
        <time>2023-09-03T15:37:16Z</time>
      </trkpt>
      <trkpt lat="51.489099031314254" lon="0.267488993704319">
        <ele>36.670000000000002</ele>
        <time>2023-09-03T15:37:24Z</time>
      </trkpt>
      <trkpt lat="51.488063028082252" lon="0.267372988164425">
        <ele>37.149999999999999</ele>
        <time>2023-09-03T15:37:32Z</time>
      </trkpt>
      <trkpt lat="51.486744973808527" lon="0.267343986779451">
        <ele>35.229999999999997</ele>
        <time>2023-09-03T15:37:41Z</time>
      </trkpt>
      <trkpt lat="51.484792996197939" lon="0.267396960407496">
        <ele>29.940000000000001</ele>
        <time>2023-09-03T15:37:53Z</time>
      </trkpt>
      <trkpt lat="51.482971021905541" lon="0.267124967649579">
        <ele>27.050000000000001</ele>
        <time>2023-09-03T15:38:06Z</time>
      </trkpt>
      <trkpt lat="51.481412993744016" lon="0.266818022355437">
        <ele>24.649999999999999</ele>
        <time>2023-09-03T15:38:16Z</time>
      </trkpt>
      <trkpt lat="51.479500997811556" lon="0.2666300162673">
        <ele>23.210000000000001</ele>
        <time>2023-09-03T15:38:26Z</time>
      </trkpt>
      <trkpt lat="51.477599982172251" lon="0.2667819801718">
        <ele>24.170000000000002</ele>
        <time>2023-09-03T15:38:37Z</time>
      </trkpt>
      <trkpt lat="51.475956039503217" lon="0.266535971313715">
        <ele>24.170000000000002</ele>
        <time>2023-09-03T15:38:46Z</time>
      </trkpt>
      <trkpt lat="51.47413800470531" lon="0.265999026596546">
        <ele>30.420000000000002</ele>
        <time>2023-09-03T15:38:56Z</time>
      </trkpt>
      <trkpt lat="51.472025010734797" lon="0.264959000051022">
        <ele>39.549999999999997</ele>
        <time>2023-09-03T15:39:09Z</time>
      </trkpt>
      <trkpt lat="51.470526996999979" lon="0.263926014304161">
        <ele>46.280000000000001</ele>
        <time>2023-09-03T15:39:18Z</time>
      </trkpt>
      <trkpt lat="51.468970980495214" lon="0.262633021920919">
        <ele>52.049999999999997</ele>
        <time>2023-09-03T15:39:28Z</time>
      </trkpt>
      <trkpt lat="51.466977009549737" lon="0.260833008214831">
        <ele>63.579999999999998</ele>
        <time>2023-09-03T15:39:41Z</time>
      </trkpt>
      <trkpt lat="51.465779989957809" lon="0.259774960577488">
        <ele>68.870000000000005</ele>
        <time>2023-09-03T15:39:49Z</time>
      </trkpt>
      <trkpt lat="51.463827006518841" lon="0.258034961298108">
        <ele>68.390000000000001</ele>
        <time>2023-09-03T15:40:02Z</time>
      </trkpt>
      <trkpt lat="51.462253974750638" lon="0.256634010002017">
        <ele>57.340000000000003</ele>
        <time>2023-09-03T15:40:13Z</time>
      </trkpt>
      <trkpt lat="51.460724025964737" lon="0.25515996851027">
        <ele>47.719999999999999</ele>
        <time>2023-09-03T15:40:24Z</time>
      </trkpt>
      <trkpt lat="51.459325002506375" lon="0.253477972000837">
        <ele>39.07</ele>
        <time>2023-09-03T15:40:34Z</time>
      </trkpt>
      <trkpt lat="51.45785003900528" lon="0.251145036891103">
        <ele>29.460000000000001</ele>
        <time>2023-09-03T15:40:47Z</time>
      </trkpt>
      <trkpt lat="51.456723008304834" lon="0.249229017645121">
        <ele>23.690000000000001</ele>
        <time>2023-09-03T15:40:56Z</time>
      </trkpt>
      <trkpt lat="51.455349968746305" lon="0.246862974017859">
        <ele>13.6</ele>
        <time>2023-09-03T15:41:07Z</time>
      </trkpt>
      <trkpt lat="51.454187985509634" lon="0.244748974218965">
        <ele>5.42</ele>
        <time>2023-09-03T15:41:17Z</time>
      </trkpt>
      <trkpt lat="51.453075958415866" lon="0.242583006620407">
        <ele>7.83</ele>
        <time>2023-09-03T15:41:26Z</time>
      </trkpt>
      <trkpt lat="51.452965987846255" lon="0.242406986653805">
        <ele>7.83</ele>
        <time>2023-09-03T15:41:27Z</time>
      </trkpt>
      <trkpt lat="51.451444001868367" lon="0.240156026557088">
        <ele>11.67</ele>
        <time>2023-09-03T15:41:37Z</time>
      </trkpt>
      <trkpt lat="51.449895026162267" lon="0.237794006243348">
        <ele>20.32</ele>
        <time>2023-09-03T15:41:48Z</time>
      </trkpt>
      <trkpt lat="51.448801020160317" lon="0.236557004973292">
        <ele>23.690000000000001</ele>
        <time>2023-09-03T15:41:55Z</time>
      </trkpt>
      <trkpt lat="51.447278028354049" lon="0.235871030017734">
        <ele>25.609999999999999</ele>
        <time>2023-09-03T15:42:03Z</time>
      </trkpt>
      <trkpt lat="51.445702984929085" lon="0.23612299002707">
        <ele>26.09</ele>
        <time>2023-09-03T15:42:11Z</time>
      </trkpt>
      <trkpt lat="51.443919986486435" lon="0.237158993259072">
        <ele>28.98</ele>
        <time>2023-09-03T15:42:21Z</time>
      </trkpt>
      <trkpt lat="51.442236984148622" lon="0.238303039222956">
        <ele>29.460000000000001</ele>
        <time>2023-09-03T15:42:30Z</time>
      </trkpt>
      <trkpt lat="51.44057703204453" lon="0.238804025575519">
        <ele>27.050000000000001</ele>
        <time>2023-09-03T15:42:38Z</time>
      </trkpt>
      <trkpt lat="51.438274020329118" lon="0.238977028056979">
        <ele>28.98</ele>
        <time>2023-09-03T15:42:48Z</time>
      </trkpt>
      <trkpt lat="51.43634500913322" lon="0.239069983363152">
        <ele>31.859999999999999</ele>
        <time>2023-09-03T15:42:56Z</time>
      </trkpt>
      <trkpt lat="51.433435985818505" lon="0.239244997501373">
        <ele>29.940000000000001</ele>
        <time>2023-09-03T15:43:08Z</time>
      </trkpt>
      <trkpt lat="51.42983503639698" lon="0.239359997212887">
        <ele>29.940000000000001</ele>
        <time>2023-09-03T15:43:23Z</time>
      </trkpt>
      <trkpt lat="51.42764400690794" lon="0.239027990028262">
        <ele>36.670000000000002</ele>
        <time>2023-09-03T15:43:32Z</time>
      </trkpt>
      <trkpt lat="51.425549034029245" lon="0.23812199011445">
        <ele>38.109999999999999</ele>
        <time>2023-09-03T15:43:40Z</time>
      </trkpt>
      <trkpt lat="51.4232839923352" lon="0.236451979726553">
        <ele>33.780000000000001</ele>
        <time>2023-09-03T15:43:49Z</time>
      </trkpt>
      <trkpt lat="51.421481966972351" lon="0.234379973262548">
        <ele>29.940000000000001</ele>
        <time>2023-09-03T15:43:57Z</time>
      </trkpt>
      <trkpt lat="51.420072969049215" lon="0.232242001220584">
        <ele>28.5</ele>
        <time>2023-09-03T15:44:04Z</time>
      </trkpt>
      <trkpt lat="51.417750008404255" lon="0.227831024676561">
        <ele>25.609999999999999</ele>
        <time>2023-09-03T15:44:17Z</time>
      </trkpt>
      <trkpt lat="51.414994960650802" lon="0.222825016826391">
        <ele>28.5</ele>
        <time>2023-09-03T15:44:32Z</time>
      </trkpt>
      <trkpt lat="51.413827026262879" lon="0.220919977873564">
        <ele>30.420000000000002</ele>
        <time>2023-09-03T15:44:38Z</time>
      </trkpt>
      <trkpt lat="51.413619993254542" lon="0.220611020922661">
        <ele>30.899999999999999</ele>
        <time>2023-09-03T15:44:39Z</time>
      </trkpt>
      <trkpt lat="51.411113971844316" lon="0.217171004042029">
        <ele>40.509999999999998</ele>
        <time>2023-09-03T15:44:51Z</time>
      </trkpt>
      <trkpt lat="51.408858988434076" lon="0.214523999020457">
        <ele>48.200000000000003</ele>
        <time>2023-09-03T15:45:03Z</time>
      </trkpt>
      <trkpt lat="51.406548013910651" lon="0.212159967049956">
        <ele>57.82</ele>
        <time>2023-09-03T15:45:16Z</time>
      </trkpt>
      <trkpt lat="51.404366958886385" lon="0.210234979167581">
        <ele>64.069999999999993</ele>
        <time>2023-09-03T15:45:27Z</time>
      </trkpt>
      <trkpt lat="51.402252037078142" lon="0.20836497657001">
        <ele>67.430000000000007</ele>
        <time>2023-09-03T15:45:38Z</time>
      </trkpt>
      <trkpt lat="51.400169972330332" lon="0.206158021464944">
        <ele>69.349999999999994</ele>
        <time>2023-09-03T15:45:50Z</time>
      </trkpt>
      <trkpt lat="51.398628037422895" lon="0.204159021377563">
        <ele>69.829999999999998</ele>
        <time>2023-09-03T15:46:00Z</time>
      </trkpt>
      <trkpt lat="51.396959032863379" lon="0.202235961332917">
        <ele>70.310000000000002</ele>
        <time>2023-09-03T15:46:09Z</time>
      </trkpt>
      <trkpt lat="51.394483018666506" lon="0.199330039322376">
        <ele>69.829999999999998</ele>
        <time>2023-09-03T15:46:20Z</time>
      </trkpt>
      <trkpt lat="51.39238896779716" lon="0.197202041745186">
        <ele>72.719999999999999</ele>
        <time>2023-09-03T15:46:29Z</time>
      </trkpt>
      <trkpt lat="51.390805961564183" lon="0.196725027635694">
        <ele>78</ele>
        <time>2023-09-03T15:46:35Z</time>
      </trkpt>
      <trkpt lat="51.389461001381278" lon="0.197156025096774">
        <ele>81.849999999999994</ele>
        <time>2023-09-03T15:46:40Z</time>
      </trkpt>
      <trkpt lat="51.388331959024072" lon="0.198169983923435">
        <ele>88.579999999999998</ele>
        <time>2023-09-03T15:46:45Z</time>
      </trkpt>
      <trkpt lat="51.387535007670522" lon="0.199487032368779">
        <ele>92.900000000000006</ele>
        <time>2023-09-03T15:46:50Z</time>
      </trkpt>
      <trkpt lat="51.387405004352331" lon="0.19979297183454">
        <ele>93.870000000000005</ele>
        <time>2023-09-03T15:46:51Z</time>
      </trkpt>
      <trkpt lat="51.387285981327295" lon="0.200125984847546">
        <ele>94.829999999999998</ele>
        <time>2023-09-03T15:46:52Z</time>
      </trkpt>
      <trkpt lat="51.38641401194036" lon="0.203194012865424">
        <ele>99.150000000000006</ele>
        <time>2023-09-03T15:47:00Z</time>
      </trkpt>
      <trkpt lat="51.385094029828906" lon="0.208112010732293">
        <ele>99.150000000000006</ele>
        <time>2023-09-03T15:47:12Z</time>
      </trkpt>
      <trkpt lat="51.384445019066334" lon="0.212460039183497">
        <ele>93.870000000000005</ele>
        <time>2023-09-03T15:47:22Z</time>
      </trkpt>
      <trkpt lat="51.384288026019931" lon="0.217806017026305">
        <ele>80.409999999999997</ele>
        <time>2023-09-03T15:47:34Z</time>
      </trkpt>
      <trkpt lat="51.384062971919775" lon="0.223111007362604">
        <ele>65.510000000000005</ele>
        <time>2023-09-03T15:47:46Z</time>
      </trkpt>
      <trkpt lat="51.3833830319345" lon="0.227845022454858">
        <ele>55.409999999999997</ele>
        <time>2023-09-03T15:47:57Z</time>
      </trkpt>
      <trkpt lat="51.382191041484475" lon="0.232315007597208">
        <ele>54.93</ele>
        <time>2023-09-03T15:48:08Z</time>
      </trkpt>
      <trkpt lat="51.38059101998806" lon="0.236454997211695">
        <ele>65.510000000000005</ele>
        <time>2023-09-03T15:48:19Z</time>
      </trkpt>
      <trkpt lat="51.378780025988817" lon="0.240389965474606">
        <ele>79.450000000000003</ele>
        <time>2023-09-03T15:48:30Z</time>
      </trkpt>
      <trkpt lat="51.376131009310484" lon="0.24553301744163">
        <ele>96.269999999999996</ele>
        <time>2023-09-03T15:48:45Z</time>
      </trkpt>
      <trkpt lat="51.373259034007788" lon="0.250361999496818">
        <ele>113.56999999999999</ele>
        <time>2023-09-03T15:49:00Z</time>
      </trkpt>
      <trkpt lat="51.371435970067978" lon="0.253168009221554">
        <ele>124.15000000000001</ele>
        <time>2023-09-03T15:49:09Z</time>
      </trkpt>
      <trkpt lat="51.369416015222669" lon="0.256240982562304">
        <ele>136.16</ele>
        <time>2023-09-03T15:49:19Z</time>
      </trkpt>
      <trkpt lat="51.366800023242831" lon="0.260221967473626">
        <ele>140.97</ele>
        <time>2023-09-03T15:49:32Z</time>
      </trkpt>
      <trkpt lat="51.364569012075663" lon="0.263585960492492">
        <ele>139.53</ele>
        <time>2023-09-03T15:49:43Z</time>
      </trkpt>
      <trkpt lat="51.362241022288799" lon="0.266725989058614">
        <ele>131.84</ele>
        <time>2023-09-03T15:49:54Z</time>
      </trkpt>
      <trkpt lat="51.359673980623484" lon="0.269322032108903">
        <ele>129.43000000000001</ele>
        <time>2023-09-03T15:50:05Z</time>
      </trkpt>
      <trkpt lat="51.356921028345823" lon="0.271432008594275">
        <ele>133.28</ele>
        <time>2023-09-03T15:50:16Z</time>
      </trkpt>
      <trkpt lat="51.353535996749997" lon="0.273453975096345">
        <ele>139.05000000000001</ele>
        <time>2023-09-03T15:50:29Z</time>
      </trkpt>
      <trkpt lat="51.350611969828606" lon="0.274792984127998">
        <ele>143.84999999999999</ele>
        <time>2023-09-03T15:50:40Z</time>
      </trkpt>
      <trkpt lat="51.348168980330229" lon="0.275646010413766">
        <ele>145.30000000000001</ele>
        <time>2023-09-03T15:50:49Z</time>
      </trkpt>
      <trkpt lat="51.344870030879974" lon="0.276179015636444">
        <ele>148.18000000000001</ele>
        <time>2023-09-03T15:51:01Z</time>
      </trkpt>
      <trkpt lat="51.341837039217353" lon="0.275924038141966">
        <ele>156.34999999999999</ele>
        <time>2023-09-03T15:51:12Z</time>
      </trkpt>
      <trkpt lat="51.33884696289897" lon="0.27496699243784">
        <ele>167.88999999999999</ele>
        <time>2023-09-03T15:51:23Z</time>
      </trkpt>
      <trkpt lat="51.335303010419011" lon="0.273874998092651">
        <ele>181.83000000000001</ele>
        <time>2023-09-03T15:51:36Z</time>
      </trkpt>
      <trkpt lat="51.331967012956738" lon="0.273498985916376">
        <ele>193.84</ele>
        <time>2023-09-03T15:51:48Z</time>
      </trkpt>
      <trkpt lat="51.328345024958253" lon="0.273798974230886">
        <ele>204.90000000000001</ele>
        <time>2023-09-03T15:52:01Z</time>
      </trkpt>
      <trkpt lat="51.326172016561031" lon="0.274530965834856">
        <ele>209.69999999999999</ele>
        <time>2023-09-03T15:52:09Z</time>
      </trkpt>
      <trkpt lat="51.324120964854956" lon="0.275899982079864">
        <ele>213.55000000000001</ele>
        <time>2023-09-03T15:52:17Z</time>
      </trkpt>
      <trkpt lat="51.322065973654389" lon="0.278166029602289">
        <ele>216.91</ele>
        <time>2023-09-03T15:52:26Z</time>
      </trkpt>
      <trkpt lat="51.320380037650466" lon="0.281120985746384">
        <ele>219.80000000000001</ele>
        <time>2023-09-03T15:52:35Z</time>
      </trkpt>
      <trkpt lat="51.319249989464879" lon="0.28416202403605">
        <ele>221.24000000000001</ele>
        <time>2023-09-03T15:52:43Z</time>
      </trkpt>
      <trkpt lat="51.317841997370124" lon="0.289017995819449">
        <ele>221.24000000000001</ele>
        <time>2023-09-03T15:52:55Z</time>
      </trkpt>
      <trkpt lat="51.31656602025032" lon="0.293964995071292">
        <ele>212.11000000000001</ele>
        <time>2023-09-03T15:53:07Z</time>
      </trkpt>
      <trkpt lat="51.315345028415322" lon="0.299392025917768">
        <ele>197.21000000000001</ele>
        <time>2023-09-03T15:53:20Z</time>
      </trkpt>
      <trkpt lat="51.314098974689841" lon="0.305281989276409">
        <ele>179.41999999999999</ele>
        <time>2023-09-03T15:53:34Z</time>
      </trkpt>
      <trkpt lat="51.31302198395133" lon="0.308868018910289">
        <ele>167.41</ele>
        <time>2023-09-03T15:53:43Z</time>
      </trkpt>
      <trkpt lat="51.311591025441885" lon="0.313184028491378">
        <ele>150.58000000000001</ele>
        <time>2023-09-03T15:53:54Z</time>
      </trkpt>
      <trkpt lat="51.311472002416849" lon="0.313583007082343">
        <ele>149.13999999999999</ele>
        <time>2023-09-03T15:53:55Z</time>
      </trkpt>
      <trkpt lat="51.310061998665333" lon="0.318910041823983">
        <ele>132.80000000000001</ele>
        <time>2023-09-03T15:54:08Z</time>
      </trkpt>
      <trkpt lat="51.308654006570578" lon="0.326128033921123">
        <ele>112.61</ele>
        <time>2023-09-03T15:54:25Z</time>
      </trkpt>
      <trkpt lat="51.307824030518532" lon="0.331752961501479">
        <ele>99.150000000000006</ele>
        <time>2023-09-03T15:54:38Z</time>
      </trkpt>
      <trkpt lat="51.307223970070481" lon="0.337892035022378">
        <ele>85.209999999999994</ele>
        <time>2023-09-03T15:54:52Z</time>
      </trkpt>
      <trkpt lat="51.306892968714237" lon="0.343199037015438">
        <ele>74.640000000000001</ele>
        <time>2023-09-03T15:55:04Z</time>
      </trkpt>
      <trkpt lat="51.306820968165994" lon="0.348989004269242">
        <ele>65.030000000000001</ele>
        <time>2023-09-03T15:55:17Z</time>
      </trkpt>
      <trkpt lat="51.307044010609388" lon="0.354260969907045">
        <ele>58.780000000000001</ele>
        <time>2023-09-03T15:55:29Z</time>
      </trkpt>
      <trkpt lat="51.307596964761615" lon="0.359948007389903">
        <ele>58.299999999999997</ele>
        <time>2023-09-03T15:55:42Z</time>
      </trkpt>
      <trkpt lat="51.308096023276448" lon="0.363429011777043">
        <ele>57.82</ele>
        <time>2023-09-03T15:55:50Z</time>
      </trkpt>
      <trkpt lat="51.308659035712481" lon="0.368677005171776">
        <ele>58.299999999999997</ele>
        <time>2023-09-03T15:56:02Z</time>
      </trkpt>
      <trkpt lat="51.308900015428662" lon="0.374012002721429">
        <ele>56.369999999999997</ele>
        <time>2023-09-03T15:56:14Z</time>
      </trkpt>
      <trkpt lat="51.308947037905455" lon="0.378882978111506">
        <ele>57.82</ele>
        <time>2023-09-03T15:56:25Z</time>
      </trkpt>
      <trkpt lat="51.30900202319026" lon="0.383354974910617">
        <ele>53.969999999999999</ele>
        <time>2023-09-03T15:56:35Z</time>
      </trkpt>
      <trkpt lat="51.309149041771889" lon="0.38959102705121">
        <ele>45.799999999999997</ele>
        <time>2023-09-03T15:56:49Z</time>
      </trkpt>
      <trkpt lat="51.309600993990898" lon="0.393977025523782">
        <ele>39.07</ele>
        <time>2023-09-03T15:56:59Z</time>
      </trkpt>
      <trkpt lat="51.310351006686687" lon="0.39825196377933">
        <ele>32.82</ele>
        <time>2023-09-03T15:57:09Z</time>
      </trkpt>
      <trkpt lat="51.311219958588481" lon="0.403385041281581">
        <ele>27.530000000000001</ele>
        <time>2023-09-03T15:57:21Z</time>
      </trkpt>
      <trkpt lat="51.311527993530035" lon="0.406921030953527">
        <ele>24.649999999999999</ele>
        <time>2023-09-03T15:57:29Z</time>
      </trkpt>
      <trkpt lat="51.311583984643221" lon="0.411341981962323">
        <ele>22.25</ele>
        <time>2023-09-03T15:57:39Z</time>
      </trkpt>
      <trkpt lat="51.311314003542066" lon="0.415289020165801">
        <ele>21.289999999999999</ele>
        <time>2023-09-03T15:57:48Z</time>
      </trkpt>
      <trkpt lat="51.310598021373153" lon="0.420021023601294">
        <ele>17.440000000000001</ele>
        <time>2023-09-03T15:57:59Z</time>
      </trkpt>
      <trkpt lat="51.309442995116115" lon="0.424562003463507">
        <ele>15.52</ele>
        <time>2023-09-03T15:58:10Z</time>
      </trkpt>
      <trkpt lat="51.309311985969543" lon="0.424956036731601">
        <ele>16</ele>
        <time>2023-09-03T15:58:11Z</time>
      </trkpt>
      <trkpt lat="51.307936012744904" lon="0.4288259614259">
        <ele>18.399999999999999</ele>
        <time>2023-09-03T15:58:21Z</time>
      </trkpt>
      <trkpt lat="51.306670010089874" lon="0.432768976315856">
        <ele>22.25</ele>
        <time>2023-09-03T15:58:31Z</time>
      </trkpt>
      <trkpt lat="51.305890996009111" lon="0.436098016798496">
        <ele>25.129999999999999</ele>
        <time>2023-09-03T15:58:39Z</time>
      </trkpt>
      <trkpt lat="51.30492297001183" lon="0.441183988004923">
        <ele>26.57</ele>
        <time>2023-09-03T15:58:51Z</time>
      </trkpt>
      <trkpt lat="51.304101040586829" lon="0.445435959845781">
        <ele>26.09</ele>
        <time>2023-09-03T15:59:01Z</time>
      </trkpt>
      <trkpt lat="51.303238961845636" lon="0.450603989884257">
        <ele>21.289999999999999</ele>
        <time>2023-09-03T15:59:13Z</time>
      </trkpt>
      <trkpt lat="51.302687013521791" lon="0.45630301348865">
        <ele>18.399999999999999</ele>
        <time>2023-09-03T15:59:26Z</time>
      </trkpt>
      <trkpt lat="51.302156019955873" lon="0.460651963949203">
        <ele>16.960000000000001</ele>
        <time>2023-09-03T15:59:36Z</time>
      </trkpt>
      <trkpt lat="51.301235016435385" lon="0.464364979416132">
        <ele>15.52</ele>
        <time>2023-09-03T15:59:45Z</time>
      </trkpt>
      <trkpt lat="51.300177974626422" lon="0.468930015340447">
        <ele>17.920000000000002</ele>
        <time>2023-09-03T15:59:56Z</time>
      </trkpt>
      <trkpt lat="51.299756029620767" lon="0.472889039665461">
        <ele>19.359999999999999</ele>
        <time>2023-09-03T16:00:05Z</time>
      </trkpt>
      <trkpt lat="51.299393009394407" lon="0.475684991106391">
        <ele>20.32</ele>
        <time>2023-09-03T16:00:12Z</time>
      </trkpt>
      <trkpt lat="51.298550963401794" lon="0.478414976969361">
        <ele>17.440000000000001</ele>
        <time>2023-09-03T16:00:20Z</time>
      </trkpt>
      <trkpt lat="51.297513032332063" lon="0.480801975354552">
        <ele>11.19</ele>
        <time>2023-09-03T16:00:28Z</time>
      </trkpt>
      <trkpt lat="51.296686995774508" lon="0.483165001496673">
        <ele>8.789999999999999</ele>
        <time>2023-09-03T16:00:36Z</time>
      </trkpt>
      <trkpt lat="51.29645699635148" lon="0.484090028330684">
        <ele>9.75</ele>
        <time>2023-09-03T16:00:39Z</time>
      </trkpt>
      <trkpt lat="51.296245018020272" lon="0.485375979915261">
        <ele>11.19</ele>
        <time>2023-09-03T16:00:43Z</time>
      </trkpt>
      <trkpt lat="51.29619799554348" lon="0.485700024291873">
        <ele>11.67</ele>
        <time>2023-09-03T16:00:44Z</time>
      </trkpt>
      <trkpt lat="51.296007977798581" lon="0.488708959892392">
        <ele>15.039999999999999</ele>
        <time>2023-09-03T16:00:53Z</time>
      </trkpt>
      <trkpt lat="51.296062963083386" lon="0.492989011108875">
        <ele>19.359999999999999</ele>
        <time>2023-09-03T16:01:06Z</time>
      </trkpt>
      <trkpt lat="51.296335961669683" lon="0.495165959000587">
        <ele>20.809999999999999</ele>
        <time>2023-09-03T16:01:13Z</time>
      </trkpt>
      <trkpt lat="51.296904003247619" lon="0.49748900346458">
        <ele>20.32</ele>
        <time>2023-09-03T16:01:22Z</time>
      </trkpt>
      <trkpt lat="51.297850990667939" lon="0.500894989818335">
        <ele>15.039999999999999</ele>
        <time>2023-09-03T16:01:36Z</time>
      </trkpt>
      <trkpt lat="51.298236977308989" lon="0.504029989242554">
        <ele>11.19</ele>
        <time>2023-09-03T16:01:48Z</time>
      </trkpt>
      <trkpt lat="51.298468988388777" lon="0.507335979491472">
        <ele>14.56</ele>
        <time>2023-09-03T16:02:01Z</time>
      </trkpt>
      <trkpt lat="51.298634028062224" lon="0.509833032265306">
        <ele>18.399999999999999</ele>
        <time>2023-09-03T16:02:09Z</time>
      </trkpt>
      <trkpt lat="51.298877019435167" lon="0.513614024966955">
        <ele>24.170000000000002</ele>
        <time>2023-09-03T16:02:19Z</time>
      </trkpt>
      <trkpt lat="51.299087991937995" lon="0.517979990690947">
        <ele>27.050000000000001</ele>
        <time>2023-09-03T16:02:29Z</time>
      </trkpt>
      <trkpt lat="51.298770988360047" lon="0.52103603258729">
        <ele>26.57</ele>
        <time>2023-09-03T16:02:36Z</time>
      </trkpt>
      <trkpt lat="51.297906981781125" lon="0.523813962936401">
        <ele>28.02</ele>
        <time>2023-09-03T16:02:43Z</time>
      </trkpt>
      <trkpt lat="51.296626981347799" lon="0.526169026270509">
        <ele>29.460000000000001</ele>
        <time>2023-09-03T16:02:50Z</time>
      </trkpt>
      <trkpt lat="51.294225985184312" lon="0.530515965074301">
        <ele>32.340000000000003</ele>
        <time>2023-09-03T16:03:03Z</time>
      </trkpt>
      <trkpt lat="51.291633965447545" lon="0.535779967904091">
        <ele>39.549999999999997</ele>
        <time>2023-09-03T16:03:18Z</time>
      </trkpt>
      <trkpt lat="51.290819998830557" lon="0.538595030084252">
        <ele>46.759999999999998</ele>
        <time>2023-09-03T16:03:25Z</time>
      </trkpt>
      <trkpt lat="51.289605963975191" lon="0.542968958616257">
        <ele>59.259999999999998</ele>
        <time>2023-09-03T16:03:36Z</time>
      </trkpt>
      <trkpt lat="51.288429982960224" lon="0.546159027144313">
        <ele>69.829999999999998</ele>
        <time>2023-09-03T16:03:46Z</time>
      </trkpt>
      <trkpt lat="51.287963027134538" lon="0.548819024115801">
        <ele>73.680000000000007</ele>
        <time>2023-09-03T16:03:53Z</time>
      </trkpt>
      <trkpt lat="51.287894966080785" lon="0.550520969554782">
        <ele>74.159999999999997</ele>
        <time>2023-09-03T16:03:57Z</time>
      </trkpt>
      <trkpt lat="51.288099987432361" lon="0.553605007007718">
        <ele>74.640000000000001</ele>
        <time>2023-09-03T16:04:04Z</time>
      </trkpt>
      <trkpt lat="51.288251029327512" lon="0.558070968836546">
        <ele>74.640000000000001</ele>
        <time>2023-09-03T16:04:14Z</time>
      </trkpt>
      <trkpt lat="51.288051037117839" lon="0.56295501999557">
        <ele>75.120000000000005</ele>
        <time>2023-09-03T16:04:25Z</time>
      </trkpt>
      <trkpt lat="51.287419041618705" lon="0.567732034251094">
        <ele>76.560000000000002</ele>
        <time>2023-09-03T16:04:36Z</time>
      </trkpt>
      <trkpt lat="51.286201989278197" lon="0.573164010420442">
        <ele>79.450000000000003</ele>
        <time>2023-09-03T16:04:49Z</time>
      </trkpt>
      <trkpt lat="51.284626023843884" lon="0.577868018299341">
        <ele>81.370000000000005</ele>
        <time>2023-09-03T16:05:01Z</time>
      </trkpt>
      <trkpt lat="51.282801032066345" lon="0.581832993775606">
        <ele>80.409999999999997</ele>
        <time>2023-09-03T16:05:12Z</time>
      </trkpt>
      <trkpt lat="51.280553005635738" lon="0.585816996172071">
        <ele>74.640000000000001</ele>
        <time>2023-09-03T16:05:24Z</time>
      </trkpt>
      <trkpt lat="51.277544992044568" lon="0.591056020930409">
        <ele>62.619999999999997</ele>
        <time>2023-09-03T16:05:40Z</time>
      </trkpt>
      <trkpt lat="51.274893041700125" lon="0.595653997734189">
        <ele>63.100000000000001</ele>
        <time>2023-09-03T16:05:54Z</time>
      </trkpt>
      <trkpt lat="51.271742032840848" lon="0.601303987205029">
        <ele>66.469999999999999</ele>
        <time>2023-09-03T16:06:11Z</time>
      </trkpt>
      <trkpt lat="51.268939962610602" lon="0.606318963691592">
        <ele>74.640000000000001</ele>
        <time>2023-09-03T16:06:26Z</time>
      </trkpt>
      <trkpt lat="51.26633201725781" lon="0.610385024920106">
        <ele>65.030000000000001</ele>
        <time>2023-09-03T16:06:39Z</time>
      </trkpt>
      <trkpt lat="51.264092037454247" lon="0.613696966320276">
        <ele>58.299999999999997</ele>
        <time>2023-09-03T16:06:50Z</time>
      </trkpt>
      <trkpt lat="51.261705039069057" lon="0.617447029799223">
        <ele>54.450000000000003</ele>
        <time>2023-09-03T16:07:02Z</time>
      </trkpt>
      <trkpt lat="51.2600829731673" lon="0.621057031676173">
        <ele>53.969999999999999</ele>
        <time>2023-09-03T16:07:12Z</time>
      </trkpt>
      <trkpt lat="51.259663039818406" lon="0.622191019356251">
        <ele>53.969999999999999</ele>
        <time>2023-09-03T16:07:15Z</time>
      </trkpt>
      <trkpt lat="51.258375998586416" lon="0.626145014539361">
        <ele>56.369999999999997</ele>
        <time>2023-09-03T16:07:25Z</time>
      </trkpt>
      <trkpt lat="51.256914027035236" lon="0.629908991977572">
        <ele>61.659999999999997</ele>
        <time>2023-09-03T16:07:35Z</time>
      </trkpt>
      <trkpt lat="51.255292966961861" lon="0.632952963933349">
        <ele>68.390000000000001</ele>
        <time>2023-09-03T16:07:44Z</time>
      </trkpt>
      <trkpt lat="51.252994984388351" lon="0.63619701191783">
        <ele>80.890000000000001</ele>
        <time>2023-09-03T16:07:55Z</time>
      </trkpt>
      <trkpt lat="51.250531962141395" lon="0.639854958280921">
        <ele>89.060000000000002</ele>
        <time>2023-09-03T16:08:07Z</time>
      </trkpt>
      <trkpt lat="51.248241020366549" lon="0.644365008920431">
        <ele>88.579999999999998</ele>
        <time>2023-09-03T16:08:20Z</time>
      </trkpt>
      <trkpt lat="51.246918020769954" lon="0.647769989445806">
        <ele>84.730000000000004</ele>
        <time>2023-09-03T16:08:29Z</time>
      </trkpt>
      <trkpt lat="51.24546904116869" lon="0.6525709759444">
        <ele>79.930000000000007</ele>
        <time>2023-09-03T16:08:41Z</time>
      </trkpt>
      <trkpt lat="51.244292976334691" lon="0.656755976378918">
        <ele>78</ele>
        <time>2023-09-03T16:08:51Z</time>
      </trkpt>
      <trkpt lat="51.243009958416224" lon="0.661260997876525">
        <ele>78.969999999999999</ele>
        <time>2023-09-03T16:09:02Z</time>
      </trkpt>
      <trkpt lat="51.241201981902122" lon="0.66726403310895">
        <ele>81.370000000000005</ele>
        <time>2023-09-03T16:09:17Z</time>
      </trkpt>
      <trkpt lat="51.239747973158956" lon="0.671066986396909">
        <ele>85.689999999999998</ele>
        <time>2023-09-03T16:09:27Z</time>
      </trkpt>
      <trkpt lat="51.237634979188442" lon="0.675767976790667">
        <ele>89.060000000000002</ele>
        <time>2023-09-03T16:09:40Z</time>
      </trkpt>
      <trkpt lat="51.234926031902432" lon="0.68084598518908">
        <ele>91.939999999999998</ele>
        <time>2023-09-03T16:09:55Z</time>
      </trkpt>
      <trkpt lat="51.23277397826314" lon="0.684349033981562">
        <ele>96.75</ele>
        <time>2023-09-03T16:10:06Z</time>
      </trkpt>
      <trkpt lat="51.230535004287958" lon="0.687042977660894">
        <ele>100.59999999999999</ele>
        <time>2023-09-03T16:10:16Z</time>
      </trkpt>
      <trkpt lat="51.228355038911104" lon="0.689802970737219">
        <ele>104.44</ele>
        <time>2023-09-03T16:10:26Z</time>
      </trkpt>
      <trkpt lat="51.226703971624374" lon="0.692801009863615">
        <ele>109.25</ele>
        <time>2023-09-03T16:10:35Z</time>
      </trkpt>
      <trkpt lat="51.225680038332939" lon="0.69543301127851">
        <ele>112.61</ele>
        <time>2023-09-03T16:10:42Z</time>
      </trkpt>
      <trkpt lat="51.22463297098875" lon="0.699565960094333">
        <ele>114.05</ele>
        <time>2023-09-03T16:10:52Z</time>
      </trkpt>
      <trkpt lat="51.22415998019278" lon="0.703497994691134">
        <ele>112.61</ele>
        <time>2023-09-03T16:11:01Z</time>
      </trkpt>
      <trkpt lat="51.223816992715001" lon="0.707936966791749">
        <ele>108.29000000000001</ele>
        <time>2023-09-03T16:11:11Z</time>
      </trkpt>
      <trkpt lat="51.223115008324385" lon="0.711776968091726">
        <ele>103.48</ele>
        <time>2023-09-03T16:11:20Z</time>
      </trkpt>
      <trkpt lat="51.222122004255652" lon="0.714937029406428">
        <ele>99.150000000000006</ele>
        <time>2023-09-03T16:11:28Z</time>
      </trkpt>
      <trkpt lat="51.220647040754557" lon="0.718171019107103">
        <ele>94.349999999999994</ele>
        <time>2023-09-03T16:11:37Z</time>
      </trkpt>
      <trkpt lat="51.21882900595665" lon="0.720902010798454">
        <ele>91.939999999999998</ele>
        <time>2023-09-03T16:11:46Z</time>
      </trkpt>
      <trkpt lat="51.216524988412857" lon="0.724099036306143">
        <ele>91.939999999999998</ele>
        <time>2023-09-03T16:11:57Z</time>
      </trkpt>
      <trkpt lat="51.214996967464685" lon="0.727262031286955">
        <ele>91.459999999999994</ele>
        <time>2023-09-03T16:12:06Z</time>
      </trkpt>
      <trkpt lat="51.213676985353231" lon="0.731194987893105">
        <ele>88.579999999999998</ele>
        <time>2023-09-03T16:12:16Z</time>
      </trkpt>
      <trkpt lat="51.211948972195387" lon="0.736317001283169">
        <ele>83.769999999999996</ele>
        <time>2023-09-03T16:12:29Z</time>
      </trkpt>
      <trkpt lat="51.209540013223886" lon="0.74231400154531">
        <ele>80.409999999999997</ele>
        <time>2023-09-03T16:12:45Z</time>
      </trkpt>
      <trkpt lat="51.207405980676413" lon="0.746968975290656">
        <ele>79.930000000000007</ele>
        <time>2023-09-03T16:12:58Z</time>
      </trkpt>
      <trkpt lat="51.205791039392352" lon="0.75060797855258">
        <ele>81.370000000000005</ele>
        <time>2023-09-03T16:13:08Z</time>
      </trkpt>
      <trkpt lat="51.203801007941365" lon="0.755986981093884">
        <ele>78.969999999999999</ele>
        <time>2023-09-03T16:13:22Z</time>
      </trkpt>
      <trkpt lat="51.201753979548812" lon="0.760753015056252">
        <ele>75.120000000000005</ele>
        <time>2023-09-03T16:13:35Z</time>
      </trkpt>
      <trkpt lat="51.199406962841749" lon="0.76573203317821">
        <ele>73.200000000000003</ele>
        <time>2023-09-03T16:13:49Z</time>
      </trkpt>
      <trkpt lat="51.197771988809109" lon="0.769851990044117">
        <ele>73.680000000000007</ele>
        <time>2023-09-03T16:14:00Z</time>
      </trkpt>
      <trkpt lat="51.196002988144755" lon="0.775405000895262">
        <ele>80.890000000000001</ele>
        <time>2023-09-03T16:14:14Z</time>
      </trkpt>
      <trkpt lat="51.194459041580558" lon="0.7811379712075">
        <ele>84.730000000000004</ele>
        <time>2023-09-03T16:14:28Z</time>
      </trkpt>
      <trkpt lat="51.193050965666771" lon="0.785489017143846">
        <ele>82.329999999999998</ele>
        <time>2023-09-03T16:14:39Z</time>
      </trkpt>
      <trkpt lat="51.191079961135983" lon="0.79138501547277">
        <ele>72.719999999999999</ele>
        <time>2023-09-03T16:14:54Z</time>
      </trkpt>
      <trkpt lat="51.190188964828849" lon="0.795574961230159">
        <ele>70.790000000000006</ele>
        <time>2023-09-03T16:15:04Z</time>
      </trkpt>
      <trkpt lat="51.189713962376118" lon="0.799494003877044">
        <ele>68.390000000000001</ele>
        <time>2023-09-03T16:15:13Z</time>
      </trkpt>
      <trkpt lat="51.18913896381855" lon="0.806542010977864">
        <ele>65.510000000000005</ele>
        <time>2023-09-03T16:15:29Z</time>
      </trkpt>
      <trkpt lat="51.188819026574492" lon="0.812746966257691">
        <ele>67.430000000000007</ele>
        <time>2023-09-03T16:15:43Z</time>
      </trkpt>
      <trkpt lat="51.188683994114399" lon="0.816732980310917">
        <ele>70.310000000000002</ele>
        <time>2023-09-03T16:15:52Z</time>
      </trkpt>
      <trkpt lat="51.188571006059647" lon="0.820741038769484">
        <ele>73.200000000000003</ele>
        <time>2023-09-03T16:16:01Z</time>
      </trkpt>
      <trkpt lat="51.188314016908407" lon="0.824740966781974">
        <ele>74.159999999999997</ele>
        <time>2023-09-03T16:16:10Z</time>
      </trkpt>
      <trkpt lat="51.187484040856361" lon="0.828510979190469">
        <ele>75.599999999999994</ele>
        <time>2023-09-03T16:16:19Z</time>
      </trkpt>
      <trkpt lat="51.186175039038062" lon="0.831936998292804">
        <ele>77.040000000000006</ele>
        <time>2023-09-03T16:16:28Z</time>
      </trkpt>
      <trkpt lat="51.184461023658514" lon="0.834863958880305">
        <ele>77.519999999999996</ele>
        <time>2023-09-03T16:16:37Z</time>
      </trkpt>
      <trkpt lat="51.182633014395833" lon="0.836901012808084">
        <ele>76.079999999999998</ele>
        <time>2023-09-03T16:16:45Z</time>
      </trkpt>
      <trkpt lat="51.179795991629362" lon="0.839763013646007">
        <ele>71.760000000000005</ele>
        <time>2023-09-03T16:16:57Z</time>
      </trkpt>
      <trkpt lat="51.177051002159715" lon="0.842824000865221">
        <ele>70.310000000000002</ele>
        <time>2023-09-03T16:17:09Z</time>
      </trkpt>
      <trkpt lat="51.174426041543484" lon="0.846158992499113">
        <ele>68.390000000000001</ele>
        <time>2023-09-03T16:17:21Z</time>
      </trkpt>
      <trkpt lat="51.171962013468146" lon="0.849777041003108">
        <ele>65.989999999999995</ele>
        <time>2023-09-03T16:17:33Z</time>
      </trkpt>
      <trkpt lat="51.169422967359424" lon="0.853925999253988">
        <ele>61.18</ele>
        <time>2023-09-03T16:17:46Z</time>
      </trkpt>
      <trkpt lat="51.166477985680103" lon="0.858658002689481">
        <ele>58.299999999999997</ele>
        <time>2023-09-03T16:18:01Z</time>
      </trkpt>
      <trkpt lat="51.163630988448858" lon="0.862916009500623">
        <ele>59.259999999999998</ele>
        <time>2023-09-03T16:18:15Z</time>
      </trkpt>
      <trkpt lat="51.161194033920765" lon="0.867221960797906">
        <ele>57.340000000000003</ele>
        <time>2023-09-03T16:18:28Z</time>
      </trkpt>
      <trkpt lat="51.15920701995492" lon="0.871522966772318">
        <ele>48.68</ele>
        <time>2023-09-03T16:18:40Z</time>
      </trkpt>
      <trkpt lat="51.157815959304571" lon="0.874847983941436">
        <ele>40.509999999999998</ele>
        <time>2023-09-03T16:18:49Z</time>
      </trkpt>
      <trkpt lat="51.156138991937041" lon="0.878884959965944">
        <ele>33.780000000000001</ele>
        <time>2023-09-03T16:19:00Z</time>
      </trkpt>
      <trkpt lat="51.153343040496111" lon="0.885581010952592">
        <ele>37.630000000000003</ele>
        <time>2023-09-03T16:19:18Z</time>
      </trkpt>
      <trkpt lat="51.150702992454171" lon="0.891854027286172">
        <ele>46.280000000000001</ele>
        <time>2023-09-03T16:19:35Z</time>
      </trkpt>
      <trkpt lat="51.148677002638578" lon="0.896130977198482">
        <ele>47.719999999999999</ele>
        <time>2023-09-03T16:19:47Z</time>
      </trkpt>
      <trkpt lat="51.146465018391609" lon="0.899551967158914">
        <ele>42.439999999999998</ele>
        <time>2023-09-03T16:19:58Z</time>
      </trkpt>
      <trkpt lat="51.144154965877533" lon="0.902711022645235">
        <ele>42.920000000000002</ele>
        <time>2023-09-03T16:20:09Z</time>
      </trkpt>
      <trkpt lat="51.141295982524753" lon="0.906258998438716">
        <ele>50.609999999999999</ele>
        <time>2023-09-03T16:20:22Z</time>
      </trkpt>
      <trkpt lat="51.138571025803685" lon="0.909430040046573">
        <ele>54.93</ele>
        <time>2023-09-03T16:20:34Z</time>
      </trkpt>
      <trkpt lat="51.136704040691257" lon="0.912122977897525">
        <ele>54.93</ele>
        <time>2023-09-03T16:20:43Z</time>
      </trkpt>
      <trkpt lat="51.135432003065944" lon="0.914520034566522">
        <ele>57.340000000000003</ele>
        <time>2023-09-03T16:20:50Z</time>
      </trkpt>
      <trkpt lat="51.133827958256006" lon="0.918639991432428">
        <ele>57.82</ele>
        <time>2023-09-03T16:21:01Z</time>
      </trkpt>
      <trkpt lat="51.13241602666676" lon="0.922451997175813">
        <ele>58.780000000000001</ele>
        <time>2023-09-03T16:21:11Z</time>
      </trkpt>
      <trkpt lat="51.130534959957004" lon="0.926307002082467">
        <ele>60.219999999999999</ele>
        <time>2023-09-03T16:21:22Z</time>
      </trkpt>
      <trkpt lat="51.128358012065291" lon="0.929682981222868">
        <ele>56.859999999999999</ele>
        <time>2023-09-03T16:21:33Z</time>
      </trkpt>
      <trkpt lat="51.126772994175553" lon="0.932126976549625">
        <ele>51.090000000000003</ele>
        <time>2023-09-03T16:21:41Z</time>
      </trkpt>
      <trkpt lat="51.12444500438869" lon="0.936505012214184">
        <ele>43.399999999999999</ele>
        <time>2023-09-03T16:21:54Z</time>
      </trkpt>
      <trkpt lat="51.122759990394115" lon="0.940016023814678">
        <ele>41.469999999999999</ele>
        <time>2023-09-03T16:22:04Z</time>
      </trkpt>
      <trkpt lat="51.120537025853992" lon="0.944010000675917">
        <ele>43.399999999999999</ele>
        <time>2023-09-03T16:22:16Z</time>
      </trkpt>
      <trkpt lat="51.117930002510548" lon="0.948093999177217">
        <ele>50.609999999999999</ele>
        <time>2023-09-03T16:22:29Z</time>
      </trkpt>
      <trkpt lat="51.116141974925995" lon="0.951529992744327">
        <ele>55.890000000000001</ele>
        <time>2023-09-03T16:22:39Z</time>
      </trkpt>
      <trkpt lat="51.114744963124394" lon="0.9554030187428">
        <ele>58.299999999999997</ele>
        <time>2023-09-03T16:22:49Z</time>
      </trkpt>
      <trkpt lat="51.113306963816285" lon="0.96073399297893">
        <ele>60.700000000000003</ele>
        <time>2023-09-03T16:23:02Z</time>
      </trkpt>
      <trkpt lat="51.111335037276149" lon="0.967137012630701">
        <ele>58.299999999999997</ele>
        <time>2023-09-03T16:23:18Z</time>
      </trkpt>
      <trkpt lat="51.109100002795458" lon="0.973296035081148">
        <ele>56.369999999999997</ele>
        <time>2023-09-03T16:23:34Z</time>
      </trkpt>
      <trkpt lat="51.1069340351969" lon="0.978470016270876">
        <ele>56.859999999999999</ele>
        <time>2023-09-03T16:23:48Z</time>
      </trkpt>
      <trkpt lat="51.105191018432379" lon="0.983017031103373">
        <ele>59.740000000000002</ele>
        <time>2023-09-03T16:24:00Z</time>
      </trkpt>
      <trkpt lat="51.103626033291221" lon="0.988229988142848">
        <ele>62.140000000000001</ele>
        <time>2023-09-03T16:24:13Z</time>
      </trkpt>
      <trkpt lat="51.102479975670576" lon="0.993241025134921">
        <ele>66.469999999999999</ele>
        <time>2023-09-03T16:24:25Z</time>
      </trkpt>
      <trkpt lat="51.101615969091654" lon="0.998376030474901">
        <ele>68.390000000000001</ele>
        <time>2023-09-03T16:24:37Z</time>
      </trkpt>
      <trkpt lat="51.100856987759471" lon="1.004015961661935">
        <ele>70.790000000000006</ele>
        <time>2023-09-03T16:24:50Z</time>
      </trkpt>
      <trkpt lat="51.100334962829947" lon="1.009725965559483">
        <ele>72.719999999999999</ele>
        <time>2023-09-03T16:25:03Z</time>
      </trkpt>
      <trkpt lat="51.100130025297403" lon="1.015042020007968">
        <ele>70.790000000000006</ele>
        <time>2023-09-03T16:25:15Z</time>
      </trkpt>
      <trkpt lat="51.09988703392446" lon="1.019919030368328">
        <ele>70.310000000000002</ele>
        <time>2023-09-03T16:25:26Z</time>
      </trkpt>
      <trkpt lat="51.099251015111804" lon="1.025587040930986">
        <ele>71.269999999999996</ele>
        <time>2023-09-03T16:25:39Z</time>
      </trkpt>
      <trkpt lat="51.098294975236058" lon="1.031158994883299">
        <ele>72.719999999999999</ele>
        <time>2023-09-03T16:25:52Z</time>
      </trkpt>
      <trkpt lat="51.097346981987357" lon="1.036731032654643">
        <ele>74.159999999999997</ele>
        <time>2023-09-03T16:26:05Z</time>
      </trkpt>
      <trkpt lat="51.09659998677671" lon="1.041462030261755">
        <ele>75.120000000000005</ele>
        <time>2023-09-03T16:26:16Z</time>
      </trkpt>
      <trkpt lat="51.096151974052191" lon="1.044570039957762">
        <ele>76.560000000000002</ele>
        <time>2023-09-03T16:26:24Z</time>
      </trkpt>
      <trkpt lat="51.095723994076252" lon="1.048209965229034">
        <ele>79.450000000000003</ele>
        <time>2023-09-03T16:26:34Z</time>
      </trkpt>
      <trkpt lat="51.095330966636539" lon="1.05193798430264">
        <ele>85.209999999999994</ele>
        <time>2023-09-03T16:26:43Z</time>
      </trkpt>
      <trkpt lat="51.094921007752419" lon="1.055824002251029">
        <ele>84.730000000000004</ele>
        <time>2023-09-03T16:26:52Z</time>
      </trkpt>
      <trkpt lat="51.094356989488006" lon="1.060034986585379">
        <ele>82.810000000000002</ele>
        <time>2023-09-03T16:27:02Z</time>
      </trkpt>
      <trkpt lat="51.093673026189208" lon="1.063984958454967">
        <ele>85.689999999999998</ele>
        <time>2023-09-03T16:27:12Z</time>
      </trkpt>
      <trkpt lat="51.092766020447016" lon="1.068690977990627">
        <ele>91.459999999999994</ele>
        <time>2023-09-03T16:27:25Z</time>
      </trkpt>
      <trkpt lat="51.092224968597293" lon="1.072532990947366">
        <ele>93.870000000000005</ele>
        <time>2023-09-03T16:27:36Z</time>
      </trkpt>
      <trkpt lat="51.091841999441385" lon="1.077414024621248">
        <ele>94.829999999999998</ele>
        <time>2023-09-03T16:27:49Z</time>
      </trkpt>
      <trkpt lat="51.091791037470102" lon="1.080923024564982">
        <ele>92.420000000000002</ele>
        <time>2023-09-03T16:27:59Z</time>
      </trkpt>
      <trkpt lat="51.091874018311501" lon="1.08504599891603">
        <ele>86.180000000000007</ele>
        <time>2023-09-03T16:28:11Z</time>
      </trkpt>
      <trkpt lat="51.092255981639028" lon="1.089494023472071">
        <ele>75.599999999999994</ele>
        <time>2023-09-03T16:28:24Z</time>
      </trkpt>
      <trkpt lat="51.09269100241363" lon="1.093568969517946">
        <ele>67.430000000000007</ele>
        <time>2023-09-03T16:28:36Z</time>
      </trkpt>
      <trkpt lat="51.093234987929463" lon="1.096371039748192">
        <ele>63.579999999999998</ele>
        <time>2023-09-03T16:28:45Z</time>
      </trkpt>
      <trkpt lat="51.093488959595561" lon="1.098131993785501">
        <ele>62.140000000000001</ele>
        <time>2023-09-03T16:28:52Z</time>
      </trkpt>
      <trkpt lat="51.093733040615916" lon="1.099927984178066">
        <ele>59.259999999999998</ele>
        <time>2023-09-03T16:29:02Z</time>
      </trkpt>
      <trkpt lat="51.093992963433266" lon="1.102817980572581">
        <ele>56.369999999999997</ele>
        <time>2023-09-03T16:29:15Z</time>
      </trkpt>
      <trkpt lat="51.09400101006031" lon="1.103029036894441">
        <ele>56.369999999999997</ele>
        <time>2023-09-03T16:29:16Z</time>
      </trkpt>
      <trkpt lat="51.09400101006031" lon="1.103223999962211">
        <ele>55.890000000000001</ele>
        <time>2023-09-03T16:29:17Z</time>
      </trkpt>
      <trkpt lat="51.093963962048292" lon="1.105643017217517">
        <ele>53.490000000000002</ele>
        <time>2023-09-03T16:29:28Z</time>
      </trkpt>
      <trkpt lat="51.093680988997221" lon="1.10857299529016">
        <ele>53.490000000000002</ele>
        <time>2023-09-03T16:29:41Z</time>
      </trkpt>
      <trkpt lat="51.093039019033313" lon="1.111771026626229">
        <ele>56.369999999999997</ele>
        <time>2023-09-03T16:29:56Z</time>
      </trkpt>
      <trkpt lat="51.092800972983241" lon="1.113065024837852">
        <ele>59.259999999999998</ele>
        <time>2023-09-03T16:30:02Z</time>
      </trkpt>
      <trkpt lat="51.092706006020308" lon="1.115386979654431">
        <ele>66.469999999999999</ele>
        <time>2023-09-03T16:30:12Z</time>
      </trkpt>
      <trkpt lat="51.092858975753188" lon="1.1173399630934">
        <ele>67.430000000000007</ele>
        <time>2023-09-03T16:30:22Z</time>
      </trkpt>
      <trkpt lat="51.093038013204932" lon="1.118259960785508">
        <ele>68.390000000000001</ele>
        <time>2023-09-03T16:30:30Z</time>
      </trkpt>
      <trkpt lat="51.093084029853344" lon="1.118416031822562">
        <ele>69.349999999999994</ele>
        <time>2023-09-03T16:30:37Z</time>
      </trkpt>
      <trkpt lat="51.093084029853344" lon="1.118416031822562">
        <ele>69.349999999999994</ele>
        <time>2023-09-03T16:31:14Z</time>
      </trkpt>
      <trkpt lat="51.093084029853344" lon="1.118416031822562">
        <ele>69.829999999999998</ele>
        <time>2023-09-03T16:32:13Z</time>
      </trkpt>
      <trkpt lat="51.093084029853344" lon="1.118416031822562">
        <ele>69.829999999999998</ele>
        <time>2023-09-03T16:33:05Z</time>
      </trkpt>
      <trkpt lat="51.093157036229968" lon="1.118662040680647">
        <ele>69.829999999999998</ele>
        <time>2023-09-03T16:33:12Z</time>
      </trkpt>
      <trkpt lat="51.093182014301419" lon="1.118748039007187">
        <ele>69.349999999999994</ele>
        <time>2023-09-03T16:33:13Z</time>
      </trkpt>
      <trkpt lat="51.09320699237287" lon="1.118831019848585">
        <ele>68.870000000000005</ele>
        <time>2023-09-03T16:33:14Z</time>
      </trkpt>
      <trkpt lat="51.093314029276371" lon="1.119189010933042">
        <ele>63.579999999999998</ele>
        <time>2023-09-03T16:33:23Z</time>
      </trkpt>
      <trkpt lat="51.093314029276371" lon="1.119189010933042">
        <ele>63.100000000000001</ele>
        <time>2023-09-03T16:33:44Z</time>
      </trkpt>
      <trkpt lat="51.093314029276371" lon="1.119189010933042">
        <ele>63.100000000000001</ele>
        <time>2023-09-03T16:34:21Z</time>
      </trkpt>
      <trkpt lat="51.093314029276371" lon="1.119189010933042">
        <ele>63.579999999999998</ele>
        <time>2023-09-03T16:35:15Z</time>
      </trkpt>
      <trkpt lat="51.093375971540809" lon="1.119354972615838">
        <ele>63.100000000000001</ele>
        <time>2023-09-03T16:35:56Z</time>
      </trkpt>
      <trkpt lat="51.093542017042637" lon="1.119608022272587">
        <ele>64.549999999999997</ele>
        <time>2023-09-03T16:36:08Z</time>
      </trkpt>
      <trkpt lat="51.093542017042637" lon="1.119608022272587">
        <ele>64.549999999999997</ele>
        <time>2023-09-03T16:36:59Z</time>
      </trkpt>
      <trkpt lat="51.093542017042637" lon="1.119608022272587">
        <ele>65.030000000000001</ele>
        <time>2023-09-03T16:37:57Z</time>
      </trkpt>
      <trkpt lat="51.093724993988872" lon="1.119782030582428">
        <ele>65.030000000000001</ele>
        <time>2023-09-03T16:38:09Z</time>
      </trkpt>
      <trkpt lat="51.094219023361802" lon="1.12013298086822">
        <ele>65.510000000000005</ele>
        <time>2023-09-03T16:38:16Z</time>
      </trkpt>
      <trkpt lat="51.094284988939762" lon="1.12013298086822">
        <ele>65.510000000000005</ele>
        <time>2023-09-03T16:38:17Z</time>
      </trkpt>
      <trkpt lat="51.094349026679993" lon="1.12013298086822">
        <ele>65.510000000000005</ele>
        <time>2023-09-03T16:38:18Z</time>
      </trkpt>
      <trkpt lat="51.095249997451901" lon="1.119914967566729">
        <ele>65.030000000000001</ele>
        <time>2023-09-03T16:38:29Z</time>
      </trkpt>
      <trkpt lat="51.095469016581774" lon="1.119956960901618">
        <ele>64.549999999999997</ele>
        <time>2023-09-03T16:38:31Z</time>
      </trkpt>
      <trkpt lat="51.096340985968709" lon="1.120402039960027">
        <ele>63.100000000000001</ele>
        <time>2023-09-03T16:38:40Z</time>
      </trkpt>
      <trkpt lat="51.096421033143997" lon="1.120490971952677">
        <ele>62.619999999999997</ele>
        <time>2023-09-03T16:38:41Z</time>
      </trkpt>
      <trkpt lat="51.096484987065196" lon="1.120597003027797">
        <ele>62.619999999999997</ele>
        <time>2023-09-03T16:38:42Z</time>
      </trkpt>
      <trkpt lat="51.096723033115268" lon="1.121088014915586">
        <ele>61.659999999999997</ele>
        <time>2023-09-03T16:38:46Z</time>
      </trkpt>
      <trkpt lat="51.096761003136635" lon="1.1211649607867">
        <ele>61.659999999999997</ele>
        <time>2023-09-03T16:38:47Z</time>
      </trkpt>
      <trkpt lat="51.096800984814763" lon="1.121314996853471">
        <ele>60.700000000000003</ele>
        <time>2023-09-03T16:38:51Z</time>
      </trkpt>
      <trkpt lat="51.096788998693228" lon="1.12135699018836">
        <ele>60.700000000000003</ele>
        <time>2023-09-03T16:38:52Z</time>
      </trkpt>
      <trkpt lat="51.096766032278538" lon="1.121368976309896">
        <ele>60.700000000000003</ele>
        <time>2023-09-03T16:38:53Z</time>
      </trkpt>
      <trkpt lat="51.096737030893564" lon="1.121382974088192">
        <ele>60.700000000000003</ele>
        <time>2023-09-03T16:38:54Z</time>
      </trkpt>
      <trkpt lat="51.096698977053165" lon="1.121402001008391">
        <ele>60.700000000000003</ele>
        <time>2023-09-03T16:38:55Z</time>
      </trkpt>
      <trkpt lat="51.096652960404754" lon="1.12142002210021">
        <ele>60.700000000000003</ele>
        <time>2023-09-03T16:38:56Z</time>
      </trkpt>
      <trkpt lat="51.096339980140328" lon="1.121550025418401">
        <ele>61.18</ele>
        <time>2023-09-03T16:39:03Z</time>
      </trkpt>
      <trkpt lat="51.096311984583735" lon="1.121497973799706">
        <ele>61.18</ele>
        <time>2023-09-03T16:39:04Z</time>
      </trkpt>
      <trkpt lat="51.096270997077227" lon="1.12142002210021">
        <ele>61.18</ele>
        <time>2023-09-03T16:39:05Z</time>
      </trkpt>
      <trkpt lat="51.096108974888921" lon="1.121150963008404">
        <ele>60.700000000000003</ele>
        <time>2023-09-03T16:39:08Z</time>
      </trkpt>
      <trkpt lat="51.096049966290593" lon="1.12109899520874">
        <ele>60.219999999999999</ele>
        <time>2023-09-03T16:39:09Z</time>
      </trkpt>
      <trkpt lat="51.095941001549363" lon="1.121001010760665">
        <ele>60.219999999999999</ele>
        <time>2023-09-03T16:39:11Z</time>
      </trkpt>
      <trkpt lat="51.095672026276588" lon="1.120799006894231">
        <ele>59.740000000000002</ele>
        <time>2023-09-03T16:39:18Z</time>
      </trkpt>
      <trkpt lat="51.095229964703321" lon="1.12071099691093">
        <ele>60.700000000000003</ele>
        <time>2023-09-03T16:39:24Z</time>
      </trkpt>
      <trkpt lat="51.095141032710671" lon="1.120729018002749">
        <ele>61.18</ele>
        <time>2023-09-03T16:39:25Z</time>
      </trkpt>
      <trkpt lat="51.095058973878622" lon="1.120761036872864">
        <ele>61.659999999999997</ele>
        <time>2023-09-03T16:39:26Z</time>
      </trkpt>
      <trkpt lat="51.094990996643901" lon="1.120792971923947">
        <ele>61.659999999999997</ele>
        <time>2023-09-03T16:39:27Z</time>
      </trkpt>
      <trkpt lat="51.094930982217193" lon="1.12082096748054">
        <ele>62.140000000000001</ele>
        <time>2023-09-03T16:39:28Z</time>
      </trkpt>
      <trkpt lat="51.094877002760768" lon="1.120846029371023">
        <ele>62.619999999999997</ele>
        <time>2023-09-03T16:39:29Z</time>
      </trkpt>
      <trkpt lat="51.094825034961104" lon="1.120870001614094">
        <ele>62.619999999999997</ele>
        <time>2023-09-03T16:39:30Z</time>
      </trkpt>
      <trkpt lat="51.094754040241241" lon="1.120850974693894">
        <ele>63.100000000000001</ele>
        <time>2023-09-03T16:39:31Z</time>
      </trkpt>
      <trkpt lat="51.094698971137404" lon="1.120807975530624">
        <ele>63.100000000000001</ele>
        <time>2023-09-03T16:39:32Z</time>
      </trkpt>
      <trkpt lat="51.094642980024219" lon="1.120762964710593">
        <ele>63.100000000000001</ele>
        <time>2023-09-03T16:39:33Z</time>
      </trkpt>
      <trkpt lat="51.094590006396174" lon="1.120719965547323">
        <ele>63.579999999999998</ele>
        <time>2023-09-03T16:39:34Z</time>
      </trkpt>
      <trkpt lat="51.094546001404524" lon="1.120686018839479">
        <ele>63.579999999999998</ele>
        <time>2023-09-03T16:39:35Z</time>
      </trkpt>
      <trkpt lat="51.0944729950279" lon="1.12056003883481">
        <ele>63.100000000000001</ele>
        <time>2023-09-03T16:39:36Z</time>
      </trkpt>
      <trkpt lat="51.0944729950279" lon="1.12051997333765">
        <ele>63.100000000000001</ele>
        <time>2023-09-03T16:39:37Z</time>
      </trkpt>
      <trkpt lat="51.0944729950279" lon="1.12051997333765">
        <ele>63.100000000000001</ele>
        <time>2023-09-03T16:39:38Z</time>
      </trkpt>
      <trkpt lat="51.094561005011201" lon="1.120431963354349">
        <ele>63.100000000000001</ele>
        <time>2023-09-03T16:39:39Z</time>
      </trkpt>
      <trkpt lat="51.09460199251771" lon="1.12039097584784">
        <ele>62.619999999999997</ele>
        <time>2023-09-03T16:39:40Z</time>
      </trkpt>
      <trkpt lat="51.094657983630896" lon="1.120364991948009">
        <ele>62.619999999999997</ele>
        <time>2023-09-03T16:39:41Z</time>
      </trkpt>
      <trkpt lat="51.094739958643913" lon="1.120328027755022">
        <ele>62.619999999999997</ele>
        <time>2023-09-03T16:39:42Z</time>
      </trkpt>
      <trkpt lat="51.094836015254259" lon="1.120285028591752">
        <ele>62.619999999999997</ele>
        <time>2023-09-03T16:39:43Z</time>
      </trkpt>
      <trkpt lat="51.094941040500998" lon="1.120237000286579">
        <ele>62.619999999999997</ele>
        <time>2023-09-03T16:39:44Z</time>
      </trkpt>
      <trkpt lat="51.095073977485299" lon="1.12017598003149">
        <ele>63.100000000000001</ele>
        <time>2023-09-03T16:39:45Z</time>
      </trkpt>
      <trkpt lat="51.095284027978778" lon="1.120184026658535">
        <ele>63.100000000000001</ele>
        <time>2023-09-03T16:39:47Z</time>
      </trkpt>
      <trkpt lat="51.09539601020515" lon="1.120188971981406">
        <ele>63.579999999999998</ele>
        <time>2023-09-03T16:39:48Z</time>
      </trkpt>
      <trkpt lat="51.095500029623508" lon="1.120192995294929">
        <ele>63.579999999999998</ele>
        <time>2023-09-03T16:39:49Z</time>
      </trkpt>
      <trkpt lat="51.095589967444539" lon="1.12019601278007">
        <ele>63.579999999999998</ele>
        <time>2023-09-03T16:39:50Z</time>
      </trkpt>
      <trkpt lat="51.095673032104969" lon="1.120224008336663">
        <ele>63.579999999999998</ele>
        <time>2023-09-03T16:39:51Z</time>
      </trkpt>
      <trkpt lat="51.095737991854548" lon="1.120263990014792">
        <ele>63.579999999999998</ele>
        <time>2023-09-03T16:39:52Z</time>
      </trkpt>
      <trkpt lat="51.096124984323978" lon="1.120505975559354">
        <ele>63.100000000000001</ele>
        <time>2023-09-03T16:39:57Z</time>
      </trkpt>
      <trkpt lat="51.096206959336996" lon="1.120593985542655">
        <ele>62.619999999999997</ele>
        <time>2023-09-03T16:39:58Z</time>
      </trkpt>
      <trkpt lat="51.096583977341652" lon="1.121167978271842">
        <ele>60.219999999999999</ele>
        <time>2023-09-03T16:40:05Z</time>
      </trkpt>
      <trkpt lat="51.096612978726625" lon="1.121223969385028">
        <ele>59.740000000000002</ele>
        <time>2023-09-03T16:40:06Z</time>
      </trkpt>
      <trkpt lat="51.096638040617108" lon="1.121271997690201">
        <ele>59.259999999999998</ele>
        <time>2023-09-03T16:40:07Z</time>
      </trkpt>
      <trkpt lat="51.096715992316604" lon="1.121394038200378">
        <ele>58.780000000000001</ele>
        <time>2023-09-03T16:40:08Z</time>
      </trkpt>
      <trkpt lat="51.096738958731294" lon="1.121381968259811">
        <ele>58.780000000000001</ele>
        <time>2023-09-03T16:40:09Z</time>
      </trkpt>
      <trkpt lat="51.096811965107918" lon="1.12127099186182">
        <ele>59.259999999999998</ele>
        <time>2023-09-03T16:40:10Z</time>
      </trkpt>
      <trkpt lat="51.096726972609758" lon="1.121094971895218">
        <ele>59.259999999999998</ele>
        <time>2023-09-03T16:40:11Z</time>
      </trkpt>
      <trkpt lat="51.096682967618108" lon="1.121006039902568">
        <ele>59.740000000000002</ele>
        <time>2023-09-03T16:40:12Z</time>
      </trkpt>
      <trkpt lat="51.096627982333302" lon="1.120891962200403">
        <ele>59.740000000000002</ele>
        <time>2023-09-03T16:40:13Z</time>
      </trkpt>
      <trkpt lat="51.096566040068865" lon="1.120764976367354">
        <ele>59.740000000000002</ele>
        <time>2023-09-03T16:40:14Z</time>
      </trkpt>
      <trkpt lat="51.096503008157015" lon="1.120633967220783">
        <ele>59.740000000000002</ele>
        <time>2023-09-03T16:40:15Z</time>
      </trkpt>
      <trkpt lat="51.096419021487236" lon="1.120488038286567">
        <ele>59.740000000000002</ele>
        <time>2023-09-03T16:40:16Z</time>
      </trkpt>
      <trkpt lat="51.096326988190413" lon="1.120386030524969">
        <ele>59.740000000000002</ele>
        <time>2023-09-03T16:40:17Z</time>
      </trkpt>
      <trkpt lat="51.096218023449183" lon="1.12028201110661">
        <ele>59.740000000000002</ele>
        <time>2023-09-03T16:40:18Z</time>
      </trkpt>
      <trkpt lat="51.096109980717301" lon="1.120211016386747">
        <ele>59.259999999999998</ele>
        <time>2023-09-03T16:40:19Z</time>
      </trkpt>
      <trkpt lat="51.09599900431931" lon="1.120140021666884">
        <ele>59.259999999999998</ele>
        <time>2023-09-03T16:40:20Z</time>
      </trkpt>
      <trkpt lat="51.0958890337497" lon="1.120068021118641">
        <ele>59.259999999999998</ele>
        <time>2023-09-03T16:40:21Z</time>
      </trkpt>
      <trkpt lat="51.095429034903646" lon="1.119950003921986">
        <ele>59.259999999999998</ele>
        <time>2023-09-03T16:40:25Z</time>
      </trkpt>
      <trkpt lat="51.094513982534409" lon="1.120263990014792">
        <ele>61.18</ele>
        <time>2023-09-03T16:40:34Z</time>
      </trkpt>
      <trkpt lat="51.094138976186514" lon="1.120549980551004">
        <ele>61.659999999999997</ele>
        <time>2023-09-03T16:40:39Z</time>
      </trkpt>
      <trkpt lat="51.094070998951793" lon="1.120635978877544">
        <ele>62.140000000000001</ele>
        <time>2023-09-03T16:40:40Z</time>
      </trkpt>
      <trkpt lat="51.094014002010226" lon="1.12073203548789">
        <ele>62.140000000000001</ele>
        <time>2023-09-03T16:40:41Z</time>
      </trkpt>
      <trkpt lat="51.093955999240279" lon="1.120853992179036">
        <ele>62.140000000000001</ele>
        <time>2023-09-03T16:40:42Z</time>
      </trkpt>
      <trkpt lat="51.093902019783854" lon="1.120965974405408">
        <ele>62.140000000000001</ele>
        <time>2023-09-03T16:40:43Z</time>
      </trkpt>
      <trkpt lat="51.093854997307062" lon="1.121063958853483">
        <ele>61.659999999999997</ele>
        <time>2023-09-03T16:40:44Z</time>
      </trkpt>
      <trkpt lat="51.09380797483027" lon="1.121163032948971">
        <ele>61.659999999999997</ele>
        <time>2023-09-03T16:40:45Z</time>
      </trkpt>
      <trkpt lat="51.09380797483027" lon="1.12124802544713">
        <ele>61.659999999999997</ele>
        <time>2023-09-03T16:40:46Z</time>
      </trkpt>
      <trkpt lat="51.09380797483027" lon="1.121361013501883">
        <ele>61.659999999999997</ele>
        <time>2023-09-03T16:40:47Z</time>
      </trkpt>
      <trkpt lat="51.09380797483027" lon="1.12148498184979">
        <ele>61.18</ele>
        <time>2023-09-03T16:40:48Z</time>
      </trkpt>
      <trkpt lat="51.093827001750469" lon="1.12157098017633">
        <ele>61.18</ele>
        <time>2023-09-03T16:40:49Z</time>
      </trkpt>
      <trkpt lat="51.093846028670669" lon="1.121658990159631">
        <ele>61.18</ele>
        <time>2023-09-03T16:40:50Z</time>
      </trkpt>
      <trkpt lat="51.093865977600217" lon="1.121748005971313">
        <ele>60.700000000000003</ele>
        <time>2023-09-03T16:40:51Z</time>
      </trkpt>
      <trkpt lat="51.094131013378501" lon="1.122157964855433">
        <ele>60.219999999999999</ele>
        <time>2023-09-03T16:41:00Z</time>
      </trkpt>
      <trkpt lat="51.094145011156797" lon="1.12217296846211">
        <ele>59.740000000000002</ele>
        <time>2023-09-03T16:41:01Z</time>
      </trkpt>
      <trkpt lat="51.094145011156797" lon="1.12217296846211">
        <ele>59.740000000000002</ele>
        <time>2023-09-03T16:41:02Z</time>
      </trkpt>
      <trkpt lat="51.094145011156797" lon="1.12217296846211">
        <ele>59.259999999999998</ele>
        <time>2023-09-03T16:41:19Z</time>
      </trkpt>
      <trkpt lat="51.094145011156797" lon="1.12217296846211">
        <ele>59.259999999999998</ele>
        <time>2023-09-03T16:41:43Z</time>
      </trkpt>
      <trkpt lat="51.094297980889678" lon="1.122346976771951">
        <ele>62.619999999999997</ele>
        <time>2023-09-03T16:41:55Z</time>
      </trkpt>
      <trkpt lat="51.094297980889678" lon="1.122346976771951">
        <ele>63.100000000000001</ele>
        <time>2023-09-03T16:42:07Z</time>
      </trkpt>
      <trkpt lat="51.09436696395278" lon="1.122425012290478">
        <ele>62.619999999999997</ele>
        <time>2023-09-03T16:42:23Z</time>
      </trkpt>
      <trkpt lat="51.094409041106701" lon="1.12247203476727">
        <ele>62.140000000000001</ele>
        <time>2023-09-03T16:42:24Z</time>
      </trkpt>
      <trkpt lat="51.094639962539077" lon="1.122284028679133">
        <ele>61.659999999999997</ele>
        <time>2023-09-03T16:42:28Z</time>
      </trkpt>
      <trkpt lat="51.094820005819201" lon="1.122432975098491">
        <ele>61.18</ele>
        <time>2023-09-03T16:42:36Z</time>
      </trkpt>
      <trkpt lat="51.094874991104007" lon="1.122500030323863">
        <ele>61.18</ele>
        <time>2023-09-03T16:42:46Z</time>
      </trkpt>
      <trkpt lat="51.094864010810852" lon="1.122554009780288">
        <ele>56.859999999999999</ele>
        <time>2023-09-03T16:45:01Z</time>
      </trkpt>
      <trkpt lat="51.094922013580799" lon="1.122578987851739">
        <ele>60.700000000000003</ele>
        <time>2023-09-03T16:45:31Z</time>
      </trkpt>
      <trkpt lat="51.094970041885972" lon="1.123136971145868">
        <ele>64.549999999999997</ele>
        <time>2023-09-03T16:45:40Z</time>
      </trkpt>
      <trkpt lat="51.095056040212512" lon="1.123230010271072">
        <ele>65.510000000000005</ele>
        <time>2023-09-03T16:45:50Z</time>
      </trkpt>
      <trkpt lat="51.095102978870273" lon="1.123278960585594">
        <ele>65.030000000000001</ele>
        <time>2023-09-03T16:46:01Z</time>
      </trkpt>
      <trkpt lat="51.095113959163427" lon="1.123290024697781">
        <ele>65.030000000000001</ele>
        <time>2023-09-03T16:46:02Z</time>
      </trkpt>
      <trkpt lat="51.095127034932375" lon="1.123304022476077">
        <ele>65.030000000000001</ele>
        <time>2023-09-03T16:46:03Z</time>
      </trkpt>
      <trkpt lat="51.095127034932375" lon="1.123304022476077">
        <ele>66.950000000000003</ele>
        <time>2023-09-03T16:46:16Z</time>
      </trkpt>
      <trkpt lat="51.095183026045561" lon="1.123362025246024">
        <ele>68.390000000000001</ele>
        <time>2023-09-03T16:46:27Z</time>
      </trkpt>
      <trkpt lat="51.095200041308999" lon="1.123380968347192">
        <ele>68.390000000000001</ele>
        <time>2023-09-03T16:46:28Z</time>
      </trkpt>
      <trkpt lat="51.095318980515003" lon="1.123505020514131">
        <ele>68.390000000000001</ele>
        <time>2023-09-03T16:46:31Z</time>
      </trkpt>
      <trkpt lat="51.095358040183783" lon="1.123545002192259">
        <ele>68.870000000000005</ele>
        <time>2023-09-03T16:46:32Z</time>
      </trkpt>
      <trkpt lat="51.095399027690291" lon="1.123586995527148">
        <ele>69.349999999999994</ele>
        <time>2023-09-03T16:46:33Z</time>
      </trkpt>
      <trkpt lat="51.095843017101288" lon="1.124140033498406">
        <ele>72.719999999999999</ele>
        <time>2023-09-03T16:46:41Z</time>
      </trkpt>
      <trkpt lat="51.095884004607797" lon="1.124194012954831">
        <ele>72.719999999999999</ele>
        <time>2023-09-03T16:46:42Z</time>
      </trkpt>
      <trkpt lat="51.095919962972403" lon="1.124240029603243">
        <ele>72.719999999999999</ele>
        <time>2023-09-03T16:46:43Z</time>
      </trkpt>
      <trkpt lat="51.096010990440845" lon="1.124388976022601">
        <ele>73.200000000000003</ele>
        <time>2023-09-03T16:46:45Z</time>
      </trkpt>
      <trkpt lat="51.096032029017806" lon="1.124458964914084">
        <ele>73.200000000000003</ele>
        <time>2023-09-03T16:46:46Z</time>
      </trkpt>
      <trkpt lat="51.096053989604115" lon="1.124531971290708">
        <ele>73.680000000000007</ele>
        <time>2023-09-03T16:46:47Z</time>
      </trkpt>
      <trkpt lat="51.096032029017806" lon="1.124698016792536">
        <ele>74.159999999999997</ele>
        <time>2023-09-03T16:46:48Z</time>
      </trkpt>
      <trkpt lat="51.09601803123951" lon="1.124768005684018">
        <ele>74.159999999999997</ele>
        <time>2023-09-03T16:46:49Z</time>
      </trkpt>
      <trkpt lat="51.095957010984421" lon="1.124903038144112">
        <ele>74.640000000000001</ele>
        <time>2023-09-03T16:46:50Z</time>
      </trkpt>
      <trkpt lat="51.095901019871235" lon="1.125024994835258">
        <ele>75.120000000000005</ele>
        <time>2023-09-03T16:46:51Z</time>
      </trkpt>
      <trkpt lat="51.095838993787766" lon="1.125161033123732">
        <ele>75.120000000000005</ele>
        <time>2023-09-03T16:46:52Z</time>
      </trkpt>
      <trkpt lat="51.095630032941699" lon="1.125617008656263">
        <ele>74.640000000000001</ele>
        <time>2023-09-03T16:46:55Z</time>
      </trkpt>
      <trkpt lat="51.094985967501998" lon="1.127030029892921">
        <ele>70.790000000000006</ele>
        <time>2023-09-03T16:47:04Z</time>
      </trkpt>
      <trkpt lat="51.094957971945405" lon="1.127174030989409">
        <ele>70.790000000000006</ele>
        <time>2023-09-03T16:47:05Z</time>
      </trkpt>
      <trkpt lat="51.094866022467613" lon="1.127804014831781">
        <ele>69.349999999999994</ele>
        <time>2023-09-03T16:47:09Z</time>
      </trkpt>
      <trkpt lat="51.094873985275626" lon="1.12795103341341">
        <ele>69.349999999999994</ele>
        <time>2023-09-03T16:47:10Z</time>
      </trkpt>
      <trkpt lat="51.094896029680967" lon="1.128092017024756">
        <ele>69.349999999999994</ele>
        <time>2023-09-03T16:47:11Z</time>
      </trkpt>
      <trkpt lat="51.094958977773786" lon="1.128170974552631">
        <ele>68.870000000000005</ele>
        <time>2023-09-03T16:47:12Z</time>
      </trkpt>
      <trkpt lat="51.09496702440083" lon="1.128180027008057">
        <ele>68.870000000000005</ele>
        <time>2023-09-03T16:47:13Z</time>
      </trkpt>
      <trkpt lat="51.095085963606834" lon="1.128195030614734">
        <ele>68.870000000000005</ele>
        <time>2023-09-03T16:47:14Z</time>
      </trkpt>
      <trkpt lat="51.09513801522553" lon="1.128200981765986">
        <ele>68.870000000000005</ele>
        <time>2023-09-03T16:47:15Z</time>
      </trkpt>
      <trkpt lat="51.095194006338716" lon="1.12816502340138">
        <ele>68.870000000000005</ele>
        <time>2023-09-03T16:47:16Z</time>
      </trkpt>
      <trkpt lat="51.095261983573437" lon="1.128120012581348">
        <ele>68.870000000000005</ele>
        <time>2023-09-03T16:47:17Z</time>
      </trkpt>
      <trkpt lat="51.095329960808158" lon="1.128076007589698">
        <ele>69.349999999999994</ele>
        <time>2023-09-03T16:47:18Z</time>
      </trkpt>
      <trkpt lat="51.095393998548388" lon="1.128034014254808">
        <ele>69.349999999999994</ele>
        <time>2023-09-03T16:47:19Z</time>
      </trkpt>
      <trkpt lat="51.095450995489955" lon="1.12799696624279">
        <ele>69.349999999999994</ele>
        <time>2023-09-03T16:47:20Z</time>
      </trkpt>
      <trkpt lat="51.095501035451889" lon="1.127964025363326">
        <ele>69.349999999999994</ele>
        <time>2023-09-03T16:47:21Z</time>
      </trkpt>
      <trkpt lat="51.095544034615159" lon="1.127936029806733">
        <ele>69.349999999999994</ele>
        <time>2023-09-03T16:47:22Z</time>
      </trkpt>
      <trkpt lat="51.095695998519659" lon="1.127837039530277">
        <ele>69.349999999999994</ele>
        <time>2023-09-03T16:47:24Z</time>
      </trkpt>
      <trkpt lat="51.09569700434804" lon="1.127835027873516">
        <ele>69.349999999999994</ele>
        <time>2023-09-03T16:47:25Z</time>
      </trkpt>
      <trkpt lat="51.095754001289606" lon="1.127765038982034">
        <ele>69.349999999999994</ele>
        <time>2023-09-03T16:47:26Z</time>
      </trkpt>
      <trkpt lat="51.09632195904851" lon="1.126672038808465">
        <ele>71.269999999999996</ele>
        <time>2023-09-03T16:47:34Z</time>
      </trkpt>
      <trkpt lat="51.096660001203418" lon="1.125966031104326">
        <ele>73.200000000000003</ele>
        <time>2023-09-03T16:47:41Z</time>
      </trkpt>
      <trkpt lat="51.096811965107918" lon="1.125648021697998">
        <ele>75.599999999999994</ele>
        <time>2023-09-03T16:47:48Z</time>
      </trkpt>
      <trkpt lat="51.096811965107918" lon="1.125648021697998">
        <ele>75.599999999999994</ele>
        <time>2023-09-03T16:47:49Z</time>
      </trkpt>
      <trkpt lat="51.096920007839799" lon="1.125599993392825">
        <ele>76.079999999999998</ele>
        <time>2023-09-03T16:47:50Z</time>
      </trkpt>
      <trkpt lat="51.097005000337958" lon="1.125562023371458">
        <ele>76.560000000000002</ele>
        <time>2023-09-03T16:47:51Z</time>
      </trkpt>
      <trkpt lat="51.097009023651481" lon="1.1255650408566">
        <ele>77.040000000000006</ele>
        <time>2023-09-03T16:47:52Z</time>
      </trkpt>
      <trkpt lat="51.097080018371344" lon="1.125620026141405">
        <ele>77.040000000000006</ele>
        <time>2023-09-03T16:47:53Z</time>
      </trkpt>
      <trkpt lat="51.097154030576348" lon="1.125678028911352">
        <ele>77.519999999999996</ele>
        <time>2023-09-03T16:47:54Z</time>
      </trkpt>
      <trkpt lat="51.097260983660817" lon="1.125915991142392">
        <ele>77.040000000000006</ele>
        <time>2023-09-03T16:47:57Z</time>
      </trkpt>
      <trkpt lat="51.097284033894539" lon="1.125991009175777">
        <ele>77.040000000000006</ele>
        <time>2023-09-03T16:47:58Z</time>
      </trkpt>
      <trkpt lat="51.097284033894539" lon="1.125991009175777">
        <ele>76.560000000000002</ele>
        <time>2023-09-03T16:47:59Z</time>
      </trkpt>
      <trkpt lat="51.097275987267494" lon="1.126164011657238">
        <ele>76.560000000000002</ele>
        <time>2023-09-03T16:48:00Z</time>
      </trkpt>
      <trkpt lat="51.097269030287862" lon="1.12629602663219">
        <ele>76.560000000000002</ele>
        <time>2023-09-03T16:48:01Z</time>
      </trkpt>
      <trkpt lat="51.097262995317578" lon="1.126442961394787">
        <ele>76.560000000000002</ele>
        <time>2023-09-03T16:48:02Z</time>
      </trkpt>
      <trkpt lat="51.097255032509565" lon="1.126601966097951">
        <ele>76.560000000000002</ele>
        <time>2023-09-03T16:48:03Z</time>
      </trkpt>
      <trkpt lat="51.097205998376012" lon="1.127621037885547">
        <ele>76.560000000000002</ele>
        <time>2023-09-03T16:48:09Z</time>
      </trkpt>
      <trkpt lat="51.097199041396379" lon="1.12777903676033">
        <ele>76.560000000000002</ele>
        <time>2023-09-03T16:48:10Z</time>
      </trkpt>
      <trkpt lat="51.097155958414078" lon="1.127872997894883">
        <ele>77.040000000000006</ele>
        <time>2023-09-03T16:48:11Z</time>
      </trkpt>
      <trkpt lat="51.097084041684866" lon="1.128009958192706">
        <ele>77.040000000000006</ele>
        <time>2023-09-03T16:48:12Z</time>
      </trkpt>
      <trkpt lat="51.097003994509578" lon="1.128159994259477">
        <ele>77.040000000000006</ele>
        <time>2023-09-03T16:48:13Z</time>
      </trkpt>
      <trkpt lat="51.096137976273894" lon="1.129794968292117">
        <ele>75.120000000000005</ele>
        <time>2023-09-03T16:48:24Z</time>
      </trkpt>
      <trkpt lat="51.095829019322991" lon="1.130378013476729">
        <ele>73.200000000000003</ele>
        <time>2023-09-03T16:48:30Z</time>
      </trkpt>
      <trkpt lat="51.095786020159721" lon="1.130458982661367">
        <ele>73.200000000000003</ele>
        <time>2023-09-03T16:48:31Z</time>
      </trkpt>
      <trkpt lat="51.095750983804464" lon="1.130525032058358">
        <ele>73.200000000000003</ele>
        <time>2023-09-03T16:48:32Z</time>
      </trkpt>
      <trkpt lat="51.095721982419491" lon="1.130579011514783">
        <ele>72.719999999999999</ele>
        <time>2023-09-03T16:48:33Z</time>
      </trkpt>
      <trkpt lat="51.095701027661562" lon="1.130618993192911">
        <ele>72.719999999999999</ele>
        <time>2023-09-03T16:48:34Z</time>
      </trkpt>
      <trkpt lat="51.095674959942698" lon="1.130669033154845">
        <ele>72.719999999999999</ele>
        <time>2023-09-03T16:48:35Z</time>
      </trkpt>
      <trkpt lat="51.095670014619827" lon="1.130679007619619">
        <ele>72.719999999999999</ele>
        <time>2023-09-03T16:48:36Z</time>
      </trkpt>
      <trkpt lat="51.095608994364738" lon="1.130822002887726">
        <ele>72.239999999999995</ele>
        <time>2023-09-03T16:48:47Z</time>
      </trkpt>
      <trkpt lat="51.095608994364738" lon="1.130822002887726">
        <ele>71.760000000000005</ele>
        <time>2023-09-03T16:49:29Z</time>
      </trkpt>
      <trkpt lat="51.095608994364738" lon="1.130822002887726">
        <ele>71.760000000000005</ele>
        <time>2023-09-03T16:50:23Z</time>
      </trkpt>
      <trkpt lat="51.095713013783097" lon="1.131074968725443">
        <ele>71.269999999999996</ele>
        <time>2023-09-03T16:51:02Z</time>
      </trkpt>
      <trkpt lat="51.095815021544695" lon="1.132010975852609">
        <ele>67.430000000000007</ele>
        <time>2023-09-03T16:51:18Z</time>
      </trkpt>
      <trkpt lat="51.095833964645863" lon="1.132219014689326">
        <ele>65.510000000000005</ele>
        <time>2023-09-03T16:51:29Z</time>
      </trkpt>
      <trkpt lat="51.095834970474243" lon="1.132215997204185">
        <ele>66.469999999999999</ele>
        <time>2023-09-03T16:52:25Z</time>
      </trkpt>
      <trkpt lat="51.095861960202456" lon="1.132474998012185">
        <ele>65.989999999999995</ele>
        <time>2023-09-03T16:52:51Z</time>
      </trkpt>
      <trkpt lat="51.095878975465894" lon="1.132797030732036">
        <ele>65.510000000000005</ele>
        <time>2023-09-03T16:53:04Z</time>
      </trkpt>
      <trkpt lat="51.095903031527996" lon="1.133057959377766">
        <ele>65.989999999999995</ele>
        <time>2023-09-03T16:53:19Z</time>
      </trkpt>
      <trkpt lat="51.095871012657881" lon="1.133167007938027">
        <ele>66.950000000000003</ele>
        <time>2023-09-03T16:53:43Z</time>
      </trkpt>
      <trkpt lat="51.09582700766623" lon="1.133200032636523">
        <ele>66.950000000000003</ele>
        <time>2023-09-03T16:53:59Z</time>
      </trkpt>
      <trkpt lat="50.922271991148591" lon="1.813891036435962">
        <ele>9.75</ele>
        <time>2023-09-03T17:42:53Z</time>
      </trkpt>
      <trkpt lat="50.921523990109563" lon="1.813195003196597">
        <ele>13.6</ele>
        <time>2023-09-03T17:43:03Z</time>
      </trkpt>
      <trkpt lat="50.921523990109563" lon="1.813195003196597">
        <ele>14.08</ele>
        <time>2023-09-03T17:43:04Z</time>
      </trkpt>
      <trkpt lat="50.921684000641108" lon="1.812760988250375">
        <ele>14.56</ele>
        <time>2023-09-03T17:43:05Z</time>
      </trkpt>
      <trkpt lat="50.921715013682842" lon="1.812679013237357">
        <ele>14.56</ele>
        <time>2023-09-03T17:43:06Z</time>
      </trkpt>
      <trkpt lat="50.921752983704209" lon="1.81257700547576">
        <ele>15.039999999999999</ele>
        <time>2023-09-03T17:43:07Z</time>
      </trkpt>
      <trkpt lat="50.921793971210718" lon="1.812463011592627">
        <ele>15.52</ele>
        <time>2023-09-03T17:43:08Z</time>
      </trkpt>
      <trkpt lat="50.921838982030749" lon="1.81234298273921">
        <ele>15.52</ele>
        <time>2023-09-03T17:43:09Z</time>
      </trkpt>
      <trkpt lat="50.922286994755268" lon="1.811121990904212">
        <ele>14.08</ele>
        <time>2023-09-03T17:43:18Z</time>
      </trkpt>
      <trkpt lat="50.922361006960273" lon="1.810962986201048">
        <ele>13.6</ele>
        <time>2023-09-03T17:43:19Z</time>
      </trkpt>
      <trkpt lat="50.922444993630052" lon="1.810871036723256">
        <ele>13.6</ele>
        <time>2023-09-03T17:43:20Z</time>
      </trkpt>
      <trkpt lat="50.922578014433384" lon="1.810727035626769">
        <ele>13.119999999999999</ele>
        <time>2023-09-03T17:43:21Z</time>
      </trkpt>
      <trkpt lat="50.922687985002995" lon="1.810714965686202">
        <ele>13.119999999999999</ele>
        <time>2023-09-03T17:43:22Z</time>
      </trkpt>
      <trkpt lat="50.922855958342552" lon="1.810768023133278">
        <ele>12.15</ele>
        <time>2023-09-03T17:43:23Z</time>
      </trkpt>
      <trkpt lat="50.922985039651394" lon="1.8109240103513">
        <ele>11.67</ele>
        <time>2023-09-03T17:43:24Z</time>
      </trkpt>
      <trkpt lat="50.923060979694128" lon="1.81105200201273">
        <ele>11.19</ele>
        <time>2023-09-03T17:43:25Z</time>
      </trkpt>
      <trkpt lat="50.923138009384274" lon="1.811179993674159">
        <ele>10.710000000000001</ele>
        <time>2023-09-03T17:43:26Z</time>
      </trkpt>
      <trkpt lat="50.923959016799927" lon="1.81255797855556">
        <ele>6.87</ele>
        <time>2023-09-03T17:43:35Z</time>
      </trkpt>
      <trkpt lat="50.924828974530101" lon="1.813537990674377">
        <ele>6.39</ele>
        <time>2023-09-03T17:43:42Z</time>
      </trkpt>
      <trkpt lat="50.924958977848291" lon="1.813651984557509">
        <ele>6.39</ele>
        <time>2023-09-03T17:43:43Z</time>
      </trkpt>
      <trkpt lat="50.926710041239858" lon="1.815178999677301">
        <ele>6.87</ele>
        <time>2023-09-03T17:43:54Z</time>
      </trkpt>
      <trkpt lat="50.927817961201072" lon="1.816148031502962">
        <ele>7.35</ele>
        <time>2023-09-03T17:44:02Z</time>
      </trkpt>
      <trkpt lat="50.929132997989655" lon="1.816915981471539">
        <ele>7.83</ele>
        <time>2023-09-03T17:44:12Z</time>
      </trkpt>
      <trkpt lat="50.9300890378654" lon="1.817164001986384">
        <ele>9.27</ele>
        <time>2023-09-03T17:44:20Z</time>
      </trkpt>
      <trkpt lat="50.931372977793217" lon="1.817400958389044">
        <ele>8.310000000000001</ele>
        <time>2023-09-03T17:44:32Z</time>
      </trkpt>
      <trkpt lat="50.933112977072597" lon="1.81771201081574">
        <ele>6.87</ele>
        <time>2023-09-03T17:44:46Z</time>
      </trkpt>
      <trkpt lat="50.935022961348295" lon="1.818065978586674">
        <ele>5.42</ele>
        <time>2023-09-03T17:45:00Z</time>
      </trkpt>
      <trkpt lat="50.936833033338189" lon="1.818407960236073">
        <ele>5.42</ele>
        <time>2023-09-03T17:45:11Z</time>
      </trkpt>
      <trkpt lat="50.938863968476653" lon="1.818780032917857">
        <ele>9.75</ele>
        <time>2023-09-03T17:45:22Z</time>
      </trkpt>
      <trkpt lat="50.940433982759714" lon="1.819588970392942">
        <ele>6.39</ele>
        <time>2023-09-03T17:45:31Z</time>
      </trkpt>
      <trkpt lat="50.940901022404432" lon="1.820063972845674">
        <ele>5.42</ele>
        <time>2023-09-03T17:45:34Z</time>
      </trkpt>
      <trkpt lat="50.941029014065862" lon="1.820262959226966">
        <ele>5.42</ele>
        <time>2023-09-03T17:45:35Z</time>
      </trkpt>
      <trkpt lat="50.941131021827459" lon="1.820477033033967">
        <ele>4.94</ele>
        <time>2023-09-03T17:45:36Z</time>
      </trkpt>
      <trkpt lat="50.941221965476871" lon="1.820683982223272">
        <ele>4.94</ele>
        <time>2023-09-03T17:45:37Z</time>
      </trkpt>
      <trkpt lat="50.941294971853495" lon="1.820956980809569">
        <ele>4.94</ele>
        <time>2023-09-03T17:45:38Z</time>
      </trkpt>
      <trkpt lat="50.941365966573358" lon="1.821226039901376">
        <ele>4.46</ele>
        <time>2023-09-03T17:45:39Z</time>
      </trkpt>
      <trkpt lat="50.941425981000066" lon="1.821493003517389">
        <ele>4.46</ele>
        <time>2023-09-03T17:45:40Z</time>
      </trkpt>
      <trkpt lat="50.941465962678194" lon="1.821781005710363">
        <ele>4.46</ele>
        <time>2023-09-03T17:45:41Z</time>
      </trkpt>
      <trkpt lat="50.941505022346973" lon="1.822068002074957">
        <ele>4.94</ele>
        <time>2023-09-03T17:45:42Z</time>
      </trkpt>
      <trkpt lat="50.94154299236834" lon="1.822351980954409">
        <ele>4.94</ele>
        <time>2023-09-03T17:45:43Z</time>
      </trkpt>
      <trkpt lat="50.941340988501906" lon="1.825995007529855">
        <ele>3.02</ele>
        <time>2023-09-03T17:45:55Z</time>
      </trkpt>
      <trkpt lat="50.940964976325631" lon="1.828664978966117">
        <ele>2.54</ele>
        <time>2023-09-03T17:46:03Z</time>
      </trkpt>
      <trkpt lat="50.940524004399776" lon="1.831088019534946">
        <ele>2.06</ele>
        <time>2023-09-03T17:46:11Z</time>
      </trkpt>
      <trkpt lat="50.939707020297647" lon="1.834270963445306">
        <ele>2.54</ele>
        <time>2023-09-03T17:46:23Z</time>
      </trkpt>
      <trkpt lat="50.938631035387516" lon="1.838342975825071">
        <ele>5.42</ele>
        <time>2023-09-03T17:46:38Z</time>
      </trkpt>
      <trkpt lat="50.937302000820637" lon="1.843422995880246">
        <ele>3.02</ele>
        <time>2023-09-03T17:46:55Z</time>
      </trkpt>
      <trkpt lat="50.936739994212985" lon="1.846542991697788">
        <ele>4.94</ele>
        <time>2023-09-03T17:47:04Z</time>
      </trkpt>
      <trkpt lat="50.936565985903144" lon="1.849277000874281">
        <ele>8.310000000000001</ele>
        <time>2023-09-03T17:47:12Z</time>
      </trkpt>
      <trkpt lat="50.936634968966246" lon="1.852651974186301">
        <ele>6.87</ele>
        <time>2023-09-03T17:47:23Z</time>
      </trkpt>
      <trkpt lat="50.936694983392954" lon="1.855825027450919">
        <ele>6.87</ele>
        <time>2023-09-03T17:47:33Z</time>
      </trkpt>
      <trkpt lat="50.936623988673091" lon="1.857967022806406">
        <ele>6.87</ele>
        <time>2023-09-03T17:47:41Z</time>
      </trkpt>
      <trkpt lat="50.936379991471767" lon="1.858703037723899">
        <ele>6.39</ele>
        <time>2023-09-03T17:47:45Z</time>
      </trkpt>
      <trkpt lat="50.935942037031054" lon="1.859897039830685">
        <ele>2.06</ele>
        <time>2023-09-03T17:47:53Z</time>
      </trkpt>
      <trkpt lat="50.935924015939236" lon="1.859954036772251">
        <ele>1.58</ele>
        <time>2023-09-03T17:47:54Z</time>
      </trkpt>
      <trkpt lat="50.9359120298177" lon="1.859994018450379">
        <ele>0.62</ele>
        <time>2023-09-03T17:47:55Z</time>
      </trkpt>
      <trkpt lat="50.935927033424377" lon="1.860128967091441">
        <ele>0.14</ele>
        <time>2023-09-03T17:47:56Z</time>
      </trkpt>
      <trkpt lat="50.935960980132222" lon="1.860150005668402">
        <ele>-0.34</ele>
        <time>2023-09-03T17:47:57Z</time>
      </trkpt>
      <trkpt lat="50.936009008437395" lon="1.860176995396614">
        <ele>-0.82</ele>
        <time>2023-09-03T17:47:58Z</time>
      </trkpt>
      <trkpt lat="50.936073968186975" lon="1.860215971246362">
        <ele>-1.3</ele>
        <time>2023-09-03T17:47:59Z</time>
      </trkpt>
      <trkpt lat="50.936153009533882" lon="1.860261987894774">
        <ele>-1.79</ele>
        <time>2023-09-03T17:48:00Z</time>
      </trkpt>
      <trkpt lat="50.936244037002325" lon="1.860315967351198">
        <ele>-1.79</ele>
        <time>2023-09-03T17:48:01Z</time>
      </trkpt>
      <trkpt lat="50.936373034492135" lon="1.860358966514468">
        <ele>-2.27</ele>
        <time>2023-09-03T17:48:02Z</time>
      </trkpt>
      <trkpt lat="50.936439000070095" lon="1.860389979556203">
        <ele>-2.75</ele>
        <time>2023-09-03T17:48:03Z</time>
      </trkpt>
      <trkpt lat="50.937342988327146" lon="1.860788036137819">
        <ele>-3.71</ele>
        <time>2023-09-03T17:48:12Z</time>
      </trkpt>
      <trkpt lat="50.937496041879058" lon="1.860835980623961">
        <ele>-3.23</ele>
        <time>2023-09-03T17:48:14Z</time>
      </trkpt>
      <trkpt lat="50.937562007457018" lon="1.860856013372541">
        <ele>-2.75</ele>
        <time>2023-09-03T17:48:15Z</time>
      </trkpt>
      <trkpt lat="50.937639037147164" lon="1.861066985875368">
        <ele>-2.75</ele>
        <time>2023-09-03T17:48:16Z</time>
      </trkpt>
      <trkpt lat="50.937639037147164" lon="1.861066985875368">
        <ele>-2.75</ele>
        <time>2023-09-03T17:48:17Z</time>
      </trkpt>
      <trkpt lat="50.937742972746491" lon="1.86126303859055">
        <ele>-2.27</ele>
        <time>2023-09-03T17:48:18Z</time>
      </trkpt>
      <trkpt lat="50.93773802742362" lon="1.861405028030276">
        <ele>-1.79</ele>
        <time>2023-09-03T17:48:19Z</time>
      </trkpt>
      <trkpt lat="50.937732998281717" lon="1.861565038561821">
        <ele>-0.82</ele>
        <time>2023-09-03T17:48:20Z</time>
      </trkpt>
      <trkpt lat="50.9376510232687" lon="1.863385001197457">
        <ele>4.46</ele>
        <time>2023-09-03T17:48:30Z</time>
      </trkpt>
      <trkpt lat="50.937538035213947" lon="1.865428006276488">
        <ele>5.42</ele>
        <time>2023-09-03T17:48:42Z</time>
      </trkpt>
      <trkpt lat="50.937536023557186" lon="1.865530014038086">
        <ele>5.42</ele>
        <time>2023-09-03T17:48:43Z</time>
      </trkpt>
      <trkpt lat="50.937446001917124" lon="1.865722965449095">
        <ele>5.42</ele>
        <time>2023-09-03T17:48:44Z</time>
      </trkpt>
      <trkpt lat="50.937446001917124" lon="1.865722965449095">
        <ele>5.42</ele>
        <time>2023-09-03T17:48:45Z</time>
      </trkpt>
      <trkpt lat="50.937403002753854" lon="1.865794965997338">
        <ele>5.42</ele>
        <time>2023-09-03T17:48:46Z</time>
      </trkpt>
      <trkpt lat="50.937380958348513" lon="1.865895967930555">
        <ele>5.42</ele>
        <time>2023-09-03T17:48:47Z</time>
      </trkpt>
      <trkpt lat="50.937390010803938" lon="1.865999987348914">
        <ele>5.42</ele>
        <time>2023-09-03T17:48:48Z</time>
      </trkpt>
      <trkpt lat="50.937422029674053" lon="1.866101995110512">
        <ele>5.42</ele>
        <time>2023-09-03T17:48:49Z</time>
      </trkpt>
      <trkpt lat="50.937477014958858" lon="1.866143988445401">
        <ele>5.42</ele>
        <time>2023-09-03T17:48:50Z</time>
      </trkpt>
      <trkpt lat="50.937538035213947" lon="1.86614197678864">
        <ele>4.94</ele>
        <time>2023-09-03T17:48:51Z</time>
      </trkpt>
      <trkpt lat="50.937596037983894" lon="1.866130996495485">
        <ele>4.94</ele>
        <time>2023-09-03T17:48:52Z</time>
      </trkpt>
      <trkpt lat="50.937596037983894" lon="1.866130996495485">
        <ele>4.94</ele>
        <time>2023-09-03T17:48:53Z</time>
      </trkpt>
      <trkpt lat="50.937755964696407" lon="1.865945002064109">
        <ele>4.94</ele>
        <time>2023-09-03T17:48:54Z</time>
      </trkpt>
      <trkpt lat="50.937853027135134" lon="1.865951959043741">
        <ele>4.94</ele>
        <time>2023-09-03T17:48:55Z</time>
      </trkpt>
      <trkpt lat="50.93795201741159" lon="1.865960005670786">
        <ele>5.42</ele>
        <time>2023-09-03T17:48:56Z</time>
      </trkpt>
      <trkpt lat="50.938862040638924" lon="1.865980960428715">
        <ele>4.94</ele>
        <time>2023-09-03T17:49:05Z</time>
      </trkpt>
      <trkpt lat="50.93900403007865" lon="1.865980960428715">
        <ele>4.46</ele>
        <time>2023-09-03T17:49:10Z</time>
      </trkpt>
      <trkpt lat="50.939097991213202" lon="1.866152035072446">
        <ele>3.98</ele>
        <time>2023-09-03T17:49:11Z</time>
      </trkpt>
      <trkpt lat="50.939097991213202" lon="1.866152035072446">
        <ele>3.98</ele>
        <time>2023-09-03T17:49:12Z</time>
      </trkpt>
      <trkpt lat="50.939151970669627" lon="1.866163015365601">
        <ele>3.98</ele>
        <time>2023-09-03T17:49:13Z</time>
      </trkpt>
      <trkpt lat="50.939207961782813" lon="1.866169972345233">
        <ele>3.5</ele>
        <time>2023-09-03T17:49:14Z</time>
      </trkpt>
      <trkpt lat="50.939252972602844" lon="1.866110041737557">
        <ele>3.5</ele>
        <time>2023-09-03T17:49:15Z</time>
      </trkpt>
      <trkpt lat="50.939269987866282" lon="1.866029994562268">
        <ele>3.02</ele>
        <time>2023-09-03T17:49:16Z</time>
      </trkpt>
      <trkpt lat="50.939269987866282" lon="1.865953970700502">
        <ele>2.54</ele>
        <time>2023-09-03T17:49:17Z</time>
      </trkpt>
      <trkpt lat="50.939397979527712" lon="1.865787003189325">
        <ele>1.58</ele>
        <time>2023-09-03T17:49:21Z</time>
      </trkpt>
      <trkpt lat="50.939440978690982" lon="1.865745009854436">
        <ele>1.58</ele>
        <time>2023-09-03T17:49:22Z</time>
      </trkpt>
      <trkpt lat="50.939483977854252" lon="1.865750961005688">
        <ele>1.1</ele>
        <time>2023-09-03T17:49:23Z</time>
      </trkpt>
      <trkpt lat="50.940208006650209" lon="1.865838970988989">
        <ele>2.06</ele>
        <time>2023-09-03T17:49:33Z</time>
      </trkpt>
      <trkpt lat="50.940479999408126" lon="1.865868978202343">
        <ele>4.94</ele>
        <time>2023-09-03T17:49:37Z</time>
      </trkpt>
      <trkpt lat="50.94057303853333" lon="1.865879958495498">
        <ele>6.39</ele>
        <time>2023-09-03T17:49:39Z</time>
      </trkpt>
      <trkpt lat="50.940706981346011" lon="1.865894962102175">
        <ele>8.310000000000001</ele>
        <time>2023-09-03T17:49:42Z</time>
      </trkpt>
      <trkpt lat="50.941394967958331" lon="1.865957994014025">
        <ele>11.67</ele>
        <time>2023-09-03T17:49:52Z</time>
      </trkpt>
      <trkpt lat="50.941882962360978" lon="1.866003004834056">
        <ele>12.15</ele>
        <time>2023-09-03T17:49:59Z</time>
      </trkpt>
      <trkpt lat="50.941956974565983" lon="1.866009961813688">
        <ele>12.15</ele>
        <time>2023-09-03T17:50:00Z</time>
      </trkpt>
      <trkpt lat="50.942031992599368" lon="1.866017002612352">
        <ele>11.67</ele>
        <time>2023-09-03T17:50:01Z</time>
      </trkpt>
      <trkpt lat="50.942213041707873" lon="1.86603301204741">
        <ele>11.19</ele>
        <time>2023-09-03T17:50:04Z</time>
      </trkpt>
      <trkpt lat="50.942246988415718" lon="1.866036029532552">
        <ele>11.19</ele>
        <time>2023-09-03T17:50:05Z</time>
      </trkpt>
      <trkpt lat="50.942278001457453" lon="1.866038963198662">
        <ele>10.710000000000001</ele>
        <time>2023-09-03T17:50:06Z</time>
      </trkpt>
      <trkpt lat="50.942312031984329" lon="1.866042986512184">
        <ele>10.710000000000001</ele>
        <time>2023-09-03T17:50:07Z</time>
      </trkpt>
      <trkpt lat="50.942331980913877" lon="1.866181958466768">
        <ele>10.23</ele>
        <time>2023-09-03T17:50:08Z</time>
      </trkpt>
      <trkpt lat="50.942329969257116" lon="1.866244990378618">
        <ele>9.75</ele>
        <time>2023-09-03T17:50:09Z</time>
      </trkpt>
      <trkpt lat="50.942326029762626" lon="1.866322020068765">
        <ele>9.75</ele>
        <time>2023-09-03T17:50:10Z</time>
      </trkpt>
      <trkpt lat="50.942323012277484" lon="1.866407012566924">
        <ele>9.75</ele>
        <time>2023-09-03T17:50:11Z</time>
      </trkpt>
      <trkpt lat="50.942318988963962" lon="1.866493010893464">
        <ele>9.27</ele>
        <time>2023-09-03T17:50:12Z</time>
      </trkpt>
      <trkpt lat="50.942311026155949" lon="1.866691997274756">
        <ele>9.27</ele>
        <time>2023-09-03T17:50:14Z</time>
      </trkpt>
      <trkpt lat="50.942307002842426" lon="1.866790987551212">
        <ele>9.27</ele>
        <time>2023-09-03T17:50:15Z</time>
      </trkpt>
      <trkpt lat="50.942301973700523" lon="1.866888971999288">
        <ele>8.789999999999999</ele>
        <time>2023-09-03T17:50:16Z</time>
      </trkpt>
      <trkpt lat="50.942298034206033" lon="1.866985028609633">
        <ele>8.789999999999999</ele>
        <time>2023-09-03T17:50:17Z</time>
      </trkpt>
      <trkpt lat="50.94229401089251" lon="1.867079995572567">
        <ele>8.789999999999999</ele>
        <time>2023-09-03T17:50:18Z</time>
      </trkpt>
      <trkpt lat="50.942289987578988" lon="1.867178985849023">
        <ele>8.310000000000001</ele>
        <time>2023-09-03T17:50:19Z</time>
      </trkpt>
      <trkpt lat="50.942285964265466" lon="1.86727998778224">
        <ele>8.310000000000001</ele>
        <time>2023-09-03T17:50:20Z</time>
      </trkpt>
      <trkpt lat="50.942270960658789" lon="1.867639990523458">
        <ele>6.87</ele>
        <time>2023-09-03T17:50:24Z</time>
      </trkpt>
      <trkpt lat="50.942268026992679" lon="1.867718026041985">
        <ele>6.39</ele>
        <time>2023-09-03T17:50:25Z</time>
      </trkpt>
      <trkpt lat="50.942258974537253" lon="1.86792598105967">
        <ele>4.46</ele>
        <time>2023-09-03T17:50:29Z</time>
      </trkpt>
      <trkpt lat="50.942257968708873" lon="1.867947019636631">
        <ele>3.98</ele>
        <time>2023-09-03T17:50:30Z</time>
      </trkpt>
      <trkpt lat="50.942311026155949" lon="1.867991024628282">
        <ele>3.98</ele>
        <time>2023-09-03T17:50:31Z</time>
      </trkpt>
      <trkpt lat="50.942321000620723" lon="1.867975015193224">
        <ele>3.98</ele>
        <time>2023-09-03T17:50:32Z</time>
      </trkpt>
      <trkpt lat="50.942345978692174" lon="1.867935033515096">
        <ele>3.98</ele>
        <time>2023-09-03T17:50:33Z</time>
      </trkpt>
      <trkpt lat="50.942381015047431" lon="1.867879964411259">
        <ele>3.5</ele>
        <time>2023-09-03T17:50:34Z</time>
      </trkpt>
      <trkpt lat="50.942409010604024" lon="1.867835959419608">
        <ele>3.5</ele>
        <time>2023-09-03T17:50:35Z</time>
      </trkpt>
      <trkpt lat="50.942430971190333" lon="1.867802012711763">
        <ele>3.5</ele>
        <time>2023-09-03T17:50:36Z</time>
      </trkpt>
      <trkpt lat="50.942447986453772" lon="1.867775022983551">
        <ele>3.5</ele>
        <time>2023-09-03T17:50:37Z</time>
      </trkpt>
      <trkpt lat="50.942462990060449" lon="1.867749961093068">
        <ele>3.5</ele>
        <time>2023-09-03T17:50:38Z</time>
      </trkpt>
      <trkpt lat="50.942477993667126" lon="1.867726994678378">
        <ele>3.5</ele>
        <time>2023-09-03T17:50:39Z</time>
      </trkpt>
      <trkpt lat="50.942489979788661" lon="1.867708973586559">
        <ele>3.5</ele>
        <time>2023-09-03T17:50:40Z</time>
      </trkpt>
      <trkpt lat="50.942502971738577" lon="1.86768801882863">
        <ele>3.5</ele>
        <time>2023-09-03T17:50:41Z</time>
      </trkpt>
      <trkpt lat="50.942520992830396" lon="1.867659017443657">
        <ele>3.5</ele>
        <time>2023-09-03T17:50:42Z</time>
      </trkpt>
      <trkpt lat="50.942542031407356" lon="1.867626998573542">
        <ele>3.5</ele>
        <time>2023-09-03T17:50:43Z</time>
      </trkpt>
      <trkpt lat="50.942561980336905" lon="1.867593973875046">
        <ele>3.5</ele>
        <time>2023-09-03T17:50:44Z</time>
      </trkpt>
      <trkpt lat="50.942583018913865" lon="1.867562038823962">
        <ele>3.5</ele>
        <time>2023-09-03T17:50:45Z</time>
      </trkpt>
      <trkpt lat="50.942603973671794" lon="1.867529014125466">
        <ele>3.02</ele>
        <time>2023-09-03T17:50:46Z</time>
      </trkpt>
      <trkpt lat="50.942623000591993" lon="1.867499006912112">
        <ele>3.02</ele>
        <time>2023-09-03T17:50:47Z</time>
      </trkpt>
      <trkpt lat="50.942641021683812" lon="1.867471011355519">
        <ele>3.02</ele>
        <time>2023-09-03T17:50:48Z</time>
      </trkpt>
      <trkpt lat="50.942696006968617" lon="1.867384007200599">
        <ele>3.02</ele>
        <time>2023-09-03T17:50:56Z</time>
      </trkpt>
      <trkpt lat="50.94289499334991" lon="1.867069015279412">
        <ele>2.54</ele>
        <time>2023-09-03T17:51:04Z</time>
      </trkpt>
      <trkpt lat="50.942990966141224" lon="1.866917973384261">
        <ele>2.54</ele>
        <time>2023-09-03T17:51:07Z</time>
      </trkpt>
      <trkpt lat="50.943000018596649" lon="1.866904981434345">
        <ele>2.54</ele>
        <time>2023-09-03T17:51:08Z</time>
      </trkpt>
      <trkpt lat="50.943005969747901" lon="1.866894001141191">
        <ele>3.02</ele>
        <time>2023-09-03T17:51:09Z</time>
      </trkpt>
      <trkpt lat="50.943018961697817" lon="1.866873968392611">
        <ele>3.02</ele>
        <time>2023-09-03T17:51:10Z</time>
      </trkpt>
      <trkpt lat="50.943030025810003" lon="1.866856031119824">
        <ele>3.02</ele>
        <time>2023-09-03T17:51:11Z</time>
      </trkpt>
      <trkpt lat="50.943037988618016" lon="1.866843039169908">
        <ele>3.02</ele>
        <time>2023-09-03T17:51:12Z</time>
      </trkpt>
      <trkpt lat="50.943037988618016" lon="1.866843039169908">
        <ele>3.02</ele>
        <time>2023-09-03T17:51:26Z</time>
      </trkpt>
    </trkseg>
  </trk>

</gpx>